﻿<?xml version="1.0" encoding="utf-8"?><gpx creator="Garmin Desktop App" version="1.1" xsi:schemaLocation="http://www.topografix.com/GPX/1/1 http://www.topografix.com/GPX/1/1/gpx.xsd http://www.garmin.com/xmlschemas/WaypointExtension/v1 http://www8.garmin.com/xmlschemas/WaypointExtensionv1.xsd http://www.garmin.com/xmlschemas/TrackPointExtension/v1 http://www.garmin.com/xmlschemas/TrackPointExtensionv1.xsd http://www.garmin.com/xmlschemas/GpxExtensions/v3 http://www8.garmin.com/xmlschemas/GpxExtensionsv3.xsd http://www.garmin.com/xmlschemas/ActivityExtension/v1 http://www8.garmin.com/xmlschemas/ActivityExtensionv1.xsd http://www.garmin.com/xmlschemas/AdventuresExtensions/v1 http://www8.garmin.com/xmlschemas/AdventuresExtensionv1.xsd http://www.garmin.com/xmlschemas/PressureExtension/v1 http://www.garmin.com/xmlschemas/PressureExtensionv1.xsd http://www.garmin.com/xmlschemas/TripExtensions/v1 http://www.garmin.com/xmlschemas/TripExtensionsv1.xsd http://www.garmin.com/xmlschemas/TripMetaDataExtensions/v1 http://www.garmin.com/xmlschemas/TripMetaDataExtensionsv1.xsd http://www.garmin.com/xmlschemas/ViaPointTransportationModeExtensions/v1 http://www.garmin.com/xmlschemas/ViaPointTransportationModeExtensionsv1.xsd http://www.garmin.com/xmlschemas/CreationTimeExtensions/v1 http://www.garmin.com/xmlschemas/CreationTimeExtensionsv1.xsd" xmlns="http://www.topografix.com/GPX/1/1" xmlns:xsi="http://www.w3.org/2001/XMLSchema-instance" xmlns:wptx1="http://www.garmin.com/xmlschemas/WaypointExtension/v1" xmlns:gpxtrx="http://www.garmin.com/xmlschemas/GpxExtensions/v3" xmlns:gpxtpx="http://www.garmin.com/xmlschemas/TrackPointExtension/v1" xmlns:gpxx="http://www.garmin.com/xmlschemas/GpxExtensions/v3" xmlns:trp="http://www.garmin.com/xmlschemas/TripExtensions/v1" xmlns:adv="http://www.garmin.com/xmlschemas/AdventuresExtensions/v1" xmlns:prs="http://www.garmin.com/xmlschemas/PressureExtension/v1" xmlns:tmd="http://www.garmin.com/xmlschemas/TripMetaDataExtensions/v1" xmlns:vptm="http://www.garmin.com/xmlschemas/ViaPointTransportationModeExtensions/v1" xmlns:ctx="http://www.garmin.com/xmlschemas/CreationTimeExtension/v1">

  <metadata>
    <link href="http://www.garmin.com">
      <text>Garmin International</text>
    </link>
    <time>2013-07-22T04:53:25Z</time>
    <bounds maxlat="45.654208716005087" maxlon="7.977763675153256" minlat="45.628779698163271" minlon="7.878813128918409" />
  </metadata>

  <trk>
    <name>fontainemore-oropa2013-06-30</name>
    <extensions>
      <gpxx:TrackExtension>
        <gpxx:DisplayColor>Yellow</gpxx:DisplayColor>
      </gpxx:TrackExtension>
    </extensions>
    <trkseg>
      <trkpt lat="45.640062661841512" lon="7.878956208005548">
        <ele>1454.6099999999999</ele>
        <time>2013-06-30T07:26:39Z</time>
      </trkpt>
      <trkpt lat="45.640074396505952" lon="7.878970038145781">
        <ele>1455.0899999999999</ele>
        <time>2013-06-30T07:26:59Z</time>
      </trkpt>
      <trkpt lat="45.640056123957038" lon="7.878965847194195">
        <ele>1454.6099999999999</ele>
        <time>2013-06-30T07:27:18Z</time>
      </trkpt>
      <trkpt lat="45.640051262453198" lon="7.878969451412559">
        <ele>1455.0899999999999</ele>
        <time>2013-06-30T07:27:40Z</time>
      </trkpt>
      <trkpt lat="45.640014968812466" lon="7.878949418663979">
        <ele>1455.5699999999999</ele>
        <time>2013-06-30T07:27:57Z</time>
      </trkpt>
      <trkpt lat="45.640002563595772" lon="7.878888985142112">
        <ele>1455.5699999999999</ele>
        <time>2013-06-30T07:28:09Z</time>
      </trkpt>
      <trkpt lat="45.640014382079244" lon="7.878855876624584">
        <ele>1455.0899999999999</ele>
        <time>2013-06-30T07:28:16Z</time>
      </trkpt>
      <trkpt lat="45.640051681548357" lon="7.878850931301713">
        <ele>1455.5699999999999</ele>
        <time>2013-06-30T07:28:24Z</time>
      </trkpt>
      <trkpt lat="45.640012035146356" lon="7.878833496943116">
        <ele>1455.0899999999999</ele>
        <time>2013-06-30T07:28:38Z</time>
      </trkpt>
      <trkpt lat="45.640008598566055" lon="7.878859648481011">
        <ele>1455.0899999999999</ele>
        <time>2013-06-30T07:28:50Z</time>
      </trkpt>
      <trkpt lat="45.640008514747024" lon="7.878869706764817">
        <ele>1455.5699999999999</ele>
        <time>2013-06-30T07:28:53Z</time>
      </trkpt>
      <trkpt lat="45.639972556382418" lon="7.878863755613565">
        <ele>1454.6099999999999</ele>
        <time>2013-06-30T07:29:06Z</time>
      </trkpt>
      <trkpt lat="45.640009855851531" lon="7.878842381760478">
        <ele>1454.1300000000001</ele>
        <time>2013-06-30T07:29:40Z</time>
      </trkpt>
      <trkpt lat="45.63998294994235" lon="7.878820924088359">
        <ele>1454.1300000000001</ele>
        <time>2013-06-30T07:30:13Z</time>
      </trkpt>
      <trkpt lat="45.639991834759712" lon="7.878882195800543">
        <ele>1455.0899999999999</ele>
        <time>2013-06-30T07:30:24Z</time>
      </trkpt>
      <trkpt lat="45.640011364594102" lon="7.87885369732976">
        <ele>1455.5699999999999</ele>
        <time>2013-06-30T07:30:41Z</time>
      </trkpt>
      <trkpt lat="45.640007006004453" lon="7.878855373710394">
        <ele>1455.0899999999999</ele>
        <time>2013-06-30T07:30:53Z</time>
      </trkpt>
      <trkpt lat="45.640034917742014" lon="7.878813128918409">
        <ele>1455.0899999999999</ele>
        <time>2013-06-30T07:30:57Z</time>
      </trkpt>
      <trkpt lat="45.64012854360044" lon="7.878964673727751">
        <ele>1455.5699999999999</ele>
        <time>2013-06-30T07:31:12Z</time>
      </trkpt>
      <trkpt lat="45.640142541378736" lon="7.878973223268986">
        <ele>1455.5699999999999</ele>
        <time>2013-06-30T07:31:25Z</time>
      </trkpt>
      <trkpt lat="45.640136506408453" lon="7.878958471119404">
        <ele>1455.5699999999999</ele>
        <time>2013-06-30T07:31:39Z</time>
      </trkpt>
      <trkpt lat="45.640138601884246" lon="7.87892896682024">
        <ele>1455.5699999999999</ele>
        <time>2013-06-30T07:32:04Z</time>
      </trkpt>
      <trkpt lat="45.640124185010791" lon="7.87899442948401">
        <ele>1455.5699999999999</ele>
        <time>2013-06-30T07:32:27Z</time>
      </trkpt>
      <trkpt lat="45.640130639076233" lon="7.878962829709053">
        <ele>1455.5699999999999</ele>
        <time>2013-06-30T07:32:43Z</time>
      </trkpt>
      <trkpt lat="45.64011731185019" lon="7.878968110308051">
        <ele>1455.5699999999999</ele>
        <time>2013-06-30T07:33:00Z</time>
      </trkpt>
      <trkpt lat="45.640149330720305" lon="7.878963416442275">
        <ele>1455.5699999999999</ele>
        <time>2013-06-30T07:33:21Z</time>
      </trkpt>
      <trkpt lat="45.640134494751692" lon="7.878933912143111">
        <ele>1455.0899999999999</ele>
        <time>2013-06-30T07:33:37Z</time>
      </trkpt>
      <trkpt lat="45.6400977820158" lon="7.878963751718402">
        <ele>1454.6099999999999</ele>
        <time>2013-06-30T07:34:09Z</time>
      </trkpt>
      <trkpt lat="45.640149749815464" lon="7.878961823880673">
        <ele>1455.5699999999999</ele>
        <time>2013-06-30T07:34:25Z</time>
      </trkpt>
      <trkpt lat="45.640160981565714" lon="7.87899686023593">
        <ele>1455.5699999999999</ele>
        <time>2013-06-30T07:34:41Z</time>
      </trkpt>
      <trkpt lat="45.640200208872557" lon="7.879085708409548">
        <ele>1456.05</ele>
        <time>2013-06-30T07:35:00Z</time>
      </trkpt>
      <trkpt lat="45.640286961570382" lon="7.879254436120391">
        <ele>1456.53</ele>
        <time>2013-06-30T07:35:14Z</time>
      </trkpt>
      <trkpt lat="45.640357453376055" lon="7.879381841048598">
        <ele>1457.98</ele>
        <time>2013-06-30T07:35:26Z</time>
      </trkpt>
      <trkpt lat="45.640296349301934" lon="7.879469683393836">
        <ele>1459.9000000000001</ele>
        <time>2013-06-30T07:35:38Z</time>
      </trkpt>
      <trkpt lat="45.640232060104609" lon="7.879480998963118">
        <ele>1461.8199999999999</ele>
        <time>2013-06-30T07:35:52Z</time>
      </trkpt>
      <trkpt lat="45.640232563018799" lon="7.879491811618209">
        <ele>1461.8199999999999</ele>
        <time>2013-06-30T07:35:53Z</time>
      </trkpt>
      <trkpt lat="45.640238681808114" lon="7.879557777196169">
        <ele>1463.26</ele>
        <time>2013-06-30T07:36:08Z</time>
      </trkpt>
      <trkpt lat="45.64025410450995" lon="7.879615360870957">
        <ele>1464.23</ele>
        <time>2013-06-30T07:36:20Z</time>
      </trkpt>
      <trkpt lat="45.640186797827482" lon="7.879710327833891">
        <ele>1466.6300000000001</ele>
        <time>2013-06-30T07:36:33Z</time>
      </trkpt>
      <trkpt lat="45.640210350975394" lon="7.879799930378795">
        <ele>1469.99</ele>
        <time>2013-06-30T07:36:47Z</time>
      </trkpt>
      <trkpt lat="45.64025460742414" lon="7.8799101524055">
        <ele>1471.9200000000001</ele>
        <time>2013-06-30T07:37:00Z</time>
      </trkpt>
      <trkpt lat="45.64023507758975" lon="7.87993798032403">
        <ele>1471.9200000000001</ele>
        <time>2013-06-30T07:37:06Z</time>
      </trkpt>
      <trkpt lat="45.64030883833766" lon="7.880033617839217">
        <ele>1473.3599999999999</ele>
        <time>2013-06-30T07:37:20Z</time>
      </trkpt>
      <trkpt lat="45.640350496396422" lon="7.88010997697711">
        <ele>1474.3199999999999</ele>
        <time>2013-06-30T07:37:29Z</time>
      </trkpt>
      <trkpt lat="45.640425933524966" lon="7.880190191790462">
        <ele>1476.24</ele>
        <time>2013-06-30T07:37:42Z</time>
      </trkpt>
      <trkpt lat="45.640485947951674" lon="7.880302593111992">
        <ele>1477.2</ele>
        <time>2013-06-30T07:37:56Z</time>
      </trkpt>
      <trkpt lat="45.640553757548332" lon="7.880432177335024">
        <ele>1478.6500000000001</ele>
        <time>2013-06-30T07:38:10Z</time>
      </trkpt>
      <trkpt lat="45.640622656792402" lon="7.880534017458558">
        <ele>1480.0899999999999</ele>
        <time>2013-06-30T07:38:24Z</time>
      </trkpt>
      <trkpt lat="45.640665739774704" lon="7.880590930581093">
        <ele>1481.53</ele>
        <time>2013-06-30T07:38:32Z</time>
      </trkpt>
      <trkpt lat="45.640722988173366" lon="7.880703918635845">
        <ele>1482.97</ele>
        <time>2013-06-30T07:38:46Z</time>
      </trkpt>
      <trkpt lat="45.640763724222779" lon="7.880839202553034">
        <ele>1484.8900000000001</ele>
        <time>2013-06-30T07:38:59Z</time>
      </trkpt>
      <trkpt lat="45.640766909345984" lon="7.880923356860876">
        <ele>1485.3699999999999</ele>
        <time>2013-06-30T07:39:05Z</time>
      </trkpt>
      <trkpt lat="45.640783002600074" lon="7.881129216402769">
        <ele>1486.8199999999999</ele>
        <time>2013-06-30T07:39:22Z</time>
      </trkpt>
      <trkpt lat="45.640797587111592" lon="7.881286963820458">
        <ele>1488.26</ele>
        <time>2013-06-30T07:39:35Z</time>
      </trkpt>
      <trkpt lat="45.640802029520273" lon="7.881328286603093">
        <ele>1488.26</ele>
        <time>2013-06-30T07:39:39Z</time>
      </trkpt>
      <trkpt lat="45.64081996679306" lon="7.881485363468528">
        <ele>1489.7</ele>
        <time>2013-06-30T07:39:54Z</time>
      </trkpt>
      <trkpt lat="45.640836898237467" lon="7.881651911884546">
        <ele>1491.1400000000001</ele>
        <time>2013-06-30T07:40:09Z</time>
      </trkpt>
      <trkpt lat="45.640861457213759" lon="7.881834469735622">
        <ele>1493.55</ele>
        <time>2013-06-30T07:40:25Z</time>
      </trkpt>
      <trkpt lat="45.640863552689552" lon="7.881955169141293">
        <ele>1494.99</ele>
        <time>2013-06-30T07:40:37Z</time>
      </trkpt>
      <trkpt lat="45.640898589044809" lon="7.882104618474841">
        <ele>1496.9100000000001</ele>
        <time>2013-06-30T07:40:52Z</time>
      </trkpt>
      <trkpt lat="45.640933625400066" lon="7.882218025624752">
        <ele>1499.3099999999999</ele>
        <time>2013-06-30T07:41:06Z</time>
      </trkpt>
      <trkpt lat="45.640998166054487" lon="7.882310142740607">
        <ele>1500.76</ele>
        <time>2013-06-30T07:41:19Z</time>
      </trkpt>
      <trkpt lat="45.64111559651792" lon="7.882351130247116">
        <ele>1502.6800000000001</ele>
        <time>2013-06-30T07:41:35Z</time>
      </trkpt>
      <trkpt lat="45.641178460791707" lon="7.88236353546381">
        <ele>1503.1600000000001</ele>
        <time>2013-06-30T07:41:43Z</time>
      </trkpt>
      <trkpt lat="45.641243504360318" lon="7.882321206852794">
        <ele>1504.5999999999999</ele>
        <time>2013-06-30T07:41:52Z</time>
      </trkpt>
      <trkpt lat="45.641324138268828" lon="7.88220084272325">
        <ele>1505.5599999999999</ele>
        <time>2013-06-30T07:42:05Z</time>
      </trkpt>
      <trkpt lat="45.64140091650188" lon="7.882039658725262">
        <ele>1505.0799999999999</ele>
        <time>2013-06-30T07:42:19Z</time>
      </trkpt>
      <trkpt lat="45.64142094925046" lon="7.881992636248469">
        <ele>1505.5599999999999</ele>
        <time>2013-06-30T07:42:23Z</time>
      </trkpt>
      <trkpt lat="45.641429582610726" lon="7.881967322900891">
        <ele>1505.5599999999999</ele>
        <time>2013-06-30T07:42:25Z</time>
      </trkpt>
      <trkpt lat="45.641525136306882" lon="7.881819801405072">
        <ele>1505.0799999999999</ele>
        <time>2013-06-30T07:42:39Z</time>
      </trkpt>
      <trkpt lat="45.641585402190685" lon="7.881762385368347">
        <ele>1505.0799999999999</ele>
        <time>2013-06-30T07:42:46Z</time>
      </trkpt>
      <trkpt lat="45.641632759943604" lon="7.881732881069183">
        <ele>1504.1199999999999</ele>
        <time>2013-06-30T07:42:51Z</time>
      </trkpt>
      <trkpt lat="45.641749855130911" lon="7.881682673469186">
        <ele>1503.6400000000001</ele>
        <time>2013-06-30T07:43:04Z</time>
      </trkpt>
      <trkpt lat="45.641841972246766" lon="7.881626849994063">
        <ele>1503.6400000000001</ele>
        <time>2013-06-30T07:43:15Z</time>
      </trkpt>
      <trkpt lat="45.641896706074476" lon="7.881585778668523">
        <ele>1503.1600000000001</ele>
        <time>2013-06-30T07:43:22Z</time>
      </trkpt>
      <trkpt lat="45.642016567289829" lon="7.881418308243156">
        <ele>1503.1600000000001</ele>
        <time>2013-06-30T07:43:38Z</time>
      </trkpt>
      <trkpt lat="45.642114300280809" lon="7.881256118416786">
        <ele>1502.2</ele>
        <time>2013-06-30T07:43:53Z</time>
      </trkpt>
      <trkpt lat="45.642209434881806" lon="7.881077332422137">
        <ele>1502.2</ele>
        <time>2013-06-30T07:44:09Z</time>
      </trkpt>
      <trkpt lat="45.642308676615357" lon="7.880935175344348">
        <ele>1501.72</ele>
        <time>2013-06-30T07:44:23Z</time>
      </trkpt>
      <trkpt lat="45.642328038811684" lon="7.88090399466455">
        <ele>1501.72</ele>
        <time>2013-06-30T07:44:26Z</time>
      </trkpt>
      <trkpt lat="45.642461394891143" lon="7.88075496442616">
        <ele>1501.24</ele>
        <time>2013-06-30T07:44:42Z</time>
      </trkpt>
      <trkpt lat="45.642554434016347" lon="7.880626302212477">
        <ele>1500.76</ele>
        <time>2013-06-30T07:44:55Z</time>
      </trkpt>
      <trkpt lat="45.642693741247058" lon="7.880443409085274">
        <ele>1500.76</ele>
        <time>2013-06-30T07:45:13Z</time>
      </trkpt>
      <trkpt lat="45.642760125920177" lon="7.880348358303309">
        <ele>1500.27</ele>
        <time>2013-06-30T07:45:22Z</time>
      </trkpt>
      <trkpt lat="45.642863810062408" lon="7.880223384127021">
        <ele>1499.79</ele>
        <time>2013-06-30T07:45:35Z</time>
      </trkpt>
      <trkpt lat="45.642999177798629" lon="7.880123471841216">
        <ele>1499.3099999999999</ele>
        <time>2013-06-30T07:45:50Z</time>
      </trkpt>
      <trkpt lat="45.643152147531509" lon="7.880081478506327">
        <ele>1498.8299999999999</ele>
        <time>2013-06-30T07:46:05Z</time>
      </trkpt>
      <trkpt lat="45.643314672634006" lon="7.880060272291303">
        <ele>1498.8299999999999</ele>
        <time>2013-06-30T07:46:21Z</time>
      </trkpt>
      <trkpt lat="45.643494296818972" lon="7.880091872066259">
        <ele>1497.8699999999999</ele>
        <time>2013-06-30T07:46:38Z</time>
      </trkpt>
      <trkpt lat="45.643641063943505" lon="7.880182731896639">
        <ele>1497.3900000000001</ele>
        <time>2013-06-30T07:46:53Z</time>
      </trkpt>
      <trkpt lat="45.643780035898089" lon="7.880334779620171">
        <ele>1496.4300000000001</ele>
        <time>2013-06-30T07:47:09Z</time>
      </trkpt>
      <trkpt lat="45.643900986760855" lon="7.880449276417494">
        <ele>1495.95</ele>
        <time>2013-06-30T07:47:24Z</time>
      </trkpt>
      <trkpt lat="45.644062338396907" lon="7.880505938082933">
        <ele>1495.47</ele>
        <time>2013-06-30T07:47:40Z</time>
      </trkpt>
      <trkpt lat="45.644215727224946" lon="7.880491688847542">
        <ele>1494.99</ele>
        <time>2013-06-30T07:47:55Z</time>
      </trkpt>
      <trkpt lat="45.644390992820263" lon="7.880488000810146">
        <ele>1494.51</ele>
        <time>2013-06-30T07:48:12Z</time>
      </trkpt>
      <trkpt lat="45.644537005573511" lon="7.880539298057556">
        <ele>1494.51</ele>
        <time>2013-06-30T07:48:25Z</time>
      </trkpt>
      <trkpt lat="45.644684694707394" lon="7.880623117089272">
        <ele>1493.55</ele>
        <time>2013-06-30T07:48:39Z</time>
      </trkpt>
      <trkpt lat="45.644850321114063" lon="7.880693022161722">
        <ele>1493.0599999999999</ele>
        <time>2013-06-30T07:48:54Z</time>
      </trkpt>
      <trkpt lat="45.644989712163806" lon="7.880717413499951">
        <ele>1492.5799999999999</ele>
        <time>2013-06-30T07:49:06Z</time>
      </trkpt>
      <trkpt lat="45.645035644993186" lon="7.880706852301955">
        <ele>1492.5799999999999</ele>
        <time>2013-06-30T07:49:10Z</time>
      </trkpt>
      <trkpt lat="45.645204372704029" lon="7.880597719922662">
        <ele>1492.5799999999999</ele>
        <time>2013-06-30T07:49:27Z</time>
      </trkpt>
      <trkpt lat="45.645369160920382" lon="7.880455814301968">
        <ele>1492.0999999999999</ele>
        <time>2013-06-30T07:49:43Z</time>
      </trkpt>
      <trkpt lat="45.645501092076302" lon="7.880331007763743">
        <ele>1492.0999999999999</ele>
        <time>2013-06-30T07:49:57Z</time>
      </trkpt>
      <trkpt lat="45.645591113716364" lon="7.880182564258575">
        <ele>1491.6199999999999</ele>
        <time>2013-06-30T07:50:09Z</time>
      </trkpt>
      <trkpt lat="45.645688511431217" lon="7.880131350830197">
        <ele>1491.1400000000001</ele>
        <time>2013-06-30T07:50:19Z</time>
      </trkpt>
      <trkpt lat="45.645881211385131" lon="7.880214918404818">
        <ele>1490.6600000000001</ele>
        <time>2013-06-30T07:50:37Z</time>
      </trkpt>
      <trkpt lat="45.646068882197142" lon="7.880358248949051">
        <ele>1489.22</ele>
        <time>2013-06-30T07:50:55Z</time>
      </trkpt>
      <trkpt lat="45.646079778671265" lon="7.880369396880269">
        <ele>1489.22</ele>
        <time>2013-06-30T07:50:56Z</time>
      </trkpt>
      <trkpt lat="45.646158317103982" lon="7.880458580330014">
        <ele>1489.22</ele>
        <time>2013-06-30T07:51:04Z</time>
      </trkpt>
      <trkpt lat="45.646294606849551" lon="7.880681874230504">
        <ele>1487.78</ele>
        <time>2013-06-30T07:51:22Z</time>
      </trkpt>
      <trkpt lat="45.646369624882936" lon="7.880862839519978">
        <ele>1487.3</ele>
        <time>2013-06-30T07:51:34Z</time>
      </trkpt>
      <trkpt lat="45.646499628201127" lon="7.881019916385412">
        <ele>1487.3</ele>
        <time>2013-06-30T07:51:50Z</time>
      </trkpt>
      <trkpt lat="45.646671373397112" lon="7.880964763462544">
        <ele>1486.8199999999999</ele>
        <time>2013-06-30T07:52:06Z</time>
      </trkpt>
      <trkpt lat="45.646845633164048" lon="7.880865018814802">
        <ele>1486.3399999999999</ele>
        <time>2013-06-30T07:52:22Z</time>
      </trkpt>
      <trkpt lat="45.64700648188591" lon="7.880829982459545">
        <ele>1484.8900000000001</ele>
        <time>2013-06-30T07:52:37Z</time>
      </trkpt>
      <trkpt lat="45.647191889584064" lon="7.880839873105288">
        <ele>1484.4100000000001</ele>
        <time>2013-06-30T07:52:53Z</time>
      </trkpt>
      <trkpt lat="45.647362880408764" lon="7.880877340212464">
        <ele>1483.45</ele>
        <time>2013-06-30T07:53:08Z</time>
      </trkpt>
      <trkpt lat="45.647539738565683" lon="7.881014300510287">
        <ele>1482.49</ele>
        <time>2013-06-30T07:53:25Z</time>
      </trkpt>
      <trkpt lat="45.647690445184708" lon="7.881164168938994">
        <ele>1482.01</ele>
        <time>2013-06-30T07:53:41Z</time>
      </trkpt>
      <trkpt lat="45.64781273715198" lon="7.881003823131323">
        <ele>1482.01</ele>
        <time>2013-06-30T07:53:57Z</time>
      </trkpt>
      <trkpt lat="45.647965287789702" lon="7.880812715739012">
        <ele>1481.05</ele>
        <time>2013-06-30T07:54:15Z</time>
      </trkpt>
      <trkpt lat="45.648162262514234" lon="7.880746917799115">
        <ele>1479.1300000000001</ele>
        <time>2013-06-30T07:54:33Z</time>
      </trkpt>
      <trkpt lat="45.648234095424414" lon="7.880737530067563">
        <ele>1478.6500000000001</ele>
        <time>2013-06-30T07:54:39Z</time>
      </trkpt>
      <trkpt lat="45.648443726822734" lon="7.880856553092599">
        <ele>1477.6800000000001</ele>
        <time>2013-06-30T07:54:59Z</time>
      </trkpt>
      <trkpt lat="45.648506172001362" lon="7.880929727107287">
        <ele>1477.6800000000001</ele>
        <time>2013-06-30T07:55:06Z</time>
      </trkpt>
      <trkpt lat="45.648527797311544" lon="7.881000638008118">
        <ele>1477.2</ele>
        <time>2013-06-30T07:55:11Z</time>
      </trkpt>
      <trkpt lat="45.648516649380326" lon="7.881210772320628">
        <ele>1476.72</ele>
        <time>2013-06-30T07:55:24Z</time>
      </trkpt>
      <trkpt lat="45.648502316325903" lon="7.88138528354466">
        <ele>1475.76</ele>
        <time>2013-06-30T07:55:34Z</time>
      </trkpt>
      <trkpt lat="45.648510279133916" lon="7.881436077877879">
        <ele>1475.76</ele>
        <time>2013-06-30T07:55:37Z</time>
      </trkpt>
      <trkpt lat="45.648591667413712" lon="7.881645457819104">
        <ele>1475.76</ele>
        <time>2013-06-30T07:55:50Z</time>
      </trkpt>
      <trkpt lat="45.64870297908783" lon="7.881797170266509">
        <ele>1475.28</ele>
        <time>2013-06-30T07:56:03Z</time>
      </trkpt>
      <trkpt lat="45.648777661845088" lon="7.881929185241461">
        <ele>1474.3199999999999</ele>
        <time>2013-06-30T07:56:14Z</time>
      </trkpt>
      <trkpt lat="45.648810938000679" lon="7.881978638470173">
        <ele>1473.8399999999999</ele>
        <time>2013-06-30T07:56:18Z</time>
      </trkpt>
      <trkpt lat="45.648905821144581" lon="7.882113084197044">
        <ele>1472.4000000000001</ele>
        <time>2013-06-30T07:56:30Z</time>
      </trkpt>
      <trkpt lat="45.649002380669117" lon="7.88227703422308">
        <ele>1472.4000000000001</ele>
        <time>2013-06-30T07:56:44Z</time>
      </trkpt>
      <trkpt lat="45.649036159738898" lon="7.882379125803709">
        <ele>1472.4000000000001</ele>
        <time>2013-06-30T07:56:51Z</time>
      </trkpt>
      <trkpt lat="45.649061556905508" lon="7.882473673671484">
        <ele>1471.9200000000001</ele>
        <time>2013-06-30T07:56:57Z</time>
      </trkpt>
      <trkpt lat="45.64911587163806" lon="7.882626811042428">
        <ele>1471.9200000000001</ele>
        <time>2013-06-30T07:57:08Z</time>
      </trkpt>
      <trkpt lat="45.64916817471385" lon="7.882724208757281">
        <ele>1471.9200000000001</ele>
        <time>2013-06-30T07:57:15Z</time>
      </trkpt>
      <trkpt lat="45.649231122806668" lon="7.882887739688158">
        <ele>1471.9200000000001</ele>
        <time>2013-06-30T07:57:26Z</time>
      </trkpt>
      <trkpt lat="45.649260878562927" lon="7.883073063567281">
        <ele>1471.4400000000001</ele>
        <time>2013-06-30T07:57:39Z</time>
      </trkpt>
      <trkpt lat="45.649327598512173" lon="7.883260315284133">
        <ele>1471.4400000000001</ele>
        <time>2013-06-30T07:57:53Z</time>
      </trkpt>
      <trkpt lat="45.649337908253074" lon="7.883307337760925">
        <ele>1471.4400000000001</ele>
        <time>2013-06-30T07:57:56Z</time>
      </trkpt>
      <trkpt lat="45.649326927959919" lon="7.883506491780281">
        <ele>1471.4400000000001</ele>
        <time>2013-06-30T07:58:08Z</time>
      </trkpt>
      <trkpt lat="45.649388451129198" lon="7.883718218654394">
        <ele>1469.99</ele>
        <time>2013-06-30T07:58:23Z</time>
      </trkpt>
      <trkpt lat="45.649508396163583" lon="7.883829362690449">
        <ele>1469.51</ele>
        <time>2013-06-30T07:58:36Z</time>
      </trkpt>
      <trkpt lat="45.64952733926475" lon="7.883839840069413">
        <ele>1469.03</ele>
        <time>2013-06-30T07:58:38Z</time>
      </trkpt>
      <trkpt lat="45.64961333759129" lon="7.883888706564903">
        <ele>1468.55</ele>
        <time>2013-06-30T07:58:48Z</time>
      </trkpt>
      <trkpt lat="45.649670921266079" lon="7.88390907458961">
        <ele>1468.55</ele>
        <time>2013-06-30T07:58:53Z</time>
      </trkpt>
      <trkpt lat="45.649809641763568" lon="7.884007813408971">
        <ele>1466.6300000000001</ele>
        <time>2013-06-30T07:59:07Z</time>
      </trkpt>
      <trkpt lat="45.650015082210302" lon="7.884049974381924">
        <ele>1465.1900000000001</ele>
        <time>2013-06-30T07:59:25Z</time>
      </trkpt>
      <trkpt lat="45.650209039449692" lon="7.884080233052373">
        <ele>1464.23</ele>
        <time>2013-06-30T07:59:41Z</time>
      </trkpt>
      <trkpt lat="45.650381371378899" lon="7.884131195023656">
        <ele>1462.3</ele>
        <time>2013-06-30T07:59:57Z</time>
      </trkpt>
      <trkpt lat="45.650447253137827" lon="7.884131362661719">
        <ele>1462.3</ele>
        <time>2013-06-30T08:00:04Z</time>
      </trkpt>
      <trkpt lat="45.650611286982894" lon="7.884080400690436">
        <ele>1460.8599999999999</ele>
        <time>2013-06-30T08:00:19Z</time>
      </trkpt>
      <trkpt lat="45.650763418525457" lon="7.884108060970902">
        <ele>1458.9400000000001</ele>
        <time>2013-06-30T08:00:32Z</time>
      </trkpt>
      <trkpt lat="45.650785462930799" lon="7.884119711816311">
        <ele>1457.98</ele>
        <time>2013-06-30T08:00:34Z</time>
      </trkpt>
      <trkpt lat="45.650945222005248" lon="7.884209817275405">
        <ele>1455.0899999999999</ele>
        <time>2013-06-30T08:00:49Z</time>
      </trkpt>
      <trkpt lat="45.651109255850315" lon="7.884248038753867">
        <ele>1452.21</ele>
        <time>2013-06-30T08:01:04Z</time>
      </trkpt>
      <trkpt lat="45.651282425969839" lon="7.884167656302452">
        <ele>1449.8099999999999</ele>
        <time>2013-06-30T08:01:20Z</time>
      </trkpt>
      <trkpt lat="45.651328861713409" lon="7.884111916646361">
        <ele>1448.3599999999999</ele>
        <time>2013-06-30T08:01:25Z</time>
      </trkpt>
      <trkpt lat="45.651350235566497" lon="7.884075958281755">
        <ele>1447.8800000000001</ele>
        <time>2013-06-30T08:01:28Z</time>
      </trkpt>
      <trkpt lat="45.65146716311574" lon="7.883904799818993">
        <ele>1445.48</ele>
        <time>2013-06-30T08:01:44Z</time>
      </trkpt>
      <trkpt lat="45.651599681004882" lon="7.883735233917832">
        <ele>1442.5999999999999</ele>
        <time>2013-06-30T08:02:00Z</time>
      </trkpt>
      <trkpt lat="45.651734881103039" lon="7.883577151224017">
        <ele>1440.6700000000001</ele>
        <time>2013-06-30T08:02:14Z</time>
      </trkpt>
      <trkpt lat="45.651773773133755" lon="7.883512694388628">
        <ele>1439.71</ele>
        <time>2013-06-30T08:02:20Z</time>
      </trkpt>
      <trkpt lat="45.65178575925529" lon="7.883484698832035">
        <ele>1439.23</ele>
        <time>2013-06-30T08:02:22Z</time>
      </trkpt>
      <trkpt lat="45.651895059272647" lon="7.883307421579957">
        <ele>1438.27</ele>
        <time>2013-06-30T08:02:36Z</time>
      </trkpt>
      <trkpt lat="45.652000335976481" lon="7.883229218423367">
        <ele>1436.3499999999999</ele>
        <time>2013-06-30T08:02:47Z</time>
      </trkpt>
      <trkpt lat="45.652087843045592" lon="7.883278504014015">
        <ele>1435.3900000000001</ele>
        <time>2013-06-30T08:02:55Z</time>
      </trkpt>
      <trkpt lat="45.652209045365453" lon="7.8835020493716">
        <ele>1432.5</ele>
        <time>2013-06-30T08:03:10Z</time>
      </trkpt>
      <trkpt lat="45.652326811105013" lon="7.883704220876098">
        <ele>1431.54</ele>
        <time>2013-06-30T08:03:26Z</time>
      </trkpt>
      <trkpt lat="45.652376431971788" lon="7.883881665766239">
        <ele>1429.1400000000001</ele>
        <time>2013-06-30T08:03:38Z</time>
      </trkpt>
      <trkpt lat="45.652438709512353" lon="7.884144354611635">
        <ele>1427.21</ele>
        <time>2013-06-30T08:03:55Z</time>
      </trkpt>
      <trkpt lat="45.652471734210849" lon="7.884306879714131">
        <ele>1426.73</ele>
        <time>2013-06-30T08:04:06Z</time>
      </trkpt>
      <trkpt lat="45.652543902397156" lon="7.88453453220427">
        <ele>1426.25</ele>
        <time>2013-06-30T08:04:21Z</time>
      </trkpt>
      <trkpt lat="45.652617998421192" lon="7.8846849873662">
        <ele>1425.77</ele>
        <time>2013-06-30T08:04:32Z</time>
      </trkpt>
      <trkpt lat="45.652763759717345" lon="7.884864276275039">
        <ele>1426.25</ele>
        <time>2013-06-30T08:04:47Z</time>
      </trkpt>
      <trkpt lat="45.652799047529697" lon="7.884957734495401">
        <ele>1425.77</ele>
        <time>2013-06-30T08:04:53Z</time>
      </trkpt>
      <trkpt lat="45.652857553213835" lon="7.885105423629284">
        <ele>1424.8099999999999</ele>
        <time>2013-06-30T08:05:03Z</time>
      </trkpt>
      <trkpt lat="45.652885884046555" lon="7.885207096114755">
        <ele>1424.3299999999999</ele>
        <time>2013-06-30T08:05:10Z</time>
      </trkpt>
      <trkpt lat="45.652964590117335" lon="7.885466599836946">
        <ele>1422.4100000000001</ele>
        <time>2013-06-30T08:05:26Z</time>
      </trkpt>
      <trkpt lat="45.65299510024488" lon="7.885641194880009">
        <ele>1421.45</ele>
        <time>2013-06-30T08:05:37Z</time>
      </trkpt>
      <trkpt lat="45.653036506846547" lon="7.885892651975155">
        <ele>1420.49</ele>
        <time>2013-06-30T08:05:52Z</time>
      </trkpt>
      <trkpt lat="45.653061149641871" lon="7.886134386062622">
        <ele>1418.5599999999999</ele>
        <time>2013-06-30T08:06:05Z</time>
      </trkpt>
      <trkpt lat="45.653065592050552" lon="7.886147545650601">
        <ele>1418.5599999999999</ele>
        <time>2013-06-30T08:06:06Z</time>
      </trkpt>
      <trkpt lat="45.653083613142371" lon="7.886258773505688">
        <ele>1418.0799999999999</ele>
        <time>2013-06-30T08:06:16Z</time>
      </trkpt>
      <trkpt lat="45.653085289523005" lon="7.886284170672298">
        <ele>1418.0799999999999</ele>
        <time>2013-06-30T08:06:18Z</time>
      </trkpt>
      <trkpt lat="45.653091240674257" lon="7.88633655756712">
        <ele>1417.1199999999999</ele>
        <time>2013-06-30T08:06:22Z</time>
      </trkpt>
      <trkpt lat="45.653135161846876" lon="7.886416101828218">
        <ele>1418.0799999999999</ele>
        <time>2013-06-30T08:06:28Z</time>
      </trkpt>
      <trkpt lat="45.653103729709983" lon="7.886429261416197">
        <ele>1418.0799999999999</ele>
        <time>2013-06-30T08:06:41Z</time>
      </trkpt>
      <trkpt lat="45.65308453515172" lon="7.886422220617533">
        <ele>1417.5999999999999</ele>
        <time>2013-06-30T08:06:55Z</time>
      </trkpt>
      <trkpt lat="45.653081936761737" lon="7.886409983038902">
        <ele>1417.5999999999999</ele>
        <time>2013-06-30T08:07:11Z</time>
      </trkpt>
      <trkpt lat="45.65307330340147" lon="7.886409312486649">
        <ele>1418.0799999999999</ele>
        <time>2013-06-30T08:07:29Z</time>
      </trkpt>
      <trkpt lat="45.653084870427847" lon="7.886419203132391">
        <ele>1418.5599999999999</ele>
        <time>2013-06-30T08:07:48Z</time>
      </trkpt>
      <trkpt lat="45.653068274259567" lon="7.886447031050921">
        <ele>1418.5599999999999</ele>
        <time>2013-06-30T08:08:00Z</time>
      </trkpt>
      <trkpt lat="45.653083948418498" lon="7.886453904211521">
        <ele>1419.04</ele>
        <time>2013-06-30T08:08:15Z</time>
      </trkpt>
      <trkpt lat="45.6530752312392" lon="7.886434039101005">
        <ele>1419.04</ele>
        <time>2013-06-30T08:08:33Z</time>
      </trkpt>
      <trkpt lat="45.653080344200134" lon="7.886507296934724">
        <ele>1419.04</ele>
        <time>2013-06-30T08:08:44Z</time>
      </trkpt>
      <trkpt lat="45.653078081086278" lon="7.886533280834556">
        <ele>1419.52</ele>
        <time>2013-06-30T08:08:46Z</time>
      </trkpt>
      <trkpt lat="45.653064670041203" lon="7.886691279709339">
        <ele>1420</ele>
        <time>2013-06-30T08:08:58Z</time>
      </trkpt>
      <trkpt lat="45.653061233460903" lon="7.886708546429873">
        <ele>1420.49</ele>
        <time>2013-06-30T08:08:59Z</time>
      </trkpt>
      <trkpt lat="45.653052348643541" lon="7.886792281642556">
        <ele>1420.97</ele>
        <time>2013-06-30T08:09:04Z</time>
      </trkpt>
      <trkpt lat="45.653060562908649" lon="7.886832011863589">
        <ele>1421.45</ele>
        <time>2013-06-30T08:09:07Z</time>
      </trkpt>
      <trkpt lat="45.653074141591787" lon="7.886983640491962">
        <ele>1421.9300000000001</ele>
        <time>2013-06-30T08:09:17Z</time>
      </trkpt>
      <trkpt lat="45.653076153248549" lon="7.887139543890953">
        <ele>1422.4100000000001</ele>
        <time>2013-06-30T08:09:27Z</time>
      </trkpt>
      <trkpt lat="45.653123343363404" lon="7.88735244423151">
        <ele>1423.3699999999999</ele>
        <time>2013-06-30T08:09:43Z</time>
      </trkpt>
      <trkpt lat="45.653142705559731" lon="7.887550927698612">
        <ele>1424.8099999999999</ele>
        <time>2013-06-30T08:09:56Z</time>
      </trkpt>
      <trkpt lat="45.653150668367743" lon="7.887714626267552">
        <ele>1425.29</ele>
        <time>2013-06-30T08:10:07Z</time>
      </trkpt>
      <trkpt lat="45.65319106914103" lon="7.887871786952019">
        <ele>1425.29</ele>
        <time>2013-06-30T08:10:18Z</time>
      </trkpt>
      <trkpt lat="45.65319542773068" lon="7.88789676502347">
        <ele>1425.77</ele>
        <time>2013-06-30T08:10:20Z</time>
      </trkpt>
      <trkpt lat="45.653205150738358" lon="7.887924592941999">
        <ele>1425.77</ele>
        <time>2013-06-30T08:10:22Z</time>
      </trkpt>
      <trkpt lat="45.653245383873582" lon="7.88798913359642">
        <ele>1426.25</ele>
        <time>2013-06-30T08:10:27Z</time>
      </trkpt>
      <trkpt lat="45.653259046375751" lon="7.888043783605099">
        <ele>1426.25</ele>
        <time>2013-06-30T08:10:31Z</time>
      </trkpt>
      <trkpt lat="45.653272876515985" lon="7.888077646493912">
        <ele>1426.73</ele>
        <time>2013-06-30T08:10:34Z</time>
      </trkpt>
      <trkpt lat="45.653277905657887" lon="7.888105222955346">
        <ele>1426.73</ele>
        <time>2013-06-30T08:10:36Z</time>
      </trkpt>
      <trkpt lat="45.65334253013134" lon="7.888310914859176">
        <ele>1428.1800000000001</ele>
        <time>2013-06-30T08:10:50Z</time>
      </trkpt>
      <trkpt lat="45.653351498767734" lon="7.888378892093897">
        <ele>1428.1800000000001</ele>
        <time>2013-06-30T08:10:55Z</time>
      </trkpt>
      <trkpt lat="45.653369855135679" lon="7.888597743585706">
        <ele>1428.1800000000001</ele>
        <time>2013-06-30T08:11:09Z</time>
      </trkpt>
      <trkpt lat="45.653364406898618" lon="7.888764124363661">
        <ele>1429.1400000000001</ele>
        <time>2013-06-30T08:11:20Z</time>
      </trkpt>
      <trkpt lat="45.653360048308969" lon="7.888843333348632">
        <ele>1429.1400000000001</ele>
        <time>2013-06-30T08:11:26Z</time>
      </trkpt>
      <trkpt lat="45.653376812115312" lon="7.889054138213396">
        <ele>1429.6199999999999</ele>
        <time>2013-06-30T08:11:39Z</time>
      </trkpt>
      <trkpt lat="45.653399610891938" lon="7.889264356344938">
        <ele>1430.5799999999999</ele>
        <time>2013-06-30T08:11:53Z</time>
      </trkpt>
      <trkpt lat="45.653403885662556" lon="7.889293357729912">
        <ele>1430.5799999999999</ele>
        <time>2013-06-30T08:11:55Z</time>
      </trkpt>
      <trkpt lat="45.653427271172404" lon="7.889503408223391">
        <ele>1431.54</ele>
        <time>2013-06-30T08:12:09Z</time>
      </trkpt>
      <trkpt lat="45.653410088270903" lon="7.889662245288491">
        <ele>1432.5</ele>
        <time>2013-06-30T08:12:20Z</time>
      </trkpt>
      <trkpt lat="45.653413608670235" lon="7.88984639570117">
        <ele>1432.98</ele>
        <time>2013-06-30T08:12:33Z</time>
      </trkpt>
      <trkpt lat="45.65341779962182" lon="7.890021158382297">
        <ele>1433.9400000000001</ele>
        <time>2013-06-30T08:12:45Z</time>
      </trkpt>
      <trkpt lat="45.653419978916645" lon="7.890063906088471">
        <ele>1434.4200000000001</ele>
        <time>2013-06-30T08:12:48Z</time>
      </trkpt>
      <trkpt lat="45.653412519022822" lon="7.89016792550683">
        <ele>1434.4200000000001</ele>
        <time>2013-06-30T08:12:55Z</time>
      </trkpt>
      <trkpt lat="45.65341386012733" lon="7.890211427584291">
        <ele>1434.9100000000001</ele>
        <time>2013-06-30T08:12:58Z</time>
      </trkpt>
      <trkpt lat="45.653389887884259" lon="7.890415275469422">
        <ele>1436.3499999999999</ele>
        <time>2013-06-30T08:13:12Z</time>
      </trkpt>
      <trkpt lat="45.65338502638042" lon="7.890538657084107">
        <ele>1437.3099999999999</ele>
        <time>2013-06-30T08:13:20Z</time>
      </trkpt>
      <trkpt lat="45.653386954218149" lon="7.890570005401969">
        <ele>1437.3099999999999</ele>
        <time>2013-06-30T08:13:22Z</time>
      </trkpt>
      <trkpt lat="45.653391815721989" lon="7.890769075602293">
        <ele>1438.75</ele>
        <time>2013-06-30T08:13:36Z</time>
      </trkpt>
      <trkpt lat="45.653388798236847" lon="7.890877537429333">
        <ele>1439.71</ele>
        <time>2013-06-30T08:13:45Z</time>
      </trkpt>
      <trkpt lat="45.653395755216479" lon="7.890933193266392">
        <ele>1440.1900000000001</ele>
        <time>2013-06-30T08:13:49Z</time>
      </trkpt>
      <trkpt lat="45.653414279222488" lon="7.891120612621307">
        <ele>1441.6300000000001</ele>
        <time>2013-06-30T08:14:03Z</time>
      </trkpt>
      <trkpt lat="45.653452416881919" lon="7.891273917630315">
        <ele>1443.0799999999999</ele>
        <time>2013-06-30T08:14:15Z</time>
      </trkpt>
      <trkpt lat="45.653459457680583" lon="7.891312642022967">
        <ele>1443.0799999999999</ele>
        <time>2013-06-30T08:14:18Z</time>
      </trkpt>
      <trkpt lat="45.65345099195838" lon="7.891471730545163">
        <ele>1444.52</ele>
        <time>2013-06-30T08:14:29Z</time>
      </trkpt>
      <trkpt lat="45.653445711359382" lon="7.891533505171537">
        <ele>1445</ele>
        <time>2013-06-30T08:14:33Z</time>
      </trkpt>
      <trkpt lat="45.653449399396777" lon="7.891566026955843">
        <ele>1444.52</ele>
        <time>2013-06-30T08:14:35Z</time>
      </trkpt>
      <trkpt lat="45.653451830148697" lon="7.891747578978539">
        <ele>1445</ele>
        <time>2013-06-30T08:14:46Z</time>
      </trkpt>
      <trkpt lat="45.653451830148697" lon="7.891869870945811">
        <ele>1445.96</ele>
        <time>2013-06-30T08:14:55Z</time>
      </trkpt>
      <trkpt lat="45.653459206223488" lon="7.892055530101061">
        <ele>1447.4000000000001</ele>
        <time>2013-06-30T08:15:08Z</time>
      </trkpt>
      <trkpt lat="45.653499523177743" lon="7.892217887565494">
        <ele>1448.8399999999999</ele>
        <time>2013-06-30T08:15:19Z</time>
      </trkpt>
      <trkpt lat="45.653546210378408" lon="7.89242978207767">
        <ele>1449.8099999999999</ele>
        <time>2013-06-30T08:15:33Z</time>
      </trkpt>
      <trkpt lat="45.653556939214468" lon="7.892543440684676">
        <ele>1450.29</ele>
        <time>2013-06-30T08:15:41Z</time>
      </trkpt>
      <trkpt lat="45.653562135994434" lon="7.892571855336428">
        <ele>1450.77</ele>
        <time>2013-06-30T08:15:43Z</time>
      </trkpt>
      <trkpt lat="45.653559202328324" lon="7.892595995217562">
        <ele>1450.77</ele>
        <time>2013-06-30T08:15:45Z</time>
      </trkpt>
      <trkpt lat="45.653561549261212" lon="7.892621727660298">
        <ele>1451.25</ele>
        <time>2013-06-30T08:15:47Z</time>
      </trkpt>
      <trkpt lat="45.653533134609461" lon="7.892798166722059">
        <ele>1452.21</ele>
        <time>2013-06-30T08:16:00Z</time>
      </trkpt>
      <trkpt lat="45.653520310297608" lon="7.892842842265964">
        <ele>1452.6900000000001</ele>
        <time>2013-06-30T08:16:03Z</time>
      </trkpt>
      <trkpt lat="45.653513940051198" lon="7.893014922738075">
        <ele>1454.6099999999999</ele>
        <time>2013-06-30T08:16:17Z</time>
      </trkpt>
      <trkpt lat="45.653510671108961" lon="7.893038811162114">
        <ele>1455.0899999999999</ele>
        <time>2013-06-30T08:16:19Z</time>
      </trkpt>
      <trkpt lat="45.653508827090263" lon="7.893087761476636">
        <ele>1455.5699999999999</ele>
        <time>2013-06-30T08:16:22Z</time>
      </trkpt>
      <trkpt lat="45.653471359983087" lon="7.893252884969115">
        <ele>1457.02</ele>
        <time>2013-06-30T08:16:34Z</time>
      </trkpt>
      <trkpt lat="45.653431378304958" lon="7.89338699541986">
        <ele>1458.46</ele>
        <time>2013-06-30T08:16:45Z</time>
      </trkpt>
      <trkpt lat="45.653354516252875" lon="7.893544407561421">
        <ele>1459.9000000000001</ele>
        <time>2013-06-30T08:16:58Z</time>
      </trkpt>
      <trkpt lat="45.653306823223829" lon="7.89374272339046">
        <ele>1460.8599999999999</ele>
        <time>2013-06-30T08:17:11Z</time>
      </trkpt>
      <trkpt lat="45.653379494324327" lon="7.8939288854599">
        <ele>1461.3399999999999</ele>
        <time>2013-06-30T08:17:25Z</time>
      </trkpt>
      <trkpt lat="45.65339089371264" lon="7.893973225727677">
        <ele>1460.8599999999999</ele>
        <time>2013-06-30T08:17:28Z</time>
      </trkpt>
      <trkpt lat="45.653466330841184" lon="7.894151844084263">
        <ele>1461.3399999999999</ele>
        <time>2013-06-30T08:17:43Z</time>
      </trkpt>
      <trkpt lat="45.653543947264552" lon="7.894302131608129">
        <ele>1462.3</ele>
        <time>2013-06-30T08:17:56Z</time>
      </trkpt>
      <trkpt lat="45.653611170127988" lon="7.894462561234832">
        <ele>1463.26</ele>
        <time>2013-06-30T08:18:09Z</time>
      </trkpt>
      <trkpt lat="45.653643775731325" lon="7.894570687785745">
        <ele>1464.23</ele>
        <time>2013-06-30T08:18:17Z</time>
      </trkpt>
      <trkpt lat="45.653653247281909" lon="7.89459491148591">
        <ele>1464.23</ele>
        <time>2013-06-30T08:18:19Z</time>
      </trkpt>
      <trkpt lat="45.653730528429151" lon="7.894764393568039">
        <ele>1465.6700000000001</ele>
        <time>2013-06-30T08:18:33Z</time>
      </trkpt>
      <trkpt lat="45.653765900060534" lon="7.894844859838486">
        <ele>1466.1500000000001</ele>
        <time>2013-06-30T08:18:40Z</time>
      </trkpt>
      <trkpt lat="45.653811246156693" lon="7.894939994439483">
        <ele>1467.1099999999999</ele>
        <time>2013-06-30T08:18:47Z</time>
      </trkpt>
      <trkpt lat="45.653916271403432" lon="7.895095897838473">
        <ele>1469.51</ele>
        <time>2013-06-30T08:19:03Z</time>
      </trkpt>
      <trkpt lat="45.653988271951675" lon="7.895280970260501">
        <ele>1469.99</ele>
        <time>2013-06-30T08:19:17Z</time>
      </trkpt>
      <trkpt lat="45.654043424874544" lon="7.895411141216755">
        <ele>1470.95</ele>
        <time>2013-06-30T08:19:27Z</time>
      </trkpt>
      <trkpt lat="45.654115257784724" lon="7.895640470087528">
        <ele>1470.47</ele>
        <time>2013-06-30T08:19:42Z</time>
      </trkpt>
      <trkpt lat="45.654120957478881" lon="7.895656814798713">
        <ele>1470.95</ele>
        <time>2013-06-30T08:19:43Z</time>
      </trkpt>
      <trkpt lat="45.654137134552002" lon="7.895723786205053">
        <ele>1470.95</ele>
        <time>2013-06-30T08:19:47Z</time>
      </trkpt>
      <trkpt lat="45.654150042682886" lon="7.895815065130591">
        <ele>1471.4400000000001</ele>
        <time>2013-06-30T08:19:53Z</time>
      </trkpt>
      <trkpt lat="45.654177367687225" lon="7.895998461171985">
        <ele>1471.9200000000001</ele>
        <time>2013-06-30T08:20:06Z</time>
      </trkpt>
      <trkpt lat="45.654193125665188" lon="7.896060068160296">
        <ele>1472.4000000000001</ele>
        <time>2013-06-30T08:20:10Z</time>
      </trkpt>
      <trkpt lat="45.654208716005087" lon="7.896247738972306">
        <ele>1472.8800000000001</ele>
        <time>2013-06-30T08:20:24Z</time>
      </trkpt>
      <trkpt lat="45.654208632186055" lon="7.896274058148265">
        <ele>1473.3599999999999</ele>
        <time>2013-06-30T08:20:26Z</time>
      </trkpt>
      <trkpt lat="45.65420251339674" lon="7.896363157778978">
        <ele>1474.3199999999999</ele>
        <time>2013-06-30T08:20:32Z</time>
      </trkpt>
      <trkpt lat="45.654199244454503" lon="7.896397523581982">
        <ele>1474.3199999999999</ele>
        <time>2013-06-30T08:20:35Z</time>
      </trkpt>
      <trkpt lat="45.654177954420447" lon="7.896589636802673">
        <ele>1475.76</ele>
        <time>2013-06-30T08:20:49Z</time>
      </trkpt>
      <trkpt lat="45.65416295081377" lon="7.896663900464773">
        <ele>1476.72</ele>
        <time>2013-06-30T08:20:54Z</time>
      </trkpt>
      <trkpt lat="45.654149455949664" lon="7.896715952083468">
        <ele>1477.2</ele>
        <time>2013-06-30T08:20:59Z</time>
      </trkpt>
      <trkpt lat="45.654128836467862" lon="7.896881494671106">
        <ele>1479.1300000000001</ele>
        <time>2013-06-30T08:21:12Z</time>
      </trkpt>
      <trkpt lat="45.654121376574039" lon="7.897005714476109">
        <ele>1481.05</ele>
        <time>2013-06-30T08:21:23Z</time>
      </trkpt>
      <trkpt lat="45.654122214764357" lon="7.8971684910357">
        <ele>1482.97</ele>
        <time>2013-06-30T08:21:35Z</time>
      </trkpt>
      <trkpt lat="45.65411358140409" lon="7.897230600938201">
        <ele>1483.45</ele>
        <time>2013-06-30T08:21:41Z</time>
      </trkpt>
      <trkpt lat="45.65410771407187" lon="7.897355575114489">
        <ele>1485.3699999999999</ele>
        <time>2013-06-30T08:21:52Z</time>
      </trkpt>
      <trkpt lat="45.654087429866195" lon="7.89748901501298">
        <ele>1487.78</ele>
        <time>2013-06-30T08:22:05Z</time>
      </trkpt>
      <trkpt lat="45.654065888375044" lon="7.89763318374753">
        <ele>1490.1800000000001</ele>
        <time>2013-06-30T08:22:18Z</time>
      </trkpt>
      <trkpt lat="45.654055410996079" lon="7.897740053012967">
        <ele>1491.1400000000001</ele>
        <time>2013-06-30T08:22:28Z</time>
      </trkpt>
      <trkpt lat="45.654056333005428" lon="7.897797971963882">
        <ele>1491.6199999999999</ele>
        <time>2013-06-30T08:22:33Z</time>
      </trkpt>
      <trkpt lat="45.654031271114945" lon="7.89796887896955">
        <ele>1493.0599999999999</ele>
        <time>2013-06-30T08:22:46Z</time>
      </trkpt>
      <trkpt lat="45.654017943888903" lon="7.898101564496756">
        <ele>1494.51</ele>
        <time>2013-06-30T08:22:57Z</time>
      </trkpt>
      <trkpt lat="45.653990535065532" lon="7.89826450869441">
        <ele>1495.95</ele>
        <time>2013-06-30T08:23:10Z</time>
      </trkpt>
      <trkpt lat="45.653961952775717" lon="7.898415550589562">
        <ele>1497.8699999999999</ele>
        <time>2013-06-30T08:23:22Z</time>
      </trkpt>
      <trkpt lat="45.653943093493581" lon="7.898575477302074">
        <ele>1499.3099999999999</ele>
        <time>2013-06-30T08:23:35Z</time>
      </trkpt>
      <trkpt lat="45.653954409062862" lon="7.89868569932878">
        <ele>1501.24</ele>
        <time>2013-06-30T08:23:45Z</time>
      </trkpt>
      <trkpt lat="45.653949631378055" lon="7.898729871958494">
        <ele>1501.24</ele>
        <time>2013-06-30T08:23:49Z</time>
      </trkpt>
      <trkpt lat="45.653938231989741" lon="7.898792484775186">
        <ele>1502.2</ele>
        <time>2013-06-30T08:23:54Z</time>
      </trkpt>
      <trkpt lat="45.653920629993081" lon="7.898919302970171">
        <ele>1503.6400000000001</ele>
        <time>2013-06-30T08:24:05Z</time>
      </trkpt>
      <trkpt lat="45.653898920863867" lon="7.89905215613544">
        <ele>1505.0799999999999</ele>
        <time>2013-06-30T08:24:15Z</time>
      </trkpt>
      <trkpt lat="45.653889952227473" lon="7.899192301556468">
        <ele>1506.52</ele>
        <time>2013-06-30T08:24:27Z</time>
      </trkpt>
      <trkpt lat="45.6538868509233" lon="7.899235719814897">
        <ele>1507</ele>
        <time>2013-06-30T08:24:31Z</time>
      </trkpt>
      <trkpt lat="45.653882492333651" lon="7.899265056475997">
        <ele>1507.48</ele>
        <time>2013-06-30T08:24:33Z</time>
      </trkpt>
      <trkpt lat="45.653890874236822" lon="7.899301601573825">
        <ele>1507.48</ele>
        <time>2013-06-30T08:24:36Z</time>
      </trkpt>
      <trkpt lat="45.6538902875036" lon="7.89939858019352">
        <ele>1508.9300000000001</ele>
        <time>2013-06-30T08:24:44Z</time>
      </trkpt>
      <trkpt lat="45.653877630829811" lon="7.899491786956787">
        <ele>1509.8900000000001</ele>
        <time>2013-06-30T08:24:52Z</time>
      </trkpt>
      <trkpt lat="45.653861286118627" lon="7.899546772241592">
        <ele>1509.8900000000001</ele>
        <time>2013-06-30T08:24:56Z</time>
      </trkpt>
      <trkpt lat="45.653853407129645" lon="7.899586753919721">
        <ele>1510.3699999999999</ele>
        <time>2013-06-30T08:24:59Z</time>
      </trkpt>
      <trkpt lat="45.653811329975724" lon="7.89963654242456">
        <ele>1511.3299999999999</ele>
        <time>2013-06-30T08:25:06Z</time>
      </trkpt>
      <trkpt lat="45.653776293620467" lon="7.899739975109696">
        <ele>1511.8099999999999</ele>
        <time>2013-06-30T08:25:14Z</time>
      </trkpt>
      <trkpt lat="45.653731282800436" lon="7.899869978427887">
        <ele>1512.29</ele>
        <time>2013-06-30T08:25:24Z</time>
      </trkpt>
      <trkpt lat="45.653728181496263" lon="7.899901075288653">
        <ele>1512.77</ele>
        <time>2013-06-30T08:25:26Z</time>
      </trkpt>
      <trkpt lat="45.653668167069554" lon="7.900118418037891">
        <ele>1513.73</ele>
        <time>2013-06-30T08:25:41Z</time>
      </trkpt>
      <trkpt lat="45.65364595502615" lon="7.900185389444232">
        <ele>1514.21</ele>
        <time>2013-06-30T08:25:46Z</time>
      </trkpt>
      <trkpt lat="45.653624413534999" lon="7.900278847664595">
        <ele>1514.6900000000001</ele>
        <time>2013-06-30T08:25:56Z</time>
      </trkpt>
      <trkpt lat="45.653633633628488" lon="7.900293180719018">
        <ele>1514.6900000000001</ele>
        <time>2013-06-30T08:25:58Z</time>
      </trkpt>
      <trkpt lat="45.653635980561376" lon="7.900331486016512">
        <ele>1514.6900000000001</ele>
        <time>2013-06-30T08:26:05Z</time>
      </trkpt>
      <trkpt lat="45.653638327494264" lon="7.900492921471596">
        <ele>1515.1800000000001</ele>
        <time>2013-06-30T08:26:16Z</time>
      </trkpt>
      <trkpt lat="45.653627766296268" lon="7.900659050792456">
        <ele>1516.1400000000001</ele>
        <time>2013-06-30T08:26:27Z</time>
      </trkpt>
      <trkpt lat="45.653609158471227" lon="7.900842195376754">
        <ele>1516.6199999999999</ele>
        <time>2013-06-30T08:26:41Z</time>
      </trkpt>
      <trkpt lat="45.653614522889256" lon="7.900885865092278">
        <ele>1516.6199999999999</ele>
        <time>2013-06-30T08:26:44Z</time>
      </trkpt>
      <trkpt lat="45.653630867600441" lon="7.900922996923327">
        <ele>1516.6199999999999</ele>
        <time>2013-06-30T08:26:58Z</time>
      </trkpt>
      <trkpt lat="45.653633130714297" lon="7.900924170389772">
        <ele>1517.0999999999999</ele>
        <time>2013-06-30T08:27:20Z</time>
      </trkpt>
      <trkpt lat="45.653548808768392" lon="7.900789557024837">
        <ele>1517.0999999999999</ele>
        <time>2013-06-30T08:27:35Z</time>
      </trkpt>
      <trkpt lat="45.653523160144687" lon="7.900818642228842">
        <ele>1517.0999999999999</ele>
        <time>2013-06-30T08:27:47Z</time>
      </trkpt>
      <trkpt lat="45.653525339439511" lon="7.900826521217823">
        <ele>1517.5799999999999</ele>
        <time>2013-06-30T08:28:04Z</time>
      </trkpt>
      <trkpt lat="45.653543276712298" lon="7.900831801816821">
        <ele>1517.5799999999999</ele>
        <time>2013-06-30T08:28:18Z</time>
      </trkpt>
      <trkpt lat="45.653527183458209" lon="7.900841357186437">
        <ele>1518.0599999999999</ele>
        <time>2013-06-30T08:28:35Z</time>
      </trkpt>
      <trkpt lat="45.653507485985756" lon="7.900813780725002">
        <ele>1518.0599999999999</ele>
        <time>2013-06-30T08:28:42Z</time>
      </trkpt>
      <trkpt lat="45.6535052228719" lon="7.900813696905971">
        <ele>1516.1400000000001</ele>
        <time>2013-06-30T08:28:55Z</time>
      </trkpt>
      <trkpt lat="45.653517041355371" lon="7.900812271982431">
        <ele>1516.6199999999999</ele>
        <time>2013-06-30T08:29:24Z</time>
      </trkpt>
      <trkpt lat="45.653522238135338" lon="7.900797016918659">
        <ele>1516.1400000000001</ele>
        <time>2013-06-30T08:29:33Z</time>
      </trkpt>
      <trkpt lat="45.653481082990766" lon="7.900782180950046">
        <ele>1516.1400000000001</ele>
        <time>2013-06-30T08:29:45Z</time>
      </trkpt>
      <trkpt lat="45.653479238972068" lon="7.900802548974752">
        <ele>1517.0999999999999</ele>
        <time>2013-06-30T08:29:58Z</time>
      </trkpt>
      <trkpt lat="45.653548641130328" lon="7.900824593380094">
        <ele>1517.5799999999999</ele>
        <time>2013-06-30T08:30:11Z</time>
      </trkpt>
      <trkpt lat="45.653568925336003" lon="7.900851415470243">
        <ele>1517.0999999999999</ele>
        <time>2013-06-30T08:30:28Z</time>
      </trkpt>
      <trkpt lat="45.653566494584084" lon="7.900834567844868">
        <ele>1517.5799999999999</ele>
        <time>2013-06-30T08:30:45Z</time>
      </trkpt>
      <trkpt lat="45.653554257005453" lon="7.900820234790444">
        <ele>1517.5799999999999</ele>
        <time>2013-06-30T08:30:59Z</time>
      </trkpt>
      <trkpt lat="45.65357169136405" lon="7.900828113779426">
        <ele>1518.0599999999999</ele>
        <time>2013-06-30T08:31:15Z</time>
      </trkpt>
      <trkpt lat="45.65355995669961" lon="7.900839680805802">
        <ele>1518.0599999999999</ele>
        <time>2013-06-30T08:31:35Z</time>
      </trkpt>
      <trkpt lat="45.65356976352632" lon="7.900825683027506">
        <ele>1517.5799999999999</ele>
        <time>2013-06-30T08:31:56Z</time>
      </trkpt>
      <trkpt lat="45.653582504019141" lon="7.900816882029176">
        <ele>1518.0599999999999</ele>
        <time>2013-06-30T08:32:12Z</time>
      </trkpt>
      <trkpt lat="45.65355216152966" lon="7.900851247832179">
        <ele>1518.54</ele>
        <time>2013-06-30T08:32:34Z</time>
      </trkpt>
      <trkpt lat="45.653581079095602" lon="7.900824006646872">
        <ele>1518.54</ele>
        <time>2013-06-30T08:32:53Z</time>
      </trkpt>
      <trkpt lat="45.653572110459208" lon="7.900823755189776">
        <ele>1519.02</ele>
        <time>2013-06-30T08:33:10Z</time>
      </trkpt>
      <trkpt lat="45.653565153479576" lon="7.900835406035185">
        <ele>1518.54</ele>
        <time>2013-06-30T08:33:11Z</time>
      </trkpt>
      <trkpt lat="45.653551742434502" lon="7.90087622590363">
        <ele>1519.02</ele>
        <time>2013-06-30T08:33:14Z</time>
      </trkpt>
      <trkpt lat="45.653529362753034" lon="7.900955434888601">
        <ele>1519.98</ele>
        <time>2013-06-30T08:33:19Z</time>
      </trkpt>
      <trkpt lat="45.653513940051198" lon="7.900980077683926">
        <ele>1520.46</ele>
        <time>2013-06-30T08:33:21Z</time>
      </trkpt>
      <trkpt lat="45.653500277549028" lon="7.90103112347424">
        <ele>1520.9400000000001</ele>
        <time>2013-06-30T08:33:25Z</time>
      </trkpt>
      <trkpt lat="45.653470689430833" lon="7.901191636919975">
        <ele>1522.8699999999999</ele>
        <time>2013-06-30T08:33:36Z</time>
      </trkpt>
      <trkpt lat="45.653461636975408" lon="7.90125735104084">
        <ele>1523.3499999999999</ele>
        <time>2013-06-30T08:33:40Z</time>
      </trkpt>
      <trkpt lat="45.65345736220479" lon="7.901482824236155">
        <ele>1524.79</ele>
        <time>2013-06-30T08:33:55Z</time>
      </trkpt>
      <trkpt lat="45.653463313356042" lon="7.901613162830472">
        <ele>1526.23</ele>
        <time>2013-06-30T08:34:07Z</time>
      </trkpt>
      <trkpt lat="45.653495499864221" lon="7.901746267452836">
        <ele>1527.1900000000001</ele>
        <time>2013-06-30T08:34:20Z</time>
      </trkpt>
      <trkpt lat="45.65352089703083" lon="7.901894543319941">
        <ele>1529.1099999999999</ele>
        <time>2013-06-30T08:34:32Z</time>
      </trkpt>
      <trkpt lat="45.653526177629828" lon="7.902026390656829">
        <ele>1530.5599999999999</ele>
        <time>2013-06-30T08:34:44Z</time>
      </trkpt>
      <trkpt lat="45.653549898415804" lon="7.902167541906238">
        <ele>1532</ele>
        <time>2013-06-30T08:34:57Z</time>
      </trkpt>
      <trkpt lat="45.653553418815136" lon="7.902223700657487">
        <ele>1532.48</ele>
        <time>2013-06-30T08:35:01Z</time>
      </trkpt>
      <trkpt lat="45.653470270335674" lon="7.902318248525262">
        <ele>1533.9200000000001</ele>
        <time>2013-06-30T08:35:13Z</time>
      </trkpt>
      <trkpt lat="45.653414698317647" lon="7.902307687327266">
        <ele>1534.4000000000001</ele>
        <time>2013-06-30T08:35:18Z</time>
      </trkpt>
      <trkpt lat="45.653316797688603" lon="7.902228394523263">
        <ele>1535.8399999999999</ele>
        <time>2013-06-30T08:35:32Z</time>
      </trkpt>
      <trkpt lat="45.653231386095285" lon="7.902188580483198">
        <ele>1537.77</ele>
        <time>2013-06-30T08:35:45Z</time>
      </trkpt>
      <trkpt lat="45.653173802420497" lon="7.90219453163445">
        <ele>1538.73</ele>
        <time>2013-06-30T08:35:51Z</time>
      </trkpt>
      <trkpt lat="45.653149075806141" lon="7.902224957942963">
        <ele>1538.73</ele>
        <time>2013-06-30T08:35:55Z</time>
      </trkpt>
      <trkpt lat="45.653141951188445" lon="7.902249852195382">
        <ele>1539.21</ele>
        <time>2013-06-30T08:35:58Z</time>
      </trkpt>
      <trkpt lat="45.653110602870584" lon="7.902413215488195">
        <ele>1541.6099999999999</ele>
        <time>2013-06-30T08:36:13Z</time>
      </trkpt>
      <trkpt lat="45.653093671426177" lon="7.902488568797708">
        <ele>1543.05</ele>
        <time>2013-06-30T08:36:20Z</time>
      </trkpt>
      <trkpt lat="45.653022760525346" lon="7.902603233233094">
        <ele>1545.46</ele>
        <time>2013-06-30T08:36:35Z</time>
      </trkpt>
      <trkpt lat="45.652947155758739" lon="7.902530310675502">
        <ele>1547.3800000000001</ele>
        <time>2013-06-30T08:36:48Z</time>
      </trkpt>
      <trkpt lat="45.652894685044885" lon="7.902384549379349">
        <ele>1550.26</ele>
        <time>2013-06-30T08:37:03Z</time>
      </trkpt>
      <trkpt lat="45.652870377525687" lon="7.902323612943292">
        <ele>1551.71</ele>
        <time>2013-06-30T08:37:11Z</time>
      </trkpt>
      <trkpt lat="45.652798041701317" lon="7.902345824986696">
        <ele>1552.6700000000001</ele>
        <time>2013-06-30T08:37:22Z</time>
      </trkpt>
      <trkpt lat="45.652774404734373" lon="7.902492424473167">
        <ele>1554.5899999999999</ele>
        <time>2013-06-30T08:37:35Z</time>
      </trkpt>
      <trkpt lat="45.652771135792136" lon="7.902502315118909">
        <ele>1555.0699999999999</ele>
        <time>2013-06-30T08:37:36Z</time>
      </trkpt>
      <trkpt lat="45.652775159105659" lon="7.9025614913553">
        <ele>1555.55</ele>
        <time>2013-06-30T08:37:41Z</time>
      </trkpt>
      <trkpt lat="45.652752192690969" lon="7.902699457481504">
        <ele>1557.47</ele>
        <time>2013-06-30T08:37:55Z</time>
      </trkpt>
      <trkpt lat="45.652702320367098" lon="7.902740361168981">
        <ele>1559.4000000000001</ele>
        <time>2013-06-30T08:38:04Z</time>
      </trkpt>
      <trkpt lat="45.652624117210507" lon="7.90259912610054">
        <ele>1561.8</ele>
        <time>2013-06-30T08:38:18Z</time>
      </trkpt>
      <trkpt lat="45.652598468586802" lon="7.902445234358311">
        <ele>1564.2</ele>
        <time>2013-06-30T08:38:33Z</time>
      </trkpt>
      <trkpt lat="45.652591260150075" lon="7.902412880212069">
        <ele>1564.2</ele>
        <time>2013-06-30T08:38:36Z</time>
      </trkpt>
      <trkpt lat="45.652567120268941" lon="7.90234942920506">
        <ele>1565.6400000000001</ele>
        <time>2013-06-30T08:38:42Z</time>
      </trkpt>
      <trkpt lat="45.652521606534719" lon="7.90234356187284">
        <ele>1566.1199999999999</ele>
        <time>2013-06-30T08:38:48Z</time>
      </trkpt>
      <trkpt lat="45.65248740836978" lon="7.902428722009063">
        <ele>1567.5699999999999</ele>
        <time>2013-06-30T08:38:57Z</time>
      </trkpt>
      <trkpt lat="45.652467710897326" lon="7.902571130543947">
        <ele>1570.45</ele>
        <time>2013-06-30T08:39:12Z</time>
      </trkpt>
      <trkpt lat="45.652453126385808" lon="7.902700882405043">
        <ele>1571.4100000000001</ele>
        <time>2013-06-30T08:39:24Z</time>
      </trkpt>
      <trkpt lat="45.65244197845459" lon="7.902803895995021">
        <ele>1572.8499999999999</ele>
        <time>2013-06-30T08:39:34Z</time>
      </trkpt>
      <trkpt lat="45.652414234355092" lon="7.902903221547604">
        <ele>1575.26</ele>
        <time>2013-06-30T08:39:46Z</time>
      </trkpt>
      <trkpt lat="45.652386238798499" lon="7.903036409988999">
        <ele>1577.1800000000001</ele>
        <time>2013-06-30T08:40:00Z</time>
      </trkpt>
      <trkpt lat="45.652359332889318" lon="7.903157863765955">
        <ele>1580.0599999999999</ele>
        <time>2013-06-30T08:40:13Z</time>
      </trkpt>
      <trkpt lat="45.652315746992826" lon="7.903264397755265">
        <ele>1581.99</ele>
        <time>2013-06-30T08:40:25Z</time>
      </trkpt>
      <trkpt lat="45.652235532179475" lon="7.903265571221709">
        <ele>1583.9100000000001</ele>
        <time>2013-06-30T08:40:39Z</time>
      </trkpt>
      <trkpt lat="45.65213511697948" lon="7.903127018362284">
        <ele>1586.79</ele>
        <time>2013-06-30T08:40:54Z</time>
      </trkpt>
      <trkpt lat="45.652126483619213" lon="7.903109081089497">
        <ele>1587.27</ele>
        <time>2013-06-30T08:40:56Z</time>
      </trkpt>
      <trkpt lat="45.652101002633572" lon="7.903010426089168">
        <ele>1588.72</ele>
        <time>2013-06-30T08:41:06Z</time>
      </trkpt>
      <trkpt lat="45.652104020118713" lon="7.9028429556638">
        <ele>1591.1199999999999</ele>
        <time>2013-06-30T08:41:21Z</time>
      </trkpt>
      <trkpt lat="45.65212631598115" lon="7.902685543522239">
        <ele>1593.04</ele>
        <time>2013-06-30T08:41:34Z</time>
      </trkpt>
      <trkpt lat="45.652121035382152" lon="7.902588481083512">
        <ele>1594</ele>
        <time>2013-06-30T08:41:43Z</time>
      </trkpt>
      <trkpt lat="45.652103936299682" lon="7.902567191049457">
        <ele>1594.48</ele>
        <time>2013-06-30T08:41:46Z</time>
      </trkpt>
      <trkpt lat="45.652041574940085" lon="7.902650842443109">
        <ele>1595.9300000000001</ele>
        <time>2013-06-30T08:41:59Z</time>
      </trkpt>
      <trkpt lat="45.651995725929737" lon="7.902771290391684">
        <ele>1598.3299999999999</ele>
        <time>2013-06-30T08:42:12Z</time>
      </trkpt>
      <trkpt lat="45.651901010423899" lon="7.902887715026736">
        <ele>1600.73</ele>
        <time>2013-06-30T08:42:25Z</time>
      </trkpt>
      <trkpt lat="45.651827584952116" lon="7.902994584292173">
        <ele>1603.1400000000001</ele>
        <time>2013-06-30T08:42:37Z</time>
      </trkpt>
      <trkpt lat="45.651750806719065" lon="7.903126263990998">
        <ele>1605.0599999999999</ele>
        <time>2013-06-30T08:42:51Z</time>
      </trkpt>
      <trkpt lat="45.651718033477664" lon="7.90322701446712">
        <ele>1606.98</ele>
        <time>2013-06-30T08:43:02Z</time>
      </trkpt>
      <trkpt lat="45.65169389359653" lon="7.903324579820037">
        <ele>1609.3800000000001</ele>
        <time>2013-06-30T08:43:12Z</time>
      </trkpt>
      <trkpt lat="45.651690121740103" lon="7.903429856523871">
        <ele>1611.79</ele>
        <time>2013-06-30T08:43:24Z</time>
      </trkpt>
      <trkpt lat="45.651689954102039" lon="7.90343807078898">
        <ele>1611.79</ele>
        <time>2013-06-30T08:43:25Z</time>
      </trkpt>
      <trkpt lat="45.651688193902373" lon="7.903583832085133">
        <ele>1613.71</ele>
        <time>2013-06-30T08:43:38Z</time>
      </trkpt>
      <trkpt lat="45.651687607169151" lon="7.903594393283129">
        <ele>1614.1900000000001</ele>
        <time>2013-06-30T08:43:39Z</time>
      </trkpt>
      <trkpt lat="45.65166455693543" lon="7.903756247833371">
        <ele>1616.5899999999999</ele>
        <time>2013-06-30T08:43:54Z</time>
      </trkpt>
      <trkpt lat="45.65163035877049" lon="7.903928328305483">
        <ele>1619</ele>
        <time>2013-06-30T08:44:09Z</time>
      </trkpt>
      <trkpt lat="45.651635890826583" lon="7.904003681614995">
        <ele>1618.52</ele>
        <time>2013-06-30T08:44:14Z</time>
      </trkpt>
      <trkpt lat="45.651624826714396" lon="7.904165536165237">
        <ele>1620.4400000000001</ele>
        <time>2013-06-30T08:44:27Z</time>
      </trkpt>
      <trkpt lat="45.651596914976835" lon="7.904315153136849">
        <ele>1621.8800000000001</ele>
        <time>2013-06-30T08:44:40Z</time>
      </trkpt>
      <trkpt lat="45.651535727083683" lon="7.904474912211299">
        <ele>1624.28</ele>
        <time>2013-06-30T08:44:55Z</time>
      </trkpt>
      <trkpt lat="45.651492392644286" lon="7.904612710699439">
        <ele>1626.21</ele>
        <time>2013-06-30T08:45:08Z</time>
      </trkpt>
      <trkpt lat="45.651449225842953" lon="7.904726788401604">
        <ele>1628.1300000000001</ele>
        <time>2013-06-30T08:45:21Z</time>
      </trkpt>
      <trkpt lat="45.651416452601552" lon="7.904856624081731">
        <ele>1630.53</ele>
        <time>2013-06-30T08:45:34Z</time>
      </trkpt>
      <trkpt lat="45.651379404589534" lon="7.905055191367865">
        <ele>1631.01</ele>
        <time>2013-06-30T08:45:49Z</time>
      </trkpt>
      <trkpt lat="45.65132156945765" lon="7.905175304040313">
        <ele>1633.9000000000001</ele>
        <time>2013-06-30T08:46:02Z</time>
      </trkpt>
      <trkpt lat="45.651306146755815" lon="7.905213441699743">
        <ele>1634.3800000000001</ele>
        <time>2013-06-30T08:46:06Z</time>
      </trkpt>
      <trkpt lat="45.651213023811579" lon="7.905367920175195">
        <ele>1635.8199999999999</ele>
        <time>2013-06-30T08:46:21Z</time>
      </trkpt>
      <trkpt lat="45.651188297197223" lon="7.905398933216929">
        <ele>1636.3</ele>
        <time>2013-06-30T08:46:25Z</time>
      </trkpt>
      <trkpt lat="45.651126690208912" lon="7.905586687847972">
        <ele>1638.22</ele>
        <time>2013-06-30T08:46:43Z</time>
      </trkpt>
      <trkpt lat="45.651123253628612" lon="7.905654916539788">
        <ele>1639.1900000000001</ele>
        <time>2013-06-30T08:46:49Z</time>
      </trkpt>
      <trkpt lat="45.651161558926105" lon="7.905828589573503">
        <ele>1640.1500000000001</ele>
        <time>2013-06-30T08:47:03Z</time>
      </trkpt>
      <trkpt lat="45.651163989678025" lon="7.905997568741441">
        <ele>1643.03</ele>
        <time>2013-06-30T08:47:18Z</time>
      </trkpt>
      <trkpt lat="45.651148818433285" lon="7.90618515573442">
        <ele>1645.4300000000001</ele>
        <time>2013-06-30T08:47:33Z</time>
      </trkpt>
      <trkpt lat="45.651151165366173" lon="7.906349105760455">
        <ele>1648.3199999999999</ele>
        <time>2013-06-30T08:47:47Z</time>
      </trkpt>
      <trkpt lat="45.651159966364503" lon="7.906496878713369">
        <ele>1649.28</ele>
        <time>2013-06-30T08:47:59Z</time>
      </trkpt>
      <trkpt lat="45.651164157316089" lon="7.906537782400847">
        <ele>1649.76</ele>
        <time>2013-06-30T08:48:02Z</time>
      </trkpt>
      <trkpt lat="45.65113834105432" lon="7.906772643327713">
        <ele>1651.2</ele>
        <time>2013-06-30T08:48:19Z</time>
      </trkpt>
      <trkpt lat="45.651086289435625" lon="7.906996021047235">
        <ele>1652.1600000000001</ele>
        <time>2013-06-30T08:48:34Z</time>
      </trkpt>
      <trkpt lat="45.651028119027615" lon="7.907205820083618">
        <ele>1653.1199999999999</ele>
        <time>2013-06-30T08:48:50Z</time>
      </trkpt>
      <trkpt lat="45.651010097935796" lon="7.907246053218842">
        <ele>1652.6400000000001</ele>
        <time>2013-06-30T08:48:53Z</time>
      </trkpt>
      <trkpt lat="45.650916555896401" lon="7.907479573041201">
        <ele>1653.1199999999999</ele>
        <time>2013-06-30T08:49:10Z</time>
      </trkpt>
      <trkpt lat="45.650835419073701" lon="7.907692138105631">
        <ele>1653.5999999999999</ele>
        <time>2013-06-30T08:49:26Z</time>
      </trkpt>
      <trkpt lat="45.650786301121116" lon="7.907845778390765">
        <ele>1654.0899999999999</ele>
        <time>2013-06-30T08:49:37Z</time>
      </trkpt>
      <trkpt lat="45.650791665539145" lon="7.908048452809453">
        <ele>1654.5699999999999</ele>
        <time>2013-06-30T08:49:51Z</time>
      </trkpt>
      <trkpt lat="45.650883531197906" lon="7.908232351765037">
        <ele>1655.05</ele>
        <time>2013-06-30T08:50:06Z</time>
      </trkpt>
      <trkpt lat="45.650910437107086" lon="7.908306028693914">
        <ele>1656.49</ele>
        <time>2013-06-30T08:50:14Z</time>
      </trkpt>
      <trkpt lat="45.65087640658021" lon="7.908470230177045">
        <ele>1658.4100000000001</ele>
        <time>2013-06-30T08:50:27Z</time>
      </trkpt>
      <trkpt lat="45.650859978049994" lon="7.908628145232797">
        <ele>1659.8499999999999</ele>
        <time>2013-06-30T08:50:41Z</time>
      </trkpt>
      <trkpt lat="45.650850757956505" lon="7.908781366422772">
        <ele>1661.78</ele>
        <time>2013-06-30T08:50:54Z</time>
      </trkpt>
      <trkpt lat="45.650853021070361" lon="7.908891001716256">
        <ele>1663.7</ele>
        <time>2013-06-30T08:51:05Z</time>
      </trkpt>
      <trkpt lat="45.650846315547824" lon="7.909029386937618">
        <ele>1665.6199999999999</ele>
        <time>2013-06-30T08:51:18Z</time>
      </trkpt>
      <trkpt lat="45.650845561176538" lon="7.90915796533227">
        <ele>1667.54</ele>
        <time>2013-06-30T08:51:31Z</time>
      </trkpt>
      <trkpt lat="45.650825193151832" lon="7.909272545948625">
        <ele>1668.99</ele>
        <time>2013-06-30T08:51:44Z</time>
      </trkpt>
      <trkpt lat="45.650801891461015" lon="7.909444123506546">
        <ele>1670.9100000000001</ele>
        <time>2013-06-30T08:51:59Z</time>
      </trkpt>
      <trkpt lat="45.650799879804254" lon="7.909518387168646">
        <ele>1671.8699999999999</ele>
        <time>2013-06-30T08:52:06Z</time>
      </trkpt>
      <trkpt lat="45.650761239230633" lon="7.909677056595683">
        <ele>1673.3099999999999</ele>
        <time>2013-06-30T08:52:20Z</time>
      </trkpt>
      <trkpt lat="45.650747325271368" lon="7.909780740737915">
        <ele>1673.3099999999999</ele>
        <time>2013-06-30T08:52:28Z</time>
      </trkpt>
      <trkpt lat="45.650803735479712" lon="7.909846622496843">
        <ele>1675.23</ele>
        <time>2013-06-30T08:52:40Z</time>
      </trkpt>
      <trkpt lat="45.650900714099407" lon="7.909804545342922">
        <ele>1677.6400000000001</ele>
        <time>2013-06-30T08:52:55Z</time>
      </trkpt>
      <trkpt lat="45.65097757615149" lon="7.909870175644755">
        <ele>1679.5599999999999</ele>
        <time>2013-06-30T08:53:09Z</time>
      </trkpt>
      <trkpt lat="45.650973888114095" lon="7.909892471507192">
        <ele>1679.5599999999999</ele>
        <time>2013-06-30T08:53:11Z</time>
      </trkpt>
      <trkpt lat="45.65093114040792" lon="7.909992132335901">
        <ele>1681.48</ele>
        <time>2013-06-30T08:53:22Z</time>
      </trkpt>
      <trkpt lat="45.650845728814602" lon="7.91008391417563">
        <ele>1682.9300000000001</ele>
        <time>2013-06-30T08:53:37Z</time>
      </trkpt>
      <trkpt lat="45.650807758793235" lon="7.910126075148583">
        <ele>1683.4100000000001</ele>
        <time>2013-06-30T08:53:49Z</time>
      </trkpt>
      <trkpt lat="45.65070541575551" lon="7.910223472863436">
        <ele>1685.3299999999999</ele>
        <time>2013-06-30T08:54:04Z</time>
      </trkpt>
      <trkpt lat="45.650700302794576" lon="7.910226155072451">
        <ele>1685.3299999999999</ele>
        <time>2013-06-30T08:54:05Z</time>
      </trkpt>
      <trkpt lat="45.650648837909102" lon="7.910243840888143">
        <ele>1686.29</ele>
        <time>2013-06-30T08:54:12Z</time>
      </trkpt>
      <trkpt lat="45.650500310584903" lon="7.9103047773242">
        <ele>1687.73</ele>
        <time>2013-06-30T08:54:28Z</time>
      </trkpt>
      <trkpt lat="45.650405678898096" lon="7.910333359614015">
        <ele>1689.6500000000001</ele>
        <time>2013-06-30T08:54:40Z</time>
      </trkpt>
      <trkpt lat="45.650293361395597" lon="7.910343334078789">
        <ele>1691.0999999999999</ele>
        <time>2013-06-30T08:54:54Z</time>
      </trkpt>
      <trkpt lat="45.650245249271393" lon="7.910350626334548">
        <ele>1691.0999999999999</ele>
        <time>2013-06-30T08:55:00Z</time>
      </trkpt>
      <trkpt lat="45.650132596492767" lon="7.910331934690476">
        <ele>1693.5</ele>
        <time>2013-06-30T08:55:15Z</time>
      </trkpt>
      <trkpt lat="45.650042993947864" lon="7.91027988307178">
        <ele>1696.3800000000001</ele>
        <time>2013-06-30T08:55:28Z</time>
      </trkpt>
      <trkpt lat="45.649917097762227" lon="7.910205367952585">
        <ele>1697.8299999999999</ele>
        <time>2013-06-30T08:55:43Z</time>
      </trkpt>
      <trkpt lat="45.649846522137523" lon="7.910173013806343">
        <ele>1698.79</ele>
        <time>2013-06-30T08:55:54Z</time>
      </trkpt>
      <trkpt lat="45.649850964546204" lon="7.910174187272787">
        <ele>1698.79</ele>
        <time>2013-06-30T08:56:06Z</time>
      </trkpt>
      <trkpt lat="45.649831350892782" lon="7.910234201699495">
        <ele>1699.27</ele>
        <time>2013-06-30T08:56:21Z</time>
      </trkpt>
      <trkpt lat="45.649814419448376" lon="7.910232273861766">
        <ele>1699.27</ele>
        <time>2013-06-30T08:56:38Z</time>
      </trkpt>
      <trkpt lat="45.649815844371915" lon="7.910235710442066">
        <ele>1699.27</ele>
        <time>2013-06-30T08:56:56Z</time>
      </trkpt>
      <trkpt lat="45.64985322766006" lon="7.910250462591648">
        <ele>1699.27</ele>
        <time>2013-06-30T08:57:26Z</time>
      </trkpt>
      <trkpt lat="45.649829842150211" lon="7.910219114273787">
        <ele>1699.27</ele>
        <time>2013-06-30T08:57:57Z</time>
      </trkpt>
      <trkpt lat="45.649800589308143" lon="7.910206457599998">
        <ele>1699.27</ele>
        <time>2013-06-30T08:58:11Z</time>
      </trkpt>
      <trkpt lat="45.649718111380935" lon="7.910228921100497">
        <ele>1699.75</ele>
        <time>2013-06-30T08:58:26Z</time>
      </trkpt>
      <trkpt lat="45.64973596483469" lon="7.9102114867419">
        <ele>1699.27</ele>
        <time>2013-06-30T08:58:47Z</time>
      </trkpt>
      <trkpt lat="45.649729007855058" lon="7.910197740420699">
        <ele>1699.27</ele>
        <time>2013-06-30T08:59:07Z</time>
      </trkpt>
      <trkpt lat="45.649718530476093" lon="7.910201009362936">
        <ele>1699.75</ele>
        <time>2013-06-30T08:59:37Z</time>
      </trkpt>
      <trkpt lat="45.649724565446377" lon="7.91020218282938">
        <ele>1699.27</ele>
        <time>2013-06-30T08:59:52Z</time>
      </trkpt>
      <trkpt lat="45.649737725034356" lon="7.910176701843739">
        <ele>1699.75</ele>
        <time>2013-06-30T09:00:08Z</time>
      </trkpt>
      <trkpt lat="45.649726744741201" lon="7.91020511649549">
        <ele>1699.75</ele>
        <time>2013-06-30T09:00:29Z</time>
      </trkpt>
      <trkpt lat="45.64973353408277" lon="7.910198997706175">
        <ele>1699.75</ele>
        <time>2013-06-30T09:00:50Z</time>
      </trkpt>
      <trkpt lat="45.649718195199966" lon="7.910248702391982">
        <ele>1699.75</ele>
        <time>2013-06-30T09:01:05Z</time>
      </trkpt>
      <trkpt lat="45.649717440828681" lon="7.910182736814022">
        <ele>1699.75</ele>
        <time>2013-06-30T09:01:21Z</time>
      </trkpt>
      <trkpt lat="45.649754824116826" lon="7.910205032676458">
        <ele>1699.75</ele>
        <time>2013-06-30T09:01:50Z</time>
      </trkpt>
      <trkpt lat="45.649722386151552" lon="7.910182233899832">
        <ele>1699.75</ele>
        <time>2013-06-30T09:02:10Z</time>
      </trkpt>
      <trkpt lat="45.649679386988282" lon="7.910221628844738">
        <ele>1700.23</ele>
        <time>2013-06-30T09:02:18Z</time>
      </trkpt>
      <trkpt lat="45.649639740586281" lon="7.910267896950245">
        <ele>1700.71</ele>
        <time>2013-06-30T09:02:24Z</time>
      </trkpt>
      <trkpt lat="45.649527087807655" lon="7.910389686003327">
        <ele>1701.6700000000001</ele>
        <time>2013-06-30T09:02:39Z</time>
      </trkpt>
      <trkpt lat="45.649519376456738" lon="7.910405527800322">
        <ele>1702.1500000000001</ele>
        <time>2013-06-30T09:02:41Z</time>
      </trkpt>
      <trkpt lat="45.649490123614669" lon="7.910447018221021">
        <ele>1703.1099999999999</ele>
        <time>2013-06-30T09:02:54Z</time>
      </trkpt>
      <trkpt lat="45.649449303746223" lon="7.910553468391299">
        <ele>1705.04</ele>
        <time>2013-06-30T09:03:08Z</time>
      </trkpt>
      <trkpt lat="45.64941979944706" lon="7.910668635740876">
        <ele>1708.4000000000001</ele>
        <time>2013-06-30T09:03:23Z</time>
      </trkpt>
      <trkpt lat="45.649458775296807" lon="7.910702330991626">
        <ele>1710.8</ele>
        <time>2013-06-30T09:03:37Z</time>
      </trkpt>
      <trkpt lat="45.64954292960465" lon="7.910748180001974">
        <ele>1713.6900000000001</ele>
        <time>2013-06-30T09:03:52Z</time>
      </trkpt>
      <trkpt lat="45.649560280144215" lon="7.910791849717498">
        <ele>1714.6500000000001</ele>
        <time>2013-06-30T09:03:58Z</time>
      </trkpt>
      <trkpt lat="45.649644518271089" lon="7.910838453099132">
        <ele>1717.05</ele>
        <time>2013-06-30T09:04:13Z</time>
      </trkpt>
      <trkpt lat="45.649728253483772" lon="7.910856055095792">
        <ele>1718.97</ele>
        <time>2013-06-30T09:04:28Z</time>
      </trkpt>
      <trkpt lat="45.649790111929178" lon="7.910891259089112">
        <ele>1720.9000000000001</ele>
        <time>2013-06-30T09:04:42Z</time>
      </trkpt>
      <trkpt lat="45.64985859207809" lon="7.910942137241364">
        <ele>1722.3399999999999</ele>
        <time>2013-06-30T09:04:54Z</time>
      </trkpt>
      <trkpt lat="45.649945260956883" lon="7.910980693995953">
        <ele>1723.78</ele>
        <time>2013-06-30T09:05:06Z</time>
      </trkpt>
      <trkpt lat="45.649996055290103" lon="7.911032997071743">
        <ele>1724.74</ele>
        <time>2013-06-30T09:05:14Z</time>
      </trkpt>
      <trkpt lat="45.649925479665399" lon="7.911067865788937">
        <ele>1725.7</ele>
        <time>2013-06-30T09:05:27Z</time>
      </trkpt>
      <trkpt lat="45.649950709193945" lon="7.911068787798286">
        <ele>1726.1800000000001</ele>
        <time>2013-06-30T09:05:30Z</time>
      </trkpt>
      <trkpt lat="45.649929419159889" lon="7.911156630143523">
        <ele>1728.5899999999999</ele>
        <time>2013-06-30T09:05:42Z</time>
      </trkpt>
      <trkpt lat="45.64985666424036" lon="7.911217315122485">
        <ele>1730.51</ele>
        <time>2013-06-30T09:05:54Z</time>
      </trkpt>
      <trkpt lat="45.64982196316123" lon="7.911314880475402">
        <ele>1733.3900000000001</ele>
        <time>2013-06-30T09:06:08Z</time>
      </trkpt>
      <trkpt lat="45.64986202865839" lon="7.91135729290545">
        <ele>1734.8399999999999</ele>
        <time>2013-06-30T09:06:20Z</time>
      </trkpt>
      <trkpt lat="45.649893712252378" lon="7.911454942077398">
        <ele>1737.24</ele>
        <time>2013-06-30T09:06:33Z</time>
      </trkpt>
      <trkpt lat="45.649915337562561" lon="7.911585196852684">
        <ele>1740.1199999999999</ele>
        <time>2013-06-30T09:06:48Z</time>
      </trkpt>
      <trkpt lat="45.649987338110805" lon="7.911591902375221">
        <ele>1742.05</ele>
        <time>2013-06-30T09:07:02Z</time>
      </trkpt>
      <trkpt lat="45.650063110515475" lon="7.911616042256355">
        <ele>1743.49</ele>
        <time>2013-06-30T09:07:15Z</time>
      </trkpt>
      <trkpt lat="45.650072917342186" lon="7.911611432209611">
        <ele>1743.97</ele>
        <time>2013-06-30T09:07:31Z</time>
      </trkpt>
      <trkpt lat="45.650172410532832" lon="7.91161478497088">
        <ele>1746.3699999999999</ele>
        <time>2013-06-30T09:07:46Z</time>
      </trkpt>
      <trkpt lat="45.650285398587584" lon="7.911659376695752">
        <ele>1749.26</ele>
        <time>2013-06-30T09:08:02Z</time>
      </trkpt>
      <trkpt lat="45.650379778817296" lon="7.911694329231978">
        <ele>1750.7</ele>
        <time>2013-06-30T09:08:16Z</time>
      </trkpt>
      <trkpt lat="45.65038681961596" lon="7.911704471334815">
        <ele>1750.7</ele>
        <time>2013-06-30T09:08:17Z</time>
      </trkpt>
      <trkpt lat="45.650398302823305" lon="7.911774041131139">
        <ele>1753.0999999999999</ele>
        <time>2013-06-30T09:08:29Z</time>
      </trkpt>
      <trkpt lat="45.650460999459028" lon="7.911804299801588">
        <ele>1755.5</ele>
        <time>2013-06-30T09:08:41Z</time>
      </trkpt>
      <trkpt lat="45.650458736345172" lon="7.911901948973537">
        <ele>1757.4300000000001</ele>
        <time>2013-06-30T09:08:54Z</time>
      </trkpt>
      <trkpt lat="45.650479523465037" lon="7.911915108561516">
        <ele>1757.9100000000001</ele>
        <time>2013-06-30T09:09:05Z</time>
      </trkpt>
      <trkpt lat="45.650444822385907" lon="7.911981996148825">
        <ele>1760.3099999999999</ele>
        <time>2013-06-30T09:09:15Z</time>
      </trkpt>
      <trkpt lat="45.65051581710577" lon="7.911995993927121">
        <ele>1762.23</ele>
        <time>2013-06-30T09:09:29Z</time>
      </trkpt>
      <trkpt lat="45.650513973087072" lon="7.912018373608589">
        <ele>1762.71</ele>
        <time>2013-06-30T09:09:37Z</time>
      </trkpt>
      <trkpt lat="45.650617908686399" lon="7.912027342244983">
        <ele>1764.6400000000001</ele>
        <time>2013-06-30T09:09:52Z</time>
      </trkpt>
      <trkpt lat="45.650663338601589" lon="7.912066737189889">
        <ele>1766.5599999999999</ele>
        <time>2013-06-30T09:10:06Z</time>
      </trkpt>
      <trkpt lat="45.650759059935808" lon="7.91209070943296">
        <ele>1768.48</ele>
        <time>2013-06-30T09:10:21Z</time>
      </trkpt>
      <trkpt lat="45.650743721053004" lon="7.912155836820602">
        <ele>1770.4100000000001</ele>
        <time>2013-06-30T09:10:32Z</time>
      </trkpt>
      <trkpt lat="45.650840867310762" lon="7.912167571485043">
        <ele>1773.29</ele>
        <time>2013-06-30T09:10:47Z</time>
      </trkpt>
      <trkpt lat="45.650821253657341" lon="7.912241080775857">
        <ele>1774.25</ele>
        <time>2013-06-30T09:10:58Z</time>
      </trkpt>
      <trkpt lat="45.650760820135474" lon="7.912286007776856">
        <ele>1776.1700000000001</ele>
        <time>2013-06-30T09:11:11Z</time>
      </trkpt>
      <trkpt lat="45.65079627558589" lon="7.912293551489711">
        <ele>1777.6099999999999</ele>
        <time>2013-06-30T09:11:22Z</time>
      </trkpt>
      <trkpt lat="45.650757886469364" lon="7.912398492917419">
        <ele>1779.54</ele>
        <time>2013-06-30T09:11:34Z</time>
      </trkpt>
      <trkpt lat="45.650723269209266" lon="7.912494381889701">
        <ele>1781.9400000000001</ele>
        <time>2013-06-30T09:11:46Z</time>
      </trkpt>
      <trkpt lat="45.65064774826169" lon="7.912614494562149">
        <ele>1783.3800000000001</ele>
        <time>2013-06-30T09:12:00Z</time>
      </trkpt>
      <trkpt lat="45.6506438087672" lon="7.912676855921745">
        <ele>1784.3399999999999</ele>
        <time>2013-06-30T09:12:12Z</time>
      </trkpt>
      <trkpt lat="45.650616902858019" lon="7.912812056019902">
        <ele>1786.75</ele>
        <time>2013-06-30T09:12:25Z</time>
      </trkpt>
      <trkpt lat="45.650613969191909" lon="7.912865867838264">
        <ele>1787.23</ele>
        <time>2013-06-30T09:12:31Z</time>
      </trkpt>
      <trkpt lat="45.650591673329473" lon="7.912988578900695">
        <ele>1788.6700000000001</ele>
        <time>2013-06-30T09:12:43Z</time>
      </trkpt>
      <trkpt lat="45.6505470816046" lon="7.913081953302026">
        <ele>1789.1500000000001</ele>
        <time>2013-06-30T09:12:56Z</time>
      </trkpt>
      <trkpt lat="45.650521265342832" lon="7.913216399028897">
        <ele>1791.0699999999999</ele>
        <time>2013-06-30T09:13:10Z</time>
      </trkpt>
      <trkpt lat="45.650503076612949" lon="7.913389233872294">
        <ele>1793.48</ele>
        <time>2013-06-30T09:13:25Z</time>
      </trkpt>
      <trkpt lat="45.650465022772551" lon="7.913565170019865">
        <ele>1793.96</ele>
        <time>2013-06-30T09:13:40Z</time>
      </trkpt>
      <trkpt lat="45.650466028600931" lon="7.913655275478959">
        <ele>1796.8399999999999</ele>
        <time>2013-06-30T09:13:53Z</time>
      </trkpt>
      <trkpt lat="45.650468375533819" lon="7.913736496120691">
        <ele>1798.28</ele>
        <time>2013-06-30T09:14:03Z</time>
      </trkpt>
      <trkpt lat="45.650468794628978" lon="7.913844706490636">
        <ele>1799.73</ele>
        <time>2013-06-30T09:14:16Z</time>
      </trkpt>
      <trkpt lat="45.650458820164204" lon="7.913943277671933">
        <ele>1801.6500000000001</ele>
        <time>2013-06-30T09:14:30Z</time>
      </trkpt>
      <trkpt lat="45.650440799072385" lon="7.914079232141376">
        <ele>1804.05</ele>
        <time>2013-06-30T09:14:44Z</time>
      </trkpt>
      <trkpt lat="45.650399308651686" lon="7.91418207809329">
        <ele>1805.97</ele>
        <time>2013-06-30T09:14:57Z</time>
      </trkpt>
      <trkpt lat="45.650323536247015" lon="7.91435013525188">
        <ele>1807.4200000000001</ele>
        <time>2013-06-30T09:15:13Z</time>
      </trkpt>
      <trkpt lat="45.650268634781241" lon="7.914472427219153">
        <ele>1809.3399999999999</ele>
        <time>2013-06-30T09:15:28Z</time>
      </trkpt>
      <trkpt lat="45.650225384160876" lon="7.914568232372403">
        <ele>1811.74</ele>
        <time>2013-06-30T09:15:39Z</time>
      </trkpt>
      <trkpt lat="45.650217588990927" lon="7.914638640359044">
        <ele>1813.6600000000001</ele>
        <time>2013-06-30T09:15:48Z</time>
      </trkpt>
      <trkpt lat="45.650234101340175" lon="7.914791693910956">
        <ele>1813.6600000000001</ele>
        <time>2013-06-30T09:16:00Z</time>
      </trkpt>
      <trkpt lat="45.650171739980578" lon="7.914930665865541">
        <ele>1815.1099999999999</ele>
        <time>2013-06-30T09:16:15Z</time>
      </trkpt>
      <trkpt lat="45.65010342746973" lon="7.915048766881228">
        <ele>1817.51</ele>
        <time>2013-06-30T09:16:32Z</time>
      </trkpt>
      <trkpt lat="45.650052800774574" lon="7.915166532620788">
        <ele>1819.9100000000001</ele>
        <time>2013-06-30T09:16:46Z</time>
      </trkpt>
      <trkpt lat="45.649988343939185" lon="7.915313132107258">
        <ele>1822.3199999999999</ele>
        <time>2013-06-30T09:17:02Z</time>
      </trkpt>
      <trkpt lat="45.649978956207633" lon="7.915415894240141">
        <ele>1824.72</ele>
        <time>2013-06-30T09:17:14Z</time>
      </trkpt>
      <trkpt lat="45.649921037256718" lon="7.915482446551323">
        <ele>1826.6400000000001</ele>
        <time>2013-06-30T09:17:27Z</time>
      </trkpt>
      <trkpt lat="45.649865800514817" lon="7.915607839822769">
        <ele>1827.5999999999999</ele>
        <time>2013-06-30T09:17:41Z</time>
      </trkpt>
      <trkpt lat="45.649794638156891" lon="7.915651090443134">
        <ele>1828.5599999999999</ele>
        <time>2013-06-30T09:17:57Z</time>
      </trkpt>
      <trkpt lat="45.649763373658061" lon="7.915739100426436">
        <ele>1830.01</ele>
        <time>2013-06-30T09:18:12Z</time>
      </trkpt>
      <trkpt lat="45.649725990369916" lon="7.915834402665496">
        <ele>1833.3699999999999</ele>
        <time>2013-06-30T09:18:26Z</time>
      </trkpt>
      <trkpt lat="45.649699419736862" lon="7.915866756811738">
        <ele>1833.8499999999999</ele>
        <time>2013-06-30T09:18:33Z</time>
      </trkpt>
      <trkpt lat="45.649621300399303" lon="7.915919059887528">
        <ele>1836.74</ele>
        <time>2013-06-30T09:18:46Z</time>
      </trkpt>
      <trkpt lat="45.649579139426351" lon="7.915981253609061">
        <ele>1839.6199999999999</ele>
        <time>2013-06-30T09:18:59Z</time>
      </trkpt>
      <trkpt lat="45.649580731987953" lon="7.915997598320246">
        <ele>1839.6199999999999</ele>
        <time>2013-06-30T09:19:00Z</time>
      </trkpt>
      <trkpt lat="45.649557849392295" lon="7.91609164327383">
        <ele>1842.98</ele>
        <time>2013-06-30T09:19:16Z</time>
      </trkpt>
      <trkpt lat="45.649518873542547" lon="7.91615760885179">
        <ele>1846.3499999999999</ele>
        <time>2013-06-30T09:19:30Z</time>
      </trkpt>
      <trkpt lat="45.649473108351231" lon="7.916212761774659">
        <ele>1848.27</ele>
        <time>2013-06-30T09:19:45Z</time>
      </trkpt>
      <trkpt lat="45.649418542161584" lon="7.916263807564974">
        <ele>1850.1900000000001</ele>
        <time>2013-06-30T09:19:59Z</time>
      </trkpt>
      <trkpt lat="45.649398760870099" lon="7.916325917467475">
        <ele>1851.1600000000001</ele>
        <time>2013-06-30T09:20:18Z</time>
      </trkpt>
      <trkpt lat="45.64939389936626" lon="7.916330443695188">
        <ele>1850.6800000000001</ele>
        <time>2013-06-30T09:20:19Z</time>
      </trkpt>
      <trkpt lat="45.649315947666764" lon="7.916426667943597">
        <ele>1852.5999999999999</ele>
        <time>2013-06-30T09:20:32Z</time>
      </trkpt>
      <trkpt lat="45.649253167212009" lon="7.916496740654111">
        <ele>1854.04</ele>
        <time>2013-06-30T09:20:43Z</time>
      </trkpt>
      <trkpt lat="45.649210922420025" lon="7.916539153084159">
        <ele>1855</ele>
        <time>2013-06-30T09:20:51Z</time>
      </trkpt>
      <trkpt lat="45.649152249097824" lon="7.916577626019716">
        <ele>1855</ele>
        <time>2013-06-30T09:20:58Z</time>
      </trkpt>
      <trkpt lat="45.649032974615693" lon="7.916661696508527">
        <ele>1856.9200000000001</ele>
        <time>2013-06-30T09:21:13Z</time>
      </trkpt>
      <trkpt lat="45.648988969624043" lon="7.916706120595336">
        <ele>1857.4000000000001</ele>
        <time>2013-06-30T09:21:22Z</time>
      </trkpt>
      <trkpt lat="45.648962650448084" lon="7.916714334860444">
        <ele>1857.8900000000001</ele>
        <time>2013-06-30T09:21:25Z</time>
      </trkpt>
      <trkpt lat="45.648899702355266" lon="7.916761608794332">
        <ele>1858.8499999999999</ele>
        <time>2013-06-30T09:21:35Z</time>
      </trkpt>
      <trkpt lat="45.648867432028055" lon="7.916774516925216">
        <ele>1859.3299999999999</ele>
        <time>2013-06-30T09:21:38Z</time>
      </trkpt>
      <trkpt lat="45.648756874725223" lon="7.916840398684144">
        <ele>1861.25</ele>
        <time>2013-06-30T09:21:52Z</time>
      </trkpt>
      <trkpt lat="45.648680850863457" lon="7.916884906589985">
        <ele>1863.6500000000001</ele>
        <time>2013-06-30T09:22:05Z</time>
      </trkpt>
      <trkpt lat="45.648612789809704" lon="7.916935533285141">
        <ele>1865.5799999999999</ele>
        <time>2013-06-30T09:22:16Z</time>
      </trkpt>
      <trkpt lat="45.648573059588671" lon="7.916955566033721">
        <ele>1866.54</ele>
        <time>2013-06-30T09:22:25Z</time>
      </trkpt>
      <trkpt lat="45.648503908887506" lon="7.91695749387145">
        <ele>1868.46</ele>
        <time>2013-06-30T09:22:37Z</time>
      </trkpt>
      <trkpt lat="45.648498041555285" lon="7.916959002614021">
        <ele>1868.9400000000001</ele>
        <time>2013-06-30T09:22:38Z</time>
      </trkpt>
      <trkpt lat="45.648477002978325" lon="7.916971240192652">
        <ele>1869.4200000000001</ele>
        <time>2013-06-30T09:22:41Z</time>
      </trkpt>
      <trkpt lat="45.648392178118229" lon="7.917089089751244">
        <ele>1871.3399999999999</ele>
        <time>2013-06-30T09:22:56Z</time>
      </trkpt>
      <trkpt lat="45.64831162802875" lon="7.917107194662094">
        <ele>1873.27</ele>
        <time>2013-06-30T09:23:10Z</time>
      </trkpt>
      <trkpt lat="45.648255301639438" lon="7.917193276807666">
        <ele>1876.1500000000001</ele>
        <time>2013-06-30T09:23:24Z</time>
      </trkpt>
      <trkpt lat="45.648206016048789" lon="7.917324788868427">
        <ele>1878.0699999999999</ele>
        <time>2013-06-30T09:23:39Z</time>
      </trkpt>
      <trkpt lat="45.648179026320577" lon="7.917498126626015">
        <ele>1880</ele>
        <time>2013-06-30T09:23:56Z</time>
      </trkpt>
      <trkpt lat="45.648140469565988" lon="7.917622765526176">
        <ele>1882.4000000000001</ele>
        <time>2013-06-30T09:24:10Z</time>
      </trkpt>
      <trkpt lat="45.648083807900548" lon="7.917756289243698">
        <ele>1883.3599999999999</ele>
        <time>2013-06-30T09:24:23Z</time>
      </trkpt>
      <trkpt lat="45.648026308044791" lon="7.91784874163568">
        <ele>1884.8</ele>
        <time>2013-06-30T09:24:37Z</time>
      </trkpt>
      <trkpt lat="45.64795833081007" lon="7.917907331138849">
        <ele>1887.21</ele>
        <time>2013-06-30T09:24:53Z</time>
      </trkpt>
      <trkpt lat="45.647867387160659" lon="7.917971536517143">
        <ele>1889.1300000000001</ele>
        <time>2013-06-30T09:25:08Z</time>
      </trkpt>
      <trkpt lat="45.647812066599727" lon="7.918066503480077">
        <ele>1892.01</ele>
        <time>2013-06-30T09:25:23Z</time>
      </trkpt>
      <trkpt lat="45.647760769352317" lon="7.918151160702109">
        <ele>1893.45</ele>
        <time>2013-06-30T09:25:36Z</time>
      </trkpt>
      <trkpt lat="45.647686421871185" lon="7.918180413544178">
        <ele>1893.45</ele>
        <time>2013-06-30T09:25:48Z</time>
      </trkpt>
      <trkpt lat="45.647624228149652" lon="7.918265992775559">
        <ele>1895.8599999999999</ele>
        <time>2013-06-30T09:26:01Z</time>
      </trkpt>
      <trkpt lat="45.647551389411092" lon="7.918300107121468">
        <ele>1897.78</ele>
        <time>2013-06-30T09:26:13Z</time>
      </trkpt>
      <trkpt lat="45.647467654198408" lon="7.918358948081732">
        <ele>1900.1800000000001</ele>
        <time>2013-06-30T09:26:27Z</time>
      </trkpt>
      <trkpt lat="45.647455751895905" lon="7.918395241722465">
        <ele>1901.1400000000001</ele>
        <time>2013-06-30T09:26:40Z</time>
      </trkpt>
      <trkpt lat="45.647420799359679" lon="7.918371520936489">
        <ele>1902.1099999999999</ele>
        <time>2013-06-30T09:26:52Z</time>
      </trkpt>
      <trkpt lat="45.647374447435141" lon="7.918410580605269">
        <ele>1904.03</ele>
        <time>2013-06-30T09:27:04Z</time>
      </trkpt>
      <trkpt lat="45.647341422736645" lon="7.918414855375886">
        <ele>1905.47</ele>
        <time>2013-06-30T09:27:17Z</time>
      </trkpt>
      <trkpt lat="45.64733287319541" lon="7.918395157903433">
        <ele>1904.99</ele>
        <time>2013-06-30T09:27:19Z</time>
      </trkpt>
      <trkpt lat="45.647227009758353" lon="7.918342771008611">
        <ele>1906.9100000000001</ele>
        <time>2013-06-30T09:27:35Z</time>
      </trkpt>
      <trkpt lat="45.647214185446501" lon="7.918419633060694">
        <ele>1909.3199999999999</ele>
        <time>2013-06-30T09:27:48Z</time>
      </trkpt>
      <trkpt lat="45.647140927612782" lon="7.918421141803265">
        <ele>1910.76</ele>
        <time>2013-06-30T09:28:02Z</time>
      </trkpt>
      <trkpt lat="45.647133719176054" lon="7.918455842882395">
        <ele>1912.2</ele>
        <time>2013-06-30T09:28:13Z</time>
      </trkpt>
      <trkpt lat="45.647153584286571" lon="7.91861048899591">
        <ele>1914.5999999999999</ele>
        <time>2013-06-30T09:28:29Z</time>
      </trkpt>
      <trkpt lat="45.647082338109612" lon="7.918641837313771">
        <ele>1916.53</ele>
        <time>2013-06-30T09:28:41Z</time>
      </trkpt>
      <trkpt lat="45.647074710577726" lon="7.918639071285725">
        <ele>1917.01</ele>
        <time>2013-06-30T09:28:42Z</time>
      </trkpt>
      <trkpt lat="45.647050151601434" lon="7.918643178418279">
        <ele>1917.97</ele>
        <time>2013-06-30T09:28:46Z</time>
      </trkpt>
      <trkpt lat="45.646984353661537" lon="7.918618032708764">
        <ele>1918.9300000000001</ele>
        <time>2013-06-30T09:28:56Z</time>
      </trkpt>
      <trkpt lat="45.647000698372722" lon="7.918733200058341">
        <ele>1920.8499999999999</ele>
        <time>2013-06-30T09:29:08Z</time>
      </trkpt>
      <trkpt lat="45.647006733343005" lon="7.918779300525785">
        <ele>1920.8499999999999</ele>
        <time>2013-06-30T09:29:12Z</time>
      </trkpt>
      <trkpt lat="45.646967003121972" lon="7.918852474540472">
        <ele>1921.8099999999999</ele>
        <time>2013-06-30T09:29:21Z</time>
      </trkpt>
      <trkpt lat="45.646952586248517" lon="7.918867981061339">
        <ele>1921.8099999999999</ele>
        <time>2013-06-30T09:29:23Z</time>
      </trkpt>
      <trkpt lat="45.646930374205112" lon="7.918939981609583">
        <ele>1922.29</ele>
        <time>2013-06-30T09:29:29Z</time>
      </trkpt>
      <trkpt lat="45.646901372820139" lon="7.919034278020263">
        <ele>1923.74</ele>
        <time>2013-06-30T09:29:42Z</time>
      </trkpt>
      <trkpt lat="45.646890392526984" lon="7.919128909707069">
        <ele>1926.1400000000001</ele>
        <time>2013-06-30T09:29:55Z</time>
      </trkpt>
      <trkpt lat="45.646847644820809" lon="7.919242400676012">
        <ele>1929.02</ele>
        <time>2013-06-30T09:30:10Z</time>
      </trkpt>
      <trkpt lat="45.646849237382412" lon="7.919300487264991">
        <ele>1930.95</ele>
        <time>2013-06-30T09:30:23Z</time>
      </trkpt>
      <trkpt lat="45.64683448523283" lon="7.919430490583181">
        <ele>1932.8699999999999</ele>
        <time>2013-06-30T09:30:35Z</time>
      </trkpt>
      <trkpt lat="45.646872203797102" lon="7.919573821127415">
        <ele>1933.8299999999999</ele>
        <time>2013-06-30T09:30:49Z</time>
      </trkpt>
      <trkpt lat="45.646890727803111" lon="7.91966007091105">
        <ele>1934.79</ele>
        <time>2013-06-30T09:31:03Z</time>
      </trkpt>
      <trkpt lat="45.64690631814301" lon="7.919719582423568">
        <ele>1935.75</ele>
        <time>2013-06-30T09:31:17Z</time>
      </trkpt>
      <trkpt lat="45.646924506872892" lon="7.919840114191175">
        <ele>1936.71</ele>
        <time>2013-06-30T09:31:33Z</time>
      </trkpt>
      <trkpt lat="45.646969266235828" lon="7.919967519119382">
        <ele>1938.6400000000001</ele>
        <time>2013-06-30T09:31:48Z</time>
      </trkpt>
      <trkpt lat="45.646972199901938" lon="7.920015379786491">
        <ele>1939.1199999999999</ele>
        <time>2013-06-30T09:31:59Z</time>
      </trkpt>
      <trkpt lat="45.646998016163707" lon="7.920108251273632">
        <ele>1939.5999999999999</ele>
        <time>2013-06-30T09:32:15Z</time>
      </trkpt>
      <trkpt lat="45.647005308419466" lon="7.920165499672294">
        <ele>1940.0799999999999</ele>
        <time>2013-06-30T09:32:28Z</time>
      </trkpt>
      <trkpt lat="45.647007320076227" lon="7.920132642611861">
        <ele>1940.0799999999999</ele>
        <time>2013-06-30T09:32:40Z</time>
      </trkpt>
      <trkpt lat="45.646993070840836" lon="7.920132391154766">
        <ele>1940.0799999999999</ele>
        <time>2013-06-30T09:33:02Z</time>
      </trkpt>
      <trkpt lat="45.64699717797339" lon="7.920114956796169">
        <ele>1939.5999999999999</ele>
        <time>2013-06-30T09:33:34Z</time>
      </trkpt>
      <trkpt lat="45.647006314247847" lon="7.920133313164115">
        <ele>1939.5999999999999</ele>
        <time>2013-06-30T09:33:58Z</time>
      </trkpt>
      <trkpt lat="45.647000530734658" lon="7.920136749744415">
        <ele>1940.0799999999999</ele>
        <time>2013-06-30T09:34:25Z</time>
      </trkpt>
      <trkpt lat="45.646997597068548" lon="7.920109927654266">
        <ele>1940.0799999999999</ele>
        <time>2013-06-30T09:34:59Z</time>
      </trkpt>
      <trkpt lat="45.646999189630151" lon="7.920161979272962">
        <ele>1941.04</ele>
        <time>2013-06-30T09:35:22Z</time>
      </trkpt>
      <trkpt lat="45.646998099982738" lon="7.920159213244915">
        <ele>1940.5599999999999</ele>
        <time>2013-06-30T09:35:49Z</time>
      </trkpt>
      <trkpt lat="45.647021401673555" lon="7.92015259154141">
        <ele>1940.0799999999999</ele>
        <time>2013-06-30T09:36:17Z</time>
      </trkpt>
      <trkpt lat="45.647014863789082" lon="7.920138342306018">
        <ele>1940.5599999999999</ele>
        <time>2013-06-30T09:36:44Z</time>
      </trkpt>
      <trkpt lat="45.647013606503606" lon="7.920124176889658">
        <ele>1940.5599999999999</ele>
        <time>2013-06-30T09:37:16Z</time>
      </trkpt>
      <trkpt lat="45.647017378360033" lon="7.920141527429223">
        <ele>1940.5599999999999</ele>
        <time>2013-06-30T09:37:47Z</time>
      </trkpt>
      <trkpt lat="45.647012013942003" lon="7.920166086405516">
        <ele>1940.5599999999999</ele>
        <time>2013-06-30T09:38:20Z</time>
      </trkpt>
      <trkpt lat="45.647003967314959" lon="7.920160805806518">
        <ele>1940.5599999999999</ele>
        <time>2013-06-30T09:38:45Z</time>
      </trkpt>
      <trkpt lat="45.647007403895259" lon="7.920164158567786">
        <ele>1940.5599999999999</ele>
        <time>2013-06-30T09:39:09Z</time>
      </trkpt>
      <trkpt lat="45.647008577361703" lon="7.920156950131059">
        <ele>1940.5599999999999</ele>
        <time>2013-06-30T09:39:43Z</time>
      </trkpt>
      <trkpt lat="45.646996842697263" lon="7.920179329812527">
        <ele>1941.52</ele>
        <time>2013-06-30T09:40:18Z</time>
      </trkpt>
      <trkpt lat="45.647011008113623" lon="7.920172456651926">
        <ele>1941.52</ele>
        <time>2013-06-30T09:40:42Z</time>
      </trkpt>
      <trkpt lat="45.64701184630394" lon="7.920153178274632">
        <ele>1941.04</ele>
        <time>2013-06-30T09:41:06Z</time>
      </trkpt>
      <trkpt lat="45.647014109417796" lon="7.920144628733397">
        <ele>1941.52</ele>
        <time>2013-06-30T09:41:40Z</time>
      </trkpt>
      <trkpt lat="45.647019390016794" lon="7.920161727815867">
        <ele>1941.52</ele>
        <time>2013-06-30T09:42:04Z</time>
      </trkpt>
      <trkpt lat="45.647010756656528" lon="7.920163655653596">
        <ele>1942</ele>
        <time>2013-06-30T09:42:32Z</time>
      </trkpt>
      <trkpt lat="45.647012097761035" lon="7.920166840776801">
        <ele>1942</ele>
        <time>2013-06-30T09:43:06Z</time>
      </trkpt>
      <trkpt lat="45.647022910416126" lon="7.920171618461609">
        <ele>1942</ele>
        <time>2013-06-30T09:43:30Z</time>
      </trkpt>
      <trkpt lat="45.647020563483238" lon="7.920168349519372">
        <ele>1942.48</ele>
        <time>2013-06-30T09:44:00Z</time>
      </trkpt>
      <trkpt lat="45.647019557654858" lon="7.920154435560107">
        <ele>1942.48</ele>
        <time>2013-06-30T09:44:27Z</time>
      </trkpt>
      <trkpt lat="45.647020312026143" lon="7.920148819684982">
        <ele>1942.48</ele>
        <time>2013-06-30T09:44:59Z</time>
      </trkpt>
      <trkpt lat="45.647011427208781" lon="7.920168768614531">
        <ele>1942.48</ele>
        <time>2013-06-30T09:45:29Z</time>
      </trkpt>
      <trkpt lat="45.647017797455192" lon="7.92015016078949">
        <ele>1942.48</ele>
        <time>2013-06-30T09:45:54Z</time>
      </trkpt>
      <trkpt lat="45.647017043083906" lon="7.920147897675633">
        <ele>1942.96</ele>
        <time>2013-06-30T09:45:57Z</time>
      </trkpt>
      <trkpt lat="45.647020731121302" lon="7.92016482912004">
        <ele>1943.4400000000001</ele>
        <time>2013-06-30T09:46:09Z</time>
      </trkpt>
      <trkpt lat="45.647012433037162" lon="7.920132391154766">
        <ele>1943.4400000000001</ele>
        <time>2013-06-30T09:46:24Z</time>
      </trkpt>
      <trkpt lat="45.647008493542671" lon="7.920170864090323">
        <ele>1942.96</ele>
        <time>2013-06-30T09:46:39Z</time>
      </trkpt>
      <trkpt lat="45.646992567926645" lon="7.920201709493995">
        <ele>1943.4400000000001</ele>
        <time>2013-06-30T09:46:50Z</time>
      </trkpt>
      <trkpt lat="45.646997010335326" lon="7.920254850760102">
        <ele>1944.4000000000001</ele>
        <time>2013-06-30T09:47:02Z</time>
      </trkpt>
      <trkpt lat="45.647000195458531" lon="7.920312350615859">
        <ele>1944.8800000000001</ele>
        <time>2013-06-30T09:47:12Z</time>
      </trkpt>
      <trkpt lat="45.647019725292921" lon="7.920446041971445">
        <ele>1944.4000000000001</ele>
        <time>2013-06-30T09:47:26Z</time>
      </trkpt>
      <trkpt lat="45.647041099146008" lon="7.920491807162762">
        <ele>1944.4000000000001</ele>
        <time>2013-06-30T09:47:39Z</time>
      </trkpt>
      <trkpt lat="45.647046379745007" lon="7.920510834082961">
        <ele>1943.9200000000001</ele>
        <time>2013-06-30T09:47:42Z</time>
      </trkpt>
      <trkpt lat="45.647062975913286" lon="7.92056548409164">
        <ele>1943.9200000000001</ele>
        <time>2013-06-30T09:47:56Z</time>
      </trkpt>
      <trkpt lat="45.647066161036491" lon="7.920589288696647">
        <ele>1943.4400000000001</ele>
        <time>2013-06-30T09:48:12Z</time>
      </trkpt>
      <trkpt lat="45.647067166864872" lon="7.920610075816512">
        <ele>1943.4400000000001</ele>
        <time>2013-06-30T09:48:29Z</time>
      </trkpt>
      <trkpt lat="45.647072112187743" lon="7.920616278424859">
        <ele>1943.9200000000001</ele>
        <time>2013-06-30T09:48:30Z</time>
      </trkpt>
      <trkpt lat="45.647079236805439" lon="7.920633293688297">
        <ele>1943.4400000000001</ele>
        <time>2013-06-30T09:48:32Z</time>
      </trkpt>
      <trkpt lat="45.647086864337325" lon="7.920871675014496">
        <ele>1943.4400000000001</ele>
        <time>2013-06-30T09:48:49Z</time>
      </trkpt>
      <trkpt lat="45.647079404443502" lon="7.920932527631521">
        <ele>1942.96</ele>
        <time>2013-06-30T09:48:53Z</time>
      </trkpt>
      <trkpt lat="45.647040009498596" lon="7.921036882326007">
        <ele>1941.52</ele>
        <time>2013-06-30T09:49:00Z</time>
      </trkpt>
      <trkpt lat="45.647044703364372" lon="7.921091616153717">
        <ele>1942</ele>
        <time>2013-06-30T09:49:04Z</time>
      </trkpt>
      <trkpt lat="45.647003632038832" lon="7.9213238786906">
        <ele>1942.48</ele>
        <time>2013-06-30T09:49:21Z</time>
      </trkpt>
      <trkpt lat="45.646996172145009" lon="7.921508699655533">
        <ele>1942.96</ele>
        <time>2013-06-30T09:49:35Z</time>
      </trkpt>
      <trkpt lat="45.646962141618133" lon="7.921597044914961">
        <ele>1942</ele>
        <time>2013-06-30T09:49:42Z</time>
      </trkpt>
      <trkpt lat="45.646931547671556" lon="7.921629147604108">
        <ele>1941.52</ele>
        <time>2013-06-30T09:49:46Z</time>
      </trkpt>
      <trkpt lat="45.646913191303611" lon="7.92182276956737">
        <ele>1940.5599999999999</ele>
        <time>2013-06-30T09:50:00Z</time>
      </trkpt>
      <trkpt lat="45.646866085007787" lon="7.921861242502928">
        <ele>1940.0799999999999</ele>
        <time>2013-06-30T09:50:05Z</time>
      </trkpt>
      <trkpt lat="45.646829959005117" lon="7.921889489516616">
        <ele>1939.5999999999999</ele>
        <time>2013-06-30T09:50:09Z</time>
      </trkpt>
      <trkpt lat="45.646761730313301" lon="7.921973979100585">
        <ele>1938.6400000000001</ele>
        <time>2013-06-30T09:50:22Z</time>
      </trkpt>
      <trkpt lat="45.646673133596778" lon="7.922159805893898">
        <ele>1938.6400000000001</ele>
        <time>2013-06-30T09:50:39Z</time>
      </trkpt>
      <trkpt lat="45.646643964573741" lon="7.922190148383379">
        <ele>1939.1199999999999</ele>
        <time>2013-06-30T09:50:43Z</time>
      </trkpt>
      <trkpt lat="45.646574813872576" lon="7.922261143103242">
        <ele>1938.6400000000001</ele>
        <time>2013-06-30T09:50:51Z</time>
      </trkpt>
      <trkpt lat="45.646440703421831" lon="7.92240615002811">
        <ele>1939.1199999999999</ele>
        <time>2013-06-30T09:51:08Z</time>
      </trkpt>
      <trkpt lat="45.646376246586442" lon="7.92255082167685">
        <ele>1940.5599999999999</ele>
        <time>2013-06-30T09:51:23Z</time>
      </trkpt>
      <trkpt lat="45.646371636539698" lon="7.922560544684529">
        <ele>1941.04</ele>
        <time>2013-06-30T09:51:24Z</time>
      </trkpt>
      <trkpt lat="45.646333666518331" lon="7.922709574922919">
        <ele>1942</ele>
        <time>2013-06-30T09:51:39Z</time>
      </trkpt>
      <trkpt lat="45.646306509152055" lon="7.922805966809392">
        <ele>1941.52</ele>
        <time>2013-06-30T09:51:46Z</time>
      </trkpt>
      <trkpt lat="45.646308772265911" lon="7.922827759757638">
        <ele>1942</ele>
        <time>2013-06-30T09:51:48Z</time>
      </trkpt>
      <trkpt lat="45.646333834156394" lon="7.922909064218402">
        <ele>1942.96</ele>
        <time>2013-06-30T09:51:57Z</time>
      </trkpt>
      <trkpt lat="45.646376665681601" lon="7.9230369720608">
        <ele>1942.96</ele>
        <time>2013-06-30T09:52:09Z</time>
      </trkpt>
      <trkpt lat="45.646382533013821" lon="7.923180721700192">
        <ele>1942.48</ele>
        <time>2013-06-30T09:52:22Z</time>
      </trkpt>
      <trkpt lat="45.646406672894955" lon="7.923313239589334">
        <ele>1944.4000000000001</ele>
        <time>2013-06-30T09:52:36Z</time>
      </trkpt>
      <trkpt lat="45.646377084776759" lon="7.923391275107861">
        <ele>1945.3599999999999</ele>
        <time>2013-06-30T09:52:45Z</time>
      </trkpt>
      <trkpt lat="45.646399380639195" lon="7.923500910401344">
        <ele>1946.8099999999999</ele>
        <time>2013-06-30T09:53:00Z</time>
      </trkpt>
      <trkpt lat="45.646447157487273" lon="7.923617418855429">
        <ele>1947.77</ele>
        <time>2013-06-30T09:53:13Z</time>
      </trkpt>
      <trkpt lat="45.646472638472915" lon="7.923723449930549">
        <ele>1949.21</ele>
        <time>2013-06-30T09:53:26Z</time>
      </trkpt>
      <trkpt lat="45.646453192457557" lon="7.923802156001329">
        <ele>1949.21</ele>
        <time>2013-06-30T09:53:38Z</time>
      </trkpt>
      <trkpt lat="45.646415641531348" lon="7.923832079395652">
        <ele>1948.25</ele>
        <time>2013-06-30T09:53:45Z</time>
      </trkpt>
      <trkpt lat="45.646391501650214" lon="7.923860074952245">
        <ele>1948.73</ele>
        <time>2013-06-30T09:53:51Z</time>
      </trkpt>
      <trkpt lat="45.64638345502317" lon="7.92389402166009">
        <ele>1948.73</ele>
        <time>2013-06-30T09:53:54Z</time>
      </trkpt>
      <trkpt lat="45.646362667903304" lon="7.923924531787634">
        <ele>1948.25</ele>
        <time>2013-06-30T09:53:57Z</time>
      </trkpt>
      <trkpt lat="45.646332912147045" lon="7.923952024430037">
        <ele>1948.73</ele>
        <time>2013-06-30T09:54:01Z</time>
      </trkpt>
      <trkpt lat="45.646270969882607" lon="7.924016565084457">
        <ele>1951.1300000000001</ele>
        <time>2013-06-30T09:54:13Z</time>
      </trkpt>
      <trkpt lat="45.646253619343042" lon="7.924033580347896">
        <ele>1952.0899999999999</ele>
        <time>2013-06-30T09:54:28Z</time>
      </trkpt>
      <trkpt lat="45.646225372329354" lon="7.924070712178946">
        <ele>1952.5699999999999</ele>
        <time>2013-06-30T09:54:33Z</time>
      </trkpt>
      <trkpt lat="45.646206010133028" lon="7.924069538712502">
        <ele>1953.0599999999999</ele>
        <time>2013-06-30T09:54:35Z</time>
      </trkpt>
      <trkpt lat="45.646132249385118" lon="7.924134079366922">
        <ele>1954.98</ele>
        <time>2013-06-30T09:54:47Z</time>
      </trkpt>
      <trkpt lat="45.646056393161416" lon="7.924204990267754">
        <ele>1956.9000000000001</ele>
        <time>2013-06-30T09:54:59Z</time>
      </trkpt>
      <trkpt lat="45.645996043458581" lon="7.924263663589954">
        <ele>1958.3399999999999</ele>
        <time>2013-06-30T09:55:11Z</time>
      </trkpt>
      <trkpt lat="45.645946254953742" lon="7.924304902553558">
        <ele>1960.27</ele>
        <time>2013-06-30T09:55:21Z</time>
      </trkpt>
      <trkpt lat="45.64591096714139" lon="7.924296353012323">
        <ele>1960.75</ele>
        <time>2013-06-30T09:55:25Z</time>
      </trkpt>
      <trkpt lat="45.64587970264256" lon="7.92432401329279">
        <ele>1962.1900000000001</ele>
        <time>2013-06-30T09:55:33Z</time>
      </trkpt>
      <trkpt lat="45.645853467285633" lon="7.924407329410315">
        <ele>1963.6300000000001</ele>
        <time>2013-06-30T09:55:45Z</time>
      </trkpt>
      <trkpt lat="45.64577903598547" lon="7.924440857023001">
        <ele>1965.0699999999999</ele>
        <time>2013-06-30T09:55:56Z</time>
      </trkpt>
      <trkpt lat="45.645772246643901" lon="7.92446767911315">
        <ele>1966.03</ele>
        <time>2013-06-30T09:56:00Z</time>
      </trkpt>
      <trkpt lat="45.645746011286974" lon="7.924482263624668">
        <ele>1966.51</ele>
        <time>2013-06-30T09:56:03Z</time>
      </trkpt>
      <trkpt lat="45.645711477845907" lon="7.924456112086773">
        <ele>1966.51</ele>
        <time>2013-06-30T09:56:07Z</time>
      </trkpt>
      <trkpt lat="45.645628832280636" lon="7.924545295536518">
        <ele>1968.4400000000001</ele>
        <time>2013-06-30T09:56:22Z</time>
      </trkpt>
      <trkpt lat="45.645577199757099" lon="7.924618218094111">
        <ele>1970.8399999999999</ele>
        <time>2013-06-30T09:56:36Z</time>
      </trkpt>
      <trkpt lat="45.645586755126715" lon="7.924697259441018">
        <ele>1972.76</ele>
        <time>2013-06-30T09:56:48Z</time>
      </trkpt>
      <trkpt lat="45.645578373223543" lon="7.924845283851028">
        <ele>1975.6500000000001</ele>
        <time>2013-06-30T09:57:05Z</time>
      </trkpt>
      <trkpt lat="45.64556454308331" lon="7.924931449815631">
        <ele>1977.5699999999999</ele>
        <time>2013-06-30T09:57:17Z</time>
      </trkpt>
      <trkpt lat="45.645565129816532" lon="7.924987021833658">
        <ele>1979.01</ele>
        <time>2013-06-30T09:57:28Z</time>
      </trkpt>
      <trkpt lat="45.645575020462275" lon="7.925058184191585">
        <ele>1981.4100000000001</ele>
        <time>2013-06-30T09:57:40Z</time>
      </trkpt>
      <trkpt lat="45.645596645772457" lon="7.925156084820628">
        <ele>1983.3399999999999</ele>
        <time>2013-06-30T09:57:54Z</time>
      </trkpt>
      <trkpt lat="45.645565632730722" lon="7.925217440351844">
        <ele>1985.74</ele>
        <time>2013-06-30T09:58:08Z</time>
      </trkpt>
      <trkpt lat="45.645583234727383" lon="7.925277873873711">
        <ele>1987.6600000000001</ele>
        <time>2013-06-30T09:58:19Z</time>
      </trkpt>
      <trkpt lat="45.645619696006179" lon="7.925310730934143">
        <ele>1990.0699999999999</ele>
        <time>2013-06-30T09:58:32Z</time>
      </trkpt>
      <trkpt lat="45.645640734583139" lon="7.925381390377879">
        <ele>1991.03</ele>
        <time>2013-06-30T09:58:44Z</time>
      </trkpt>
      <trkpt lat="45.64558650366962" lon="7.925398321822286">
        <ele>1992.95</ele>
        <time>2013-06-30T09:58:56Z</time>
      </trkpt>
      <trkpt lat="45.645585916936398" lon="7.925451463088393">
        <ele>1995.8299999999999</ele>
        <time>2013-06-30T09:59:08Z</time>
      </trkpt>
      <trkpt lat="45.645593041554093" lon="7.92550359852612">
        <ele>1997.28</ele>
        <time>2013-06-30T09:59:21Z</time>
      </trkpt>
      <trkpt lat="45.645580217242241" lon="7.925545256584883">
        <ele>1998.72</ele>
        <time>2013-06-30T09:59:34Z</time>
      </trkpt>
      <trkpt lat="45.645593628287315" lon="7.925599571317434">
        <ele>2001.5999999999999</ele>
        <time>2013-06-30T09:59:47Z</time>
      </trkpt>
      <trkpt lat="45.64558994024992" lon="7.925642570480704">
        <ele>2004.01</ele>
        <time>2013-06-30T09:59:59Z</time>
      </trkpt>
      <trkpt lat="45.645637800917029" lon="7.925626393407583">
        <ele>2005.9300000000001</ele>
        <time>2013-06-30T10:00:15Z</time>
      </trkpt>
      <trkpt lat="45.645601339638233" lon="7.925711302086711">
        <ele>2007.8499999999999</ele>
        <time>2013-06-30T10:00:29Z</time>
      </trkpt>
      <trkpt lat="45.645628832280636" lon="7.925718426704407">
        <ele>2009.77</ele>
        <time>2013-06-30T10:00:42Z</time>
      </trkpt>
      <trkpt lat="45.645706951618195" lon="7.925758492201567">
        <ele>2012.1800000000001</ele>
        <time>2013-06-30T10:00:56Z</time>
      </trkpt>
      <trkpt lat="45.64567250199616" lon="7.925853626802564">
        <ele>2015.54</ele>
        <time>2013-06-30T10:01:09Z</time>
      </trkpt>
      <trkpt lat="45.645600752905011" lon="7.925901571288705">
        <ele>2016.98</ele>
        <time>2013-06-30T10:01:24Z</time>
      </trkpt>
      <trkpt lat="45.645581306889653" lon="7.92594725266099">
        <ele>2019.8699999999999</ele>
        <time>2013-06-30T10:01:37Z</time>
      </trkpt>
      <trkpt lat="45.645624892786145" lon="7.925964100286365">
        <ele>2021.79</ele>
        <time>2013-06-30T10:01:51Z</time>
      </trkpt>
      <trkpt lat="45.645587341859937" lon="7.926038280129433">
        <ele>2024.6700000000001</ele>
        <time>2013-06-30T10:02:05Z</time>
      </trkpt>
      <trkpt lat="45.645522717386484" lon="7.92610022239387">
        <ele>2027.0799999999999</ele>
        <time>2013-06-30T10:02:21Z</time>
      </trkpt>
      <trkpt lat="45.645480807870626" lon="7.926089242100716">
        <ele>2029</ele>
        <time>2013-06-30T10:02:33Z</time>
      </trkpt>
      <trkpt lat="45.645488938316703" lon="7.926149172708392">
        <ele>2029.48</ele>
        <time>2013-06-30T10:02:48Z</time>
      </trkpt>
      <trkpt lat="45.645469073206186" lon="7.926203068345785">
        <ele>2032.3599999999999</ele>
        <time>2013-06-30T10:03:00Z</time>
      </trkpt>
      <trkpt lat="45.645437054336071" lon="7.926260568201542">
        <ele>2035.25</ele>
        <time>2013-06-30T10:03:12Z</time>
      </trkpt>
      <trkpt lat="45.645396234467626" lon="7.926335334777832">
        <ele>2037.6500000000001</ele>
        <time>2013-06-30T10:03:25Z</time>
      </trkpt>
      <trkpt lat="45.645381649956107" lon="7.926366766914725">
        <ele>2039.0899999999999</ele>
        <time>2013-06-30T10:03:38Z</time>
      </trkpt>
      <trkpt lat="45.645371424034238" lon="7.926404988393188">
        <ele>2041.02</ele>
        <time>2013-06-30T10:03:53Z</time>
      </trkpt>
      <trkpt lat="45.645328173413873" lon="7.926446227356792">
        <ele>2042.46</ele>
        <time>2013-06-30T10:04:06Z</time>
      </trkpt>
      <trkpt lat="45.645307302474976" lon="7.926482018083334">
        <ele>2044.3800000000001</ele>
        <time>2013-06-30T10:04:18Z</time>
      </trkpt>
      <trkpt lat="45.645284503698349" lon="7.926540859043598">
        <ele>2046.3</ele>
        <time>2013-06-30T10:04:31Z</time>
      </trkpt>
      <trkpt lat="45.645233038812876" lon="7.926591653376818">
        <ele>2049.1900000000001</ele>
        <time>2013-06-30T10:04:44Z</time>
      </trkpt>
      <trkpt lat="45.645212586969137" lon="7.926681591197848">
        <ele>2051.5900000000001</ele>
        <time>2013-06-30T10:04:58Z</time>
      </trkpt>
      <trkpt lat="45.645235553383827" lon="7.92672710493207">
        <ele>2053.5100000000002</ele>
        <time>2013-06-30T10:05:11Z</time>
      </trkpt>
      <trkpt lat="45.645187189802527" lon="7.926804218441248">
        <ele>2055.4400000000001</ele>
        <time>2013-06-30T10:05:23Z</time>
      </trkpt>
      <trkpt lat="45.645146621391177" lon="7.926910249516368">
        <ele>2056.8800000000001</ele>
        <time>2013-06-30T10:05:37Z</time>
      </trkpt>
      <trkpt lat="45.645148297771811" lon="7.926920391619206">
        <ele>2057.3600000000001</ele>
        <time>2013-06-30T10:05:39Z</time>
      </trkpt>
      <trkpt lat="45.645149974152446" lon="7.926986357197166">
        <ele>2057.8400000000001</ele>
        <time>2013-06-30T10:05:46Z</time>
      </trkpt>
      <trkpt lat="45.645176712423563" lon="7.927110996097326">
        <ele>2057.8400000000001</ele>
        <time>2013-06-30T10:06:01Z</time>
      </trkpt>
      <trkpt lat="45.645168665796518" lon="7.927120635285974">
        <ele>2057.8400000000001</ele>
        <time>2013-06-30T10:06:19Z</time>
      </trkpt>
      <trkpt lat="45.64517361111939" lon="7.927116779610515">
        <ele>2056.8800000000001</ele>
        <time>2013-06-30T10:06:29Z</time>
      </trkpt>
      <trkpt lat="45.64518241211772" lon="7.927101273089647">
        <ele>2056.8800000000001</ele>
        <time>2013-06-30T10:06:44Z</time>
      </trkpt>
      <trkpt lat="45.645195990800858" lon="7.9271209705621">
        <ele>2056.8800000000001</ele>
        <time>2013-06-30T10:07:00Z</time>
      </trkpt>
      <trkpt lat="45.645190961658955" lon="7.927115606144071">
        <ele>2057.3600000000001</ele>
        <time>2013-06-30T10:07:25Z</time>
      </trkpt>
      <trkpt lat="45.645185094326735" lon="7.927100267261267">
        <ele>2057.3600000000001</ele>
        <time>2013-06-30T10:07:58Z</time>
      </trkpt>
      <trkpt lat="45.645177466794848" lon="7.927082749083638">
        <ele>2057.8400000000001</ele>
        <time>2013-06-30T10:08:29Z</time>
      </trkpt>
      <trkpt lat="45.645181573927402" lon="7.927103117108345">
        <ele>2057.3600000000001</ele>
        <time>2013-06-30T10:08:42Z</time>
      </trkpt>
      <trkpt lat="45.645180568099022" lon="7.927102446556091">
        <ele>2058.3200000000002</ele>
        <time>2013-06-30T10:09:01Z</time>
      </trkpt>
      <trkpt lat="45.645167743787169" lon="7.927078977227211">
        <ele>2059.2800000000002</ele>
        <time>2013-06-30T10:09:10Z</time>
      </trkpt>
      <trkpt lat="45.645205294713378" lon="7.927150055766106">
        <ele>2058.8000000000002</ele>
        <time>2013-06-30T10:09:29Z</time>
      </trkpt>
      <trkpt lat="45.645164726302028" lon="7.927178470417857">
        <ele>2057.8400000000001</ele>
        <time>2013-06-30T10:09:46Z</time>
      </trkpt>
      <trkpt lat="45.645167827606201" lon="7.927232114598155">
        <ele>2056.8800000000001</ele>
        <time>2013-06-30T10:09:57Z</time>
      </trkpt>
      <trkpt lat="45.645164642482996" lon="7.927250219509006">
        <ele>2056.4000000000001</ele>
        <time>2013-06-30T10:10:13Z</time>
      </trkpt>
      <trkpt lat="45.645179646089673" lon="7.927247956395149">
        <ele>2056.8800000000001</ele>
        <time>2013-06-30T10:10:32Z</time>
      </trkpt>
      <trkpt lat="45.645171599462628" lon="7.927264217287302">
        <ele>2056.8800000000001</ele>
        <time>2013-06-30T10:10:57Z</time>
      </trkpt>
      <trkpt lat="45.645165564492345" lon="7.927260864526033">
        <ele>2056.4000000000001</ele>
        <time>2013-06-30T10:11:11Z</time>
      </trkpt>
      <trkpt lat="45.645149722695351" lon="7.927280394360423">
        <ele>2055.9200000000001</ele>
        <time>2013-06-30T10:11:32Z</time>
      </trkpt>
      <trkpt lat="45.645163217559457" lon="7.927275951951742">
        <ele>2055.9200000000001</ele>
        <time>2013-06-30T10:11:38Z</time>
      </trkpt>
      <trkpt lat="45.645155925303698" lon="7.927234964445233">
        <ele>2056.8800000000001</ele>
        <time>2013-06-30T10:11:48Z</time>
      </trkpt>
      <trkpt lat="45.645166402682662" lon="7.927232952788472">
        <ele>2056.4000000000001</ele>
        <time>2013-06-30T10:12:02Z</time>
      </trkpt>
      <trkpt lat="45.645151985809207" lon="7.927236221730709">
        <ele>2057.3600000000001</ele>
        <time>2013-06-30T10:12:22Z</time>
      </trkpt>
      <trkpt lat="45.645172270014882" lon="7.927339738234878">
        <ele>2056.4000000000001</ele>
        <time>2013-06-30T10:12:37Z</time>
      </trkpt>
      <trkpt lat="45.645172102376819" lon="7.927353736013174">
        <ele>2055.9200000000001</ele>
        <time>2013-06-30T10:12:38Z</time>
      </trkpt>
      <trkpt lat="45.645132204517722" lon="7.927609635517001">
        <ele>2053.0300000000002</ele>
        <time>2013-06-30T10:12:56Z</time>
      </trkpt>
      <trkpt lat="45.645060539245605" lon="7.927820691838861">
        <ele>2051.5900000000001</ele>
        <time>2013-06-30T10:13:14Z</time>
      </trkpt>
      <trkpt lat="45.645104628056288" lon="7.927849525585771">
        <ele>2048.71</ele>
        <time>2013-06-30T10:13:25Z</time>
      </trkpt>
      <trkpt lat="45.645171012729406" lon="7.927881209179759">
        <ele>2046.3</ele>
        <time>2013-06-30T10:13:38Z</time>
      </trkpt>
      <trkpt lat="45.645171767100692" lon="7.927995035424829">
        <ele>2044.3800000000001</ele>
        <time>2013-06-30T10:13:50Z</time>
      </trkpt>
      <trkpt lat="45.645163720473647" lon="7.928018672391772">
        <ele>2043.9000000000001</ele>
        <time>2013-06-30T10:13:52Z</time>
      </trkpt>
      <trkpt lat="45.645125498995185" lon="7.928117578849196">
        <ele>2041.98</ele>
        <time>2013-06-30T10:14:04Z</time>
      </trkpt>
      <trkpt lat="45.645159529522061" lon="7.928151357918978">
        <ele>2042.46</ele>
        <time>2013-06-30T10:14:10Z</time>
      </trkpt>
      <trkpt lat="45.645170677453279" lon="7.928172396495938">
        <ele>2041.98</ele>
        <time>2013-06-30T10:14:12Z</time>
      </trkpt>
      <trkpt lat="45.645183837041259" lon="7.928308518603444">
        <ele>2041.5</ele>
        <time>2013-06-30T10:14:26Z</time>
      </trkpt>
      <trkpt lat="45.645190374925733" lon="7.928373981267214">
        <ele>2041.98</ele>
        <time>2013-06-30T10:14:40Z</time>
      </trkpt>
      <trkpt lat="45.645186183974147" lon="7.928409771993756">
        <ele>2041.5</ele>
        <time>2013-06-30T10:14:43Z</time>
      </trkpt>
      <trkpt lat="45.645194230601192" lon="7.928459728136659">
        <ele>2041.5</ele>
        <time>2013-06-30T10:14:46Z</time>
      </trkpt>
      <trkpt lat="45.645164810121059" lon="7.928581433370709">
        <ele>2041.5</ele>
        <time>2013-06-30T10:14:57Z</time>
      </trkpt>
      <trkpt lat="45.64515215344727" lon="7.928650416433811">
        <ele>2042.46</ele>
        <time>2013-06-30T10:15:11Z</time>
      </trkpt>
      <trkpt lat="45.645128600299358" lon="7.928691823035479">
        <ele>2041.98</ele>
        <time>2013-06-30T10:15:18Z</time>
      </trkpt>
      <trkpt lat="45.645114602521062" lon="7.92875493876636">
        <ele>2041.98</ele>
        <time>2013-06-30T10:15:24Z</time>
      </trkpt>
      <trkpt lat="45.645094402134418" lon="7.928764997050166">
        <ele>2041.98</ele>
        <time>2013-06-30T10:15:26Z</time>
      </trkpt>
      <trkpt lat="45.645087528973818" lon="7.928793914616108">
        <ele>2041.98</ele>
        <time>2013-06-30T10:15:28Z</time>
      </trkpt>
      <trkpt lat="45.645034639164805" lon="7.928874297067523">
        <ele>2041.5</ele>
        <time>2013-06-30T10:15:36Z</time>
      </trkpt>
      <trkpt lat="45.64502751454711" lon="7.928912183269858">
        <ele>2041.98</ele>
        <time>2013-06-30T10:15:39Z</time>
      </trkpt>
      <trkpt lat="45.644994741305709" lon="7.929054507985711">
        <ele>2041.5</ele>
        <time>2013-06-30T10:15:51Z</time>
      </trkpt>
      <trkpt lat="45.644956771284342" lon="7.929189540445805">
        <ele>2042.46</ele>
        <time>2013-06-30T10:16:04Z</time>
      </trkpt>
      <trkpt lat="45.644906060770154" lon="7.929311329498887">
        <ele>2042.9400000000001</ele>
        <time>2013-06-30T10:16:16Z</time>
      </trkpt>
      <trkpt lat="45.644806316122413" lon="7.929407972842455">
        <ele>2042.9400000000001</ele>
        <time>2013-06-30T10:16:30Z</time>
      </trkpt>
      <trkpt lat="45.644784439355135" lon="7.929528839886189">
        <ele>2044.8599999999999</ele>
        <time>2013-06-30T10:16:43Z</time>
      </trkpt>
      <trkpt lat="45.644738925620914" lon="7.929607462137938">
        <ele>2045.8199999999999</ele>
        <time>2013-06-30T10:16:58Z</time>
      </trkpt>
      <trkpt lat="45.644743200391531" lon="7.929661273956299">
        <ele>2047.26</ele>
        <time>2013-06-30T10:17:07Z</time>
      </trkpt>
      <trkpt lat="45.644730376079679" lon="7.92968331836164">
        <ele>2047.26</ele>
        <time>2013-06-30T10:17:09Z</time>
      </trkpt>
      <trkpt lat="45.644639180973172" lon="7.929745092988014">
        <ele>2048.71</ele>
        <time>2013-06-30T10:17:22Z</time>
      </trkpt>
      <trkpt lat="45.644621243700385" lon="7.929799994453788">
        <ele>2048.71</ele>
        <time>2013-06-30T10:17:28Z</time>
      </trkpt>
      <trkpt lat="45.644593499600887" lon="7.929874174296856">
        <ele>2049.6700000000001</ele>
        <time>2013-06-30T10:17:35Z</time>
      </trkpt>
      <trkpt lat="45.644521750509739" lon="7.929954640567303">
        <ele>2051.1100000000001</ele>
        <time>2013-06-30T10:17:50Z</time>
      </trkpt>
      <trkpt lat="45.64450859092176" lon="7.930032340809703">
        <ele>2052.0700000000002</ele>
        <time>2013-06-30T10:18:02Z</time>
      </trkpt>
      <trkpt lat="45.64450272358954" lon="7.930157398805022">
        <ele>2054.4699999999998</ele>
        <time>2013-06-30T10:18:15Z</time>
      </trkpt>
      <trkpt lat="45.644521750509739" lon="7.930280948057771">
        <ele>2055.4400000000001</ele>
        <time>2013-06-30T10:18:27Z</time>
      </trkpt>
      <trkpt lat="45.644525354728103" lon="7.930290503427386">
        <ele>2054.96</ele>
        <time>2013-06-30T10:18:28Z</time>
      </trkpt>
      <trkpt lat="45.64454086124897" lon="7.930376585572958">
        <ele>2053.9899999999998</ele>
        <time>2013-06-30T10:18:40Z</time>
      </trkpt>
      <trkpt lat="45.644561313092709" lon="7.93045680038631">
        <ele>2055.9200000000001</ele>
        <time>2013-06-30T10:18:53Z</time>
      </trkpt>
      <trkpt lat="45.644573215395212" lon="7.930541960522533">
        <ele>2059.2800000000002</ele>
        <time>2013-06-30T10:19:05Z</time>
      </trkpt>
      <trkpt lat="45.644577573984861" lon="7.930618319660425">
        <ele>2060.7199999999998</ele>
        <time>2013-06-30T10:19:17Z</time>
      </trkpt>
      <trkpt lat="45.644583608955145" lon="7.930732229724526">
        <ele>2061.6799999999998</ele>
        <time>2013-06-30T10:19:29Z</time>
      </trkpt>
      <trkpt lat="45.644542537629604" lon="7.930848905816674">
        <ele>2064.0900000000001</ele>
        <time>2013-06-30T10:19:43Z</time>
      </trkpt>
      <trkpt lat="45.644502304494381" lon="7.930927947163582">
        <ele>2065.5300000000002</ele>
        <time>2013-06-30T10:19:54Z</time>
      </trkpt>
      <trkpt lat="45.644542202353477" lon="7.93095082975924">
        <ele>2068.4099999999999</ele>
        <time>2013-06-30T10:20:07Z</time>
      </trkpt>
      <trkpt lat="45.644558798521757" lon="7.931072702631354">
        <ele>2070.3400000000001</ele>
        <time>2013-06-30T10:20:22Z</time>
      </trkpt>
      <trkpt lat="45.644559049978852" lon="7.93118535540998">
        <ele>2072.2600000000002</ele>
        <time>2013-06-30T10:20:34Z</time>
      </trkpt>
      <trkpt lat="45.644572712481022" lon="7.931285435333848">
        <ele>2074.1799999999998</ele>
        <time>2013-06-30T10:20:47Z</time>
      </trkpt>
      <trkpt lat="45.644579585641623" lon="7.931311251595616">
        <ele>2074.1799999999998</ele>
        <time>2013-06-30T10:20:51Z</time>
      </trkpt>
      <trkpt lat="45.644577322527766" lon="7.931395908817649">
        <ele>2075.6199999999999</ele>
        <time>2013-06-30T10:21:02Z</time>
      </trkpt>
      <trkpt lat="45.644558295607567" lon="7.93144921772182">
        <ele>2078.0300000000002</ele>
        <time>2013-06-30T10:21:14Z</time>
      </trkpt>
      <trkpt lat="45.644554942846298" lon="7.931520128622651">
        <ele>2078.9899999999998</ele>
        <time>2013-06-30T10:21:27Z</time>
      </trkpt>
      <trkpt lat="45.644556535407901" lon="7.931552650406957">
        <ele>2079.4699999999998</ele>
        <time>2013-06-30T10:21:47Z</time>
      </trkpt>
      <trkpt lat="45.644532227888703" lon="7.93164468370378">
        <ele>2081.3899999999999</ele>
        <time>2013-06-30T10:22:00Z</time>
      </trkpt>
      <trkpt lat="45.644527366384864" lon="7.931773010641336">
        <ele>2081.8699999999999</ele>
        <time>2013-06-30T10:22:14Z</time>
      </trkpt>
      <trkpt lat="45.64449836499989" lon="7.93186160735786">
        <ele>2082.3499999999999</ele>
        <time>2013-06-30T10:22:29Z</time>
      </trkpt>
      <trkpt lat="45.644445978105068" lon="7.931956239044666">
        <ele>2084.7600000000002</ele>
        <time>2013-06-30T10:22:43Z</time>
      </trkpt>
      <trkpt lat="45.644367523491383" lon="7.931995047256351">
        <ele>2086.6799999999998</ele>
        <time>2013-06-30T10:22:57Z</time>
      </trkpt>
      <trkpt lat="45.644363835453987" lon="7.932044584304094">
        <ele>2087.1599999999999</ele>
        <time>2013-06-30T10:23:09Z</time>
      </trkpt>
      <trkpt lat="45.644377581775188" lon="7.932105101644993">
        <ele>2086.6799999999998</ele>
        <time>2013-06-30T10:23:17Z</time>
      </trkpt>
      <trkpt lat="45.644381185993552" lon="7.932128570973873">
        <ele>2086.6799999999998</ele>
        <time>2013-06-30T10:23:19Z</time>
      </trkpt>
      <trkpt lat="45.644379761070013" lon="7.932214988395572">
        <ele>2088.1199999999999</ele>
        <time>2013-06-30T10:23:29Z</time>
      </trkpt>
      <trkpt lat="45.644317734986544" lon="7.932322025299072">
        <ele>2088.5999999999999</ele>
        <time>2013-06-30T10:23:43Z</time>
      </trkpt>
      <trkpt lat="45.644311448559165" lon="7.932320348918438">
        <ele>2089.5599999999999</ele>
        <time>2013-06-30T10:23:55Z</time>
      </trkpt>
      <trkpt lat="45.644296277314425" lon="7.932377010583878">
        <ele>2090.04</ele>
        <time>2013-06-30T10:24:05Z</time>
      </trkpt>
      <trkpt lat="45.644278507679701" lon="7.932440880686045">
        <ele>2091</ele>
        <time>2013-06-30T10:24:12Z</time>
      </trkpt>
      <trkpt lat="45.644245063886046" lon="7.932439623400569">
        <ele>2090.52</ele>
        <time>2013-06-30T10:24:15Z</time>
      </trkpt>
      <trkpt lat="45.644169794395566" lon="7.93251246213913">
        <ele>2092.9299999999998</ele>
        <time>2013-06-30T10:24:30Z</time>
      </trkpt>
      <trkpt lat="45.644103996455669" lon="7.932605417445302">
        <ele>2094.3699999999999</ele>
        <time>2013-06-30T10:24:43Z</time>
      </trkpt>
      <trkpt lat="45.644042808562517" lon="7.932645985856652">
        <ele>2096.29</ele>
        <time>2013-06-30T10:24:54Z</time>
      </trkpt>
      <trkpt lat="45.644003748893738" lon="7.932745143771172">
        <ele>2097.25</ele>
        <time>2013-06-30T10:25:07Z</time>
      </trkpt>
      <trkpt lat="45.643988410010934" lon="7.932765763252974">
        <ele>2097.73</ele>
        <time>2013-06-30T10:25:11Z</time>
      </trkpt>
      <trkpt lat="45.643976088613272" lon="7.932795770466328">
        <ele>2097.73</ele>
        <time>2013-06-30T10:25:14Z</time>
      </trkpt>
      <trkpt lat="45.643901489675045" lon="7.932929210364819">
        <ele>2097.25</ele>
        <time>2013-06-30T10:25:30Z</time>
      </trkpt>
      <trkpt lat="45.643903752788901" lon="7.933071786537767">
        <ele>2095.8099999999999</ele>
        <time>2013-06-30T10:25:42Z</time>
      </trkpt>
      <trkpt lat="45.643889922648668" lon="7.933119228109717">
        <ele>2095.3299999999999</ele>
        <time>2013-06-30T10:26:00Z</time>
      </trkpt>
      <trkpt lat="45.643885647878051" lon="7.933100955560803">
        <ele>2093.8899999999999</ele>
        <time>2013-06-30T10:26:11Z</time>
      </trkpt>
      <trkpt lat="45.643896460533142" lon="7.933087293058634">
        <ele>2093.8899999999999</ele>
        <time>2013-06-30T10:26:46Z</time>
      </trkpt>
      <trkpt lat="45.643880954012275" lon="7.933080419898033">
        <ele>2094.3699999999999</ele>
        <time>2013-06-30T10:27:16Z</time>
      </trkpt>
      <trkpt lat="45.643888246268034" lon="7.933126604184508">
        <ele>2095.3299999999999</ele>
        <time>2013-06-30T10:27:27Z</time>
      </trkpt>
      <trkpt lat="45.6438606698066" lon="7.933159293606877">
        <ele>2094.8499999999999</ele>
        <time>2013-06-30T10:27:39Z</time>
      </trkpt>
      <trkpt lat="45.643810462206602" lon="7.933253338560462">
        <ele>2094.3699999999999</ele>
        <time>2013-06-30T10:27:53Z</time>
      </trkpt>
      <trkpt lat="45.643825801089406" lon="7.933369344100356">
        <ele>2096.77</ele>
        <time>2013-06-30T10:28:06Z</time>
      </trkpt>
      <trkpt lat="45.643847594037652" lon="7.933435225859284">
        <ele>2098.21</ele>
        <time>2013-06-30T10:28:14Z</time>
      </trkpt>
      <trkpt lat="45.643829656764865" lon="7.933540167286992">
        <ele>2100.6199999999999</ele>
        <time>2013-06-30T10:28:27Z</time>
      </trkpt>
      <trkpt lat="45.643804846331477" lon="7.933630188927054">
        <ele>2102.0599999999999</ele>
        <time>2013-06-30T10:28:39Z</time>
      </trkpt>
      <trkpt lat="45.643745167180896" lon="7.933684419840574">
        <ele>2103.98</ele>
        <time>2013-06-30T10:28:52Z</time>
      </trkpt>
      <trkpt lat="45.643712896853685" lon="7.933750385418534">
        <ele>2105.9099999999999</ele>
        <time>2013-06-30T10:29:03Z</time>
      </trkpt>
      <trkpt lat="45.643704598769546" lon="7.933827666565776">
        <ele>2106.8699999999999</ele>
        <time>2013-06-30T10:29:15Z</time>
      </trkpt>
      <trkpt lat="45.643732342869043" lon="7.933885836973786">
        <ele>2109.75</ele>
        <time>2013-06-30T10:29:28Z</time>
      </trkpt>
      <trkpt lat="45.643787160515785" lon="7.933902265504003">
        <ele>2111.6700000000001</ele>
        <time>2013-06-30T10:29:40Z</time>
      </trkpt>
      <trkpt lat="45.643752627074718" lon="7.93401743285358">
        <ele>2113.5999999999999</ele>
        <time>2013-06-30T10:29:52Z</time>
      </trkpt>
      <trkpt lat="45.643710466101766" lon="7.934047859162092">
        <ele>2115.04</ele>
        <time>2013-06-30T10:30:00Z</time>
      </trkpt>
      <trkpt lat="45.643663359805942" lon="7.934135114774108">
        <ele>2116.48</ele>
        <time>2013-06-30T10:30:13Z</time>
      </trkpt>
      <trkpt lat="45.643633184954524" lon="7.934208540245891">
        <ele>2117.9200000000001</ele>
        <time>2013-06-30T10:30:24Z</time>
      </trkpt>
      <trkpt lat="45.643584402278066" lon="7.934283223003149">
        <ele>2119.3600000000001</ele>
        <time>2013-06-30T10:30:38Z</time>
      </trkpt>
      <trkpt lat="45.643575433641672" lon="7.934324378147721">
        <ele>2121.29</ele>
        <time>2013-06-30T10:30:48Z</time>
      </trkpt>
      <trkpt lat="45.643599322065711" lon="7.934374418109655">
        <ele>2123.6900000000001</ele>
        <time>2013-06-30T10:31:01Z</time>
      </trkpt>
      <trkpt lat="45.643606027588248" lon="7.93445915915072">
        <ele>2127.0500000000002</ele>
        <time>2013-06-30T10:31:19Z</time>
      </trkpt>
      <trkpt lat="45.643564537167549" lon="7.934556305408478">
        <ele>2129.46</ele>
        <time>2013-06-30T10:31:30Z</time>
      </trkpt>
      <trkpt lat="45.643566632643342" lon="7.934590419754386">
        <ele>2131.3800000000001</ele>
        <time>2013-06-30T10:31:40Z</time>
      </trkpt>
      <trkpt lat="45.643506785854697" lon="7.934678765013814">
        <ele>2133.7800000000002</ele>
        <time>2013-06-30T10:31:53Z</time>
      </trkpt>
      <trkpt lat="45.643480718135834" lon="7.934721009805799">
        <ele>2133.7800000000002</ele>
        <time>2013-06-30T10:31:59Z</time>
      </trkpt>
      <trkpt lat="45.643413411453366" lon="7.934824945405126">
        <ele>2134.2600000000002</ele>
        <time>2013-06-30T10:32:13Z</time>
      </trkpt>
      <trkpt lat="45.64338868483901" lon="7.934947656467557">
        <ele>2136.1900000000001</ele>
        <time>2013-06-30T10:32:26Z</time>
      </trkpt>
      <trkpt lat="45.643384074792266" lon="7.935060057789087">
        <ele>2137.6300000000001</ele>
        <time>2013-06-30T10:32:40Z</time>
      </trkpt>
      <trkpt lat="45.643392372876406" lon="7.935171956196427">
        <ele>2140.0300000000002</ele>
        <time>2013-06-30T10:32:54Z</time>
      </trkpt>
      <trkpt lat="45.643407376483083" lon="7.935242112725973">
        <ele>2142.9200000000001</ele>
        <time>2013-06-30T10:33:08Z</time>
      </trkpt>
      <trkpt lat="45.643407125025988" lon="7.935373038053513">
        <ele>2145.8000000000002</ele>
        <time>2013-06-30T10:33:24Z</time>
      </trkpt>
      <trkpt lat="45.643393797799945" lon="7.935468256473541">
        <ele>2148.1999999999998</ele>
        <time>2013-06-30T10:33:37Z</time>
      </trkpt>
      <trkpt lat="45.6433788780123" lon="7.935548136010766">
        <ele>2150.6100000000001</ele>
        <time>2013-06-30T10:33:50Z</time>
      </trkpt>
      <trkpt lat="45.64341994933784" lon="7.935512093827128">
        <ele>2151.5700000000002</ele>
        <time>2013-06-30T10:34:01Z</time>
      </trkpt>
      <trkpt lat="45.643444424495101" lon="7.935513099655509">
        <ele>2152.5300000000002</ele>
        <time>2013-06-30T10:34:16Z</time>
      </trkpt>
      <trkpt lat="45.643495135009289" lon="7.935499269515276">
        <ele>2154.9299999999998</ele>
        <time>2013-06-30T10:34:30Z</time>
      </trkpt>
      <trkpt lat="45.643506199121475" lon="7.935565151274204">
        <ele>2155.4099999999999</ele>
        <time>2013-06-30T10:34:48Z</time>
      </trkpt>
      <trkpt lat="45.643516257405281" lon="7.935648132115603">
        <ele>2157.8200000000002</ele>
        <time>2013-06-30T10:35:01Z</time>
      </trkpt>
      <trkpt lat="45.643455069512129" lon="7.93575257062912">
        <ele>2161.1799999999998</ele>
        <time>2013-06-30T10:35:16Z</time>
      </trkpt>
      <trkpt lat="45.643386337906122" lon="7.935822559520602">
        <ele>2163.5799999999999</ele>
        <time>2013-06-30T10:35:31Z</time>
      </trkpt>
      <trkpt lat="45.643309308215976" lon="7.93585323728621">
        <ele>2165.0300000000002</ele>
        <time>2013-06-30T10:35:44Z</time>
      </trkpt>
      <trkpt lat="45.643359599635005" lon="7.935867821797729">
        <ele>2167.9099999999999</ele>
        <time>2013-06-30T10:35:58Z</time>
      </trkpt>
      <trkpt lat="45.643365466967225" lon="7.935881149023771">
        <ele>2167.9099999999999</ele>
        <time>2013-06-30T10:35:59Z</time>
      </trkpt>
      <trkpt lat="45.643402431160212" lon="7.935932194814086">
        <ele>2169.8299999999999</ele>
        <time>2013-06-30T10:36:11Z</time>
      </trkpt>
      <trkpt lat="45.643454231321812" lon="7.935929261147976">
        <ele>2171.7600000000002</ele>
        <time>2013-06-30T10:36:24Z</time>
      </trkpt>
      <trkpt lat="45.643474431708455" lon="7.935996316373348">
        <ele>2174.1599999999999</ele>
        <time>2013-06-30T10:36:38Z</time>
      </trkpt>
      <trkpt lat="45.643407795578241" lon="7.936039064079523">
        <ele>2175.5999999999999</ele>
        <time>2013-06-30T10:36:49Z</time>
      </trkpt>
      <trkpt lat="45.643349289894104" lon="7.936044093221426">
        <ele>2177.52</ele>
        <time>2013-06-30T10:37:02Z</time>
      </trkpt>
      <trkpt lat="45.643343087285757" lon="7.936053648591042">
        <ele>2177.52</ele>
        <time>2013-06-30T10:37:13Z</time>
      </trkpt>
      <trkpt lat="45.643267314881086" lon="7.936091953888536">
        <ele>2178.48</ele>
        <time>2013-06-30T10:37:25Z</time>
      </trkpt>
      <trkpt lat="45.643198415637016" lon="7.936153141781688">
        <ele>2180.8899999999999</ele>
        <time>2013-06-30T10:37:38Z</time>
      </trkpt>
      <trkpt lat="45.643120044842362" lon="7.936181891709566">
        <ele>2183.29</ele>
        <time>2013-06-30T10:37:53Z</time>
      </trkpt>
      <trkpt lat="45.643094731494784" lon="7.936189854517579">
        <ele>2183.77</ele>
        <time>2013-06-30T10:38:02Z</time>
      </trkpt>
      <trkpt lat="45.643067909404635" lon="7.936220783740282">
        <ele>2183.29</ele>
        <time>2013-06-30T10:38:24Z</time>
      </trkpt>
      <trkpt lat="45.643061622977257" lon="7.936223465949297">
        <ele>2183.29</ele>
        <time>2013-06-30T10:38:25Z</time>
      </trkpt>
      <trkpt lat="45.64296992495656" lon="7.93631105683744">
        <ele>2183.29</ele>
        <time>2013-06-30T10:38:40Z</time>
      </trkpt>
      <trkpt lat="45.64289515838027" lon="7.936367467045784">
        <ele>2184.73</ele>
        <time>2013-06-30T10:38:53Z</time>
      </trkpt>
      <trkpt lat="45.642825588583946" lon="7.936414740979672">
        <ele>2185.6900000000001</ele>
        <time>2013-06-30T10:39:07Z</time>
      </trkpt>
      <trkpt lat="45.642835814505816" lon="7.936426559463143">
        <ele>2187.1399999999999</ele>
        <time>2013-06-30T10:39:23Z</time>
      </trkpt>
      <trkpt lat="45.642830030992627" lon="7.936468971893191">
        <ele>2189.0599999999999</ele>
        <time>2013-06-30T10:39:34Z</time>
      </trkpt>
      <trkpt lat="45.642777225002646" lon="7.936520436778665">
        <ele>2190.02</ele>
        <time>2013-06-30T10:39:48Z</time>
      </trkpt>
      <trkpt lat="45.642717881128192" lon="7.936529908329248">
        <ele>2189.54</ele>
        <time>2013-06-30T10:40:00Z</time>
      </trkpt>
      <trkpt lat="45.642609251663089" lon="7.936528064310551">
        <ele>2190.02</ele>
        <time>2013-06-30T10:40:13Z</time>
      </trkpt>
      <trkpt lat="45.6425741314888" lon="7.936520604416728">
        <ele>2190.02</ele>
        <time>2013-06-30T10:40:18Z</time>
      </trkpt>
      <trkpt lat="45.642548315227032" lon="7.936517922207713">
        <ele>2189.54</ele>
        <time>2013-06-30T10:40:21Z</time>
      </trkpt>
      <trkpt lat="45.642440356314182" lon="7.93653535656631">
        <ele>2187.1399999999999</ele>
        <time>2013-06-30T10:40:36Z</time>
      </trkpt>
      <trkpt lat="45.642342874780297" lon="7.936561340466142">
        <ele>2186.6599999999999</ele>
        <time>2013-06-30T10:40:48Z</time>
      </trkpt>
      <trkpt lat="45.642298450693488" lon="7.936580535024405">
        <ele>2188.0999999999999</ele>
        <time>2013-06-30T10:40:55Z</time>
      </trkpt>
      <trkpt lat="45.642215888947248" lon="7.93663552030921">
        <ele>2190.5</ele>
        <time>2013-06-30T10:41:09Z</time>
      </trkpt>
      <trkpt lat="45.64220130443573" lon="7.936665192246437">
        <ele>2190.98</ele>
        <time>2013-06-30T10:41:14Z</time>
      </trkpt>
      <trkpt lat="45.64217884093523" lon="7.93669905513525">
        <ele>2190.98</ele>
        <time>2013-06-30T10:41:19Z</time>
      </trkpt>
      <trkpt lat="45.642101308330894" lon="7.936811121180654">
        <ele>2191.9400000000001</ele>
        <time>2013-06-30T10:41:34Z</time>
      </trkpt>
      <trkpt lat="45.642023105174303" lon="7.936895694583654">
        <ele>2193.8699999999999</ele>
        <time>2013-06-30T10:41:48Z</time>
      </trkpt>
      <trkpt lat="45.641973735764623" lon="7.936957888305187">
        <ele>2196.27</ele>
        <time>2013-06-30T10:42:00Z</time>
      </trkpt>
      <trkpt lat="45.642014807090163" lon="7.936961241066456">
        <ele>2198.1900000000001</ele>
        <time>2013-06-30T10:42:14Z</time>
      </trkpt>
      <trkpt lat="45.641973987221718" lon="7.937059560790658">
        <ele>2200.5900000000001</ele>
        <time>2013-06-30T10:42:27Z</time>
      </trkpt>
      <trkpt lat="45.641909865662456" lon="7.937112031504512">
        <ele>2202.52</ele>
        <time>2013-06-30T10:42:41Z</time>
      </trkpt>
      <trkpt lat="45.641878601163626" lon="7.937162993475795">
        <ele>2204.9200000000001</ele>
        <time>2013-06-30T10:42:56Z</time>
      </trkpt>
      <trkpt lat="45.641824956983328" lon="7.937137093394995">
        <ele>2206.8400000000001</ele>
        <time>2013-06-30T10:43:07Z</time>
      </trkpt>
      <trkpt lat="45.64173418097198" lon="7.937101973220706">
        <ele>2208.29</ele>
        <time>2013-06-30T10:43:21Z</time>
      </trkpt>
      <trkpt lat="45.641712136566639" lon="7.937077078968287">
        <ele>2208.77</ele>
        <time>2013-06-30T10:43:32Z</time>
      </trkpt>
      <trkpt lat="45.641715237870812" lon="7.937119156122208">
        <ele>2209.25</ele>
        <time>2013-06-30T10:43:48Z</time>
      </trkpt>
      <trkpt lat="45.64173175022006" lon="7.93713784776628">
        <ele>2209.73</ele>
        <time>2013-06-30T10:44:00Z</time>
      </trkpt>
      <trkpt lat="45.641724038869143" lon="7.937152851372957">
        <ele>2209.25</ele>
        <time>2013-06-30T10:44:10Z</time>
      </trkpt>
      <trkpt lat="45.641735773533583" lon="7.937156958505511">
        <ele>2209.25</ele>
        <time>2013-06-30T10:44:31Z</time>
      </trkpt>
      <trkpt lat="45.641712388023734" lon="7.937146229669452">
        <ele>2210.21</ele>
        <time>2013-06-30T10:44:43Z</time>
      </trkpt>
      <trkpt lat="45.641712807118893" lon="7.937149917706847">
        <ele>2210.6900000000001</ele>
        <time>2013-06-30T10:44:58Z</time>
      </trkpt>
      <trkpt lat="45.641734767705202" lon="7.9371402785182">
        <ele>2210.6900000000001</ele>
        <time>2013-06-30T10:45:12Z</time>
      </trkpt>
      <trkpt lat="45.641742143779993" lon="7.93716860935092">
        <ele>2210.6900000000001</ele>
        <time>2013-06-30T10:45:33Z</time>
      </trkpt>
      <trkpt lat="45.641711046919227" lon="7.93718034401536">
        <ele>2211.1700000000001</ele>
        <time>2013-06-30T10:45:44Z</time>
      </trkpt>
      <trkpt lat="45.641687074676156" lon="7.937177745625377">
        <ele>2211.6500000000001</ele>
        <time>2013-06-30T10:46:07Z</time>
      </trkpt>
      <trkpt lat="45.641672993078828" lon="7.937117144465447">
        <ele>2212.1300000000001</ele>
        <time>2013-06-30T10:46:19Z</time>
      </trkpt>
      <trkpt lat="45.641689002513885" lon="7.937126783654094">
        <ele>2212.1300000000001</ele>
        <time>2013-06-30T10:46:39Z</time>
      </trkpt>
      <trkpt lat="45.641651032492518" lon="7.937116976827383">
        <ele>2212.1300000000001</ele>
        <time>2013-06-30T10:46:55Z</time>
      </trkpt>
      <trkpt lat="45.641558915376663" lon="7.937092334032059">
        <ele>2213.5700000000002</ele>
        <time>2013-06-30T10:47:09Z</time>
      </trkpt>
      <trkpt lat="45.641531171277165" lon="7.937077833339572">
        <ele>2214.5300000000002</ele>
        <time>2013-06-30T10:47:13Z</time>
      </trkpt>
      <trkpt lat="45.641494458541274" lon="7.937039108946919">
        <ele>2215.0100000000002</ele>
        <time>2013-06-30T10:47:18Z</time>
      </trkpt>
      <trkpt lat="45.641394797712564" lon="7.937050089240074">
        <ele>2216.46</ele>
        <time>2013-06-30T10:47:33Z</time>
      </trkpt>
      <trkpt lat="45.641351966187358" lon="7.937058722600341">
        <ele>2217.9000000000001</ele>
        <time>2013-06-30T10:47:41Z</time>
      </trkpt>
      <trkpt lat="45.641272589564323" lon="7.937052100896835">
        <ele>2219.8200000000002</ele>
        <time>2013-06-30T10:47:55Z</time>
      </trkpt>
      <trkpt lat="45.641241241246462" lon="7.937092250213027">
        <ele>2220.7800000000002</ele>
        <time>2013-06-30T10:48:09Z</time>
      </trkpt>
      <trkpt lat="45.641225064173341" lon="7.937164586037397">
        <ele>2223.1900000000001</ele>
        <time>2013-06-30T10:48:20Z</time>
      </trkpt>
      <trkpt lat="45.641197822988033" lon="7.93718327768147">
        <ele>2223.6700000000001</ele>
        <time>2013-06-30T10:48:26Z</time>
      </trkpt>
      <trkpt lat="45.641181143000722" lon="7.937183529138565">
        <ele>2224.1500000000001</ele>
        <time>2013-06-30T10:48:28Z</time>
      </trkpt>
      <trkpt lat="45.641150968149304" lon="7.937252596020699">
        <ele>2226.5500000000002</ele>
        <time>2013-06-30T10:48:41Z</time>
      </trkpt>
      <trkpt lat="45.641095144674182" lon="7.93732057325542">
        <ele>2228.9499999999998</ele>
        <time>2013-06-30T10:48:52Z</time>
      </trkpt>
      <trkpt lat="45.640985928475857" lon="7.937373714521527">
        <ele>2228.9499999999998</ele>
        <time>2013-06-30T10:49:07Z</time>
      </trkpt>
      <trkpt lat="45.640955753624439" lon="7.93745594099164">
        <ele>2230.4000000000001</ele>
        <time>2013-06-30T10:49:22Z</time>
      </trkpt>
      <trkpt lat="45.640954580157995" lon="7.937464406713843">
        <ele>2230.8800000000001</ele>
        <time>2013-06-30T10:49:24Z</time>
      </trkpt>
      <trkpt lat="45.640930105000734" lon="7.937525594606996">
        <ele>2232.8000000000002</ele>
        <time>2013-06-30T10:49:36Z</time>
      </trkpt>
      <trkpt lat="45.640932619571686" lon="7.93755560182035">
        <ele>2233.2800000000002</ele>
        <time>2013-06-30T10:49:50Z</time>
      </trkpt>
      <trkpt lat="45.640902193263173" lon="7.937662051990628">
        <ele>2234.2399999999998</ele>
        <time>2013-06-30T10:50:05Z</time>
      </trkpt>
      <trkpt lat="45.640895152464509" lon="7.937767747789621">
        <ele>2236.6399999999999</ele>
        <time>2013-06-30T10:50:19Z</time>
      </trkpt>
      <trkpt lat="45.64087905921042" lon="7.937835976481438">
        <ele>2239.0500000000002</ele>
        <time>2013-06-30T10:50:31Z</time>
      </trkpt>
      <trkpt lat="45.640771770849824" lon="7.937837736681104">
        <ele>2240.9699999999998</ele>
        <time>2013-06-30T10:50:46Z</time>
      </trkpt>
      <trkpt lat="45.640735812485218" lon="7.937819799408317">
        <ele>2241.4499999999998</ele>
        <time>2013-06-30T10:50:56Z</time>
      </trkpt>
      <trkpt lat="45.640693232417107" lon="7.937882747501135">
        <ele>2243.8499999999999</ele>
        <time>2013-06-30T10:51:10Z</time>
      </trkpt>
      <trkpt lat="45.640729023143649" lon="7.937921471893787">
        <ele>2244.8200000000002</ele>
        <time>2013-06-30T10:51:23Z</time>
      </trkpt>
      <trkpt lat="45.64074813388288" lon="7.93799439445138">
        <ele>2246.2600000000002</ele>
        <time>2013-06-30T10:51:34Z</time>
      </trkpt>
      <trkpt lat="45.640689712017775" lon="7.938116015866399">
        <ele>2248.1799999999998</ele>
        <time>2013-06-30T10:51:50Z</time>
      </trkpt>
      <trkpt lat="45.640664733946323" lon="7.938193967565894">
        <ele>2250.0999999999999</ele>
        <time>2013-06-30T10:52:03Z</time>
      </trkpt>
      <trkpt lat="45.64064159989357" lon="7.938247276470065">
        <ele>2252.0300000000002</ele>
        <time>2013-06-30T10:52:14Z</time>
      </trkpt>
      <trkpt lat="45.640606647357345" lon="7.938322965055704">
        <ele>2253.9499999999998</ele>
        <time>2013-06-30T10:52:27Z</time>
      </trkpt>
      <trkpt lat="45.640626261010766" lon="7.938384739682078">
        <ele>2255.8699999999999</ele>
        <time>2013-06-30T10:52:39Z</time>
      </trkpt>
      <trkpt lat="45.640640677884221" lon="7.93846495449543">
        <ele>2257.3099999999999</ele>
        <time>2013-06-30T10:52:51Z</time>
      </trkpt>
      <trkpt lat="45.640632379800081" lon="7.938554054126144">
        <ele>2258.75</ele>
        <time>2013-06-30T10:53:03Z</time>
      </trkpt>
      <trkpt lat="45.640595834702253" lon="7.938619013875723">
        <ele>2260.6799999999998</ele>
        <time>2013-06-30T10:53:18Z</time>
      </trkpt>
      <trkpt lat="45.640533976256847" lon="7.938676178455353">
        <ele>2261.6399999999999</ele>
        <time>2013-06-30T10:53:29Z</time>
      </trkpt>
      <trkpt lat="45.640477649867535" lon="7.938731918111444">
        <ele>2263.5599999999999</ele>
        <time>2013-06-30T10:53:41Z</time>
      </trkpt>
      <trkpt lat="45.640483098104596" lon="7.938775755465031">
        <ele>2263.5599999999999</ele>
        <time>2013-06-30T10:53:48Z</time>
      </trkpt>
      <trkpt lat="45.640462813898921" lon="7.938881367444992">
        <ele>2264.04</ele>
        <time>2013-06-30T10:54:02Z</time>
      </trkpt>
      <trkpt lat="45.640481757000089" lon="7.93885488063097">
        <ele>2264.04</ele>
        <time>2013-06-30T10:54:19Z</time>
      </trkpt>
      <trkpt lat="45.640461053699255" lon="7.938888743519783">
        <ele>2264.52</ele>
        <time>2013-06-30T10:54:39Z</time>
      </trkpt>
      <trkpt lat="45.64045250415802" lon="7.938870470970869">
        <ele>2264.52</ele>
        <time>2013-06-30T10:54:58Z</time>
      </trkpt>
      <trkpt lat="45.640461724251509" lon="7.938861167058349">
        <ele>2264.52</ele>
        <time>2013-06-30T10:55:17Z</time>
      </trkpt>
      <trkpt lat="45.640487624332309" lon="7.938855802640319">
        <ele>2265.48</ele>
        <time>2013-06-30T10:55:42Z</time>
      </trkpt>
      <trkpt lat="45.640487875789404" lon="7.938845325261354">
        <ele>2264.52</ele>
        <time>2013-06-30T10:56:05Z</time>
      </trkpt>
      <trkpt lat="45.64045300707221" lon="7.938825795426965">
        <ele>2264.04</ele>
        <time>2013-06-30T10:56:29Z</time>
      </trkpt>
      <trkpt lat="45.640471363440156" lon="7.938843816518784">
        <ele>2264.52</ele>
        <time>2013-06-30T10:56:56Z</time>
      </trkpt>
      <trkpt lat="45.640460383147001" lon="7.938817664980888">
        <ele>2264.52</ele>
        <time>2013-06-30T10:57:13Z</time>
      </trkpt>
      <trkpt lat="45.64045493490994" lon="7.938833925873041">
        <ele>2264.52</ele>
        <time>2013-06-30T10:57:34Z</time>
      </trkpt>
      <trkpt lat="45.640458706766367" lon="7.938835853710771">
        <ele>2264.52</ele>
        <time>2013-06-30T10:58:00Z</time>
      </trkpt>
      <trkpt lat="45.640473626554012" lon="7.938843984156847">
        <ele>2265</ele>
        <time>2013-06-30T10:58:29Z</time>
      </trkpt>
      <trkpt lat="45.640453593805432" lon="7.938866531476378">
        <ele>2264.52</ele>
        <time>2013-06-30T10:58:47Z</time>
      </trkpt>
      <trkpt lat="45.640449654310942" lon="7.938877511769533">
        <ele>2265</ele>
        <time>2013-06-30T10:59:07Z</time>
      </trkpt>
      <trkpt lat="45.640442362055182" lon="7.938883882015944">
        <ele>2265</ele>
        <time>2013-06-30T10:59:26Z</time>
      </trkpt>
      <trkpt lat="45.640436075627804" lon="7.938870973885059">
        <ele>2264.52</ele>
        <time>2013-06-30T10:59:43Z</time>
      </trkpt>
      <trkpt lat="45.640433644875884" lon="7.938846834003925">
        <ele>2264.52</ele>
        <time>2013-06-30T11:00:03Z</time>
      </trkpt>
      <trkpt lat="45.64044906757772" lon="7.938860664144158">
        <ele>2264.52</ele>
        <time>2013-06-30T11:00:25Z</time>
      </trkpt>
      <trkpt lat="45.640447223559022" lon="7.938856557011604">
        <ele>2264.52</ele>
        <time>2013-06-30T11:00:47Z</time>
      </trkpt>
      <trkpt lat="45.640440853312612" lon="7.93884415179491">
        <ele>2264.52</ele>
        <time>2013-06-30T11:01:05Z</time>
      </trkpt>
      <trkpt lat="45.640467423945665" lon="7.938875751569867">
        <ele>2264.52</ele>
        <time>2013-06-30T11:01:21Z</time>
      </trkpt>
      <trkpt lat="45.640459042042494" lon="7.938845660537481">
        <ele>2264.52</ele>
        <time>2013-06-30T11:01:41Z</time>
      </trkpt>
      <trkpt lat="45.640466585755348" lon="7.938838033005595">
        <ele>2264.52</ele>
        <time>2013-06-30T11:01:58Z</time>
      </trkpt>
      <trkpt lat="45.640471614897251" lon="7.938821269199252">
        <ele>2264.04</ele>
        <time>2013-06-30T11:02:00Z</time>
      </trkpt>
      <trkpt lat="45.640496760606766" lon="7.938785813748837">
        <ele>2264.52</ele>
        <time>2013-06-30T11:02:15Z</time>
      </trkpt>
      <trkpt lat="45.640499945729971" lon="7.938818670809269">
        <ele>2264.04</ele>
        <time>2013-06-30T11:02:27Z</time>
      </trkpt>
      <trkpt lat="45.64048913307488" lon="7.938798302784562">
        <ele>2264.04</ele>
        <time>2013-06-30T11:02:36Z</time>
      </trkpt>
      <trkpt lat="45.640486869961023" lon="7.93878011405468">
        <ele>2264.04</ele>
        <time>2013-06-30T11:02:38Z</time>
      </trkpt>
      <trkpt lat="45.640477649867535" lon="7.938737785443664">
        <ele>2263.5599999999999</ele>
        <time>2013-06-30T11:02:51Z</time>
      </trkpt>
      <trkpt lat="45.640431381762028" lon="7.938670227304101">
        <ele>2265</ele>
        <time>2013-06-30T11:03:04Z</time>
      </trkpt>
      <trkpt lat="45.640423335134983" lon="7.93864868581295">
        <ele>2265.48</ele>
        <time>2013-06-30T11:03:21Z</time>
      </trkpt>
      <trkpt lat="45.640438171103597" lon="7.938651451840997">
        <ele>2265.48</ele>
        <time>2013-06-30T11:03:34Z</time>
      </trkpt>
      <trkpt lat="45.640458790585399" lon="7.938646757975221">
        <ele>2265</ele>
        <time>2013-06-30T11:03:56Z</time>
      </trkpt>
      <trkpt lat="45.640476476401091" lon="7.938636615872383">
        <ele>2265</ele>
        <time>2013-06-30T11:04:12Z</time>
      </trkpt>
      <trkpt lat="45.640483684837818" lon="7.938684225082398">
        <ele>2264.52</ele>
        <time>2013-06-30T11:04:30Z</time>
      </trkpt>
      <trkpt lat="45.640464574098587" lon="7.938683051615953">
        <ele>2265</ele>
        <time>2013-06-30T11:04:52Z</time>
      </trkpt>
      <trkpt lat="45.640474380925298" lon="7.938669305294752">
        <ele>2264.52</ele>
        <time>2013-06-30T11:05:15Z</time>
      </trkpt>
      <trkpt lat="45.640495922416449" lon="7.938743568956852">
        <ele>2264.52</ele>
        <time>2013-06-30T11:05:27Z</time>
      </trkpt>
      <trkpt lat="45.640484523028135" lon="7.938742395490408">
        <ele>2264.04</ele>
        <time>2013-06-30T11:05:42Z</time>
      </trkpt>
      <trkpt lat="45.640509417280555" lon="7.938787825405598">
        <ele>2264.52</ele>
        <time>2013-06-30T11:05:55Z</time>
      </trkpt>
      <trkpt lat="45.640516709536314" lon="7.93880601413548">
        <ele>2264.04</ele>
        <time>2013-06-30T11:06:16Z</time>
      </trkpt>
      <trkpt lat="45.640516206622124" lon="7.93886267580092">
        <ele>2264.04</ele>
        <time>2013-06-30T11:06:25Z</time>
      </trkpt>
      <trkpt lat="45.640520984306931" lon="7.938926042988896">
        <ele>2263.5599999999999</ele>
        <time>2013-06-30T11:06:39Z</time>
      </trkpt>
      <trkpt lat="45.640513524413109" lon="7.938926042988896">
        <ele>2263.0799999999999</ele>
        <time>2013-06-30T11:07:00Z</time>
      </trkpt>
      <trkpt lat="45.640500029549003" lon="7.938929228112102">
        <ele>2263.0799999999999</ele>
        <time>2013-06-30T11:07:18Z</time>
      </trkpt>
      <trkpt lat="45.640496425330639" lon="7.938923360779882">
        <ele>2263.0799999999999</ele>
        <time>2013-06-30T11:07:37Z</time>
      </trkpt>
      <trkpt lat="45.640503549948335" lon="7.938910955563188">
        <ele>2263.0799999999999</ele>
        <time>2013-06-30T11:07:56Z</time>
      </trkpt>
      <trkpt lat="45.640551745891571" lon="7.938952445983887">
        <ele>2263.5599999999999</ele>
        <time>2013-06-30T11:08:14Z</time>
      </trkpt>
      <trkpt lat="45.640528695657849" lon="7.938936017453671">
        <ele>2264.04</ele>
        <time>2013-06-30T11:08:27Z</time>
      </trkpt>
      <trkpt lat="45.640559289604425" lon="7.938841134309769">
        <ele>2264.52</ele>
        <time>2013-06-30T11:08:44Z</time>
      </trkpt>
      <trkpt lat="45.640560630708933" lon="7.938853371888399">
        <ele>2264.52</ele>
        <time>2013-06-30T11:08:58Z</time>
      </trkpt>
      <trkpt lat="45.640562223270535" lon="7.938839457929134">
        <ele>2264.04</ele>
        <time>2013-06-30T11:09:13Z</time>
      </trkpt>
      <trkpt lat="45.640562390908599" lon="7.9388636816293">
        <ele>2264.04</ele>
        <time>2013-06-30T11:09:41Z</time>
      </trkpt>
      <trkpt lat="45.640535233542323" lon="7.938878098502755">
        <ele>2264.04</ele>
        <time>2013-06-30T11:09:44Z</time>
      </trkpt>
      <trkpt lat="45.640461221337318" lon="7.938837110996246">
        <ele>2264.52</ele>
        <time>2013-06-30T11:09:58Z</time>
      </trkpt>
      <trkpt lat="45.640458036214113" lon="7.938832500949502">
        <ele>2264.52</ele>
        <time>2013-06-30T11:10:23Z</time>
      </trkpt>
      <trkpt lat="45.640478320419788" lon="7.938853120431304">
        <ele>2264.52</ele>
        <time>2013-06-30T11:10:42Z</time>
      </trkpt>
      <trkpt lat="45.640463149175048" lon="7.938838452100754">
        <ele>2264.52</ele>
        <time>2013-06-30T11:11:01Z</time>
      </trkpt>
      <trkpt lat="45.640461640432477" lon="7.938824621960521">
        <ele>2264.04</ele>
        <time>2013-06-30T11:11:23Z</time>
      </trkpt>
      <trkpt lat="45.640489049255848" lon="7.938839877024293">
        <ele>2264.04</ele>
        <time>2013-06-30T11:11:29Z</time>
      </trkpt>
      <trkpt lat="45.640499023720622" lon="7.938789082691073">
        <ele>2264.52</ele>
        <time>2013-06-30T11:11:45Z</time>
      </trkpt>
      <trkpt lat="45.640496928244829" lon="7.938784891739488">
        <ele>2264.04</ele>
        <time>2013-06-30T11:12:15Z</time>
      </trkpt>
      <trkpt lat="45.640522660687566" lon="7.938812803477049">
        <ele>2264.52</ele>
        <time>2013-06-30T11:12:30Z</time>
      </trkpt>
      <trkpt lat="45.640519727021456" lon="7.938861669972539">
        <ele>2264.52</ele>
        <time>2013-06-30T11:12:58Z</time>
      </trkpt>
      <trkpt lat="45.640517883002758" lon="7.938855467364192">
        <ele>2264.52</ele>
        <time>2013-06-30T11:13:10Z</time>
      </trkpt>
      <trkpt lat="45.640559289604425" lon="7.938843313604593">
        <ele>2263.5599999999999</ele>
        <time>2013-06-30T11:13:25Z</time>
      </trkpt>
      <trkpt lat="45.640595415607095" lon="7.938843900337815">
        <ele>2264.52</ele>
        <time>2013-06-30T11:13:40Z</time>
      </trkpt>
      <trkpt lat="45.640581250190735" lon="7.93887784704566">
        <ele>2264.04</ele>
        <time>2013-06-30T11:13:51Z</time>
      </trkpt>
      <trkpt lat="45.640579406172037" lon="7.938876086845994">
        <ele>2264.04</ele>
        <time>2013-06-30T11:14:12Z</time>
      </trkpt>
      <trkpt lat="45.640588374808431" lon="7.938882540911436">
        <ele>2264.04</ele>
        <time>2013-06-30T11:14:33Z</time>
      </trkpt>
      <trkpt lat="45.64058200456202" lon="7.9389154817909">
        <ele>2264.52</ele>
        <time>2013-06-30T11:14:50Z</time>
      </trkpt>
      <trkpt lat="45.640579154714942" lon="7.938916571438313">
        <ele>2264.52</ele>
        <time>2013-06-30T11:15:12Z</time>
      </trkpt>
      <trkpt lat="45.640578316524625" lon="7.938923360779882">
        <ele>2265</ele>
        <time>2013-06-30T11:15:33Z</time>
      </trkpt>
      <trkpt lat="45.640623159706593" lon="7.938902573660016">
        <ele>2265.96</ele>
        <time>2013-06-30T11:15:39Z</time>
      </trkpt>
      <trkpt lat="45.640633720904589" lon="7.938921768218279">
        <ele>2265.96</ele>
        <time>2013-06-30T11:15:51Z</time>
      </trkpt>
      <trkpt lat="45.640632547438145" lon="7.938929479569197">
        <ele>2265.96</ele>
        <time>2013-06-30T11:16:11Z</time>
      </trkpt>
      <trkpt lat="45.640655094757676" lon="7.938963510096073">
        <ele>2265.96</ele>
        <time>2013-06-30T11:16:31Z</time>
      </trkpt>
      <trkpt lat="45.640659034252167" lon="7.938969125971198">
        <ele>2265.96</ele>
        <time>2013-06-30T11:16:32Z</time>
      </trkpt>
      <trkpt lat="45.640720641240478" lon="7.93900391086936">
        <ele>2268.8499999999999</ele>
        <time>2013-06-30T11:16:45Z</time>
      </trkpt>
      <trkpt lat="45.640719886869192" lon="7.938957223668695">
        <ele>2269.3299999999999</ele>
        <time>2013-06-30T11:16:58Z</time>
      </trkpt>
      <trkpt lat="45.640738913789392" lon="7.938991002738476">
        <ele>2270.29</ele>
        <time>2013-06-30T11:17:11Z</time>
      </trkpt>
      <trkpt lat="45.640777973458171" lon="7.938978429883719">
        <ele>2273.1700000000001</ele>
        <time>2013-06-30T11:17:24Z</time>
      </trkpt>
      <trkpt lat="45.640827929601073" lon="7.939016399905086">
        <ele>2275.0999999999999</ele>
        <time>2013-06-30T11:17:35Z</time>
      </trkpt>
      <trkpt lat="45.64090495929122" lon="7.938978681340814">
        <ele>2276.54</ele>
        <time>2013-06-30T11:17:49Z</time>
      </trkpt>
      <trkpt lat="45.64094259403646" lon="7.9389604087919">
        <ele>2278.46</ele>
        <time>2013-06-30T11:18:00Z</time>
      </trkpt>
      <trkpt lat="45.64096799120307" lon="7.93893157504499">
        <ele>2279.4200000000001</ele>
        <time>2013-06-30T11:18:12Z</time>
      </trkpt>
      <trkpt lat="45.640981234610081" lon="7.938928389921784">
        <ele>2278.9400000000001</ele>
        <time>2013-06-30T11:18:14Z</time>
      </trkpt>
      <trkpt lat="45.641050804406404" lon="7.938866866752505">
        <ele>2280.3800000000001</ele>
        <time>2013-06-30T11:18:23Z</time>
      </trkpt>
      <trkpt lat="45.641112914308906" lon="7.938842056319118">
        <ele>2282.3099999999999</ele>
        <time>2013-06-30T11:18:36Z</time>
      </trkpt>
      <trkpt lat="45.641139317303896" lon="7.93887441046536">
        <ele>2284.23</ele>
        <time>2013-06-30T11:18:49Z</time>
      </trkpt>
      <trkpt lat="45.641148453578353" lon="7.938888408243656">
        <ele>2285.1900000000001</ele>
        <time>2013-06-30T11:19:03Z</time>
      </trkpt>
      <trkpt lat="45.641189105808735" lon="7.938901232555509">
        <ele>2287.5900000000001</ele>
        <time>2013-06-30T11:19:13Z</time>
      </trkpt>
      <trkpt lat="45.641256496310234" lon="7.938891844823957">
        <ele>2290</ele>
        <time>2013-06-30T11:19:26Z</time>
      </trkpt>
      <trkpt lat="45.641284324228764" lon="7.938933083787561">
        <ele>2291.4400000000001</ele>
        <time>2013-06-30T11:19:38Z</time>
      </trkpt>
      <trkpt lat="45.64129488542676" lon="7.938942387700081">
        <ele>2292.4000000000001</ele>
        <time>2013-06-30T11:19:42Z</time>
      </trkpt>
      <trkpt lat="45.641301339492202" lon="7.938956385478377">
        <ele>2293.3600000000001</ele>
        <time>2013-06-30T11:19:53Z</time>
      </trkpt>
      <trkpt lat="45.641314499080181" lon="7.938987901434302">
        <ele>2294.8000000000002</ele>
        <time>2013-06-30T11:20:03Z</time>
      </trkpt>
      <trkpt lat="45.641322294250131" lon="7.93905621394515">
        <ele>2296.73</ele>
        <time>2013-06-30T11:20:15Z</time>
      </trkpt>
      <trkpt lat="45.641365377232432" lon="7.939066775143147">
        <ele>2299.1300000000001</ele>
        <time>2013-06-30T11:20:29Z</time>
      </trkpt>
      <trkpt lat="45.64136914908886" lon="7.939130226150155">
        <ele>2300.5700000000002</ele>
        <time>2013-06-30T11:20:42Z</time>
      </trkpt>
      <trkpt lat="45.641389014199376" lon="7.939142715185881">
        <ele>2302.0100000000002</ele>
        <time>2013-06-30T11:20:54Z</time>
      </trkpt>
      <trkpt lat="45.64140778966248" lon="7.939141876995564">
        <ele>2303.46</ele>
        <time>2013-06-30T11:21:07Z</time>
      </trkpt>
      <trkpt lat="45.641440311446786" lon="7.939156545326114">
        <ele>2305.3800000000001</ele>
        <time>2013-06-30T11:21:17Z</time>
      </trkpt>
      <trkpt lat="45.641448609530926" lon="7.939092759042978">
        <ele>2306.8200000000002</ele>
        <time>2013-06-30T11:21:32Z</time>
      </trkpt>
      <trkpt lat="45.641469648107886" lon="7.939125783741474">
        <ele>2306.8200000000002</ele>
        <time>2013-06-30T11:21:48Z</time>
      </trkpt>
      <trkpt lat="45.641499822959304" lon="7.939127711579204">
        <ele>2307.3000000000002</ele>
        <time>2013-06-30T11:21:51Z</time>
      </trkpt>
      <trkpt lat="45.641571907326579" lon="7.939134500920773">
        <ele>2310.1900000000001</ele>
        <time>2013-06-30T11:22:02Z</time>
      </trkpt>
      <trkpt lat="45.641615744680166" lon="7.939145062118769">
        <ele>2311.6300000000001</ele>
        <time>2013-06-30T11:22:08Z</time>
      </trkpt>
      <trkpt lat="45.641692271456122" lon="7.939189150929451">
        <ele>2313.5500000000002</ele>
        <time>2013-06-30T11:22:22Z</time>
      </trkpt>
      <trkpt lat="45.641755471006036" lon="7.939205076545477">
        <ele>2315.9499999999998</ele>
        <time>2013-06-30T11:22:36Z</time>
      </trkpt>
      <trkpt lat="45.641786232590675" lon="7.939165346324444">
        <ele>2317.8800000000001</ele>
        <time>2013-06-30T11:22:46Z</time>
      </trkpt>
      <trkpt lat="45.641842307522893" lon="7.939168699085712">
        <ele>2319.3200000000002</ele>
        <time>2013-06-30T11:22:57Z</time>
      </trkpt>
      <trkpt lat="45.641892347484827" lon="7.93929266743362">
        <ele>2321.2399999999998</ele>
        <time>2013-06-30T11:23:12Z</time>
      </trkpt>
      <trkpt lat="45.641950182616711" lon="7.939389981329441">
        <ele>2323.1599999999999</ele>
        <time>2013-06-30T11:23:25Z</time>
      </trkpt>
      <trkpt lat="45.642006928101182" lon="7.939511016011238">
        <ele>2324.6100000000001</ele>
        <time>2013-06-30T11:23:36Z</time>
      </trkpt>
      <trkpt lat="45.642057387158275" lon="7.939570527523756">
        <ele>2326.0500000000002</ele>
        <time>2013-06-30T11:23:48Z</time>
      </trkpt>
      <trkpt lat="45.642128633335233" lon="7.939693992957473">
        <ele>2325.0900000000001</ele>
        <time>2013-06-30T11:24:02Z</time>
      </trkpt>
      <trkpt lat="45.64218177460134" lon="7.939735064283013">
        <ele>2324.6100000000001</ele>
        <time>2013-06-30T11:24:13Z</time>
      </trkpt>
      <trkpt lat="45.642269952222705" lon="7.939779069274664">
        <ele>2324.6100000000001</ele>
        <time>2013-06-30T11:24:25Z</time>
      </trkpt>
      <trkpt lat="45.642373468726873" lon="7.939870515838265">
        <ele>2324.1199999999999</ele>
        <time>2013-06-30T11:24:37Z</time>
      </trkpt>
      <trkpt lat="45.64245586283505" lon="7.939991885796189">
        <ele>2323.1599999999999</ele>
        <time>2013-06-30T11:24:51Z</time>
      </trkpt>
      <trkpt lat="45.642474554479122" lon="7.940038153901696">
        <ele>2323.6399999999999</ele>
        <time>2013-06-30T11:25:02Z</time>
      </trkpt>
      <trkpt lat="45.642538005486131" lon="7.940081153064966">
        <ele>2325.0900000000001</ele>
        <time>2013-06-30T11:25:13Z</time>
      </trkpt>
      <trkpt lat="45.642555188387632" lon="7.940081069245935">
        <ele>2325.5700000000002</ele>
        <time>2013-06-30T11:25:18Z</time>
      </trkpt>
      <trkpt lat="45.642610508948565" lon="7.940106382593513">
        <ele>2324.6100000000001</ele>
        <time>2013-06-30T11:25:24Z</time>
      </trkpt>
      <trkpt lat="45.64269382506609" lon="7.940256334841251">
        <ele>2322.6799999999998</ele>
        <time>2013-06-30T11:25:38Z</time>
      </trkpt>
      <trkpt lat="45.64275685697794" lon="7.940322803333402">
        <ele>2322.6799999999998</ele>
        <time>2013-06-30T11:25:50Z</time>
      </trkpt>
      <trkpt lat="45.642826175317168" lon="7.940404191613197">
        <ele>2322.6799999999998</ele>
        <time>2013-06-30T11:26:03Z</time>
      </trkpt>
      <trkpt lat="45.642825672402978" lon="7.940434869378805">
        <ele>2321.7199999999998</ele>
        <time>2013-06-30T11:26:09Z</time>
      </trkpt>
      <trkpt lat="45.642849393188953" lon="7.940494548529387">
        <ele>2320.2800000000002</ele>
        <time>2013-06-30T11:26:13Z</time>
      </trkpt>
      <trkpt lat="45.642882082611322" lon="7.940571578219533">
        <ele>2320.2800000000002</ele>
        <time>2013-06-30T11:26:24Z</time>
      </trkpt>
      <trkpt lat="45.642894571647048" lon="7.940596556290984">
        <ele>2320.2800000000002</ele>
        <time>2013-06-30T11:26:37Z</time>
      </trkpt>
      <trkpt lat="45.642911670729518" lon="7.940681213513017">
        <ele>2319.8000000000002</ele>
        <time>2013-06-30T11:26:43Z</time>
      </trkpt>
      <trkpt lat="45.642938409000635" lon="7.940774923190475">
        <ele>2319.3200000000002</ele>
        <time>2013-06-30T11:26:57Z</time>
      </trkpt>
      <trkpt lat="45.642954083159566" lon="7.940827561542392">
        <ele>2317.4000000000001</ele>
        <time>2013-06-30T11:27:06Z</time>
      </trkpt>
      <trkpt lat="45.643010577186942" lon="7.940909033641219">
        <ele>2315.9499999999998</ele>
        <time>2013-06-30T11:27:18Z</time>
      </trkpt>
      <trkpt lat="45.643042428418994" lon="7.940918505191803">
        <ele>2314.9899999999998</ele>
        <time>2013-06-30T11:27:33Z</time>
      </trkpt>
      <trkpt lat="45.643048295751214" lon="7.940894281491637">
        <ele>2315.4699999999998</ele>
        <time>2013-06-30T11:27:46Z</time>
      </trkpt>
      <trkpt lat="45.643045613542199" lon="7.940896628424525">
        <ele>2315.4699999999998</ele>
        <time>2013-06-30T11:27:54Z</time>
      </trkpt>
      <trkpt lat="45.643055168911815" lon="7.940954631194472">
        <ele>2314.9899999999998</ele>
        <time>2013-06-30T11:27:58Z</time>
      </trkpt>
      <trkpt lat="45.643066233024001" lon="7.941001988947392">
        <ele>2313.5500000000002</ele>
        <time>2013-06-30T11:28:01Z</time>
      </trkpt>
      <trkpt lat="45.643104370683432" lon="7.941123275086284">
        <ele>2313.0700000000002</ele>
        <time>2013-06-30T11:28:14Z</time>
      </trkpt>
      <trkpt lat="45.643108896911144" lon="7.94114607386291">
        <ele>2313.5500000000002</ele>
        <time>2013-06-30T11:28:16Z</time>
      </trkpt>
      <trkpt lat="45.643155332654715" lon="7.941249925643206">
        <ele>2315.4699999999998</ele>
        <time>2013-06-30T11:28:31Z</time>
      </trkpt>
      <trkpt lat="45.643110908567905" lon="7.941300887614489">
        <ele>2317.4000000000001</ele>
        <time>2013-06-30T11:28:42Z</time>
      </trkpt>
      <trkpt lat="45.643144939094782" lon="7.941305749118328">
        <ele>2317.8800000000001</ele>
        <time>2013-06-30T11:28:58Z</time>
      </trkpt>
      <trkpt lat="45.643145190551877" lon="7.941370876505971">
        <ele>2319.8000000000002</ele>
        <time>2013-06-30T11:29:09Z</time>
      </trkpt>
      <trkpt lat="45.643138820305467" lon="7.941420916467905">
        <ele>2321.7199999999998</ele>
        <time>2013-06-30T11:29:21Z</time>
      </trkpt>
      <trkpt lat="45.643132701516151" lon="7.941469699144363">
        <ele>2323.1599999999999</ele>
        <time>2013-06-30T11:29:32Z</time>
      </trkpt>
      <trkpt lat="45.643123481422663" lon="7.941487971693277">
        <ele>2324.1199999999999</ele>
        <time>2013-06-30T11:29:43Z</time>
      </trkpt>
      <trkpt lat="45.643135970458388" lon="7.941520661115646">
        <ele>2326.0500000000002</ele>
        <time>2013-06-30T11:29:56Z</time>
      </trkpt>
      <trkpt lat="45.643091797828674" lon="7.941575981676579">
        <ele>2327.9699999999998</ele>
        <time>2013-06-30T11:30:08Z</time>
      </trkpt>
      <trkpt lat="45.643110573291779" lon="7.941570114344358">
        <ele>2328.9299999999998</ele>
        <time>2013-06-30T11:30:21Z</time>
      </trkpt>
      <trkpt lat="45.643135299906135" lon="7.941550668329001">
        <ele>2330.8499999999999</ele>
        <time>2013-06-30T11:30:34Z</time>
      </trkpt>
      <trkpt lat="45.643152985721827" lon="7.941538011655211">
        <ele>2331.8099999999999</ele>
        <time>2013-06-30T11:30:48Z</time>
      </trkpt>
      <trkpt lat="45.643183412030339" lon="7.941507333889604">
        <ele>2333.7399999999998</ele>
        <time>2013-06-30T11:31:00Z</time>
      </trkpt>
      <trkpt lat="45.643234541639686" lon="7.941520577296615">
        <ele>2335.6599999999999</ele>
        <time>2013-06-30T11:31:13Z</time>
      </trkpt>
      <trkpt lat="45.643253233283758" lon="7.94150666333735">
        <ele>2336.6199999999999</ele>
        <time>2013-06-30T11:31:23Z</time>
      </trkpt>
      <trkpt lat="45.643323892727494" lon="7.94147539883852">
        <ele>2338.0599999999999</ele>
        <time>2013-06-30T11:31:36Z</time>
      </trkpt>
      <trkpt lat="45.643364544957876" lon="7.941551841795445">
        <ele>2340.9499999999998</ele>
        <time>2013-06-30T11:31:46Z</time>
      </trkpt>
      <trkpt lat="45.643385667353868" lon="7.941598864272237">
        <ele>2341.9099999999999</ele>
        <time>2013-06-30T11:31:56Z</time>
      </trkpt>
      <trkpt lat="45.64337451942265" lon="7.941678240895271">
        <ele>2343.8299999999999</ele>
        <time>2013-06-30T11:32:09Z</time>
      </trkpt>
      <trkpt lat="45.643395557999611" lon="7.941729873418808">
        <ele>2344.79</ele>
        <time>2013-06-30T11:32:19Z</time>
      </trkpt>
      <trkpt lat="45.643407125025988" lon="7.94181595556438">
        <ele>2343.8299999999999</ele>
        <time>2013-06-30T11:32:26Z</time>
      </trkpt>
      <trkpt lat="45.643412489444017" lon="7.941902372986078">
        <ele>2343.3499999999999</ele>
        <time>2013-06-30T11:32:36Z</time>
      </trkpt>
      <trkpt lat="45.64347761683166" lon="7.942091384902597">
        <ele>2342.8699999999999</ele>
        <time>2013-06-30T11:32:50Z</time>
      </trkpt>
      <trkpt lat="45.643507204949856" lon="7.942137066274881">
        <ele>2342.8699999999999</ele>
        <time>2013-06-30T11:32:55Z</time>
      </trkpt>
      <trkpt lat="45.643558166921139" lon="7.9421775508672">
        <ele>2343.3499999999999</ele>
        <time>2013-06-30T11:33:10Z</time>
      </trkpt>
      <trkpt lat="45.643557077273726" lon="7.942179646342993">
        <ele>2342.8699999999999</ele>
        <time>2013-06-30T11:33:14Z</time>
      </trkpt>
      <trkpt lat="45.643549701198936" lon="7.942226836457849">
        <ele>2343.3499999999999</ele>
        <time>2013-06-30T11:33:24Z</time>
      </trkpt>
      <trkpt lat="45.643529752269387" lon="7.942235050722957">
        <ele>2343.3499999999999</ele>
        <time>2013-06-30T11:33:38Z</time>
      </trkpt>
      <trkpt lat="45.643561184406281" lon="7.94221417978406">
        <ele>2343.3499999999999</ele>
        <time>2013-06-30T11:33:47Z</time>
      </trkpt>
      <trkpt lat="45.643572835251689" lon="7.942250389605761">
        <ele>2343.8299999999999</ele>
        <time>2013-06-30T11:34:00Z</time>
      </trkpt>
      <trkpt lat="45.643558586016297" lon="7.942283330485225">
        <ele>2343.3499999999999</ele>
        <time>2013-06-30T11:34:28Z</time>
      </trkpt>
      <trkpt lat="45.643558166921139" lon="7.942244103178382">
        <ele>2343.8299999999999</ele>
        <time>2013-06-30T11:34:43Z</time>
      </trkpt>
      <trkpt lat="45.643559256568551" lon="7.942273858934641">
        <ele>2343.8299999999999</ele>
        <time>2013-06-30T11:34:56Z</time>
      </trkpt>
      <trkpt lat="45.643592784181237" lon="7.942374609410763">
        <ele>2344.3099999999999</ele>
        <time>2013-06-30T11:35:10Z</time>
      </trkpt>
      <trkpt lat="45.64360560849309" lon="7.94240914285183">
        <ele>2344.79</ele>
        <time>2013-06-30T11:35:25Z</time>
      </trkpt>
      <trkpt lat="45.643654558807611" lon="7.942429343238473">
        <ele>2345.27</ele>
        <time>2013-06-30T11:35:36Z</time>
      </trkpt>
      <trkpt lat="45.643707700073719" lon="7.942483155056834">
        <ele>2346.7199999999998</ele>
        <time>2013-06-30T11:35:48Z</time>
      </trkpt>
      <trkpt lat="45.643772659823298" lon="7.942526154220104">
        <ele>2348.1599999999999</ele>
        <time>2013-06-30T11:35:59Z</time>
      </trkpt>
      <trkpt lat="45.643842229619622" lon="7.942566722631455">
        <ele>2351.52</ele>
        <time>2013-06-30T11:36:13Z</time>
      </trkpt>
      <trkpt lat="45.643910290673375" lon="7.942664874717593">
        <ele>2352.48</ele>
        <time>2013-06-30T11:36:27Z</time>
      </trkpt>
      <trkpt lat="45.643931245431304" lon="7.94271994382143">
        <ele>2353.4400000000001</ele>
        <time>2013-06-30T11:36:36Z</time>
      </trkpt>
      <trkpt lat="45.643939711153507" lon="7.942771324887872">
        <ele>2353.4400000000001</ele>
        <time>2013-06-30T11:36:40Z</time>
      </trkpt>
      <trkpt lat="45.643969886004925" lon="7.942822705954313">
        <ele>2355.3699999999999</ele>
        <time>2013-06-30T11:36:50Z</time>
      </trkpt>
      <trkpt lat="45.643962845206261" lon="7.942815581336618">
        <ele>2355.8499999999999</ele>
        <time>2013-06-30T11:36:58Z</time>
      </trkpt>
      <trkpt lat="45.643999138846993" lon="7.942912979051471">
        <ele>2355.8499999999999</ele>
        <time>2013-06-30T11:37:11Z</time>
      </trkpt>
      <trkpt lat="45.644010957330465" lon="7.942930078133941">
        <ele>2356.3299999999999</ele>
        <time>2013-06-30T11:37:27Z</time>
      </trkpt>
      <trkpt lat="45.644065188243985" lon="7.943047424778342">
        <ele>2357.77</ele>
        <time>2013-06-30T11:37:40Z</time>
      </trkpt>
      <trkpt lat="45.64410500228405" lon="7.943154713138938">
        <ele>2358.25</ele>
        <time>2013-06-30T11:37:51Z</time>
      </trkpt>
      <trkpt lat="45.644132578745484" lon="7.943216487765312">
        <ele>2359.6900000000001</ele>
        <time>2013-06-30T11:38:02Z</time>
      </trkpt>
      <trkpt lat="45.644172644242644" lon="7.943202825263143">
        <ele>2362.0999999999999</ele>
        <time>2013-06-30T11:38:15Z</time>
      </trkpt>
      <trkpt lat="45.644209356978536" lon="7.943245153874159">
        <ele>2364.98</ele>
        <time>2013-06-30T11:38:28Z</time>
      </trkpt>
      <trkpt lat="45.64423106610775" lon="7.943283459171653">
        <ele>2365.9400000000001</ele>
        <time>2013-06-30T11:38:40Z</time>
      </trkpt>
      <trkpt lat="45.64425939694047" lon="7.943305419757962">
        <ele>2367.3800000000001</ele>
        <time>2013-06-30T11:38:52Z</time>
      </trkpt>
      <trkpt lat="45.644278507679701" lon="7.943366607651115">
        <ele>2369.79</ele>
        <time>2013-06-30T11:39:03Z</time>
      </trkpt>
      <trkpt lat="45.644305581226945" lon="7.943389993160963">
        <ele>2371.23</ele>
        <time>2013-06-30T11:39:11Z</time>
      </trkpt>
      <trkpt lat="45.644316058605909" lon="7.943420251831412">
        <ele>2371.71</ele>
        <time>2013-06-30T11:39:22Z</time>
      </trkpt>
      <trkpt lat="45.644331565126777" lon="7.94346509501338">
        <ele>2373.6300000000001</ele>
        <time>2013-06-30T11:39:41Z</time>
      </trkpt>
      <trkpt lat="45.644345982000232" lon="7.943503148853779">
        <ele>2373.6300000000001</ele>
        <time>2013-06-30T11:39:58Z</time>
      </trkpt>
      <trkpt lat="45.644375067204237" lon="7.94352862983942">
        <ele>2375.0700000000002</ele>
        <time>2013-06-30T11:40:11Z</time>
      </trkpt>
      <trkpt lat="45.644364086911082" lon="7.943552769720554">
        <ele>2375.5500000000002</ele>
        <time>2013-06-30T11:40:24Z</time>
      </trkpt>
      <trkpt lat="45.64438252709806" lon="7.943579591810703">
        <ele>2375.5500000000002</ele>
        <time>2013-06-30T11:40:35Z</time>
      </trkpt>
      <trkpt lat="45.644410103559494" lon="7.943618567660451">
        <ele>2376.52</ele>
        <time>2013-06-30T11:40:42Z</time>
      </trkpt>
      <trkpt lat="45.644426448270679" lon="7.943691238760948">
        <ele>2377.96</ele>
        <time>2013-06-30T11:40:53Z</time>
      </trkpt>
      <trkpt lat="45.644469866529107" lon="7.943721413612366">
        <ele>2379.8800000000001</ele>
        <time>2013-06-30T11:41:02Z</time>
      </trkpt>
      <trkpt lat="45.644489647820592" lon="7.943774051964283">
        <ele>2380.3600000000001</ele>
        <time>2013-06-30T11:41:07Z</time>
      </trkpt>
      <trkpt lat="45.644530886784196" lon="7.9438784904778">
        <ele>2381.3200000000002</ele>
        <time>2013-06-30T11:41:19Z</time>
      </trkpt>
      <trkpt lat="45.64458335749805" lon="7.943927859887481">
        <ele>2384.6900000000001</ele>
        <time>2013-06-30T11:41:31Z</time>
      </trkpt>
      <trkpt lat="45.64461805857718" lon="7.944006230682135">
        <ele>2386.6100000000001</ele>
        <time>2013-06-30T11:41:43Z</time>
      </trkpt>
      <trkpt lat="45.644656699150801" lon="7.944033723324537">
        <ele>2386.6100000000001</ele>
        <time>2013-06-30T11:41:53Z</time>
      </trkpt>
      <trkpt lat="45.644683185964823" lon="7.944096839055419">
        <ele>2387.0900000000001</ele>
        <time>2013-06-30T11:42:01Z</time>
      </trkpt>
      <trkpt lat="45.644739428535104" lon="7.944198343902826">
        <ele>2388.5300000000002</ele>
        <time>2013-06-30T11:42:12Z</time>
      </trkpt>
      <trkpt lat="45.644802879542112" lon="7.944250060245395">
        <ele>2389.9699999999998</ele>
        <time>2013-06-30T11:42:24Z</time>
      </trkpt>
      <trkpt lat="45.644865911453962" lon="7.944275038316846">
        <ele>2391.4200000000001</ele>
        <time>2013-06-30T11:42:37Z</time>
      </trkpt>
      <trkpt lat="45.644861133769155" lon="7.944314181804657">
        <ele>2391.4200000000001</ele>
        <time>2013-06-30T11:42:49Z</time>
      </trkpt>
      <trkpt lat="45.644835736602545" lon="7.944314768537879">
        <ele>2390.9400000000001</ele>
        <time>2013-06-30T11:43:05Z</time>
      </trkpt>
      <trkpt lat="45.64483012072742" lon="7.944329520687461">
        <ele>2391.4200000000001</ele>
        <time>2013-06-30T11:43:19Z</time>
      </trkpt>
      <trkpt lat="45.644823582842946" lon="7.944308565929532">
        <ele>2391.4200000000001</ele>
        <time>2013-06-30T11:43:37Z</time>
      </trkpt>
      <trkpt lat="45.644831294193864" lon="7.944314768537879">
        <ele>2391.4200000000001</ele>
        <time>2013-06-30T11:43:51Z</time>
      </trkpt>
      <trkpt lat="45.644830204546452" lon="7.944340668618679">
        <ele>2391.4200000000001</ele>
        <time>2013-06-30T11:44:10Z</time>
      </trkpt>
      <trkpt lat="45.644826348870993" lon="7.944354331120849">
        <ele>2390.9400000000001</ele>
        <time>2013-06-30T11:44:11Z</time>
      </trkpt>
      <trkpt lat="45.64480665139854" lon="7.944487519562244">
        <ele>2390.9400000000001</ele>
        <time>2013-06-30T11:44:26Z</time>
      </trkpt>
      <trkpt lat="45.644793575629592" lon="7.9444311093539">
        <ele>2390.9400000000001</ele>
        <time>2013-06-30T11:44:39Z</time>
      </trkpt>
      <trkpt lat="45.644777985289693" lon="7.944404287263751">
        <ele>2390.9400000000001</ele>
        <time>2013-06-30T11:44:53Z</time>
      </trkpt>
      <trkpt lat="45.644773878157139" lon="7.944424152374268">
        <ele>2387.0900000000001</ele>
        <time>2013-06-30T11:44:58Z</time>
      </trkpt>
      <trkpt lat="45.644781086593866" lon="7.944427924230695">
        <ele>2390.46</ele>
        <time>2013-06-30T11:45:02Z</time>
      </trkpt>
      <trkpt lat="45.644766334444284" lon="7.944441167637706">
        <ele>2389.9699999999998</ele>
        <time>2013-06-30T11:45:30Z</time>
      </trkpt>
      <trkpt lat="45.644758203998208" lon="7.944421721622348">
        <ele>2389.4899999999998</ele>
        <time>2013-06-30T11:46:03Z</time>
      </trkpt>
      <trkpt lat="45.644777650013566" lon="7.944412752985954">
        <ele>2390.9400000000001</ele>
        <time>2013-06-30T11:46:19Z</time>
      </trkpt>
      <trkpt lat="45.64478175714612" lon="7.94440764002502">
        <ele>2389.9699999999998</ele>
        <time>2013-06-30T11:46:21Z</time>
      </trkpt>
      <trkpt lat="45.644795503467321" lon="7.944398503750563">
        <ele>2389.9699999999998</ele>
        <time>2013-06-30T11:46:50Z</time>
      </trkpt>
      <trkpt lat="45.644800364971161" lon="7.944381823763251">
        <ele>2389.4899999999998</ele>
        <time>2013-06-30T11:47:23Z</time>
      </trkpt>
      <trkpt lat="45.64479885622859" lon="7.944388948380947">
        <ele>2389.4899999999998</ele>
        <time>2013-06-30T11:47:57Z</time>
      </trkpt>
      <trkpt lat="45.644793407991529" lon="7.944378638640046">
        <ele>2389.4899999999998</ele>
        <time>2013-06-30T11:48:33Z</time>
      </trkpt>
      <trkpt lat="45.644793994724751" lon="7.944376626983285">
        <ele>2389.9699999999998</ele>
        <time>2013-06-30T11:49:05Z</time>
      </trkpt>
      <trkpt lat="45.64480128698051" lon="7.944374615326524">
        <ele>2389.9699999999998</ele>
        <time>2013-06-30T11:49:33Z</time>
      </trkpt>
      <trkpt lat="45.644788630306721" lon="7.944402443245053">
        <ele>2389.9699999999998</ele>
        <time>2013-06-30T11:50:03Z</time>
      </trkpt>
      <trkpt lat="45.644796509295702" lon="7.944402862340212">
        <ele>2389.9699999999998</ele>
        <time>2013-06-30T11:50:42Z</time>
      </trkpt>
      <trkpt lat="45.64481008797884" lon="7.94440277852118">
        <ele>2389.9699999999998</ele>
        <time>2013-06-30T11:51:15Z</time>
      </trkpt>
      <trkpt lat="45.644811848178506" lon="7.944412836804986">
        <ele>2390.46</ele>
        <time>2013-06-30T11:51:49Z</time>
      </trkpt>
      <trkpt lat="45.644812015816569" lon="7.9444017726928">
        <ele>2390.46</ele>
        <time>2013-06-30T11:52:16Z</time>
      </trkpt>
      <trkpt lat="45.644813105463982" lon="7.944416273385286">
        <ele>2390.46</ele>
        <time>2013-06-30T11:52:45Z</time>
      </trkpt>
      <trkpt lat="45.644820481538773" lon="7.944412920624018">
        <ele>2390.46</ele>
        <time>2013-06-30T11:53:14Z</time>
      </trkpt>
      <trkpt lat="45.644830791279674" lon="7.944401521235704">
        <ele>2390.9400000000001</ele>
        <time>2013-06-30T11:53:52Z</time>
      </trkpt>
      <trkpt lat="45.644827019423246" lon="7.944404790177941">
        <ele>2390.9400000000001</ele>
        <time>2013-06-30T11:54:24Z</time>
      </trkpt>
      <trkpt lat="45.644817464053631" lon="7.944394228979945">
        <ele>2390.9400000000001</ele>
        <time>2013-06-30T11:54:57Z</time>
      </trkpt>
      <trkpt lat="45.644814865663648" lon="7.944426331669092">
        <ele>2390.9400000000001</ele>
        <time>2013-06-30T11:55:26Z</time>
      </trkpt>
      <trkpt lat="45.644811009988189" lon="7.944414932280779">
        <ele>2390.9400000000001</ele>
        <time>2013-06-30T11:55:53Z</time>
      </trkpt>
      <trkpt lat="45.644811848178506" lon="7.94441401027143">
        <ele>2390.9400000000001</ele>
        <time>2013-06-30T11:56:34Z</time>
      </trkpt>
      <trkpt lat="45.644824421033263" lon="7.944431696087122">
        <ele>2391.4200000000001</ele>
        <time>2013-06-30T11:57:12Z</time>
      </trkpt>
      <trkpt lat="45.644801957532763" lon="7.944414177909493">
        <ele>2391.4200000000001</ele>
        <time>2013-06-30T11:57:45Z</time>
      </trkpt>
      <trkpt lat="45.644805561751127" lon="7.944432785734534">
        <ele>2391.9000000000001</ele>
        <time>2013-06-30T11:58:27Z</time>
      </trkpt>
      <trkpt lat="45.644805058836937" lon="7.94441937468946">
        <ele>2391.9000000000001</ele>
        <time>2013-06-30T11:58:58Z</time>
      </trkpt>
      <trkpt lat="45.644805729389191" lon="7.944418117403984">
        <ele>2391.9000000000001</ele>
        <time>2013-06-30T11:59:34Z</time>
      </trkpt>
      <trkpt lat="45.644809417426586" lon="7.944395737722516">
        <ele>2391.9000000000001</ele>
        <time>2013-06-30T12:00:07Z</time>
      </trkpt>
      <trkpt lat="45.644823582842946" lon="7.944437395781279">
        <ele>2392.3800000000001</ele>
        <time>2013-06-30T12:00:44Z</time>
      </trkpt>
      <trkpt lat="45.644817380234599" lon="7.944444101303816">
        <ele>2392.3800000000001</ele>
        <time>2013-06-30T12:01:18Z</time>
      </trkpt>
      <trkpt lat="45.64479935914278" lon="7.944435300305486">
        <ele>2392.3800000000001</ele>
        <time>2013-06-30T12:01:35Z</time>
      </trkpt>
      <trkpt lat="45.644793072715402" lon="7.944426750764251">
        <ele>2392.3800000000001</ele>
        <time>2013-06-30T12:02:05Z</time>
      </trkpt>
      <trkpt lat="45.644784020259976" lon="7.944415854290128">
        <ele>2392.8600000000001</ele>
        <time>2013-06-30T12:02:37Z</time>
      </trkpt>
      <trkpt lat="45.64479592256248" lon="7.944415519014001">
        <ele>2392.3800000000001</ele>
        <time>2013-06-30T12:03:20Z</time>
      </trkpt>
      <trkpt lat="45.644799275323749" lon="7.944399006664753">
        <ele>2392.3800000000001</ele>
        <time>2013-06-30T12:03:47Z</time>
      </trkpt>
      <trkpt lat="45.644800113514066" lon="7.94441350735724">
        <ele>2392.8600000000001</ele>
        <time>2013-06-30T12:04:22Z</time>
      </trkpt>
      <trkpt lat="45.644799945876002" lon="7.944425074383616">
        <ele>2392.3800000000001</ele>
        <time>2013-06-30T12:04:58Z</time>
      </trkpt>
      <trkpt lat="45.644810255616903" lon="7.944420296698809">
        <ele>2392.8600000000001</ele>
        <time>2013-06-30T12:05:30Z</time>
      </trkpt>
      <trkpt lat="45.644797766581178" lon="7.944409735500813">
        <ele>2392.3800000000001</ele>
        <time>2013-06-30T12:06:03Z</time>
      </trkpt>
      <trkpt lat="45.644799694418907" lon="7.944420296698809">
        <ele>2392.3800000000001</ele>
        <time>2013-06-30T12:06:30Z</time>
      </trkpt>
      <trkpt lat="45.644795252010226" lon="7.94441401027143">
        <ele>2393.3400000000001</ele>
        <time>2013-06-30T12:07:03Z</time>
      </trkpt>
      <trkpt lat="45.644801957532763" lon="7.944410070776939">
        <ele>2392.8600000000001</ele>
        <time>2013-06-30T12:07:36Z</time>
      </trkpt>
      <trkpt lat="45.6448017898947" lon="7.94441107660532">
        <ele>2393.3400000000001</ele>
        <time>2013-06-30T12:08:07Z</time>
      </trkpt>
      <trkpt lat="45.644804053008556" lon="7.944413842633367">
        <ele>2393.3400000000001</ele>
        <time>2013-06-30T12:08:44Z</time>
      </trkpt>
      <trkpt lat="45.644793324172497" lon="7.944416021928191">
        <ele>2393.3400000000001</ele>
        <time>2013-06-30T12:09:24Z</time>
      </trkpt>
      <trkpt lat="45.644793659448624" lon="7.944418452680111">
        <ele>2393.3400000000001</ele>
        <time>2013-06-30T12:10:02Z</time>
      </trkpt>
      <trkpt lat="45.644774800166488" lon="7.944401269778609">
        <ele>2393.8200000000002</ele>
        <time>2013-06-30T12:10:36Z</time>
      </trkpt>
      <trkpt lat="45.644801119342446" lon="7.944406885653734">
        <ele>2393.8200000000002</ele>
        <time>2013-06-30T12:11:03Z</time>
      </trkpt>
      <trkpt lat="45.644796090200543" lon="7.944414261728525">
        <ele>2393.8200000000002</ele>
        <time>2013-06-30T12:11:24Z</time>
      </trkpt>
      <trkpt lat="45.644815117120743" lon="7.944423565641046">
        <ele>2393.3400000000001</ele>
        <time>2013-06-30T12:12:00Z</time>
      </trkpt>
      <trkpt lat="45.644832216203213" lon="7.944422475993633">
        <ele>2393.8200000000002</ele>
        <time>2013-06-30T12:12:41Z</time>
      </trkpt>
      <trkpt lat="45.64483255147934" lon="7.944422559812665">
        <ele>2393.8200000000002</ele>
        <time>2013-06-30T12:13:17Z</time>
      </trkpt>
      <trkpt lat="45.644860630854964" lon="7.944420715793967">
        <ele>2393.3400000000001</ele>
        <time>2013-06-30T12:13:49Z</time>
      </trkpt>
      <trkpt lat="45.644861133769155" lon="7.944429181516171">
        <ele>2393.3400000000001</ele>
        <time>2013-06-30T12:14:19Z</time>
      </trkpt>
      <trkpt lat="45.644829701632261" lon="7.944403532892466">
        <ele>2393.8200000000002</ele>
        <time>2013-06-30T12:14:47Z</time>
      </trkpt>
      <trkpt lat="45.644785529002547" lon="7.944444268941879">
        <ele>2395.2600000000002</ele>
        <time>2013-06-30T12:14:58Z</time>
      </trkpt>
      <trkpt lat="45.644798520952463" lon="7.944379560649395">
        <ele>2395.2600000000002</ele>
        <time>2013-06-30T12:15:13Z</time>
      </trkpt>
      <trkpt lat="45.644825426861644" lon="7.944387188181281">
        <ele>2394.7800000000002</ele>
        <time>2013-06-30T12:15:28Z</time>
      </trkpt>
      <trkpt lat="45.644820565357804" lon="7.944401018321514">
        <ele>2394.7800000000002</ele>
        <time>2013-06-30T12:15:47Z</time>
      </trkpt>
      <trkpt lat="45.644818469882011" lon="7.944383081048727">
        <ele>2395.2600000000002</ele>
        <time>2013-06-30T12:16:09Z</time>
      </trkpt>
      <trkpt lat="45.644825175404549" lon="7.944378219544888">
        <ele>2394.7800000000002</ele>
        <time>2013-06-30T12:16:27Z</time>
      </trkpt>
      <trkpt lat="45.644825678318739" lon="7.944393642246723">
        <ele>2395.2600000000002</ele>
        <time>2013-06-30T12:16:47Z</time>
      </trkpt>
      <trkpt lat="45.64482961781323" lon="7.9443827457726">
        <ele>2394.7800000000002</ele>
        <time>2013-06-30T12:16:58Z</time>
      </trkpt>
      <trkpt lat="45.644821235910058" lon="7.944384925067425">
        <ele>2395.2600000000002</ele>
        <time>2013-06-30T12:17:14Z</time>
      </trkpt>
      <trkpt lat="45.644828109070659" lon="7.944389283657074">
        <ele>2395.7399999999998</ele>
        <time>2013-06-30T12:17:31Z</time>
      </trkpt>
      <trkpt lat="45.644805561751127" lon="7.944357432425022">
        <ele>2394.7800000000002</ele>
        <time>2013-06-30T12:17:42Z</time>
      </trkpt>
      <trkpt lat="45.644828863441944" lon="7.944417279213667">
        <ele>2395.2600000000002</ele>
        <time>2013-06-30T12:17:53Z</time>
      </trkpt>
      <trkpt lat="45.644876305013895" lon="7.944456674158573">
        <ele>2395.7399999999998</ele>
        <time>2013-06-30T12:18:07Z</time>
      </trkpt>
      <trkpt lat="45.644881166517735" lon="7.944468157365918">
        <ele>2395.2600000000002</ele>
        <time>2013-06-30T12:18:12Z</time>
      </trkpt>
      <trkpt lat="45.644885525107384" lon="7.944458182901144">
        <ele>2395.7399999999998</ele>
        <time>2013-06-30T12:18:25Z</time>
      </trkpt>
      <trkpt lat="45.644898014143109" lon="7.944462206214666">
        <ele>2395.7399999999998</ele>
        <time>2013-06-30T12:18:41Z</time>
      </trkpt>
      <trkpt lat="45.644889799878001" lon="7.944502606987953">
        <ele>2395.7399999999998</ele>
        <time>2013-06-30T12:18:56Z</time>
      </trkpt>
      <trkpt lat="45.644900444895029" lon="7.944505373016">
        <ele>2395.7399999999998</ele>
        <time>2013-06-30T12:19:08Z</time>
      </trkpt>
      <trkpt lat="45.644906563684344" lon="7.944542253389955">
        <ele>2395.7399999999998</ele>
        <time>2013-06-30T12:19:12Z</time>
      </trkpt>
      <trkpt lat="45.644901618361473" lon="7.944592125713825">
        <ele>2393.8200000000002</ele>
        <time>2013-06-30T12:19:16Z</time>
      </trkpt>
      <trkpt lat="45.644856942817569" lon="7.944704359397292">
        <ele>2391.9000000000001</ele>
        <time>2013-06-30T12:19:29Z</time>
      </trkpt>
      <trkpt lat="45.644863313063979" lon="7.944787591695786">
        <ele>2390.46</ele>
        <time>2013-06-30T12:19:36Z</time>
      </trkpt>
      <trkpt lat="45.644862307235599" lon="7.944950619712472">
        <ele>2388.5300000000002</ele>
        <time>2013-06-30T12:19:52Z</time>
      </trkpt>
      <trkpt lat="45.644842190667987" lon="7.94501599855721">
        <ele>2388.0500000000002</ele>
        <time>2013-06-30T12:20:05Z</time>
      </trkpt>
      <trkpt lat="45.644861049950123" lon="7.945161005482078">
        <ele>2386.6100000000001</ele>
        <time>2013-06-30T12:20:16Z</time>
      </trkpt>
      <trkpt lat="45.644857110455632" lon="7.945235269144177">
        <ele>2386.6100000000001</ele>
        <time>2013-06-30T12:20:26Z</time>
      </trkpt>
      <trkpt lat="45.644862726330757" lon="7.945424867793918">
        <ele>2386.6100000000001</ele>
        <time>2013-06-30T12:20:38Z</time>
      </trkpt>
      <trkpt lat="45.644802711904049" lon="7.94548412784934">
        <ele>2383.73</ele>
        <time>2013-06-30T12:20:51Z</time>
      </trkpt>
      <trkpt lat="45.644754599779844" lon="7.945524947717786">
        <ele>2381.3200000000002</ele>
        <time>2013-06-30T12:21:00Z</time>
      </trkpt>
      <trkpt lat="45.644732303917408" lon="7.945589069277048">
        <ele>2379.8800000000001</ele>
        <time>2013-06-30T12:21:12Z</time>
      </trkpt>
      <trkpt lat="45.644737584516406" lon="7.945600049570203">
        <ele>2379.8800000000001</ele>
        <time>2013-06-30T12:21:13Z</time>
      </trkpt>
      <trkpt lat="45.644735069945455" lon="7.945662830024958">
        <ele>2378.9200000000001</ele>
        <time>2013-06-30T12:21:18Z</time>
      </trkpt>
      <trkpt lat="45.644673127681017" lon="7.945833150297403">
        <ele>2375.5500000000002</ele>
        <time>2013-06-30T12:21:32Z</time>
      </trkpt>
      <trkpt lat="45.644615963101387" lon="7.945950832217932">
        <ele>2372.6700000000001</ele>
        <time>2013-06-30T12:21:44Z</time>
      </trkpt>
      <trkpt lat="45.644544884562492" lon="7.945940438657999">
        <ele>2370.75</ele>
        <time>2013-06-30T12:21:55Z</time>
      </trkpt>
      <trkpt lat="45.644502891227603" lon="7.945809932425618">
        <ele>2367.3800000000001</ele>
        <time>2013-06-30T12:22:09Z</time>
      </trkpt>
      <trkpt lat="45.644494844600558" lon="7.945787636563182">
        <ele>2366.9000000000001</ele>
        <time>2013-06-30T12:22:11Z</time>
      </trkpt>
      <trkpt lat="45.644433740526438" lon="7.945746397599578">
        <ele>2364.5</ele>
        <time>2013-06-30T12:22:23Z</time>
      </trkpt>
      <trkpt lat="45.644390070810914" lon="7.945713624358177">
        <ele>2363.0599999999999</ele>
        <time>2013-06-30T12:22:35Z</time>
      </trkpt>
      <trkpt lat="45.644389986991882" lon="7.945684958249331">
        <ele>2363.0599999999999</ele>
        <time>2013-06-30T12:22:49Z</time>
      </trkpt>
      <trkpt lat="45.644395770505071" lon="7.945695267990232">
        <ele>2362.5799999999999</ele>
        <time>2013-06-30T12:23:13Z</time>
      </trkpt>
      <trkpt lat="45.644394094124436" lon="7.945684790611267">
        <ele>2362.5799999999999</ele>
        <time>2013-06-30T12:23:39Z</time>
      </trkpt>
      <trkpt lat="45.644398117437959" lon="7.945703398436308">
        <ele>2363.0599999999999</ele>
        <time>2013-06-30T12:23:54Z</time>
      </trkpt>
      <trkpt lat="45.644400380551815" lon="7.945701135322452">
        <ele>2362.5799999999999</ele>
        <time>2013-06-30T12:24:19Z</time>
      </trkpt>
      <trkpt lat="45.64434053376317" lon="7.945760311558843">
        <ele>2359.6900000000001</ele>
        <time>2013-06-30T12:24:36Z</time>
      </trkpt>
      <trkpt lat="45.644293343648314" lon="7.94580708257854">
        <ele>2357.29</ele>
        <time>2013-06-30T12:24:47Z</time>
      </trkpt>
      <trkpt lat="45.644245650619268" lon="7.945806831121445">
        <ele>2354.8899999999999</ele>
        <time>2013-06-30T12:24:55Z</time>
      </trkpt>
      <trkpt lat="45.644201310351491" lon="7.945789145305753">
        <ele>2352.96</ele>
        <time>2013-06-30T12:25:02Z</time>
      </trkpt>
      <trkpt lat="45.644171135500073" lon="7.945820242166519">
        <ele>2351.52</ele>
        <time>2013-06-30T12:25:09Z</time>
      </trkpt>
      <trkpt lat="45.644113635644317" lon="7.945823594927788">
        <ele>2349.1199999999999</ele>
        <time>2013-06-30T12:25:17Z</time>
      </trkpt>
      <trkpt lat="45.644080527126789" lon="7.945759138092399">
        <ele>2347.6799999999998</ele>
        <time>2013-06-30T12:25:24Z</time>
      </trkpt>
      <trkpt lat="45.644040042534471" lon="7.945752935484052">
        <ele>2344.79</ele>
        <time>2013-06-30T12:25:36Z</time>
      </trkpt>
      <trkpt lat="45.64396527595818" lon="7.945799119770527">
        <ele>2341.9099999999999</ele>
        <time>2013-06-30T12:25:47Z</time>
      </trkpt>
      <trkpt lat="45.643897885456681" lon="7.945751091465354">
        <ele>2338.54</ele>
        <time>2013-06-30T12:25:58Z</time>
      </trkpt>
      <trkpt lat="45.643889252096415" lon="7.945744134485722">
        <ele>2338.54</ele>
        <time>2013-06-30T12:25:59Z</time>
      </trkpt>
      <trkpt lat="45.643868632614613" lon="7.945711445063353">
        <ele>2338.0599999999999</ele>
        <time>2013-06-30T12:26:02Z</time>
      </trkpt>
      <trkpt lat="45.643859412521124" lon="7.945632403716445">
        <ele>2336.1399999999999</ele>
        <time>2013-06-30T12:26:09Z</time>
      </trkpt>
      <trkpt lat="45.643815575167537" lon="7.945551015436649">
        <ele>2334.2199999999998</ele>
        <time>2013-06-30T12:26:20Z</time>
      </trkpt>
      <trkpt lat="45.643787495791912" lon="7.945504914969206">
        <ele>2332.3000000000002</ele>
        <time>2013-06-30T12:26:25Z</time>
      </trkpt>
      <trkpt lat="45.643774503841996" lon="7.945469962432981">
        <ele>2331.8099999999999</ele>
        <time>2013-06-30T12:26:29Z</time>
      </trkpt>
      <trkpt lat="45.643737120553851" lon="7.945344233885407">
        <ele>2328.9299999999998</ele>
        <time>2013-06-30T12:26:42Z</time>
      </trkpt>
      <trkpt lat="45.64368330873549" lon="7.945260666310787">
        <ele>2325.5700000000002</ele>
        <time>2013-06-30T12:26:54Z</time>
      </trkpt>
      <trkpt lat="45.643635531887412" lon="7.945200987160206">
        <ele>2322.6799999999998</ele>
        <time>2013-06-30T12:27:05Z</time>
      </trkpt>
      <trkpt lat="45.643577864393592" lon="7.945126555860043">
        <ele>2319.3200000000002</ele>
        <time>2013-06-30T12:27:16Z</time>
      </trkpt>
      <trkpt lat="45.64352891407907" lon="7.945055477321148">
        <ele>2317.4000000000001</ele>
        <time>2013-06-30T12:27:30Z</time>
      </trkpt>
      <trkpt lat="45.643494380638003" lon="7.945044748485088">
        <ele>2315.4699999999998</ele>
        <time>2013-06-30T12:27:36Z</time>
      </trkpt>
      <trkpt lat="45.643417434766889" lon="7.945017255842686">
        <ele>2312.1100000000001</ele>
        <time>2013-06-30T12:27:50Z</time>
      </trkpt>
      <trkpt lat="45.643404275178909" lon="7.945020105689764">
        <ele>2311.6300000000001</ele>
        <time>2013-06-30T12:28:01Z</time>
      </trkpt>
      <trkpt lat="45.643392959609628" lon="7.945031002163887">
        <ele>2311.1500000000001</ele>
        <time>2013-06-30T12:28:07Z</time>
      </trkpt>
      <trkpt lat="45.643334202468395" lon="7.945033516734839">
        <ele>2309.2199999999998</ele>
        <time>2013-06-30T12:28:13Z</time>
      </trkpt>
      <trkpt lat="45.643316684290767" lon="7.945019351318479">
        <ele>2308.7399999999998</ele>
        <time>2013-06-30T12:28:15Z</time>
      </trkpt>
      <trkpt lat="45.643264045938849" lon="7.945003258064389">
        <ele>2306.8200000000002</ele>
        <time>2013-06-30T12:28:21Z</time>
      </trkpt>
      <trkpt lat="45.643244013190269" lon="7.945000240579248">
        <ele>2306.3400000000001</ele>
        <time>2013-06-30T12:28:23Z</time>
      </trkpt>
      <trkpt lat="45.643226075917482" lon="7.944969898089767">
        <ele>2305.3800000000001</ele>
        <time>2013-06-30T12:28:26Z</time>
      </trkpt>
      <trkpt lat="45.643159942701459" lon="7.944861939176917">
        <ele>2301.5300000000002</ele>
        <time>2013-06-30T12:28:37Z</time>
      </trkpt>
      <trkpt lat="45.643171090632677" lon="7.944816593080759">
        <ele>2299.6100000000001</ele>
        <time>2013-06-30T12:28:50Z</time>
      </trkpt>
      <trkpt lat="45.643169414252043" lon="7.944810139015317">
        <ele>2299.6100000000001</ele>
        <time>2013-06-30T12:28:52Z</time>
      </trkpt>
      <trkpt lat="45.643158266320825" lon="7.944844588637352">
        <ele>2299.6100000000001</ele>
        <time>2013-06-30T12:29:00Z</time>
      </trkpt>
      <trkpt lat="45.643159775063396" lon="7.944835033267736">
        <ele>2300.0900000000001</ele>
        <time>2013-06-30T12:29:03Z</time>
      </trkpt>
      <trkpt lat="45.643068747594953" lon="7.944856993854046">
        <ele>2297.6900000000001</ele>
        <time>2013-06-30T12:29:17Z</time>
      </trkpt>
      <trkpt lat="45.643033795058727" lon="7.944783652201295">
        <ele>2295.77</ele>
        <time>2013-06-30T12:29:26Z</time>
      </trkpt>
      <trkpt lat="45.642989538609982" lon="7.944754650816321">
        <ele>2292.4000000000001</ele>
        <time>2013-06-30T12:29:34Z</time>
      </trkpt>
      <trkpt lat="45.642983000725508" lon="7.944774683564901">
        <ele>2291.9200000000001</ele>
        <time>2013-06-30T12:29:36Z</time>
      </trkpt>
      <trkpt lat="45.642928769811988" lon="7.94485330581665">
        <ele>2289.04</ele>
        <time>2013-06-30T12:29:45Z</time>
      </trkpt>
      <trkpt lat="45.642906306311488" lon="7.944852970540524">
        <ele>2288.0799999999999</ele>
        <time>2013-06-30T12:29:47Z</time>
      </trkpt>
      <trkpt lat="45.642897253856063" lon="7.944870740175247">
        <ele>2287.1100000000001</ele>
        <time>2013-06-30T12:29:49Z</time>
      </trkpt>
      <trkpt lat="45.642874287441373" lon="7.944891275838018">
        <ele>2285.6700000000001</ele>
        <time>2013-06-30T12:29:53Z</time>
      </trkpt>
      <trkpt lat="45.642826594412327" lon="7.944866716861725">
        <ele>2284.23</ele>
        <time>2013-06-30T12:29:59Z</time>
      </trkpt>
      <trkpt lat="45.64281695522368" lon="7.944843582808971">
        <ele>2283.27</ele>
        <time>2013-06-30T12:30:01Z</time>
      </trkpt>
      <trkpt lat="45.642789965495467" lon="7.944872668012977">
        <ele>2280.8699999999999</ele>
        <time>2013-06-30T12:30:08Z</time>
      </trkpt>
      <trkpt lat="45.642767166718841" lon="7.944920612499118">
        <ele>2280.3800000000001</ele>
        <time>2013-06-30T12:30:12Z</time>
      </trkpt>
      <trkpt lat="45.642746379598975" lon="7.945039300248027">
        <ele>2277.02</ele>
        <time>2013-06-30T12:30:25Z</time>
      </trkpt>
      <trkpt lat="45.64272022806108" lon="7.945115994662046">
        <ele>2273.6599999999999</ele>
        <time>2013-06-30T12:30:36Z</time>
      </trkpt>
      <trkpt lat="45.642717462033033" lon="7.945155808702111">
        <ele>2272.21</ele>
        <time>2013-06-30T12:30:47Z</time>
      </trkpt>
      <trkpt lat="45.642721820622683" lon="7.945194868370891">
        <ele>2270.77</ele>
        <time>2013-06-30T12:30:58Z</time>
      </trkpt>
      <trkpt lat="45.642713354900479" lon="7.945265024900436">
        <ele>2268.8499999999999</ele>
        <time>2013-06-30T12:31:09Z</time>
      </trkpt>
      <trkpt lat="45.642673289403319" lon="7.945298384875059">
        <ele>2266.4499999999998</ele>
        <time>2013-06-30T12:31:16Z</time>
      </trkpt>
      <trkpt lat="45.642643868923187" lon="7.945276256650686">
        <ele>2264.52</ele>
        <time>2013-06-30T12:31:20Z</time>
      </trkpt>
      <trkpt lat="45.642602210864425" lon="7.945281201973558">
        <ele>2262.5999999999999</ele>
        <time>2013-06-30T12:31:30Z</time>
      </trkpt>
      <trkpt lat="45.642603803426027" lon="7.945310538634658">
        <ele>2261.1599999999999</ele>
        <time>2013-06-30T12:31:34Z</time>
      </trkpt>
      <trkpt lat="45.642605647444725" lon="7.945405254140496">
        <ele>2259.2399999999998</ele>
        <time>2013-06-30T12:31:44Z</time>
      </trkpt>
      <trkpt lat="45.642584357410669" lon="7.945434087887406">
        <ele>2258.75</ele>
        <time>2013-06-30T12:31:50Z</time>
      </trkpt>
      <trkpt lat="45.642486289143562" lon="7.945364098995924">
        <ele>2256.8299999999999</ele>
        <time>2013-06-30T12:32:01Z</time>
      </trkpt>
      <trkpt lat="45.64245636574924" lon="7.945345658808947">
        <ele>2254.4299999999998</ele>
        <time>2013-06-30T12:32:13Z</time>
      </trkpt>
      <trkpt lat="45.642446894198656" lon="7.945344066247344">
        <ele>2253.4699999999998</ele>
        <time>2013-06-30T12:32:15Z</time>
      </trkpt>
      <trkpt lat="45.642427699640393" lon="7.94534926302731">
        <ele>2252.9899999999998</ele>
        <time>2013-06-30T12:32:17Z</time>
      </trkpt>
      <trkpt lat="45.642358884215355" lon="7.945321435108781">
        <ele>2251.54</ele>
        <time>2013-06-30T12:32:24Z</time>
      </trkpt>
      <trkpt lat="45.642314711585641" lon="7.945294193923473">
        <ele>2250.5799999999999</ele>
        <time>2013-06-30T12:32:28Z</time>
      </trkpt>
      <trkpt lat="45.642308425158262" lon="7.945255888625979">
        <ele>2251.0599999999999</ele>
        <time>2013-06-30T12:32:40Z</time>
      </trkpt>
      <trkpt lat="45.642299959436059" lon="7.945246836170554">
        <ele>2251.0599999999999</ele>
        <time>2013-06-30T12:33:04Z</time>
      </trkpt>
      <trkpt lat="45.642285626381636" lon="7.945277262479067">
        <ele>2251.0599999999999</ele>
        <time>2013-06-30T12:33:11Z</time>
      </trkpt>
      <trkpt lat="45.642202645540237" lon="7.945250272750855">
        <ele>2251.0599999999999</ele>
        <time>2013-06-30T12:33:23Z</time>
      </trkpt>
      <trkpt lat="45.642156628891826" lon="7.945169052109122">
        <ele>2248.6599999999999</ele>
        <time>2013-06-30T12:33:36Z</time>
      </trkpt>
      <trkpt lat="45.642132572829723" lon="7.945127310231328">
        <ele>2247.6999999999998</ele>
        <time>2013-06-30T12:33:48Z</time>
      </trkpt>
      <trkpt lat="45.642120335251093" lon="7.945121107622981">
        <ele>2247.2199999999998</ele>
        <time>2013-06-30T12:34:01Z</time>
      </trkpt>
      <trkpt lat="45.642130309715867" lon="7.945152623578906">
        <ele>2246.7399999999998</ele>
        <time>2013-06-30T12:34:19Z</time>
      </trkpt>
      <trkpt lat="45.642140451818705" lon="7.945207860320807">
        <ele>2247.2199999999998</ele>
        <time>2013-06-30T12:34:32Z</time>
      </trkpt>
      <trkpt lat="45.642137266695499" lon="7.945203082635999">
        <ele>2246.7399999999998</ele>
        <time>2013-06-30T12:34:45Z</time>
      </trkpt>
      <trkpt lat="45.642127292230725" lon="7.945215068757534">
        <ele>2246.7399999999998</ele>
        <time>2013-06-30T12:35:00Z</time>
      </trkpt>
      <trkpt lat="45.642099967226386" lon="7.945219175890088">
        <ele>2246.2600000000002</ele>
        <time>2013-06-30T12:35:07Z</time>
      </trkpt>
      <trkpt lat="45.642069121822715" lon="7.945265108719468">
        <ele>2244.3299999999999</ele>
        <time>2013-06-30T12:35:13Z</time>
      </trkpt>
      <trkpt lat="45.642061159014702" lon="7.945326128974557">
        <ele>2239.5300000000002</ele>
        <time>2013-06-30T12:35:22Z</time>
      </trkpt>
      <trkpt lat="45.642061326652765" lon="7.94532772153616">
        <ele>2239.5300000000002</ele>
        <time>2013-06-30T12:35:23Z</time>
      </trkpt>
      <trkpt lat="45.642063086852431" lon="7.945323614403606">
        <ele>2242.8899999999999</ele>
        <time>2013-06-30T12:35:27Z</time>
      </trkpt>
      <trkpt lat="45.642067529261112" lon="7.945327470079064">
        <ele>2242.8899999999999</ele>
        <time>2013-06-30T12:35:28Z</time>
      </trkpt>
      <trkpt lat="45.642066858708858" lon="7.945334175601602">
        <ele>2242.4099999999999</ele>
        <time>2013-06-30T12:35:29Z</time>
      </trkpt>
      <trkpt lat="45.642080856487155" lon="7.945359572768211">
        <ele>2241.9299999999998</ele>
        <time>2013-06-30T12:35:32Z</time>
      </trkpt>
      <trkpt lat="45.642084963619709" lon="7.945426208898425">
        <ele>2240.0100000000002</ele>
        <time>2013-06-30T12:35:41Z</time>
      </trkpt>
      <trkpt lat="45.642054034397006" lon="7.945396704599261">
        <ele>2239.5300000000002</ele>
        <time>2013-06-30T12:35:44Z</time>
      </trkpt>
      <trkpt lat="45.642000725492835" lon="7.945444732904434">
        <ele>2237.6100000000001</ele>
        <time>2013-06-30T12:35:54Z</time>
      </trkpt>
      <trkpt lat="45.642009945586324" lon="7.945524444803596">
        <ele>2234.7199999999998</ele>
        <time>2013-06-30T12:36:02Z</time>
      </trkpt>
      <trkpt lat="45.642003575339913" lon="7.945592757314444">
        <ele>2232.3200000000002</ele>
        <time>2013-06-30T12:36:11Z</time>
      </trkpt>
      <trkpt lat="45.64200047403574" lon="7.945602228865027">
        <ele>2232.3200000000002</ele>
        <time>2013-06-30T12:36:12Z</time>
      </trkpt>
      <trkpt lat="45.641935262829065" lon="7.945660734549165">
        <ele>2229.9200000000001</ele>
        <time>2013-06-30T12:36:23Z</time>
      </trkpt>
      <trkpt lat="45.641892682760954" lon="7.945654699578881">
        <ele>2228.4699999999998</ele>
        <time>2013-06-30T12:36:26Z</time>
      </trkpt>
      <trkpt lat="45.641831746324897" lon="7.945622345432639">
        <ele>2226.5500000000002</ele>
        <time>2013-06-30T12:36:37Z</time>
      </trkpt>
      <trkpt lat="45.641816826537251" lon="7.945649167522788">
        <ele>2225.5900000000001</ele>
        <time>2013-06-30T12:36:41Z</time>
      </trkpt>
      <trkpt lat="45.641789752990007" lon="7.945653945207596">
        <ele>2225.1100000000001</ele>
        <time>2013-06-30T12:36:44Z</time>
      </trkpt>
      <trkpt lat="45.641741640865803" lon="7.9456692840904">
        <ele>2223.6700000000001</ele>
        <time>2013-06-30T12:36:50Z</time>
      </trkpt>
      <trkpt lat="45.641604261472821" lon="7.945683868601918">
        <ele>2222.71</ele>
        <time>2013-06-30T12:37:03Z</time>
      </trkpt>
      <trkpt lat="45.641552042216063" lon="7.945703398436308">
        <ele>2221.7399999999998</ele>
        <time>2013-06-30T12:37:16Z</time>
      </trkpt>
      <trkpt lat="45.641485406085849" lon="7.945660734549165">
        <ele>2219.8200000000002</ele>
        <time>2013-06-30T12:37:27Z</time>
      </trkpt>
      <trkpt lat="45.641487501561642" lon="7.945678168907762">
        <ele>2218.8600000000001</ele>
        <time>2013-06-30T12:37:30Z</time>
      </trkpt>
      <trkpt lat="45.641459506005049" lon="7.945745643228293">
        <ele>2217.4200000000001</ele>
        <time>2013-06-30T12:37:39Z</time>
      </trkpt>
      <trkpt lat="45.641438383609056" lon="7.945831809192896">
        <ele>2214.5300000000002</ele>
        <time>2013-06-30T12:37:52Z</time>
      </trkpt>
      <trkpt lat="45.641438467428088" lon="7.945871623232961">
        <ele>2213.5700000000002</ele>
        <time>2013-06-30T12:38:09Z</time>
      </trkpt>
      <trkpt lat="45.641448777168989" lon="7.945855110883713">
        <ele>2213.5700000000002</ele>
        <time>2013-06-30T12:38:26Z</time>
      </trkpt>
      <trkpt lat="45.641423966735601" lon="7.945865169167519">
        <ele>2213.5700000000002</ele>
        <time>2013-06-30T12:38:29Z</time>
      </trkpt>
      <trkpt lat="45.641390271484852" lon="7.945882519707084">
        <ele>2214.5300000000002</ele>
        <time>2013-06-30T12:38:41Z</time>
      </trkpt>
      <trkpt lat="45.641380799934268" lon="7.945845974609256">
        <ele>2214.5300000000002</ele>
        <time>2013-06-30T12:39:02Z</time>
      </trkpt>
      <trkpt lat="45.641383398324251" lon="7.945824349299073">
        <ele>2214.0500000000002</ele>
        <time>2013-06-30T12:39:15Z</time>
      </trkpt>
      <trkpt lat="45.641400162130594" lon="7.945878496393561">
        <ele>2214.0500000000002</ele>
        <time>2013-06-30T12:39:29Z</time>
      </trkpt>
      <trkpt lat="45.641400665044785" lon="7.94583348557353">
        <ele>2214.0500000000002</ele>
        <time>2013-06-30T12:39:42Z</time>
      </trkpt>
      <trkpt lat="45.641434108838439" lon="7.94583348557353">
        <ele>2213.0900000000001</ele>
        <time>2013-06-30T12:40:02Z</time>
      </trkpt>
      <trkpt lat="45.641469648107886" lon="7.945908335968852">
        <ele>2211.1700000000001</ele>
        <time>2013-06-30T12:40:14Z</time>
      </trkpt>
      <trkpt lat="45.641430839896202" lon="7.946002800017595">
        <ele>2209.25</ele>
        <time>2013-06-30T12:40:26Z</time>
      </trkpt>
      <trkpt lat="45.64138188958168" lon="7.94600011780858">
        <ele>2207.3200000000002</ele>
        <time>2013-06-30T12:40:32Z</time>
      </trkpt>
      <trkpt lat="45.641341991722584" lon="7.94598788022995">
        <ele>2205.8800000000001</ele>
        <time>2013-06-30T12:40:44Z</time>
      </trkpt>
      <trkpt lat="45.641306955367327" lon="7.945959884673357">
        <ele>2205.4000000000001</ele>
        <time>2013-06-30T12:40:50Z</time>
      </trkpt>
      <trkpt lat="45.641215508803725" lon="7.945841532200575">
        <ele>2204.9200000000001</ele>
        <time>2013-06-30T12:41:04Z</time>
      </trkpt>
      <trkpt lat="45.641140239313245" lon="7.945731393992901">
        <ele>2203.96</ele>
        <time>2013-06-30T12:41:17Z</time>
      </trkpt>
      <trkpt lat="45.641089444980025" lon="7.945655873045325">
        <ele>2201.5599999999999</ele>
        <time>2013-06-30T12:41:29Z</time>
      </trkpt>
      <trkpt lat="45.641053151339293" lon="7.945657297968864">
        <ele>2200.1100000000001</ele>
        <time>2013-06-30T12:41:41Z</time>
      </trkpt>
      <trkpt lat="45.641045020893216" lon="7.945692921057344">
        <ele>2199.1500000000001</ele>
        <time>2013-06-30T12:41:53Z</time>
      </trkpt>
      <trkpt lat="45.641046278178692" lon="7.945659812539816">
        <ele>2199.1500000000001</ele>
        <time>2013-06-30T12:42:09Z</time>
      </trkpt>
      <trkpt lat="45.641032364219427" lon="7.945634247735143">
        <ele>2199.6300000000001</ele>
        <time>2013-06-30T12:42:27Z</time>
      </trkpt>
      <trkpt lat="45.641079470515251" lon="7.945701219141483">
        <ele>2198.1900000000001</ele>
        <time>2013-06-30T12:42:43Z</time>
      </trkpt>
      <trkpt lat="45.641105119138956" lon="7.945752684026957">
        <ele>2197.71</ele>
        <time>2013-06-30T12:42:56Z</time>
      </trkpt>
      <trkpt lat="45.641077794134617" lon="7.945763999596238">
        <ele>2197.23</ele>
        <time>2013-06-30T12:43:07Z</time>
      </trkpt>
      <trkpt lat="45.641087684780359" lon="7.945808842778206">
        <ele>2196.27</ele>
        <time>2013-06-30T12:43:19Z</time>
      </trkpt>
      <trkpt lat="45.64105985686183" lon="7.945802304893732">
        <ele>2196.75</ele>
        <time>2013-06-30T12:43:30Z</time>
      </trkpt>
      <trkpt lat="45.641060695052147" lon="7.945804065093398">
        <ele>2196.75</ele>
        <time>2013-06-30T12:43:50Z</time>
      </trkpt>
      <trkpt lat="45.641069747507572" lon="7.945850165560842">
        <ele>2196.75</ele>
        <time>2013-06-30T12:44:02Z</time>
      </trkpt>
      <trkpt lat="45.64111752435565" lon="7.94599718414247">
        <ele>2194.8299999999999</ele>
        <time>2013-06-30T12:44:15Z</time>
      </trkpt>
      <trkpt lat="45.641178879886866" lon="7.94614814221859">
        <ele>2193.3899999999999</ele>
        <time>2013-06-30T12:44:26Z</time>
      </trkpt>
      <trkpt lat="45.641284491866827" lon="7.94625660404563">
        <ele>2191.9400000000001</ele>
        <time>2013-06-30T12:44:40Z</time>
      </trkpt>
      <trkpt lat="45.641358755528927" lon="7.946355007588863">
        <ele>2188.0999999999999</ele>
        <time>2013-06-30T12:44:54Z</time>
      </trkpt>
      <trkpt lat="45.641410807147622" lon="7.946427343413234">
        <ele>2186.1799999999998</ele>
        <time>2013-06-30T12:45:08Z</time>
      </trkpt>
      <trkpt lat="45.641468139365315" lon="7.946483502164483">
        <ele>2183.77</ele>
        <time>2013-06-30T12:45:21Z</time>
      </trkpt>
      <trkpt lat="45.641494542360306" lon="7.946572015061975">
        <ele>2181.8499999999999</ele>
        <time>2013-06-30T12:45:29Z</time>
      </trkpt>
      <trkpt lat="45.641573835164309" lon="7.9466881044209">
        <ele>2178.48</ele>
        <time>2013-06-30T12:45:46Z</time>
      </trkpt>
      <trkpt lat="45.641605099663138" lon="7.946727331727743">
        <ele>2177.04</ele>
        <time>2013-06-30T12:46:01Z</time>
      </trkpt>
      <trkpt lat="45.64161297865212" lon="7.946757674217224">
        <ele>2176.5599999999999</ele>
        <time>2013-06-30T12:46:06Z</time>
      </trkpt>
      <trkpt lat="45.641635861247778" lon="7.946932772174478">
        <ele>2173.1999999999998</ele>
        <time>2013-06-30T12:46:20Z</time>
      </trkpt>
      <trkpt lat="45.641637369990349" lon="7.946957917883992">
        <ele>2172.7199999999998</ele>
        <time>2013-06-30T12:46:22Z</time>
      </trkpt>
      <trkpt lat="45.641638794913888" lon="7.94712052680552">
        <ele>2170.3099999999999</ele>
        <time>2013-06-30T12:46:37Z</time>
      </trkpt>
      <trkpt lat="45.641644578427076" lon="7.947166878730059">
        <ele>2169.8299999999999</ele>
        <time>2013-06-30T12:46:41Z</time>
      </trkpt>
      <trkpt lat="45.641647595912218" lon="7.947233263403177">
        <ele>2169.3499999999999</ele>
        <time>2013-06-30T12:46:46Z</time>
      </trkpt>
      <trkpt lat="45.641652122139931" lon="7.947367541491985">
        <ele>2167.9099999999999</ele>
        <time>2013-06-30T12:46:58Z</time>
      </trkpt>
      <trkpt lat="45.641650697216392" lon="7.947410037741065">
        <ele>2168.3899999999999</ele>
        <time>2013-06-30T12:47:04Z</time>
      </trkpt>
      <trkpt lat="45.641625551506877" lon="7.947470471262932">
        <ele>2167.4299999999998</ele>
        <time>2013-06-30T12:47:15Z</time>
      </trkpt>
      <trkpt lat="45.641633849591017" lon="7.947589745745063">
        <ele>2163.5799999999999</ele>
        <time>2013-06-30T12:47:28Z</time>
      </trkpt>
      <trkpt lat="45.64162521623075" lon="7.94760181568563">
        <ele>2162.6199999999999</ele>
        <time>2013-06-30T12:47:39Z</time>
      </trkpt>
      <trkpt lat="45.641586910933256" lon="7.947656717151403">
        <ele>2161.1799999999998</ele>
        <time>2013-06-30T12:47:50Z</time>
      </trkpt>
      <trkpt lat="45.641589593142271" lon="7.947662500664592">
        <ele>2161.1799999999998</ele>
        <time>2013-06-30T12:47:51Z</time>
      </trkpt>
      <trkpt lat="45.641608200967312" lon="7.947821589186788">
        <ele>2158.3000000000002</ele>
        <time>2013-06-30T12:48:04Z</time>
      </trkpt>
      <trkpt lat="45.641606524586678" lon="7.947878586128354">
        <ele>2158.7800000000002</ele>
        <time>2013-06-30T12:48:09Z</time>
      </trkpt>
      <trkpt lat="45.641574840992689" lon="7.948063155636191">
        <ele>2155.4099999999999</ele>
        <time>2013-06-30T12:48:23Z</time>
      </trkpt>
      <trkpt lat="45.641557238996029" lon="7.948099868372083">
        <ele>2155.4099999999999</ele>
        <time>2013-06-30T12:48:26Z</time>
      </trkpt>
      <trkpt lat="45.641475850716233" lon="7.948164157569408">
        <ele>2155.4099999999999</ele>
        <time>2013-06-30T12:48:37Z</time>
      </trkpt>
      <trkpt lat="45.641467301174998" lon="7.948166504502296">
        <ele>2155.4099999999999</ele>
        <time>2013-06-30T12:48:39Z</time>
      </trkpt>
      <trkpt lat="45.641418686136603" lon="7.948181172832847">
        <ele>2154.9299999999998</ele>
        <time>2013-06-30T12:48:44Z</time>
      </trkpt>
      <trkpt lat="45.641358755528927" lon="7.948221573606134">
        <ele>2153.0100000000002</ele>
        <time>2013-06-30T12:48:50Z</time>
      </trkpt>
      <trkpt lat="45.641242917627096" lon="7.948321402072907">
        <ele>2150.6100000000001</ele>
        <time>2013-06-30T12:49:03Z</time>
      </trkpt>
      <trkpt lat="45.641160188242793" lon="7.948471438139677">
        <ele>2148.6799999999998</ele>
        <time>2013-06-30T12:49:16Z</time>
      </trkpt>
      <trkpt lat="45.641094390302896" lon="7.94851309619844">
        <ele>2147.2399999999998</ele>
        <time>2013-06-30T12:49:31Z</time>
      </trkpt>
      <trkpt lat="45.641069998964667" lon="7.948507480323315">
        <ele>2146.7600000000002</ele>
        <time>2013-06-30T12:49:48Z</time>
      </trkpt>
      <trkpt lat="45.641075950115919" lon="7.948506390675902">
        <ele>2146.2800000000002</ele>
        <time>2013-06-30T12:50:07Z</time>
      </trkpt>
      <trkpt lat="45.641061784699559" lon="7.948523489758372">
        <ele>2146.7600000000002</ele>
        <time>2013-06-30T12:50:23Z</time>
      </trkpt>
      <trkpt lat="45.641066897660494" lon="7.948536314070225">
        <ele>2146.7600000000002</ele>
        <time>2013-06-30T12:50:48Z</time>
      </trkpt>
      <trkpt lat="45.641063461080194" lon="7.948539750650525">
        <ele>2146.7600000000002</ele>
        <time>2013-06-30T12:51:02Z</time>
      </trkpt>
      <trkpt lat="45.641069076955318" lon="7.948542013764381">
        <ele>2146.2800000000002</ele>
        <time>2013-06-30T12:51:17Z</time>
      </trkpt>
      <trkpt lat="45.641072764992714" lon="7.948528099805117">
        <ele>2146.2800000000002</ele>
        <time>2013-06-30T12:51:37Z</time>
      </trkpt>
      <trkpt lat="45.641051474958658" lon="7.948543522506952">
        <ele>2146.2800000000002</ele>
        <time>2013-06-30T12:51:57Z</time>
      </trkpt>
      <trkpt lat="45.641046864911914" lon="7.948538828641176">
        <ele>2146.2800000000002</ele>
        <time>2013-06-30T12:52:20Z</time>
      </trkpt>
      <trkpt lat="45.64104326069355" lon="7.948537403717637">
        <ele>2146.2800000000002</ele>
        <time>2013-06-30T12:52:45Z</time>
      </trkpt>
      <trkpt lat="45.641048960387707" lon="7.948530279099941">
        <ele>2146.2800000000002</ele>
        <time>2013-06-30T12:53:09Z</time>
      </trkpt>
      <trkpt lat="45.641054157167673" lon="7.948532206937671">
        <ele>2145.8000000000002</ele>
        <time>2013-06-30T12:53:31Z</time>
      </trkpt>
      <trkpt lat="45.64104326069355" lon="7.948522735387087">
        <ele>2145.8000000000002</ele>
        <time>2013-06-30T12:53:45Z</time>
      </trkpt>
      <trkpt lat="45.640994813293219" lon="7.948551401495934">
        <ele>2144.3600000000001</ele>
        <time>2013-06-30T12:53:57Z</time>
      </trkpt>
      <trkpt lat="45.640990119427443" lon="7.948617786169052">
        <ele>2142.4400000000001</ele>
        <time>2013-06-30T12:54:06Z</time>
      </trkpt>
      <trkpt lat="45.640952233225107" lon="7.948632370680571">
        <ele>2140.9899999999998</ele>
        <time>2013-06-30T12:54:10Z</time>
      </trkpt>
      <trkpt lat="45.640929015353322" lon="7.948629185557365">
        <ele>2140.0300000000002</ele>
        <time>2013-06-30T12:54:12Z</time>
      </trkpt>
      <trkpt lat="45.640891883522272" lon="7.948589958250523">
        <ele>2138.1100000000001</ele>
        <time>2013-06-30T12:54:16Z</time>
      </trkpt>
      <trkpt lat="45.64082189463079" lon="7.948529860004783">
        <ele>2136.1900000000001</ele>
        <time>2013-06-30T12:54:28Z</time>
      </trkpt>
      <trkpt lat="45.640802113339305" lon="7.948518628254533">
        <ele>2136.6700000000001</ele>
        <time>2013-06-30T12:54:44Z</time>
      </trkpt>
      <trkpt lat="45.640788450837135" lon="7.948495913296938">
        <ele>2136.1900000000001</ele>
        <time>2013-06-30T12:54:48Z</time>
      </trkpt>
      <trkpt lat="45.640780907124281" lon="7.948476048186421">
        <ele>2136.1900000000001</ele>
        <time>2013-06-30T12:54:50Z</time>
      </trkpt>
      <trkpt lat="45.640768418088555" lon="7.948415363207459">
        <ele>2135.71</ele>
        <time>2013-06-30T12:54:54Z</time>
      </trkpt>
      <trkpt lat="45.640741176903248" lon="7.948343949392438">
        <ele>2134.2600000000002</ele>
        <time>2013-06-30T12:55:03Z</time>
      </trkpt>
      <trkpt lat="45.640679402276874" lon="7.948296340182424">
        <ele>2131.3800000000001</ele>
        <time>2013-06-30T12:55:12Z</time>
      </trkpt>
      <trkpt lat="45.640628524124622" lon="7.948384517803788">
        <ele>2129.46</ele>
        <time>2013-06-30T12:55:26Z</time>
      </trkpt>
      <trkpt lat="45.640627853572369" lon="7.948385607451201">
        <ele>2129.46</ele>
        <time>2013-06-30T12:55:27Z</time>
      </trkpt>
      <trkpt lat="45.640593990683556" lon="7.948451405391097">
        <ele>2128.5</ele>
        <time>2013-06-30T12:55:34Z</time>
      </trkpt>
      <trkpt lat="45.640561887994409" lon="7.948429444804788">
        <ele>2127.0500000000002</ele>
        <time>2013-06-30T12:55:38Z</time>
      </trkpt>
      <trkpt lat="45.640507908537984" lon="7.948349649086595">
        <ele>2124.1700000000001</ele>
        <time>2013-06-30T12:55:51Z</time>
      </trkpt>
      <trkpt lat="45.640468932688236" lon="7.948349565267563">
        <ele>2122.73</ele>
        <time>2013-06-30T12:55:56Z</time>
      </trkpt>
      <trkpt lat="45.640450576320291" lon="7.948336824774742">
        <ele>2122.73</ele>
        <time>2013-06-30T12:55:58Z</time>
      </trkpt>
      <trkpt lat="45.640417970716953" lon="7.948321402072907">
        <ele>2121.77</ele>
        <time>2013-06-30T12:56:02Z</time>
      </trkpt>
      <trkpt lat="45.640376145020127" lon="7.948253508657217">
        <ele>2120.3200000000002</ele>
        <time>2013-06-30T12:56:08Z</time>
      </trkpt>
      <trkpt lat="45.640352759510279" lon="7.948185196146369">
        <ele>2119.8400000000001</ele>
        <time>2013-06-30T12:56:16Z</time>
      </trkpt>
      <trkpt lat="45.640329206362367" lon="7.948166588321328">
        <ele>2119.8400000000001</ele>
        <time>2013-06-30T12:56:19Z</time>
      </trkpt>
      <trkpt lat="45.640284698456526" lon="7.948115291073918">
        <ele>2117.9200000000001</ele>
        <time>2013-06-30T12:56:28Z</time>
      </trkpt>
      <trkpt lat="45.640244130045176" lon="7.948067514225841">
        <ele>2115.52</ele>
        <time>2013-06-30T12:56:39Z</time>
      </trkpt>
      <trkpt lat="45.64022577367723" lon="7.948084194213152">
        <ele>2115.52</ele>
        <time>2013-06-30T12:56:42Z</time>
      </trkpt>
      <trkpt lat="45.640198532491922" lon="7.948078410699964">
        <ele>2115.04</ele>
        <time>2013-06-30T12:56:45Z</time>
      </trkpt>
      <trkpt lat="45.640163160860538" lon="7.948019066825509">
        <ele>2113.5999999999999</ele>
        <time>2013-06-30T12:56:52Z</time>
      </trkpt>
      <trkpt lat="45.640161568298936" lon="7.947958800941706">
        <ele>2111.6700000000001</ele>
        <time>2013-06-30T12:56:56Z</time>
      </trkpt>
      <trkpt lat="45.640142122283578" lon="7.94794631190598">
        <ele>2110.71</ele>
        <time>2013-06-30T12:57:00Z</time>
      </trkpt>
      <trkpt lat="45.640041790902615" lon="7.94788034632802">
        <ele>2107.8299999999999</ele>
        <time>2013-06-30T12:57:14Z</time>
      </trkpt>
      <trkpt lat="45.640015639364719" lon="7.947867857292295">
        <ele>2106.8699999999999</ele>
        <time>2013-06-30T12:57:18Z</time>
      </trkpt>
      <trkpt lat="45.639925617724657" lon="7.947874646633863">
        <ele>2103.98</ele>
        <time>2013-06-30T12:57:32Z</time>
      </trkpt>
      <trkpt lat="45.63983685337007" lon="7.947884537279606">
        <ele>2102.0599999999999</ele>
        <time>2013-06-30T12:57:46Z</time>
      </trkpt>
      <trkpt lat="45.639784801751375" lon="7.947895433753729">
        <ele>2100.6199999999999</ele>
        <time>2013-06-30T12:57:55Z</time>
      </trkpt>
      <trkpt lat="45.639740210026503" lon="7.94788034632802">
        <ele>2100.1399999999999</ele>
        <time>2013-06-30T12:58:01Z</time>
      </trkpt>
      <trkpt lat="45.639616744592786" lon="7.947922926396132">
        <ele>2098.6999999999998</ele>
        <time>2013-06-30T12:58:15Z</time>
      </trkpt>
      <trkpt lat="45.639594867825508" lon="7.947923094034195">
        <ele>2098.21</ele>
        <time>2013-06-30T12:58:17Z</time>
      </trkpt>
      <trkpt lat="45.639520352706313" lon="7.94790817424655">
        <ele>2099.6599999999999</ele>
        <time>2013-06-30T12:58:29Z</time>
      </trkpt>
      <trkpt lat="45.639503337442875" lon="7.947894679382443">
        <ele>2099.1799999999998</ele>
        <time>2013-06-30T12:58:31Z</time>
      </trkpt>
      <trkpt lat="45.639409376308322" lon="7.947858553379774">
        <ele>2099.1799999999998</ele>
        <time>2013-06-30T12:58:44Z</time>
      </trkpt>
      <trkpt lat="45.639402503147721" lon="7.947834664955735">
        <ele>2098.6999999999998</ele>
        <time>2013-06-30T12:59:00Z</time>
      </trkpt>
      <trkpt lat="45.639388086274266" lon="7.947855703532696">
        <ele>2098.6999999999998</ele>
        <time>2013-06-30T12:59:09Z</time>
      </trkpt>
      <trkpt lat="45.639370232820511" lon="7.947857044637203">
        <ele>2098.21</ele>
        <time>2013-06-30T12:59:11Z</time>
      </trkpt>
      <trkpt lat="45.639307117089629" lon="7.947917561978102">
        <ele>2098.21</ele>
        <time>2013-06-30T12:59:21Z</time>
      </trkpt>
      <trkpt lat="45.63929345458746" lon="7.947942037135363">
        <ele>2096.77</ele>
        <time>2013-06-30T12:59:24Z</time>
      </trkpt>
      <trkpt lat="45.639280714094639" lon="7.947964249178767">
        <ele>2096.77</ele>
        <time>2013-06-30T12:59:26Z</time>
      </trkpt>
      <trkpt lat="45.639132605865598" lon="7.947961650788784">
        <ele>2094.8499999999999</ele>
        <time>2013-06-30T12:59:42Z</time>
      </trkpt>
      <trkpt lat="45.639111986383796" lon="7.947972966358066">
        <ele>2093.8899999999999</ele>
        <time>2013-06-30T12:59:46Z</time>
      </trkpt>
      <trkpt lat="45.639062952250242" lon="7.947953017428517">
        <ele>2092.4499999999998</ele>
        <time>2013-06-30T12:59:57Z</time>
      </trkpt>
      <trkpt lat="45.639010313898325" lon="7.947945725172758">
        <ele>2091.4899999999998</ele>
        <time>2013-06-30T13:00:14Z</time>
      </trkpt>
      <trkpt lat="45.638938313350081" lon="7.947924518957734">
        <ele>2089.0799999999999</ele>
        <time>2013-06-30T13:00:28Z</time>
      </trkpt>
      <trkpt lat="45.638852650299668" lon="7.947884369641542">
        <ele>2086.6799999999998</ele>
        <time>2013-06-30T13:00:40Z</time>
      </trkpt>
      <trkpt lat="45.63877796754241" lon="7.947855535894632">
        <ele>2084.2800000000002</ele>
        <time>2013-06-30T13:00:53Z</time>
      </trkpt>
      <trkpt lat="45.638705799356103" lon="7.947857212275267">
        <ele>2080.9099999999999</ele>
        <time>2013-06-30T13:01:05Z</time>
      </trkpt>
      <trkpt lat="45.638610245659947" lon="7.947858050465584">
        <ele>2078.0300000000002</ele>
        <time>2013-06-30T13:01:18Z</time>
      </trkpt>
      <trkpt lat="45.638602785766125" lon="7.947860481217504">
        <ele>2078.0300000000002</ele>
        <time>2013-06-30T13:01:19Z</time>
      </trkpt>
      <trkpt lat="45.638505555689335" lon="7.947889482602477">
        <ele>2074.6599999999999</ele>
        <time>2013-06-30T13:01:32Z</time>
      </trkpt>
      <trkpt lat="45.638479655608535" lon="7.947891997173429">
        <ele>2074.1799999999998</ele>
        <time>2013-06-30T13:01:35Z</time>
      </trkpt>
      <trkpt lat="45.63840757124126" lon="7.947913035750389">
        <ele>2072.7399999999998</ele>
        <time>2013-06-30T13:01:47Z</time>
      </trkpt>
      <trkpt lat="45.638399356976151" lon="7.947908928617835">
        <ele>2072.2600000000002</ele>
        <time>2013-06-30T13:01:48Z</time>
      </trkpt>
      <trkpt lat="45.63836608082056" lon="7.947900043800473">
        <ele>2071.7800000000002</ele>
        <time>2013-06-30T13:01:51Z</time>
      </trkpt>
      <trkpt lat="45.638301959261298" lon="7.947927368804812">
        <ele>2070.3400000000001</ele>
        <time>2013-06-30T13:01:57Z</time>
      </trkpt>
      <trkpt lat="45.638227025046945" lon="7.947993585839868">
        <ele>2068.4099999999999</ele>
        <time>2013-06-30T13:02:10Z</time>
      </trkpt>
      <trkpt lat="45.638192072510719" lon="7.948092492297292">
        <ele>2066.0100000000002</ele>
        <time>2013-06-30T13:02:25Z</time>
      </trkpt>
      <trkpt lat="45.638141445815563" lon="7.948121409863234">
        <ele>2065.0500000000002</ele>
        <time>2013-06-30T13:02:32Z</time>
      </trkpt>
      <trkpt lat="45.638115797191858" lon="7.948134234175086">
        <ele>2064.5700000000002</ele>
        <time>2013-06-30T13:02:35Z</time>
      </trkpt>
      <trkpt lat="45.638055950403214" lon="7.948128702118993">
        <ele>2062.6500000000001</ele>
        <time>2013-06-30T13:02:47Z</time>
      </trkpt>
      <trkpt lat="45.637996690347791" lon="7.948158541694284">
        <ele>2061.1999999999998</ele>
        <time>2013-06-30T13:02:58Z</time>
      </trkpt>
      <trkpt lat="45.63794975169003" lon="7.948078578338027">
        <ele>2057.8400000000001</ele>
        <time>2013-06-30T13:03:09Z</time>
      </trkpt>
      <trkpt lat="45.637956876307726" lon="7.94804303906858">
        <ele>2057.3600000000001</ele>
        <time>2013-06-30T13:03:12Z</time>
      </trkpt>
      <trkpt lat="45.637921672314405" lon="7.947976402938366">
        <ele>2054.96</ele>
        <time>2013-06-30T13:03:24Z</time>
      </trkpt>
      <trkpt lat="45.637897700071335" lon="7.947993921115995">
        <ele>2053.5100000000002</ele>
        <time>2013-06-30T13:03:28Z</time>
      </trkpt>
      <trkpt lat="45.637838607653975" lon="7.947978917509317">
        <ele>2052.0700000000002</ele>
        <time>2013-06-30T13:03:35Z</time>
      </trkpt>
      <trkpt lat="45.637782281264663" lon="7.947977492585778">
        <ele>2050.1500000000001</ele>
        <time>2013-06-30T13:03:43Z</time>
      </trkpt>
      <trkpt lat="45.637771552428603" lon="7.947969865053892">
        <ele>2050.1500000000001</ele>
        <time>2013-06-30T13:03:45Z</time>
      </trkpt>
      <trkpt lat="45.637734085321426" lon="7.947914209216833">
        <ele>2049.1900000000001</ele>
        <time>2013-06-30T13:03:50Z</time>
      </trkpt>
      <trkpt lat="45.63772008754313" lon="7.947811782360077">
        <ele>2048.71</ele>
        <time>2013-06-30T13:03:56Z</time>
      </trkpt>
      <trkpt lat="45.637590670958161" lon="7.947786720469594">
        <ele>2048.71</ele>
        <time>2013-06-30T13:04:09Z</time>
      </trkpt>
      <trkpt lat="45.637493608519435" lon="7.947811866179109">
        <ele>2048.23</ele>
        <time>2013-06-30T13:04:20Z</time>
      </trkpt>
      <trkpt lat="45.637462511658669" lon="7.947806669399142">
        <ele>2047.75</ele>
        <time>2013-06-30T13:04:23Z</time>
      </trkpt>
      <trkpt lat="45.637383135035634" lon="7.947866013273597">
        <ele>2049.1900000000001</ele>
        <time>2013-06-30T13:04:35Z</time>
      </trkpt>
      <trkpt lat="45.637289676815271" lon="7.947945473715663">
        <ele>2047.26</ele>
        <time>2013-06-30T13:04:45Z</time>
      </trkpt>
      <trkpt lat="45.637253802269697" lon="7.947958298027515">
        <ele>2047.75</ele>
        <time>2013-06-30T13:04:49Z</time>
      </trkpt>
      <trkpt lat="45.637225471436977" lon="7.94798294082284">
        <ele>2047.26</ele>
        <time>2013-06-30T13:04:53Z</time>
      </trkpt>
      <trkpt lat="45.637195045128465" lon="7.948012696579099">
        <ele>2048.23</ele>
        <time>2013-06-30T13:04:58Z</time>
      </trkpt>
      <trkpt lat="45.637177946045995" lon="7.948049157857895">
        <ele>2048.23</ele>
        <time>2013-06-30T13:05:01Z</time>
      </trkpt>
      <trkpt lat="45.637156153097749" lon="7.948058126494288">
        <ele>2047.75</ele>
        <time>2013-06-30T13:05:03Z</time>
      </trkpt>
      <trkpt lat="45.63713519833982" lon="7.948042536154389">
        <ele>2047.75</ele>
        <time>2013-06-30T13:05:05Z</time>
      </trkpt>
      <trkpt lat="45.637116087600589" lon="7.948044966906309">
        <ele>2047.26</ele>
        <time>2013-06-30T13:05:07Z</time>
      </trkpt>
      <trkpt lat="45.637070825323462" lon="7.948091486468911">
        <ele>2046.78</ele>
        <time>2013-06-30T13:05:12Z</time>
      </trkpt>
      <trkpt lat="45.63702723942697" lon="7.948111686855555">
        <ele>2045.8199999999999</ele>
        <time>2013-06-30T13:05:17Z</time>
      </trkpt>
      <trkpt lat="45.636931266635656" lon="7.948071621358395">
        <ele>2043.9000000000001</ele>
        <time>2013-06-30T13:05:29Z</time>
      </trkpt>
      <trkpt lat="45.63688843511045" lon="7.948138089850545">
        <ele>2042.46</ele>
        <time>2013-06-30T13:05:37Z</time>
      </trkpt>
      <trkpt lat="45.636733956634998" lon="7.948245545849204">
        <ele>2041.5</ele>
        <time>2013-06-30T13:05:52Z</time>
      </trkpt>
      <trkpt lat="45.636605964973569" lon="7.948265578597784">
        <ele>2040.05</ele>
        <time>2013-06-30T13:06:03Z</time>
      </trkpt>
      <trkpt lat="45.636594900861382" lon="7.948273792862892">
        <ele>2040.05</ele>
        <time>2013-06-30T13:06:04Z</time>
      </trkpt>
      <trkpt lat="45.636432711035013" lon="7.948343111202121">
        <ele>2037.6500000000001</ele>
        <time>2013-06-30T13:06:21Z</time>
      </trkpt>
      <trkpt lat="45.636394824832678" lon="7.948365993797779">
        <ele>2035.73</ele>
        <time>2013-06-30T13:06:31Z</time>
      </trkpt>
      <trkpt lat="45.63635534606874" lon="7.948328526690602">
        <ele>2034.29</ele>
        <time>2013-06-30T13:06:37Z</time>
      </trkpt>
      <trkpt lat="45.636354926973581" lon="7.948255185037851">
        <ele>2032.8399999999999</ele>
        <time>2013-06-30T13:06:43Z</time>
      </trkpt>
      <trkpt lat="45.636345958337188" lon="7.948203384876251">
        <ele>2030.4400000000001</ele>
        <time>2013-06-30T13:06:55Z</time>
      </trkpt>
      <trkpt lat="45.636355262249708" lon="7.948141107335687">
        <ele>2029.48</ele>
        <time>2013-06-30T13:07:02Z</time>
      </trkpt>
      <trkpt lat="45.636402368545532" lon="7.948042703792453">
        <ele>2026.5999999999999</ele>
        <time>2013-06-30T13:07:15Z</time>
      </trkpt>
      <trkpt lat="45.636440422385931" lon="7.947988137602806">
        <ele>2025.6400000000001</ele>
        <time>2013-06-30T13:07:25Z</time>
      </trkpt>
      <trkpt lat="45.636503454297781" lon="7.947898954153061">
        <ele>2024.6700000000001</ele>
        <time>2013-06-30T13:07:33Z</time>
      </trkpt>
      <trkpt lat="45.636547040194273" lon="7.94784908182919">
        <ele>2024.1900000000001</ele>
        <time>2013-06-30T13:07:40Z</time>
      </trkpt>
      <trkpt lat="45.636571431532502" lon="7.947726538404822">
        <ele>2022.75</ele>
        <time>2013-06-30T13:07:52Z</time>
      </trkpt>
      <trkpt lat="45.636553158983588" lon="7.947618160396814">
        <ele>2021.79</ele>
        <time>2013-06-30T13:08:04Z</time>
      </trkpt>
      <trkpt lat="45.636520469561219" lon="7.947562420740724">
        <ele>2021.3099999999999</ele>
        <time>2013-06-30T13:08:17Z</time>
      </trkpt>
      <trkpt lat="45.636467328295112" lon="7.947529060766101">
        <ele>2021.3099999999999</ele>
        <time>2013-06-30T13:08:29Z</time>
      </trkpt>
      <trkpt lat="45.636380491778255" lon="7.947484133765101">
        <ele>2022.27</ele>
        <time>2013-06-30T13:08:46Z</time>
      </trkpt>
      <trkpt lat="45.636324919760227" lon="7.947439039126039">
        <ele>2022.27</ele>
        <time>2013-06-30T13:08:55Z</time>
      </trkpt>
      <trkpt lat="45.636297846212983" lon="7.947416994720697">
        <ele>2022.27</ele>
        <time>2013-06-30T13:08:59Z</time>
      </trkpt>
      <trkpt lat="45.636274293065071" lon="7.947394531220198">
        <ele>2022.75</ele>
        <time>2013-06-30T13:09:02Z</time>
      </trkpt>
      <trkpt lat="45.636258367449045" lon="7.947377180680633">
        <ele>2022.75</ele>
        <time>2013-06-30T13:09:04Z</time>
      </trkpt>
      <trkpt lat="45.636185025796294" lon="7.947274250909686">
        <ele>2023.71</ele>
        <time>2013-06-30T13:09:16Z</time>
      </trkpt>
      <trkpt lat="45.636126939207315" lon="7.947122538462281">
        <ele>2022.75</ele>
        <time>2013-06-30T13:09:31Z</time>
      </trkpt>
      <trkpt lat="45.636082012206316" lon="7.94701156206429">
        <ele>2019.8699999999999</ele>
        <time>2013-06-30T13:09:44Z</time>
      </trkpt>
      <trkpt lat="45.636051082983613" lon="7.946899244561791">
        <ele>2018.4300000000001</ele>
        <time>2013-06-30T13:09:57Z</time>
      </trkpt>
      <trkpt lat="45.635969862341881" lon="7.946850545704365">
        <ele>2016.02</ele>
        <time>2013-06-30T13:10:09Z</time>
      </trkpt>
      <trkpt lat="45.635926695540547" lon="7.946813078597188">
        <ele>2015.54</ele>
        <time>2013-06-30T13:10:26Z</time>
      </trkpt>
      <trkpt lat="45.635880678892136" lon="7.946811486035585">
        <ele>2015.0599999999999</ele>
        <time>2013-06-30T13:10:34Z</time>
      </trkpt>
      <trkpt lat="45.635837595909834" lon="7.946816682815552">
        <ele>2013.6199999999999</ele>
        <time>2013-06-30T13:10:40Z</time>
      </trkpt>
      <trkpt lat="45.635827872902155" lon="7.946885330602527">
        <ele>2012.1800000000001</ele>
        <time>2013-06-30T13:10:49Z</time>
      </trkpt>
      <trkpt lat="45.635823514312506" lon="7.94693729840219">
        <ele>2011.7</ele>
        <time>2013-06-30T13:10:57Z</time>
      </trkpt>
      <trkpt lat="45.63583055511117" lon="7.946957414969802">
        <ele>2011.22</ele>
        <time>2013-06-30T13:10:59Z</time>
      </trkpt>
      <trkpt lat="45.635774563997984" lon="7.946969736367464">
        <ele>2008.8099999999999</ele>
        <time>2013-06-30T13:11:11Z</time>
      </trkpt>
      <trkpt lat="45.635725278407335" lon="7.946950290352106">
        <ele>2007.8499999999999</ele>
        <time>2013-06-30T13:11:22Z</time>
      </trkpt>
      <trkpt lat="45.6357167288661" lon="7.946974262595177">
        <ele>2007.3699999999999</ele>
        <time>2013-06-30T13:11:25Z</time>
      </trkpt>
      <trkpt lat="45.635653026401997" lon="7.946964036673307">
        <ele>2004.97</ele>
        <time>2013-06-30T13:11:36Z</time>
      </trkpt>
      <trkpt lat="45.635593514889479" lon="7.946874769404531">
        <ele>2002.5599999999999</ele>
        <time>2013-06-30T13:11:48Z</time>
      </trkpt>
      <trkpt lat="45.635583875700831" lon="7.946836799383164">
        <ele>2001.5999999999999</ele>
        <time>2013-06-30T13:11:53Z</time>
      </trkpt>
      <trkpt lat="45.635534003376961" lon="7.946825735270977">
        <ele>1999.2</ele>
        <time>2013-06-30T13:12:05Z</time>
      </trkpt>
      <trkpt lat="45.635468456894159" lon="7.946917852386832">
        <ele>1995.8299999999999</ele>
        <time>2013-06-30T13:12:17Z</time>
      </trkpt>
      <trkpt lat="45.635454542934895" lon="7.946965880692005">
        <ele>1995.3499999999999</ele>
        <time>2013-06-30T13:12:30Z</time>
      </trkpt>
      <trkpt lat="45.635420847684145" lon="7.947013322263956">
        <ele>1993.4300000000001</ele>
        <time>2013-06-30T13:12:39Z</time>
      </trkpt>
      <trkpt lat="45.635405089706182" lon="7.947025895118713">
        <ele>1991.99</ele>
        <time>2013-06-30T13:12:44Z</time>
      </trkpt>
      <trkpt lat="45.635397043079138" lon="7.947107367217541">
        <ele>1990.55</ele>
        <time>2013-06-30T13:12:58Z</time>
      </trkpt>
      <trkpt lat="45.635344740003347" lon="7.947074677795172">
        <ele>1989.5899999999999</ele>
        <time>2013-06-30T13:13:10Z</time>
      </trkpt>
      <trkpt lat="45.635311296209693" lon="7.947006868198514">
        <ele>1988.6199999999999</ele>
        <time>2013-06-30T13:13:21Z</time>
      </trkpt>
      <trkpt lat="45.635250275954604" lon="7.94690016657114">
        <ele>1985.74</ele>
        <time>2013-06-30T13:13:34Z</time>
      </trkpt>
      <trkpt lat="45.635232338681817" lon="7.946870662271977">
        <ele>1985.26</ele>
        <time>2013-06-30T13:13:37Z</time>
      </trkpt>
      <trkpt lat="45.635221106931567" lon="7.946791620925069">
        <ele>1984.3</ele>
        <time>2013-06-30T13:13:43Z</time>
      </trkpt>
      <trkpt lat="45.635204846039414" lon="7.946717273443937">
        <ele>1982.3800000000001</ele>
        <time>2013-06-30T13:13:55Z</time>
      </trkpt>
      <trkpt lat="45.63514600507915" lon="7.946656253188849">
        <ele>1979.01</ele>
        <time>2013-06-30T13:14:08Z</time>
      </trkpt>
      <trkpt lat="45.635088421404362" lon="7.946621887385845">
        <ele>1976.1300000000001</ele>
        <time>2013-06-30T13:14:18Z</time>
      </trkpt>
      <trkpt lat="45.635054474696517" lon="7.946639992296696">
        <ele>1974.2</ele>
        <time>2013-06-30T13:14:25Z</time>
      </trkpt>
      <trkpt lat="45.635044500231743" lon="7.946635717526078">
        <ele>1973.72</ele>
        <time>2013-06-30T13:14:26Z</time>
      </trkpt>
      <trkpt lat="45.634994124993682" lon="7.946563716977835">
        <ele>1971.3199999999999</ele>
        <time>2013-06-30T13:14:38Z</time>
      </trkpt>
      <trkpt lat="45.63495104201138" lon="7.946517281234264">
        <ele>1968.4400000000001</ele>
        <time>2013-06-30T13:14:50Z</time>
      </trkpt>
      <trkpt lat="45.634924806654453" lon="7.94651753269136">
        <ele>1966.51</ele>
        <time>2013-06-30T13:15:01Z</time>
      </trkpt>
      <trkpt lat="45.634924219921231" lon="7.946587270125747">
        <ele>1964.5899999999999</ele>
        <time>2013-06-30T13:15:14Z</time>
      </trkpt>
      <trkpt lat="45.634901085868478" lon="7.946649547666311">
        <ele>1961.71</ele>
        <time>2013-06-30T13:15:24Z</time>
      </trkpt>
      <trkpt lat="45.634909216314554" lon="7.946687769144774">
        <ele>1960.27</ele>
        <time>2013-06-30T13:15:31Z</time>
      </trkpt>
      <trkpt lat="45.634894967079163" lon="7.946823220700026">
        <ele>1957.8599999999999</ele>
        <time>2013-06-30T13:15:43Z</time>
      </trkpt>
      <trkpt lat="45.634885998442769" lon="7.946924474090338">
        <ele>1955.46</ele>
        <time>2013-06-30T13:15:53Z</time>
      </trkpt>
      <trkpt lat="45.634833695366979" lon="7.946970239281654">
        <ele>1951.6099999999999</ele>
        <time>2013-06-30T13:16:02Z</time>
      </trkpt>
      <trkpt lat="45.634826151654124" lon="7.946962360292673">
        <ele>1952.0899999999999</ele>
        <time>2013-06-30T13:16:03Z</time>
      </trkpt>
      <trkpt lat="45.634775860235095" lon="7.946892874315381">
        <ele>1948.73</ele>
        <time>2013-06-30T13:16:15Z</time>
      </trkpt>
      <trkpt lat="45.63476974144578" lon="7.946916092187166">
        <ele>1949.21</ele>
        <time>2013-06-30T13:16:20Z</time>
      </trkpt>
      <trkpt lat="45.634760605171323" lon="7.946961941197515">
        <ele>1947.77</ele>
        <time>2013-06-30T13:16:23Z</time>
      </trkpt>
      <trkpt lat="45.634711906313896" lon="7.947108121588826">
        <ele>1944.8800000000001</ele>
        <time>2013-06-30T13:16:37Z</time>
      </trkpt>
      <trkpt lat="45.634680893272161" lon="7.947162352502346">
        <ele>1943.4400000000001</ele>
        <time>2013-06-30T13:16:44Z</time>
      </trkpt>
      <trkpt lat="45.634664883837104" lon="7.947290679439902">
        <ele>1940.0799999999999</ele>
        <time>2013-06-30T13:16:57Z</time>
      </trkpt>
      <trkpt lat="45.634638564661145" lon="7.947301659733057">
        <ele>1939.5999999999999</ele>
        <time>2013-06-30T13:17:00Z</time>
      </trkpt>
      <trkpt lat="45.634584501385689" lon="7.947296714410186">
        <ele>1938.6400000000001</ele>
        <time>2013-06-30T13:17:13Z</time>
      </trkpt>
      <trkpt lat="45.634483834728599" lon="7.94740391895175">
        <ele>1935.27</ele>
        <time>2013-06-30T13:17:28Z</time>
      </trkpt>
      <trkpt lat="45.634470339864492" lon="7.947419593110681">
        <ele>1934.3099999999999</ele>
        <time>2013-06-30T13:17:31Z</time>
      </trkpt>
      <trkpt lat="45.634455168619752" lon="7.947433507069945">
        <ele>1933.8299999999999</ele>
        <time>2013-06-30T13:17:33Z</time>
      </trkpt>
      <trkpt lat="45.634382665157318" lon="7.947462173178792">
        <ele>1932.8699999999999</ele>
        <time>2013-06-30T13:17:40Z</time>
      </trkpt>
      <trkpt lat="45.634235730394721" lon="7.947483630850911">
        <ele>1931.4300000000001</ele>
        <time>2013-06-30T13:17:54Z</time>
      </trkpt>
      <trkpt lat="45.634160125628114" lon="7.947512213140726">
        <ele>1930.95</ele>
        <time>2013-06-30T13:18:02Z</time>
      </trkpt>
      <trkpt lat="45.634111762046814" lon="7.947457646951079">
        <ele>1929.98</ele>
        <time>2013-06-30T13:18:09Z</time>
      </trkpt>
      <trkpt lat="45.634026266634464" lon="7.947404338046908">
        <ele>1927.0999999999999</ele>
        <time>2013-06-30T13:18:23Z</time>
      </trkpt>
      <trkpt lat="45.633950661867857" lon="7.947369050234556">
        <ele>1925.1800000000001</ele>
        <time>2013-06-30T13:18:35Z</time>
      </trkpt>
      <trkpt lat="45.633927024900913" lon="7.947322865948081">
        <ele>1923.25</ele>
        <time>2013-06-30T13:18:49Z</time>
      </trkpt>
      <trkpt lat="45.633887127041817" lon="7.947314903140068">
        <ele>1921.8099999999999</ele>
        <time>2013-06-30T13:18:57Z</time>
      </trkpt>
      <trkpt lat="45.63385896384716" lon="7.947290930896998">
        <ele>1919.4100000000001</ele>
        <time>2013-06-30T13:19:11Z</time>
      </trkpt>
      <trkpt lat="45.633844882249832" lon="7.947320938110352">
        <ele>1917.97</ele>
        <time>2013-06-30T13:19:22Z</time>
      </trkpt>
      <trkpt lat="45.633837673813105" lon="7.947333427146077">
        <ele>1917.01</ele>
        <time>2013-06-30T13:19:25Z</time>
      </trkpt>
      <trkpt lat="45.633830381557345" lon="7.947341976687312">
        <ele>1916.04</ele>
        <time>2013-06-30T13:19:28Z</time>
      </trkpt>
      <trkpt lat="45.63382325693965" lon="7.947385059669614">
        <ele>1915.0799999999999</ele>
        <time>2013-06-30T13:19:32Z</time>
      </trkpt>
      <trkpt lat="45.633831890299916" lon="7.947412887588143">
        <ele>1913.6400000000001</ele>
        <time>2013-06-30T13:19:36Z</time>
      </trkpt>
      <trkpt lat="45.633876230567694" lon="7.947508608922362">
        <ele>1910.28</ele>
        <time>2013-06-30T13:19:47Z</time>
      </trkpt>
      <trkpt lat="45.63387312926352" lon="7.947518080472946">
        <ele>1910.28</ele>
        <time>2013-06-30T13:19:48Z</time>
      </trkpt>
      <trkpt lat="45.633901041001081" lon="7.94761841185391">
        <ele>1907.3900000000001</ele>
        <time>2013-06-30T13:19:59Z</time>
      </trkpt>
      <trkpt lat="45.633888300508261" lon="7.947644228115678">
        <ele>1906.4300000000001</ele>
        <time>2013-06-30T13:20:03Z</time>
      </trkpt>
      <trkpt lat="45.6339121889323" lon="7.947725281119347">
        <ele>1903.55</ele>
        <time>2013-06-30T13:20:12Z</time>
      </trkpt>
      <trkpt lat="45.633878828957677" lon="7.947761742398143">
        <ele>1900.1800000000001</ele>
        <time>2013-06-30T13:20:23Z</time>
      </trkpt>
      <trkpt lat="45.633850581943989" lon="7.947758976370096">
        <ele>1899.7</ele>
        <time>2013-06-30T13:20:27Z</time>
      </trkpt>
      <trkpt lat="45.633744215592742" lon="7.947749504819512">
        <ele>1897.3</ele>
        <time>2013-06-30T13:20:38Z</time>
      </trkpt>
      <trkpt lat="45.633616391569376" lon="7.947752522304654">
        <ele>1895.3800000000001</ele>
        <time>2013-06-30T13:20:52Z</time>
      </trkpt>
      <trkpt lat="45.63353793695569" lon="7.947807088494301">
        <ele>1892.01</ele>
        <time>2013-06-30T13:21:04Z</time>
      </trkpt>
      <trkpt lat="45.633415393531322" lon="7.947691669687629">
        <ele>1890.5699999999999</ele>
        <time>2013-06-30T13:21:18Z</time>
      </trkpt>
      <trkpt lat="45.633399384096265" lon="7.947657136246562">
        <ele>1891.05</ele>
        <time>2013-06-30T13:21:21Z</time>
      </trkpt>
      <trkpt lat="45.63338496722281" lon="7.947622938081622">
        <ele>1891.05</ele>
        <time>2013-06-30T13:21:25Z</time>
      </trkpt>
      <trkpt lat="45.633328389376402" lon="7.947549596428871">
        <ele>1890.0899999999999</ele>
        <time>2013-06-30T13:21:34Z</time>
      </trkpt>
      <trkpt lat="45.63327994197607" lon="7.947537694126368">
        <ele>1887.6900000000001</ele>
        <time>2013-06-30T13:21:43Z</time>
      </trkpt>
      <trkpt lat="45.633274745196104" lon="7.947589661926031">
        <ele>1886.72</ele>
        <time>2013-06-30T13:21:48Z</time>
      </trkpt>
      <trkpt lat="45.633160667493939" lon="7.947596870362759">
        <ele>1883.8399999999999</ele>
        <time>2013-06-30T13:22:01Z</time>
      </trkpt>
      <trkpt lat="45.633139964193106" lon="7.947678845375776">
        <ele>1882.8800000000001</ele>
        <time>2013-06-30T13:22:15Z</time>
      </trkpt>
      <trkpt lat="45.633125212043524" lon="7.947661159560084">
        <ele>1882.8800000000001</ele>
        <time>2013-06-30T13:22:31Z</time>
      </trkpt>
      <trkpt lat="45.633122865110636" lon="7.94766241684556">
        <ele>1883.3599999999999</ele>
        <time>2013-06-30T13:22:48Z</time>
      </trkpt>
      <trkpt lat="45.633128732442856" lon="7.947739697992802">
        <ele>1883.3599999999999</ele>
        <time>2013-06-30T13:22:58Z</time>
      </trkpt>
      <trkpt lat="45.633120015263557" lon="7.947759898379445">
        <ele>1883.3599999999999</ele>
        <time>2013-06-30T13:23:00Z</time>
      </trkpt>
      <trkpt lat="45.633095288649201" lon="7.947888476774097">
        <ele>1883.3599999999999</ele>
        <time>2013-06-30T13:23:08Z</time>
      </trkpt>
      <trkpt lat="45.633060168474913" lon="7.947942623868585">
        <ele>1883.3599999999999</ele>
        <time>2013-06-30T13:23:13Z</time>
      </trkpt>
      <trkpt lat="45.632997136563063" lon="7.94792091473937">
        <ele>1883.3599999999999</ele>
        <time>2013-06-30T13:23:27Z</time>
      </trkpt>
      <trkpt lat="45.632993448525667" lon="7.947912616655231">
        <ele>1883.3599999999999</ele>
        <time>2013-06-30T13:23:50Z</time>
      </trkpt>
      <trkpt lat="45.632979702204466" lon="7.94791798107326">
        <ele>1883.3599999999999</ele>
        <time>2013-06-30T13:24:10Z</time>
      </trkpt>
      <trkpt lat="45.63299210742116" lon="7.947907755151391">
        <ele>1882.8800000000001</ele>
        <time>2013-06-30T13:24:30Z</time>
      </trkpt>
      <trkpt lat="45.632988084107637" lon="7.947922758758068">
        <ele>1882.8800000000001</ele>
        <time>2013-06-30T13:24:47Z</time>
      </trkpt>
      <trkpt lat="45.633061928674579" lon="7.947862576693296">
        <ele>1882.8800000000001</ele>
        <time>2013-06-30T13:25:03Z</time>
      </trkpt>
      <trkpt lat="45.63307081349194" lon="7.947871796786785">
        <ele>1881.9200000000001</ele>
        <time>2013-06-30T13:25:08Z</time>
      </trkpt>
      <trkpt lat="45.633109705522656" lon="7.947843465954065">
        <ele>1881.4400000000001</ele>
        <time>2013-06-30T13:25:11Z</time>
      </trkpt>
      <trkpt lat="45.633154129609466" lon="7.947815721854568">
        <ele>1881.9200000000001</ele>
        <time>2013-06-30T13:25:22Z</time>
      </trkpt>
      <trkpt lat="45.633169384673238" lon="7.947843130677939">
        <ele>1881.4400000000001</ele>
        <time>2013-06-30T13:25:44Z</time>
      </trkpt>
      <trkpt lat="45.633171983063221" lon="7.947851596400142">
        <ele>1881.9200000000001</ele>
        <time>2013-06-30T13:25:58Z</time>
      </trkpt>
      <trkpt lat="45.633207689970732" lon="7.947884202003479">
        <ele>1881.9200000000001</ele>
        <time>2013-06-30T13:26:19Z</time>
      </trkpt>
      <trkpt lat="45.63322470523417" lon="7.947921752929688">
        <ele>1881.9200000000001</ele>
        <time>2013-06-30T13:26:40Z</time>
      </trkpt>
      <trkpt lat="45.633211210370064" lon="7.947934325784445">
        <ele>1881.4400000000001</ele>
        <time>2013-06-30T13:26:57Z</time>
      </trkpt>
      <trkpt lat="45.633256891742349" lon="7.9479453060776">
        <ele>1881.9200000000001</ele>
        <time>2013-06-30T13:27:21Z</time>
      </trkpt>
      <trkpt lat="45.633255550637841" lon="7.947929045185447">
        <ele>1881.9200000000001</ele>
        <time>2013-06-30T13:27:43Z</time>
      </trkpt>
      <trkpt lat="45.633256137371063" lon="7.947910102084279">
        <ele>1881.9200000000001</ele>
        <time>2013-06-30T13:28:02Z</time>
      </trkpt>
      <trkpt lat="45.633260160684586" lon="7.947926195338368">
        <ele>1882.4000000000001</ele>
        <time>2013-06-30T13:28:22Z</time>
      </trkpt>
      <trkpt lat="45.633240714669228" lon="7.947952346876264">
        <ele>1881.9200000000001</ele>
        <time>2013-06-30T13:28:48Z</time>
      </trkpt>
      <trkpt lat="45.633258484303951" lon="7.947942037135363">
        <ele>1882.4000000000001</ele>
        <time>2013-06-30T13:29:05Z</time>
      </trkpt>
      <trkpt lat="45.633254125714302" lon="7.947982857003808">
        <ele>1882.4000000000001</ele>
        <time>2013-06-30T13:29:26Z</time>
      </trkpt>
      <trkpt lat="45.633291928097606" lon="7.947967518121004">
        <ele>1881.9200000000001</ele>
        <time>2013-06-30T13:29:47Z</time>
      </trkpt>
      <trkpt lat="45.633300058543682" lon="7.947984868660569">
        <ele>1882.4000000000001</ele>
        <time>2013-06-30T13:30:07Z</time>
      </trkpt>
      <trkpt lat="45.633294861763716" lon="7.947996435686946">
        <ele>1882.4000000000001</ele>
        <time>2013-06-30T13:30:25Z</time>
      </trkpt>
      <trkpt lat="45.633325539529324" lon="7.948025856167078">
        <ele>1881.9200000000001</ele>
        <time>2013-06-30T13:30:50Z</time>
      </trkpt>
      <trkpt lat="45.633360408246517" lon="7.948112273588777">
        <ele>1881.9200000000001</ele>
        <time>2013-06-30T13:31:13Z</time>
      </trkpt>
      <trkpt lat="45.633417069911957" lon="7.948247222229838">
        <ele>1882.4000000000001</ele>
        <time>2013-06-30T13:31:35Z</time>
      </trkpt>
      <trkpt lat="45.633441880345345" lon="7.948227021843195">
        <ele>1881.9200000000001</ele>
        <time>2013-06-30T13:32:00Z</time>
      </trkpt>
      <trkpt lat="45.63345780596137" lon="7.948240516707301">
        <ele>1882.4000000000001</ele>
        <time>2013-06-30T13:32:23Z</time>
      </trkpt>
      <trkpt lat="45.633467864245176" lon="7.94826096855104">
        <ele>1881.9200000000001</ele>
        <time>2013-06-30T13:32:39Z</time>
      </trkpt>
      <trkpt lat="45.633503822609782" lon="7.948180753737688">
        <ele>1881.9200000000001</ele>
        <time>2013-06-30T13:33:06Z</time>
      </trkpt>
      <trkpt lat="45.633261166512966" lon="7.947978917509317">
        <ele>1882.4000000000001</ele>
        <time>2013-06-30T13:33:23Z</time>
      </trkpt>
      <trkpt lat="45.633184555917978" lon="7.947885878384113">
        <ele>1882.4000000000001</ele>
        <time>2013-06-30T13:33:42Z</time>
      </trkpt>
      <trkpt lat="45.633195955306292" lon="7.947939857840538">
        <ele>1883.3599999999999</ele>
        <time>2013-06-30T13:34:07Z</time>
      </trkpt>
      <trkpt lat="45.633219676092267" lon="7.947938935831189">
        <ele>1882.8800000000001</ele>
        <time>2013-06-30T13:34:24Z</time>
      </trkpt>
      <trkpt lat="45.633232416585088" lon="7.947964081540704">
        <ele>1883.3599999999999</ele>
        <time>2013-06-30T13:34:39Z</time>
      </trkpt>
      <trkpt lat="45.633192518725991" lon="7.947950167581439">
        <ele>1883.3599999999999</ele>
        <time>2013-06-30T13:34:57Z</time>
      </trkpt>
      <trkpt lat="45.633215233683586" lon="7.947886548936367">
        <ele>1882.8800000000001</ele>
        <time>2013-06-30T13:35:15Z</time>
      </trkpt>
      <trkpt lat="45.633216239511967" lon="7.947894930839539">
        <ele>1882.8800000000001</ele>
        <time>2013-06-30T13:35:31Z</time>
      </trkpt>
      <trkpt lat="45.633209198713303" lon="7.947886968031526">
        <ele>1883.3599999999999</ele>
        <time>2013-06-30T13:35:37Z</time>
      </trkpt>
      <trkpt lat="45.633214311674237" lon="7.94785344041884">
        <ele>1882.8800000000001</ele>
        <time>2013-06-30T13:35:40Z</time>
      </trkpt>
      <trkpt lat="45.633194949477911" lon="7.947713965550065">
        <ele>1882.4000000000001</ele>
        <time>2013-06-30T13:35:53Z</time>
      </trkpt>
      <trkpt lat="45.633151363581419" lon="7.947714636102319">
        <ele>1883.3599999999999</ele>
        <time>2013-06-30T13:36:13Z</time>
      </trkpt>
      <trkpt lat="45.633155638352036" lon="7.947695693001151">
        <ele>1883.3599999999999</ele>
        <time>2013-06-30T13:36:35Z</time>
      </trkpt>
      <trkpt lat="45.633158991113305" lon="7.947745397686958">
        <ele>1883.3599999999999</ele>
        <time>2013-06-30T13:36:58Z</time>
      </trkpt>
      <trkpt lat="45.633164355531335" lon="7.947775656357408">
        <ele>1883.8399999999999</ele>
        <time>2013-06-30T13:37:28Z</time>
      </trkpt>
      <trkpt lat="45.63317097723484" lon="7.947804154828191">
        <ele>1883.3599999999999</ele>
        <time>2013-06-30T13:37:41Z</time>
      </trkpt>
      <trkpt lat="45.633169300854206" lon="7.947724610567093">
        <ele>1882.4000000000001</ele>
        <time>2013-06-30T13:37:57Z</time>
      </trkpt>
      <trkpt lat="45.633164439350367" lon="7.947734417393804">
        <ele>1882.4000000000001</ele>
        <time>2013-06-30T13:38:25Z</time>
      </trkpt>
      <trkpt lat="45.633147591724992" lon="7.947748247534037">
        <ele>1881.9200000000001</ele>
        <time>2013-06-30T13:38:47Z</time>
      </trkpt>
      <trkpt lat="45.633114147931337" lon="7.947746403515339">
        <ele>1881.9200000000001</ele>
        <time>2013-06-30T13:39:16Z</time>
      </trkpt>
      <trkpt lat="45.633127894252539" lon="7.947727628052235">
        <ele>1881.9200000000001</ele>
        <time>2013-06-30T13:39:40Z</time>
      </trkpt>
      <trkpt lat="45.633124960586429" lon="7.947730896994472">
        <ele>1881.9200000000001</ele>
        <time>2013-06-30T13:40:06Z</time>
      </trkpt>
      <trkpt lat="45.633135689422488" lon="7.947731735184789">
        <ele>1881.9200000000001</ele>
        <time>2013-06-30T13:40:37Z</time>
      </trkpt>
      <trkpt lat="45.633150273934007" lon="7.947733327746391">
        <ele>1881.9200000000001</ele>
        <time>2013-06-30T13:41:05Z</time>
      </trkpt>
      <trkpt lat="45.633171312510967" lon="7.947712792083621">
        <ele>1881.9200000000001</ele>
        <time>2013-06-30T13:41:30Z</time>
      </trkpt>
      <trkpt lat="45.633137952536345" lon="7.947714971378446">
        <ele>1881.9200000000001</ele>
        <time>2013-06-30T13:41:50Z</time>
      </trkpt>
      <trkpt lat="45.633109621703625" lon="7.947732657194138">
        <ele>1881.9200000000001</ele>
        <time>2013-06-30T13:42:19Z</time>
      </trkpt>
      <trkpt lat="45.633189501240849" lon="7.947700135409832">
        <ele>1881.9200000000001</ele>
        <time>2013-06-30T13:42:47Z</time>
      </trkpt>
      <trkpt lat="45.633163265883923" lon="7.947713797912002">
        <ele>1881.9200000000001</ele>
        <time>2013-06-30T13:43:13Z</time>
      </trkpt>
      <trkpt lat="45.633155470713973" lon="7.947721341624856">
        <ele>1881.9200000000001</ele>
        <time>2013-06-30T13:43:43Z</time>
      </trkpt>
      <trkpt lat="45.633186902850866" lon="7.947709020227194">
        <ele>1882.8800000000001</ele>
        <time>2013-06-30T13:43:54Z</time>
      </trkpt>
      <trkpt lat="45.63319637440145" lon="7.947701225057244">
        <ele>1881.9200000000001</ele>
        <time>2013-06-30T13:44:08Z</time>
      </trkpt>
      <trkpt lat="45.633182879537344" lon="7.94772008433938">
        <ele>1881.9200000000001</ele>
        <time>2013-06-30T13:44:31Z</time>
      </trkpt>
      <trkpt lat="45.633164355531335" lon="7.947732238098979">
        <ele>1881.4400000000001</ele>
        <time>2013-06-30T13:44:49Z</time>
      </trkpt>
      <trkpt lat="45.633172066882253" lon="7.947712372988462">
        <ele>1881.9200000000001</ele>
        <time>2013-06-30T13:45:00Z</time>
      </trkpt>
      <trkpt lat="45.633187405765057" lon="7.947733914479613">
        <ele>1882.4000000000001</ele>
        <time>2013-06-30T13:45:13Z</time>
      </trkpt>
      <trkpt lat="45.63318120315671" lon="7.947764759883285">
        <ele>1882.4000000000001</ele>
        <time>2013-06-30T13:45:31Z</time>
      </trkpt>
      <trkpt lat="45.633183717727661" lon="7.947771130129695">
        <ele>1881.9200000000001</ele>
        <time>2013-06-30T13:45:53Z</time>
      </trkpt>
      <trkpt lat="45.633155973628163" lon="7.947777165099978">
        <ele>1881.9200000000001</ele>
        <time>2013-06-30T13:46:04Z</time>
      </trkpt>
      <trkpt lat="45.633147172629833" lon="7.947781607508659">
        <ele>1881.9200000000001</ele>
        <time>2013-06-30T13:46:17Z</time>
      </trkpt>
      <trkpt lat="45.63313870690763" lon="7.947771968320012">
        <ele>1881.9200000000001</ele>
        <time>2013-06-30T13:46:32Z</time>
      </trkpt>
      <trkpt lat="45.633178604766726" lon="7.947758138179779">
        <ele>1882.4000000000001</ele>
        <time>2013-06-30T13:46:49Z</time>
      </trkpt>
      <trkpt lat="45.633165528997779" lon="7.947725616395474">
        <ele>1882.4000000000001</ele>
        <time>2013-06-30T13:47:06Z</time>
      </trkpt>
      <trkpt lat="45.633154381066561" lon="7.94776551425457">
        <ele>1881.4400000000001</ele>
        <time>2013-06-30T13:47:18Z</time>
      </trkpt>
      <trkpt lat="45.633139545097947" lon="7.94776601716876">
        <ele>1881.4400000000001</ele>
        <time>2013-06-30T13:47:28Z</time>
      </trkpt>
      <trkpt lat="45.633133761584759" lon="7.947772471234202">
        <ele>1881.9200000000001</ele>
        <time>2013-06-30T13:47:42Z</time>
      </trkpt>
      <trkpt lat="45.633131833747029" lon="7.947792671620846">
        <ele>1881.9200000000001</ele>
        <time>2013-06-30T13:47:54Z</time>
      </trkpt>
      <trkpt lat="45.633114231750369" lon="7.94781094416976">
        <ele>1881.9200000000001</ele>
        <time>2013-06-30T13:48:15Z</time>
      </trkpt>
      <trkpt lat="45.633116411045194" lon="7.947812620550394">
        <ele>1881.4400000000001</ele>
        <time>2013-06-30T13:48:29Z</time>
      </trkpt>
      <trkpt lat="45.633138958364725" lon="7.947781691327691">
        <ele>1881.9200000000001</ele>
        <time>2013-06-30T13:48:53Z</time>
      </trkpt>
      <trkpt lat="45.633165528997779" lon="7.947772555053234">
        <ele>1881.4400000000001</ele>
        <time>2013-06-30T13:49:11Z</time>
      </trkpt>
      <trkpt lat="45.633181538432837" lon="7.947783702984452">
        <ele>1880.96</ele>
        <time>2013-06-30T13:49:13Z</time>
      </trkpt>
      <trkpt lat="45.633196542039514" lon="7.947838772088289">
        <ele>1880</ele>
        <time>2013-06-30T13:49:17Z</time>
      </trkpt>
      <trkpt lat="45.633183801546693" lon="7.948006158694625">
        <ele>1878.0699999999999</ele>
        <time>2013-06-30T13:49:30Z</time>
      </trkpt>
      <trkpt lat="45.633190339431167" lon="7.94803717173636">
        <ele>1877.1099999999999</ele>
        <time>2013-06-30T13:49:42Z</time>
      </trkpt>
      <trkpt lat="45.633196290582418" lon="7.948078997433186">
        <ele>1876.6300000000001</ele>
        <time>2013-06-30T13:50:00Z</time>
      </trkpt>
      <trkpt lat="45.633212551474571" lon="7.948110764846206">
        <ele>1876.1500000000001</ele>
        <time>2013-06-30T13:50:03Z</time>
      </trkpt>
      <trkpt lat="45.633209114894271" lon="7.948184944689274">
        <ele>1875.6700000000001</ele>
        <time>2013-06-30T13:50:08Z</time>
      </trkpt>
      <trkpt lat="45.633216071873903" lon="7.94824386946857">
        <ele>1874.71</ele>
        <time>2013-06-30T13:50:12Z</time>
      </trkpt>
      <trkpt lat="45.63321540132165" lon="7.948266416788101">
        <ele>1874.71</ele>
        <time>2013-06-30T13:50:14Z</time>
      </trkpt>
      <trkpt lat="45.633233925327659" lon="7.948355348780751">
        <ele>1873.27</ele>
        <time>2013-06-30T13:50:20Z</time>
      </trkpt>
      <trkpt lat="45.633257227018476" lon="7.948442939668894">
        <ele>1872.79</ele>
        <time>2013-06-30T13:50:25Z</time>
      </trkpt>
      <trkpt lat="45.633300729095936" lon="7.948481077328324">
        <ele>1872.3</ele>
        <time>2013-06-30T13:50:29Z</time>
      </trkpt>
      <trkpt lat="45.633341046050191" lon="7.948525166139007">
        <ele>1870.8599999999999</ele>
        <time>2013-06-30T13:50:33Z</time>
      </trkpt>
      <trkpt lat="45.633371723815799" lon="7.948560789227486">
        <ele>1870.3800000000001</ele>
        <time>2013-06-30T13:50:37Z</time>
      </trkpt>
      <trkpt lat="45.633435761556029" lon="7.948657097294927">
        <ele>1867.5</ele>
        <time>2013-06-30T13:50:51Z</time>
      </trkpt>
      <trkpt lat="45.633468618616462" lon="7.94869389384985">
        <ele>1866.0599999999999</ele>
        <time>2013-06-30T13:51:03Z</time>
      </trkpt>
      <trkpt lat="45.633480520918965" lon="7.948744101449847">
        <ele>1864.1300000000001</ele>
        <time>2013-06-30T13:51:07Z</time>
      </trkpt>
      <trkpt lat="45.633476665243506" lon="7.948787268251181">
        <ele>1862.21</ele>
        <time>2013-06-30T13:51:15Z</time>
      </trkpt>
      <trkpt lat="45.63354229554534" lon="7.948805876076222">
        <ele>1859.8099999999999</ele>
        <time>2013-06-30T13:51:27Z</time>
      </trkpt>
      <trkpt lat="45.633606081828475" lon="7.948845941573381">
        <ele>1857.8900000000001</ele>
        <time>2013-06-30T13:51:36Z</time>
      </trkpt>
      <trkpt lat="45.633711107075214" lon="7.948896652087569">
        <ele>1854.52</ele>
        <time>2013-06-30T13:51:50Z</time>
      </trkpt>
      <trkpt lat="45.63371722586453" lon="7.948901010677218">
        <ele>1854.52</ele>
        <time>2013-06-30T13:51:51Z</time>
      </trkpt>
      <trkpt lat="45.633783442899585" lon="7.948984913527966">
        <ele>1851.6400000000001</ele>
        <time>2013-06-30T13:52:03Z</time>
      </trkpt>
      <trkpt lat="45.633811186999083" lon="7.949039228260517">
        <ele>1849.71</ele>
        <time>2013-06-30T13:52:13Z</time>
      </trkpt>
      <trkpt lat="45.633809259161353" lon="7.949071163311601">
        <ele>1848.27</ele>
        <time>2013-06-30T13:52:16Z</time>
      </trkpt>
      <trkpt lat="45.633764080703259" lon="7.949142828583717">
        <ele>1845.3900000000001</ele>
        <time>2013-06-30T13:52:28Z</time>
      </trkpt>
      <trkpt lat="45.633796770125628" lon="7.949160682037473">
        <ele>1843.95</ele>
        <time>2013-06-30T13:52:33Z</time>
      </trkpt>
      <trkpt lat="45.633825687691569" lon="7.949193706735969">
        <ele>1842.98</ele>
        <time>2013-06-30T13:52:38Z</time>
      </trkpt>
      <trkpt lat="45.63384085893631" lon="7.949224635958672">
        <ele>1842.5</ele>
        <time>2013-06-30T13:52:41Z</time>
      </trkpt>
      <trkpt lat="45.63391319476068" lon="7.94929588213563">
        <ele>1841.0599999999999</ele>
        <time>2013-06-30T13:52:50Z</time>
      </trkpt>
      <trkpt lat="45.633914954960346" lon="7.949341312050819">
        <ele>1840.0999999999999</ele>
        <time>2013-06-30T13:52:55Z</time>
      </trkpt>
      <trkpt lat="45.633954601362348" lon="7.9494424816221">
        <ele>1838.1800000000001</ele>
        <time>2013-06-30T13:53:06Z</time>
      </trkpt>
      <trkpt lat="45.633966336026788" lon="7.949475003406405">
        <ele>1838.1800000000001</ele>
        <time>2013-06-30T13:53:11Z</time>
      </trkpt>
      <trkpt lat="45.634028697386384" lon="7.949573155492544">
        <ele>1835.29</ele>
        <time>2013-06-30T13:53:22Z</time>
      </trkpt>
      <trkpt lat="45.634026098996401" lon="7.949639707803726">
        <ele>1834.3299999999999</ele>
        <time>2013-06-30T13:53:28Z</time>
      </trkpt>
      <trkpt lat="45.633899699896574" lon="7.949713133275509">
        <ele>1831.45</ele>
        <time>2013-06-30T13:53:41Z</time>
      </trkpt>
      <trkpt lat="45.633807582780719" lon="7.94976057484746">
        <ele>1828.0799999999999</ele>
        <time>2013-06-30T13:53:53Z</time>
      </trkpt>
      <trkpt lat="45.633813533931971" lon="7.949849925935268">
        <ele>1826.1600000000001</ele>
        <time>2013-06-30T13:54:05Z</time>
      </trkpt>
      <trkpt lat="45.633815042674541" lon="7.949920920655131">
        <ele>1825.2</ele>
        <time>2013-06-30T13:54:11Z</time>
      </trkpt>
      <trkpt lat="45.633801128715277" lon="7.950148740783334">
        <ele>1822.8</ele>
        <time>2013-06-30T13:54:26Z</time>
      </trkpt>
      <trkpt lat="45.633813617751002" lon="7.950209425762296">
        <ele>1822.8</ele>
        <time>2013-06-30T13:54:30Z</time>
      </trkpt>
      <trkpt lat="45.633834404870868" lon="7.95043732970953">
        <ele>1824.24</ele>
        <time>2013-06-30T13:54:45Z</time>
      </trkpt>
      <trkpt lat="45.633868603035808" lon="7.950561884790659">
        <ele>1823.28</ele>
        <time>2013-06-30T13:54:58Z</time>
      </trkpt>
      <trkpt lat="45.633863825351" lon="7.950572613626719">
        <ele>1823.28</ele>
        <time>2013-06-30T13:55:06Z</time>
      </trkpt>
      <trkpt lat="45.633925599977374" lon="7.950564315542579">
        <ele>1822.3199999999999</ele>
        <time>2013-06-30T13:55:11Z</time>
      </trkpt>
      <trkpt lat="45.633974969387054" lon="7.950558364391327">
        <ele>1821.3499999999999</ele>
        <time>2013-06-30T13:55:22Z</time>
      </trkpt>
      <trkpt lat="45.633974717929959" lon="7.950581246986985">
        <ele>1820.8699999999999</ele>
        <time>2013-06-30T13:55:24Z</time>
      </trkpt>
      <trkpt lat="45.633932556957006" lon="7.95065576210618">
        <ele>1817.99</ele>
        <time>2013-06-30T13:55:33Z</time>
      </trkpt>
      <trkpt lat="45.63393565826118" lon="7.950680404901505">
        <ele>1817.03</ele>
        <time>2013-06-30T13:55:35Z</time>
      </trkpt>
      <trkpt lat="45.633918140083551" lon="7.950739664956927">
        <ele>1816.0699999999999</ele>
        <time>2013-06-30T13:55:39Z</time>
      </trkpt>
      <trkpt lat="45.633880170062184" lon="7.950777802616358">
        <ele>1813.6600000000001</ele>
        <time>2013-06-30T13:55:43Z</time>
      </trkpt>
      <trkpt lat="45.633848402649164" lon="7.950808312743902">
        <ele>1812.7</ele>
        <time>2013-06-30T13:55:49Z</time>
      </trkpt>
      <trkpt lat="45.633970778435469" lon="7.950877463445067">
        <ele>1810.3</ele>
        <time>2013-06-30T13:56:02Z</time>
      </trkpt>
      <trkpt lat="45.633928114548326" lon="7.95092255808413">
        <ele>1809.3399999999999</ele>
        <time>2013-06-30T13:56:08Z</time>
      </trkpt>
      <trkpt lat="45.633815377950668" lon="7.95095088891685">
        <ele>1805.97</ele>
        <time>2013-06-30T13:56:22Z</time>
      </trkpt>
      <trkpt lat="45.633790399879217" lon="7.95095382258296">
        <ele>1805.49</ele>
        <time>2013-06-30T13:56:25Z</time>
      </trkpt>
      <trkpt lat="45.633694930002093" lon="7.950971927493811">
        <ele>1803.0899999999999</ele>
        <time>2013-06-30T13:56:36Z</time>
      </trkpt>
      <trkpt lat="45.633630054071546" lon="7.950993217527866">
        <ele>1801.6500000000001</ele>
        <time>2013-06-30T13:56:43Z</time>
      </trkpt>
      <trkpt lat="45.63360096886754" lon="7.950977124273777">
        <ele>1800.6900000000001</ele>
        <time>2013-06-30T13:56:46Z</time>
      </trkpt>
      <trkpt lat="45.633538942784071" lon="7.950972765684128">
        <ele>1799.24</ele>
        <time>2013-06-30T13:56:52Z</time>
      </trkpt>
      <trkpt lat="45.633501056581736" lon="7.950975112617016">
        <ele>1798.28</ele>
        <time>2013-06-30T13:56:56Z</time>
      </trkpt>
      <trkpt lat="45.633389409631491" lon="7.950921719893813">
        <ele>1796.3599999999999</ele>
        <time>2013-06-30T13:57:10Z</time>
      </trkpt>
      <trkpt lat="45.633356971666217" lon="7.950916439294815">
        <ele>1795.4000000000001</ele>
        <time>2013-06-30T13:57:13Z</time>
      </trkpt>
      <trkpt lat="45.633258568122983" lon="7.950937477871776">
        <ele>1793.48</ele>
        <time>2013-06-30T13:57:24Z</time>
      </trkpt>
      <trkpt lat="45.63323400914669" lon="7.950938567519188">
        <ele>1793</ele>
        <time>2013-06-30T13:57:27Z</time>
      </trkpt>
      <trkpt lat="45.633245408535004" lon="7.950935885310173">
        <ele>1792.52</ele>
        <time>2013-06-30T13:57:37Z</time>
      </trkpt>
      <trkpt lat="45.633239457383752" lon="7.950934460386634">
        <ele>1792.03</ele>
        <time>2013-06-30T13:57:40Z</time>
      </trkpt>
      <trkpt lat="45.633215568959713" lon="7.950929682701826">
        <ele>1792.52</ele>
        <time>2013-06-30T13:57:46Z</time>
      </trkpt>
      <trkpt lat="45.633152453228831" lon="7.950965724885464">
        <ele>1791.55</ele>
        <time>2013-06-30T13:57:53Z</time>
      </trkpt>
      <trkpt lat="45.633143400773406" lon="7.95101685449481">
        <ele>1790.1099999999999</ele>
        <time>2013-06-30T13:57:59Z</time>
      </trkpt>
      <trkpt lat="45.633265022188425" lon="7.951074186712503">
        <ele>1786.75</ele>
        <time>2013-06-30T13:58:13Z</time>
      </trkpt>
      <trkpt lat="45.633344231173396" lon="7.951190695166588">
        <ele>1783.8599999999999</ele>
        <time>2013-06-30T13:58:25Z</time>
      </trkpt>
      <trkpt lat="45.633361497893929" lon="7.951232269406319">
        <ele>1782.9000000000001</ele>
        <time>2013-06-30T13:58:29Z</time>
      </trkpt>
      <trkpt lat="45.633347164839506" lon="7.951280381530523">
        <ele>1781.9400000000001</ele>
        <time>2013-06-30T13:58:34Z</time>
      </trkpt>
      <trkpt lat="45.633227722719312" lon="7.951291529461741">
        <ele>1779.54</ele>
        <time>2013-06-30T13:58:49Z</time>
      </trkpt>
      <trkpt lat="45.633220262825489" lon="7.951298486441374">
        <ele>1779.0599999999999</ele>
        <time>2013-06-30T13:58:50Z</time>
      </trkpt>
      <trkpt lat="45.633142311125994" lon="7.951392950490117">
        <ele>1776.1700000000001</ele>
        <time>2013-06-30T13:59:05Z</time>
      </trkpt>
      <trkpt lat="45.633239457383752" lon="7.951389262452722">
        <ele>1773.29</ele>
        <time>2013-06-30T13:59:17Z</time>
      </trkpt>
      <trkpt lat="45.633285138756037" lon="7.951418766751885">
        <ele>1771.3699999999999</ele>
        <time>2013-06-30T13:59:23Z</time>
      </trkpt>
      <trkpt lat="45.633315984159708" lon="7.951452545821667">
        <ele>1769.9200000000001</ele>
        <time>2013-06-30T13:59:28Z</time>
      </trkpt>
      <trkpt lat="45.63337909989059" lon="7.951523037627339">
        <ele>1767.52</ele>
        <time>2013-06-30T13:59:41Z</time>
      </trkpt>
      <trkpt lat="45.633425367996097" lon="7.95159051194787">
        <ele>1765.1199999999999</ele>
        <time>2013-06-30T13:59:51Z</time>
      </trkpt>
      <trkpt lat="45.633454117923975" lon="7.951628146693111">
        <ele>1763.6800000000001</ele>
        <time>2013-06-30T13:59:55Z</time>
      </trkpt>
      <trkpt lat="45.633374070748687" lon="7.951673995703459">
        <ele>1762.71</ele>
        <time>2013-06-30T14:00:04Z</time>
      </trkpt>
      <trkpt lat="45.633227555081248" lon="7.95171020552516">
        <ele>1759.8299999999999</ele>
        <time>2013-06-30T14:00:18Z</time>
      </trkpt>
      <trkpt lat="45.633147172629833" lon="7.95170970261097">
        <ele>1758.3900000000001</ele>
        <time>2013-06-30T14:00:27Z</time>
      </trkpt>
      <trkpt lat="45.633013732731342" lon="7.951741889119148">
        <ele>1755.5</ele>
        <time>2013-06-30T14:00:42Z</time>
      </trkpt>
      <trkpt lat="45.632951287552714" lon="7.951783379539847">
        <ele>1753.0999999999999</ele>
        <time>2013-06-30T14:00:52Z</time>
      </trkpt>
      <trkpt lat="45.632876940071583" lon="7.951903911307454">
        <ele>1750.22</ele>
        <time>2013-06-30T14:01:07Z</time>
      </trkpt>
      <trkpt lat="45.632782727479935" lon="7.952000135555863">
        <ele>1747.3299999999999</ele>
        <time>2013-06-30T14:01:22Z</time>
      </trkpt>
      <trkpt lat="45.632785074412823" lon="7.952020587399602">
        <ele>1747.3299999999999</ele>
        <time>2013-06-30T14:01:24Z</time>
      </trkpt>
      <trkpt lat="45.632686922326684" lon="7.952164504677057">
        <ele>1745.4100000000001</ele>
        <time>2013-06-30T14:01:37Z</time>
      </trkpt>
      <trkpt lat="45.63270921818912" lon="7.952178837731481">
        <ele>1743.97</ele>
        <time>2013-06-30T14:01:48Z</time>
      </trkpt>
      <trkpt lat="45.632718522101641" lon="7.952169366180897">
        <ele>1743.97</ele>
        <time>2013-06-30T14:01:49Z</time>
      </trkpt>
      <trkpt lat="45.632866378873587" lon="7.95206299982965">
        <ele>1740.5999999999999</ele>
        <time>2013-06-30T14:02:05Z</time>
      </trkpt>
      <trkpt lat="45.632906779646873" lon="7.952047325670719">
        <ele>1740.1199999999999</ele>
        <time>2013-06-30T14:02:09Z</time>
      </trkpt>
      <trkpt lat="45.63303854316473" lon="7.952087810263038">
        <ele>1737.72</ele>
        <time>2013-06-30T14:02:23Z</time>
      </trkpt>
      <trkpt lat="45.63308933749795" lon="7.95212309807539">
        <ele>1736.76</ele>
        <time>2013-06-30T14:02:28Z</time>
      </trkpt>
      <trkpt lat="45.633217580616474" lon="7.952204318717122">
        <ele>1733.8800000000001</ele>
        <time>2013-06-30T14:02:43Z</time>
      </trkpt>
      <trkpt lat="45.633337609469891" lon="7.952278163284063">
        <ele>1730.99</ele>
        <time>2013-06-30T14:02:56Z</time>
      </trkpt>
      <trkpt lat="45.63343777321279" lon="7.952350750565529">
        <ele>1728.1099999999999</ele>
        <time>2013-06-30T14:03:10Z</time>
      </trkpt>
      <trkpt lat="45.633481862023473" lon="7.95238989405334">
        <ele>1727.1500000000001</ele>
        <time>2013-06-30T14:03:16Z</time>
      </trkpt>
      <trkpt lat="45.633503822609782" lon="7.952414453029633">
        <ele>1726.1800000000001</ele>
        <time>2013-06-30T14:03:20Z</time>
      </trkpt>
      <trkpt lat="45.63356232829392" lon="7.952479915693402">
        <ele>1724.26</ele>
        <time>2013-06-30T14:03:29Z</time>
      </trkpt>
      <trkpt lat="45.633610272780061" lon="7.952475808560848">
        <ele>1723.3</ele>
        <time>2013-06-30T14:03:36Z</time>
      </trkpt>
      <trkpt lat="45.633661905303597" lon="7.952468683943152">
        <ele>1722.3399999999999</ele>
        <time>2013-06-30T14:03:42Z</time>
      </trkpt>
      <trkpt lat="45.633688056841493" lon="7.952470192685723">
        <ele>1721.8599999999999</ele>
        <time>2013-06-30T14:03:45Z</time>
      </trkpt>
      <trkpt lat="45.633733235299587" lon="7.952507240697742">
        <ele>1720.9000000000001</ele>
        <time>2013-06-30T14:03:57Z</time>
      </trkpt>
      <trkpt lat="45.633754776790738" lon="7.95253649353981">
        <ele>1719.9400000000001</ele>
        <time>2013-06-30T14:04:01Z</time>
      </trkpt>
      <trkpt lat="45.633786544203758" lon="7.952681332826614">
        <ele>1718.49</ele>
        <time>2013-06-30T14:04:12Z</time>
      </trkpt>
      <trkpt lat="45.633786963298917" lon="7.952698348090053">
        <ele>1718.01</ele>
        <time>2013-06-30T14:04:15Z</time>
      </trkpt>
      <trkpt lat="45.633813198655844" lon="7.952796081081033">
        <ele>1715.6099999999999</ele>
        <time>2013-06-30T14:04:24Z</time>
      </trkpt>
      <trkpt lat="45.633857706561685" lon="7.952843271195889">
        <ele>1714.1700000000001</ele>
        <time>2013-06-30T14:04:31Z</time>
      </trkpt>
      <trkpt lat="45.63396155834198" lon="7.952900687232614">
        <ele>1711.28</ele>
        <time>2013-06-30T14:04:43Z</time>
      </trkpt>
      <trkpt lat="45.633997432887554" lon="7.95294544659555">
        <ele>1710.8</ele>
        <time>2013-06-30T14:04:47Z</time>
      </trkpt>
      <trkpt lat="45.634030206128955" lon="7.952996324747801">
        <ele>1709.8399999999999</ele>
        <time>2013-06-30T14:04:52Z</time>
      </trkpt>
      <trkpt lat="45.634073037654161" lon="7.953047202900052">
        <ele>1709.3599999999999</ele>
        <time>2013-06-30T14:04:57Z</time>
      </trkpt>
      <trkpt lat="45.634165070950985" lon="7.95309497974813">
        <ele>1707.4400000000001</ele>
        <time>2013-06-30T14:05:07Z</time>
      </trkpt>
      <trkpt lat="45.634278813377023" lon="7.953088190406561">
        <ele>1706.48</ele>
        <time>2013-06-30T14:05:20Z</time>
      </trkpt>
      <trkpt lat="45.634331200271845" lon="7.953118700534105">
        <ele>1705.52</ele>
        <time>2013-06-30T14:05:30Z</time>
      </trkpt>
      <trkpt lat="45.63436078839004" lon="7.953242165967822">
        <ele>1703.1099999999999</ele>
        <time>2013-06-30T14:05:41Z</time>
      </trkpt>
      <trkpt lat="45.634401608258486" lon="7.953258259221911">
        <ele>1702.1500000000001</ele>
        <time>2013-06-30T14:05:46Z</time>
      </trkpt>
      <trkpt lat="45.6344682443887" lon="7.95326504856348">
        <ele>1701.1900000000001</ele>
        <time>2013-06-30T14:05:53Z</time>
      </trkpt>
      <trkpt lat="45.634546279907227" lon="7.953393375501037">
        <ele>1699.27</ele>
        <time>2013-06-30T14:06:05Z</time>
      </trkpt>
      <trkpt lat="45.634609814733267" lon="7.953536789864302">
        <ele>1695.9000000000001</ele>
        <time>2013-06-30T14:06:19Z</time>
      </trkpt>
      <trkpt lat="45.634707128629088" lon="7.953661009669304">
        <ele>1693.02</ele>
        <time>2013-06-30T14:06:33Z</time>
      </trkpt>
      <trkpt lat="45.634728083387017" lon="7.953679617494345">
        <ele>1692.0599999999999</ele>
        <time>2013-06-30T14:06:36Z</time>
      </trkpt>
      <trkpt lat="45.6347565818578" lon="7.953715911135078">
        <ele>1691.0999999999999</ele>
        <time>2013-06-30T14:06:40Z</time>
      </trkpt>
      <trkpt lat="45.63486110419035" lon="7.953789839521051">
        <ele>1688.21</ele>
        <time>2013-06-30T14:06:54Z</time>
      </trkpt>
      <trkpt lat="45.634917933493853" lon="7.953856643289328">
        <ele>1686.77</ele>
        <time>2013-06-30T14:07:02Z</time>
      </trkpt>
      <trkpt lat="45.634955819696188" lon="7.953876424580813">
        <ele>1685.8099999999999</ele>
        <time>2013-06-30T14:07:06Z</time>
      </trkpt>
      <trkpt lat="45.635013403370976" lon="7.953951526433229">
        <ele>1683.8900000000001</ele>
        <time>2013-06-30T14:07:19Z</time>
      </trkpt>
      <trkpt lat="45.635021282359958" lon="7.95395789667964">
        <ele>1683.8900000000001</ele>
        <time>2013-06-30T14:07:20Z</time>
      </trkpt>
      <trkpt lat="45.635033436119556" lon="7.953977677971125">
        <ele>1683.4100000000001</ele>
        <time>2013-06-30T14:07:22Z</time>
      </trkpt>
      <trkpt lat="45.635076435282826" lon="7.95401749201119">
        <ele>1682.4400000000001</ele>
        <time>2013-06-30T14:07:27Z</time>
      </trkpt>
      <trkpt lat="45.635158326476812" lon="7.954157385975123">
        <ele>1679.5599999999999</ele>
        <time>2013-06-30T14:07:39Z</time>
      </trkpt>
      <trkpt lat="45.635253628715873" lon="7.95425889082253">
        <ele>1676.6800000000001</ele>
        <time>2013-06-30T14:07:51Z</time>
      </trkpt>
      <trkpt lat="45.635279193520546" lon="7.95429409481585">
        <ele>1676.2</ele>
        <time>2013-06-30T14:07:55Z</time>
      </trkpt>
      <trkpt lat="45.635157153010368" lon="7.954327370971441">
        <ele>1673.3099999999999</ele>
        <time>2013-06-30T14:08:08Z</time>
      </trkpt>
      <trkpt lat="45.635100994259119" lon="7.954344134777784">
        <ele>1672.3499999999999</ele>
        <time>2013-06-30T14:08:14Z</time>
      </trkpt>
      <trkpt lat="45.634955316781998" lon="7.954323515295982">
        <ele>1669.95</ele>
        <time>2013-06-30T14:08:29Z</time>
      </trkpt>
      <trkpt lat="45.634830007329583" lon="7.954379171133041">
        <ele>1667.54</ele>
        <time>2013-06-30T14:08:43Z</time>
      </trkpt>
      <trkpt lat="45.634821793064475" lon="7.95438788831234">
        <ele>1667.54</ele>
        <time>2013-06-30T14:08:44Z</time>
      </trkpt>
      <trkpt lat="45.634719366207719" lon="7.954410184174776">
        <ele>1664.6600000000001</ele>
        <time>2013-06-30T14:08:55Z</time>
      </trkpt>
      <trkpt lat="45.634585674852133" lon="7.954380428418517">
        <ele>1663.22</ele>
        <time>2013-06-30T14:09:09Z</time>
      </trkpt>
      <trkpt lat="45.63457821495831" lon="7.954374477267265">
        <ele>1662.26</ele>
        <time>2013-06-30T14:09:10Z</time>
      </trkpt>
      <trkpt lat="45.63448584638536" lon="7.954312870278955">
        <ele>1661.78</ele>
        <time>2013-06-30T14:09:22Z</time>
      </trkpt>
      <trkpt lat="45.634546615183353" lon="7.954356288537383">
        <ele>1659.3699999999999</ele>
        <time>2013-06-30T14:09:32Z</time>
      </trkpt>
      <trkpt lat="45.634595481678843" lon="7.954424014315009">
        <ele>1658.4100000000001</ele>
        <time>2013-06-30T14:09:39Z</time>
      </trkpt>
      <trkpt lat="45.63468667678535" lon="7.954556029289961">
        <ele>1655.53</ele>
        <time>2013-06-30T14:09:52Z</time>
      </trkpt>
      <trkpt lat="45.634786672890186" lon="7.954713189974427">
        <ele>1652.6400000000001</ele>
        <time>2013-06-30T14:10:06Z</time>
      </trkpt>
      <trkpt lat="45.634819697588682" lon="7.954784855246544">
        <ele>1651.6800000000001</ele>
        <time>2013-06-30T14:10:14Z</time>
      </trkpt>
      <trkpt lat="45.634859595447779" lon="7.954819723963738">
        <ele>1650.24</ele>
        <time>2013-06-30T14:10:19Z</time>
      </trkpt>
      <trkpt lat="45.634959423914552" lon="7.95490387827158">
        <ele>1647.8399999999999</ele>
        <time>2013-06-30T14:10:32Z</time>
      </trkpt>
      <trkpt lat="45.635041734203696" lon="7.955021979287267">
        <ele>1644.95</ele>
        <time>2013-06-30T14:10:44Z</time>
      </trkpt>
      <trkpt lat="45.635044919326901" lon="7.955054836347699">
        <ele>1644.47</ele>
        <time>2013-06-30T14:10:46Z</time>
      </trkpt>
      <trkpt lat="45.635126810520887" lon="7.955173691734672">
        <ele>1641.5899999999999</ele>
        <time>2013-06-30T14:10:59Z</time>
      </trkpt>
      <trkpt lat="45.635132761672139" lon="7.955184252932668">
        <ele>1641.1099999999999</ele>
        <time>2013-06-30T14:11:00Z</time>
      </trkpt>
      <trkpt lat="45.635234182700515" lon="7.955304114148021">
        <ele>1638.22</ele>
        <time>2013-06-30T14:11:13Z</time>
      </trkpt>
      <trkpt lat="45.635327808558941" lon="7.955438559874892">
        <ele>1635.8199999999999</ele>
        <time>2013-06-30T14:11:27Z</time>
      </trkpt>
      <trkpt lat="45.635369885712862" lon="7.955489605665207">
        <ele>1634.3800000000001</ele>
        <time>2013-06-30T14:11:33Z</time>
      </trkpt>
      <trkpt lat="45.635411208495498" lon="7.955570323392749">
        <ele>1632.9400000000001</ele>
        <time>2013-06-30T14:11:41Z</time>
      </trkpt>
      <trkpt lat="45.635483711957932" lon="7.955615920946002">
        <ele>1632.9400000000001</ele>
        <time>2013-06-30T14:11:54Z</time>
      </trkpt>
      <trkpt lat="45.635480023920536" lon="7.955627739429474">
        <ele>1632.9400000000001</ele>
        <time>2013-06-30T14:12:16Z</time>
      </trkpt>
      <trkpt lat="45.635466109961271" lon="7.955642994493246">
        <ele>1632.9400000000001</ele>
        <time>2013-06-30T14:12:24Z</time>
      </trkpt>
      <trkpt lat="45.635427637025714" lon="7.955644084140658">
        <ele>1632.46</ele>
        <time>2013-06-30T14:12:28Z</time>
      </trkpt>
      <trkpt lat="45.635358737781644" lon="7.955644838511944">
        <ele>1631.49</ele>
        <time>2013-06-30T14:12:36Z</time>
      </trkpt>
      <trkpt lat="45.635242480784655" lon="7.955663278698921">
        <ele>1628.6099999999999</ele>
        <time>2013-06-30T14:12:48Z</time>
      </trkpt>
      <trkpt lat="45.635149609297514" lon="7.955670319497585">
        <ele>1625.25</ele>
        <time>2013-06-30T14:12:58Z</time>
      </trkpt>
      <trkpt lat="45.635120272636414" lon="7.955637630075216">
        <ele>1625.73</ele>
        <time>2013-06-30T14:13:01Z</time>
      </trkpt>
      <trkpt lat="45.635095126926899" lon="7.955638635903597">
        <ele>1624.77</ele>
        <time>2013-06-30T14:13:04Z</time>
      </trkpt>
      <trkpt lat="45.635057324543595" lon="7.955643916502595">
        <ele>1623.8</ele>
        <time>2013-06-30T14:13:08Z</time>
      </trkpt>
      <trkpt lat="45.634997896850109" lon="7.955637462437153">
        <ele>1621.8800000000001</ele>
        <time>2013-06-30T14:13:13Z</time>
      </trkpt>
      <trkpt lat="45.634869821369648" lon="7.955643581226468">
        <ele>1618.04</ele>
        <time>2013-06-30T14:13:24Z</time>
      </trkpt>
      <trkpt lat="45.634712912142277" lon="7.955641653388739">
        <ele>1614.6700000000001</ele>
        <time>2013-06-30T14:13:38Z</time>
      </trkpt>
      <trkpt lat="45.63470084220171" lon="7.955634528771043">
        <ele>1614.6700000000001</ele>
        <time>2013-06-30T14:13:39Z</time>
      </trkpt>
      <trkpt lat="45.63457720912993" lon="7.95559823513031">
        <ele>1610.8299999999999</ele>
        <time>2013-06-30T14:13:51Z</time>
      </trkpt>
      <trkpt lat="45.634455839172006" lon="7.955590104684234">
        <ele>1607.9400000000001</ele>
        <time>2013-06-30T14:14:02Z</time>
      </trkpt>
      <trkpt lat="45.6343456171453" lon="7.955602761358023">
        <ele>1604.5799999999999</ele>
        <time>2013-06-30T14:14:13Z</time>
      </trkpt>
      <trkpt lat="45.63423665240407" lon="7.955618854612112">
        <ele>1601.6900000000001</ele>
        <time>2013-06-30T14:14:26Z</time>
      </trkpt>
      <trkpt lat="45.634223073720932" lon="7.955630505457521">
        <ele>1601.21</ele>
        <time>2013-06-30T14:14:28Z</time>
      </trkpt>
      <trkpt lat="45.634118970483541" lon="7.95569253154099">
        <ele>1598.3299999999999</ele>
        <time>2013-06-30T14:14:41Z</time>
      </trkpt>
      <trkpt lat="45.634044287726283" lon="7.955735195428133">
        <ele>1594.96</ele>
        <time>2013-06-30T14:14:55Z</time>
      </trkpt>
      <trkpt lat="45.634077480062842" lon="7.955755311995745">
        <ele>1594.48</ele>
        <time>2013-06-30T14:14:59Z</time>
      </trkpt>
      <trkpt lat="45.634135231375694" lon="7.955825217068195">
        <ele>1593.52</ele>
        <time>2013-06-30T14:15:06Z</time>
      </trkpt>
      <trkpt lat="45.634168507531285" lon="7.955860840156674">
        <ele>1592.5599999999999</ele>
        <time>2013-06-30T14:15:10Z</time>
      </trkpt>
      <trkpt lat="45.634187534451485" lon="7.955915573984385">
        <ele>1591.5999999999999</ele>
        <time>2013-06-30T14:15:14Z</time>
      </trkpt>
      <trkpt lat="45.634170100092888" lon="7.955990675836802">
        <ele>1590.6400000000001</ele>
        <time>2013-06-30T14:15:22Z</time>
      </trkpt>
      <trkpt lat="45.634035235270858" lon="7.955992938950658">
        <ele>1587.75</ele>
        <time>2013-06-30T14:15:35Z</time>
      </trkpt>
      <trkpt lat="45.63399919308722" lon="7.955959662795067">
        <ele>1586.79</ele>
        <time>2013-06-30T14:15:41Z</time>
      </trkpt>
      <trkpt lat="45.633901124820113" lon="7.955865785479546">
        <ele>1584.8699999999999</ele>
        <time>2013-06-30T14:15:54Z</time>
      </trkpt>
      <trkpt lat="45.633842870593071" lon="7.955869473516941">
        <ele>1584.3900000000001</ele>
        <time>2013-06-30T14:16:02Z</time>
      </trkpt>
      <trkpt lat="45.633786963298917" lon="7.955920603126288">
        <ele>1581.99</ele>
        <time>2013-06-30T14:16:09Z</time>
      </trkpt>
      <trkpt lat="45.633700042963028" lon="7.955956058576703">
        <ele>1580.54</ele>
        <time>2013-06-30T14:16:17Z</time>
      </trkpt>
      <trkpt lat="45.633661821484566" lon="7.95594566501677">
        <ele>1579.5799999999999</ele>
        <time>2013-06-30T14:16:23Z</time>
      </trkpt>
      <trkpt lat="45.633644890040159" lon="7.955953711643815">
        <ele>1578.6199999999999</ele>
        <time>2013-06-30T14:16:25Z</time>
      </trkpt>
      <trkpt lat="45.633547911420465" lon="7.955982042476535">
        <ele>1576.7</ele>
        <time>2013-06-30T14:16:38Z</time>
      </trkpt>
      <trkpt lat="45.633441964164376" lon="7.955997884273529">
        <ele>1573.3299999999999</ele>
        <time>2013-06-30T14:16:51Z</time>
      </trkpt>
      <trkpt lat="45.633400389924645" lon="7.956000147387385">
        <ele>1572.8499999999999</ele>
        <time>2013-06-30T14:16:56Z</time>
      </trkpt>
      <trkpt lat="45.633274493739009" lon="7.955974834039807">
        <ele>1569.97</ele>
        <time>2013-06-30T14:17:09Z</time>
      </trkpt>
      <trkpt lat="45.633185729384422" lon="7.955987071618438">
        <ele>1568.05</ele>
        <time>2013-06-30T14:17:20Z</time>
      </trkpt>
      <trkpt lat="45.633078021928668" lon="7.95602286234498">
        <ele>1565.6400000000001</ele>
        <time>2013-06-30T14:17:33Z</time>
      </trkpt>
      <trkpt lat="45.63306100666523" lon="7.95603015460074">
        <ele>1564.6800000000001</ele>
        <time>2013-06-30T14:17:35Z</time>
      </trkpt>
      <trkpt lat="45.633013648912311" lon="7.956062173470855">
        <ele>1563.72</ele>
        <time>2013-06-30T14:17:42Z</time>
      </trkpt>
      <trkpt lat="45.632911892607808" lon="7.956098970025778">
        <ele>1561.3199999999999</ele>
        <time>2013-06-30T14:17:53Z</time>
      </trkpt>
      <trkpt lat="45.63284408301115" lon="7.956043314188719">
        <ele>1559.8800000000001</ele>
        <time>2013-06-30T14:18:01Z</time>
      </trkpt>
      <trkpt lat="45.632826732471585" lon="7.956002075225115">
        <ele>1559.4000000000001</ele>
        <time>2013-06-30T14:18:04Z</time>
      </trkpt>
      <trkpt lat="45.632758755236864" lon="7.955935271456838">
        <ele>1558.4300000000001</ele>
        <time>2013-06-30T14:18:14Z</time>
      </trkpt>
      <trkpt lat="45.632717851549387" lon="7.955949688330293">
        <ele>1556.99</ele>
        <time>2013-06-30T14:18:20Z</time>
      </trkpt>
      <trkpt lat="45.632624896243215" lon="7.955991178750992">
        <ele>1555.0699999999999</ele>
        <time>2013-06-30T14:18:31Z</time>
      </trkpt>
      <trkpt lat="45.632595643401146" lon="7.955990424379706">
        <ele>1554.5899999999999</ele>
        <time>2013-06-30T14:18:34Z</time>
      </trkpt>
      <trkpt lat="45.632457341998816" lon="7.955955807119608">
        <ele>1550.74</ele>
        <time>2013-06-30T14:18:48Z</time>
      </trkpt>
      <trkpt lat="45.632426748052239" lon="7.955938875675201">
        <ele>1550.26</ele>
        <time>2013-06-30T14:18:51Z</time>
      </trkpt>
      <trkpt lat="45.632333289831877" lon="7.95586452819407">
        <ele>1548.3399999999999</ele>
        <time>2013-06-30T14:19:05Z</time>
      </trkpt>
      <trkpt lat="45.632326751947403" lon="7.955862013623118">
        <ele>1547.8599999999999</ele>
        <time>2013-06-30T14:19:07Z</time>
      </trkpt>
      <trkpt lat="45.632374277338386" lon="7.955935439094901">
        <ele>1546.4200000000001</ele>
        <time>2013-06-30T14:19:14Z</time>
      </trkpt>
      <trkpt lat="45.632458180189133" lon="7.956123948097229">
        <ele>1543.05</ele>
        <time>2013-06-30T14:19:30Z</time>
      </trkpt>
      <trkpt lat="45.632498245686293" lon="7.956182789057493">
        <ele>1542.0899999999999</ele>
        <time>2013-06-30T14:19:36Z</time>
      </trkpt>
      <trkpt lat="45.632507633417845" lon="7.956205504015088">
        <ele>1542.0899999999999</ele>
        <time>2013-06-30T14:19:38Z</time>
      </trkpt>
      <trkpt lat="45.632578963413835" lon="7.956337099894881">
        <ele>1539.6900000000001</ele>
        <time>2013-06-30T14:19:50Z</time>
      </trkpt>
      <trkpt lat="45.632638977840543" lon="7.956384373828769">
        <ele>1538.25</ele>
        <time>2013-06-30T14:19:58Z</time>
      </trkpt>
      <trkpt lat="45.632704356685281" lon="7.956470539793372">
        <ele>1536.3199999999999</ele>
        <time>2013-06-30T14:20:10Z</time>
      </trkpt>
      <trkpt lat="45.632756408303976" lon="7.956526950001717">
        <ele>1534.8800000000001</ele>
        <time>2013-06-30T14:20:18Z</time>
      </trkpt>
      <trkpt lat="45.632782140746713" lon="7.956563076004386">
        <ele>1534.4000000000001</ele>
        <time>2013-06-30T14:20:22Z</time>
      </trkpt>
      <trkpt lat="45.63284114934504" lon="7.956622336059809">
        <ele>1532.96</ele>
        <time>2013-06-30T14:20:29Z</time>
      </trkpt>
      <trkpt lat="45.632833018898964" lon="7.956767594441772">
        <ele>1531.04</ele>
        <time>2013-06-30T14:20:42Z</time>
      </trkpt>
      <trkpt lat="45.63282254152" lon="7.956764157861471">
        <ele>1530.5599999999999</ele>
        <time>2013-06-30T14:20:43Z</time>
      </trkpt>
      <trkpt lat="45.63271164894104" lon="7.956723840907216">
        <ele>1527.6700000000001</ele>
        <time>2013-06-30T14:20:58Z</time>
      </trkpt>
      <trkpt lat="45.632664794102311" lon="7.956739095970988">
        <ele>1525.75</ele>
        <time>2013-06-30T14:21:05Z</time>
      </trkpt>
      <trkpt lat="45.632592542096972" lon="7.956772791221738">
        <ele>1523.3499999999999</ele>
        <time>2013-06-30T14:21:17Z</time>
      </trkpt>
      <trkpt lat="45.632501849904656" lon="7.956828279420734">
        <ele>1520.9400000000001</ele>
        <time>2013-06-30T14:21:30Z</time>
      </trkpt>
      <trkpt lat="45.632471842691302" lon="7.956840097904205">
        <ele>1519.5</ele>
        <time>2013-06-30T14:21:34Z</time>
      </trkpt>
      <trkpt lat="45.632416438311338" lon="7.956806821748614">
        <ele>1518.0599999999999</ele>
        <time>2013-06-30T14:21:40Z</time>
      </trkpt>
      <trkpt lat="45.632395567372441" lon="7.956754267215729">
        <ele>1517.0999999999999</ele>
        <time>2013-06-30T14:21:44Z</time>
      </trkpt>
      <trkpt lat="45.632371930405498" lon="7.956668436527252">
        <ele>1516.1400000000001</ele>
        <time>2013-06-30T14:21:50Z</time>
      </trkpt>
      <trkpt lat="45.632296158000827" lon="7.95662384480238">
        <ele>1514.6900000000001</ele>
        <time>2013-06-30T14:22:04Z</time>
      </trkpt>
      <trkpt lat="45.632262378931046" lon="7.956685535609722">
        <ele>1512.29</ele>
        <time>2013-06-30T14:22:18Z</time>
      </trkpt>
      <trkpt lat="45.63220932148397" lon="7.956716129556298">
        <ele>1510.8499999999999</ele>
        <time>2013-06-30T14:22:26Z</time>
      </trkpt>
      <trkpt lat="45.63218099065125" lon="7.956735156476498">
        <ele>1509.4100000000001</ele>
        <time>2013-06-30T14:22:29Z</time>
      </trkpt>
      <trkpt lat="45.632074037566781" lon="7.956720236688852">
        <ele>1506.04</ele>
        <time>2013-06-30T14:22:43Z</time>
      </trkpt>
      <trkpt lat="45.631965072825551" lon="7.956682266667485">
        <ele>1503.6400000000001</ele>
        <time>2013-06-30T14:22:58Z</time>
      </trkpt>
      <trkpt lat="45.631911596283317" lon="7.956652846187353">
        <ele>1500.76</ele>
        <time>2013-06-30T14:23:10Z</time>
      </trkpt>
      <trkpt lat="45.631855772808194" lon="7.95658771879971">
        <ele>1500.27</ele>
        <time>2013-06-30T14:23:19Z</time>
      </trkpt>
      <trkpt lat="45.631841188296676" lon="7.956579085439444">
        <ele>1499.79</ele>
        <time>2013-06-30T14:23:21Z</time>
      </trkpt>
      <trkpt lat="45.631792992353439" lon="7.956503564491868">
        <ele>1498.3499999999999</ele>
        <time>2013-06-30T14:23:30Z</time>
      </trkpt>
      <trkpt lat="45.631701378151774" lon="7.956401137635112">
        <ele>1494.99</ele>
        <time>2013-06-30T14:23:45Z</time>
      </trkpt>
      <trkpt lat="45.63165427185595" lon="7.956357216462493">
        <ele>1493.55</ele>
        <time>2013-06-30T14:23:53Z</time>
      </trkpt>
      <trkpt lat="45.631615798920393" lon="7.95631505548954">
        <ele>1492.5799999999999</ele>
        <time>2013-06-30T14:23:58Z</time>
      </trkpt>
      <trkpt lat="45.631521251052618" lon="7.956144735217094">
        <ele>1489.7</ele>
        <time>2013-06-30T14:24:14Z</time>
      </trkpt>
      <trkpt lat="45.631493590772152" lon="7.956086983904243">
        <ele>1488.74</ele>
        <time>2013-06-30T14:24:21Z</time>
      </trkpt>
      <trkpt lat="45.631446400657296" lon="7.956054210662842">
        <ele>1487.3</ele>
        <time>2013-06-30T14:24:27Z</time>
      </trkpt>
      <trkpt lat="45.631371801719069" lon="7.955979947000742">
        <ele>1484.8900000000001</ele>
        <time>2013-06-30T14:24:38Z</time>
      </trkpt>
      <trkpt lat="45.631324192509055" lon="7.955941893160343">
        <ele>1483.9300000000001</ele>
        <time>2013-06-30T14:24:44Z</time>
      </trkpt>
      <trkpt lat="45.631279181689024" lon="7.955886656418443">
        <ele>1483.9300000000001</ele>
        <time>2013-06-30T14:24:49Z</time>
      </trkpt>
      <trkpt lat="45.631144316866994" lon="7.955799233168364">
        <ele>1481.53</ele>
        <time>2013-06-30T14:25:04Z</time>
      </trkpt>
      <trkpt lat="45.631018588319421" lon="7.955743912607431">
        <ele>1479.6099999999999</ele>
        <time>2013-06-30T14:25:17Z</time>
      </trkpt>
      <trkpt lat="45.630950778722763" lon="7.95568909496069">
        <ele>1478.6500000000001</ele>
        <time>2013-06-30T14:25:31Z</time>
      </trkpt>
      <trkpt lat="45.630960166454315" lon="7.955711642280221">
        <ele>1477.6800000000001</ele>
        <time>2013-06-30T14:25:34Z</time>
      </trkpt>
      <trkpt lat="45.631044069305062" lon="7.955823792144656">
        <ele>1475.28</ele>
        <time>2013-06-30T14:25:46Z</time>
      </trkpt>
      <trkpt lat="45.631122691556811" lon="7.955981371924281">
        <ele>1472.8800000000001</ele>
        <time>2013-06-30T14:26:00Z</time>
      </trkpt>
      <trkpt lat="45.631149346008897" lon="7.956026466563344">
        <ele>1471.9200000000001</ele>
        <time>2013-06-30T14:26:04Z</time>
      </trkpt>
      <trkpt lat="45.631199553608894" lon="7.956160409376025">
        <ele>1469.99</ele>
        <time>2013-06-30T14:26:15Z</time>
      </trkpt>
      <trkpt lat="45.631222017109394" lon="7.95623199082911">
        <ele>1469.51</ele>
        <time>2013-06-30T14:26:20Z</time>
      </trkpt>
      <trkpt lat="45.631227549165487" lon="7.956260154023767">
        <ele>1469.51</ele>
        <time>2013-06-30T14:26:22Z</time>
      </trkpt>
      <trkpt lat="45.631237775087357" lon="7.956490404903889">
        <ele>1466.6300000000001</ele>
        <time>2013-06-30T14:26:39Z</time>
      </trkpt>
      <trkpt lat="45.631250934675336" lon="7.956565087661147">
        <ele>1466.1500000000001</ele>
        <time>2013-06-30T14:26:44Z</time>
      </trkpt>
      <trkpt lat="45.631254622712731" lon="7.956697102636099">
        <ele>1465.1900000000001</ele>
        <time>2013-06-30T14:26:53Z</time>
      </trkpt>
      <trkpt lat="45.631229979917407" lon="7.956782262772322">
        <ele>1462.78</ele>
        <time>2013-06-30T14:27:00Z</time>
      </trkpt>
      <trkpt lat="45.631177593022585" lon="7.956830207258463">
        <ele>1461.8199999999999</ele>
        <time>2013-06-30T14:27:14Z</time>
      </trkpt>
      <trkpt lat="45.631087990477681" lon="7.956888461485505">
        <ele>1459.4200000000001</ele>
        <time>2013-06-30T14:27:27Z</time>
      </trkpt>
      <trkpt lat="45.631064688786864" lon="7.956921067088842">
        <ele>1458.9400000000001</ele>
        <time>2013-06-30T14:27:31Z</time>
      </trkpt>
      <trkpt lat="45.630966788157821" lon="7.957003964111209">
        <ele>1455.5699999999999</ele>
        <time>2013-06-30T14:27:43Z</time>
      </trkpt>
      <trkpt lat="45.630927979946136" lon="7.957031540572643">
        <ele>1455.5699999999999</ele>
        <time>2013-06-30T14:27:54Z</time>
      </trkpt>
      <trkpt lat="45.630847346037626" lon="7.957082418724895">
        <ele>1453.1700000000001</ele>
        <time>2013-06-30T14:28:03Z</time>
      </trkpt>
      <trkpt lat="45.630743326619267" lon="7.957121226936579">
        <ele>1449.8099999999999</ele>
        <time>2013-06-30T14:28:16Z</time>
      </trkpt>
      <trkpt lat="45.63072731718421" lon="7.957118125632405">
        <ele>1449.3199999999999</ele>
        <time>2013-06-30T14:28:18Z</time>
      </trkpt>
      <trkpt lat="45.630709882825613" lon="7.957110414281488">
        <ele>1448.8399999999999</ele>
        <time>2013-06-30T14:28:20Z</time>
      </trkpt>
      <trkpt lat="45.630667470395565" lon="7.957213846966624">
        <ele>1446.4400000000001</ele>
        <time>2013-06-30T14:28:36Z</time>
      </trkpt>
      <trkpt lat="45.63067015260458" lon="7.957358183339238">
        <ele>1445.48</ele>
        <time>2013-06-30T14:28:51Z</time>
      </trkpt>
      <trkpt lat="45.630655065178871" lon="7.95742716640234">
        <ele>1444.52</ele>
        <time>2013-06-30T14:28:57Z</time>
      </trkpt>
      <trkpt lat="45.630628997460008" lon="7.957488354295492">
        <ele>1443.5599999999999</ele>
        <time>2013-06-30T14:29:02Z</time>
      </trkpt>
      <trkpt lat="45.6306466832757" lon="7.957642581313849">
        <ele>1444.04</ele>
        <time>2013-06-30T14:29:13Z</time>
      </trkpt>
      <trkpt lat="45.630662189796567" lon="7.957860510796309">
        <ele>1441.6300000000001</ele>
        <time>2013-06-30T14:29:28Z</time>
      </trkpt>
      <trkpt lat="45.630656238645315" lon="7.957988921552897">
        <ele>1438.27</ele>
        <time>2013-06-30T14:29:43Z</time>
      </trkpt>
      <trkpt lat="45.630615502595901" lon="7.958094952628017">
        <ele>1437.3099999999999</ele>
        <time>2013-06-30T14:29:59Z</time>
      </trkpt>
      <trkpt lat="45.630620364099741" lon="7.958212550729513">
        <ele>1435.3900000000001</ele>
        <time>2013-06-30T14:30:11Z</time>
      </trkpt>
      <trkpt lat="45.630570240318775" lon="7.95837658457458">
        <ele>1432.98</ele>
        <time>2013-06-30T14:30:27Z</time>
      </trkpt>
      <trkpt lat="45.630513662472367" lon="7.958499966189265">
        <ele>1431.0599999999999</ele>
        <time>2013-06-30T14:30:38Z</time>
      </trkpt>
      <trkpt lat="45.630437387153506" lon="7.958687469363213">
        <ele>1427.7</ele>
        <time>2013-06-30T14:30:53Z</time>
      </trkpt>
      <trkpt lat="45.630344850942492" lon="7.958842953667045">
        <ele>1424.8099999999999</ele>
        <time>2013-06-30T14:31:08Z</time>
      </trkpt>
      <trkpt lat="45.630286512896419" lon="7.958994079381228">
        <ele>1422.8900000000001</ele>
        <time>2013-06-30T14:31:21Z</time>
      </trkpt>
      <trkpt lat="45.630240244790912" lon="7.959141936153173">
        <ele>1421.45</ele>
        <time>2013-06-30T14:31:34Z</time>
      </trkpt>
      <trkpt lat="45.630196910351515" lon="7.959220893681049">
        <ele>1420</ele>
        <time>2013-06-30T14:31:41Z</time>
      </trkpt>
      <trkpt lat="45.630123820155859" lon="7.959372270852327">
        <ele>1418.0799999999999</ele>
        <time>2013-06-30T14:31:55Z</time>
      </trkpt>
      <trkpt lat="45.630115438252687" lon="7.959382412955165">
        <ele>1417.5999999999999</ele>
        <time>2013-06-30T14:31:56Z</time>
      </trkpt>
      <trkpt lat="45.630081491544843" lon="7.95944762416184">
        <ele>1416.6400000000001</ele>
        <time>2013-06-30T14:32:01Z</time>
      </trkpt>
      <trkpt lat="45.630058357492089" lon="7.959509482607245">
        <ele>1416.1600000000001</ele>
        <time>2013-06-30T14:32:06Z</time>
      </trkpt>
      <trkpt lat="45.629974203184247" lon="7.959659602493048">
        <ele>1412.79</ele>
        <time>2013-06-30T14:32:21Z</time>
      </trkpt>
      <trkpt lat="45.629885690286756" lon="7.959846267476678">
        <ele>1410.3900000000001</ele>
        <time>2013-06-30T14:32:37Z</time>
      </trkpt>
      <trkpt lat="45.62991033308208" lon="7.959964955225587">
        <ele>1409.4300000000001</ele>
        <time>2013-06-30T14:32:47Z</time>
      </trkpt>
      <trkpt lat="45.629931623116136" lon="7.960039637982845">
        <ele>1408.95</ele>
        <time>2013-06-30T14:33:01Z</time>
      </trkpt>
      <trkpt lat="45.629927515983582" lon="7.960037877783179">
        <ele>1408.47</ele>
        <time>2013-06-30T14:33:12Z</time>
      </trkpt>
      <trkpt lat="45.62989273108542" lon="7.960229907184839">
        <ele>1407.51</ele>
        <time>2013-06-30T14:33:24Z</time>
      </trkpt>
      <trkpt lat="45.629882086068392" lon="7.960292436182499">
        <ele>1406.55</ele>
        <time>2013-06-30T14:33:29Z</time>
      </trkpt>
      <trkpt lat="45.629855850711465" lon="7.960333339869976">
        <ele>1406.0699999999999</ele>
        <time>2013-06-30T14:33:41Z</time>
      </trkpt>
      <trkpt lat="45.629848558455706" lon="7.960342057049274">
        <ele>1406.0699999999999</ele>
        <time>2013-06-30T14:34:01Z</time>
      </trkpt>
      <trkpt lat="45.629843194037676" lon="7.960352031514049">
        <ele>1405.0999999999999</ele>
        <time>2013-06-30T14:34:24Z</time>
      </trkpt>
      <trkpt lat="45.62982190400362" lon="7.96030567958951">
        <ele>1405.5799999999999</ele>
        <time>2013-06-30T14:34:53Z</time>
      </trkpt>
      <trkpt lat="45.629821987822652" lon="7.960309619084001">
        <ele>1405.5799999999999</ele>
        <time>2013-06-30T14:35:15Z</time>
      </trkpt>
      <trkpt lat="45.629792986437678" lon="7.960322946310043">
        <ele>1405.0999999999999</ele>
        <time>2013-06-30T14:35:44Z</time>
      </trkpt>
      <trkpt lat="45.629826597869396" lon="7.960304338485003">
        <ele>1405.0999999999999</ele>
        <time>2013-06-30T14:36:05Z</time>
      </trkpt>
      <trkpt lat="45.629876051098108" lon="7.960367538034916">
        <ele>1405.5799999999999</ele>
        <time>2013-06-30T14:36:21Z</time>
      </trkpt>
      <trkpt lat="45.629843110218644" lon="7.960391426458955">
        <ele>1405.0999999999999</ele>
        <time>2013-06-30T14:36:49Z</time>
      </trkpt>
      <trkpt lat="45.629848893731833" lon="7.960366783663631">
        <ele>1405.5799999999999</ele>
        <time>2013-06-30T14:37:03Z</time>
      </trkpt>
      <trkpt lat="45.629857527092099" lon="7.960367621853948">
        <ele>1405.0999999999999</ele>
        <time>2013-06-30T14:37:22Z</time>
      </trkpt>
      <trkpt lat="45.629872195422649" lon="7.960370220243931">
        <ele>1405.0999999999999</ele>
        <time>2013-06-30T14:37:44Z</time>
      </trkpt>
      <trkpt lat="45.629861131310463" lon="7.960344823077321">
        <ele>1404.6199999999999</ele>
        <time>2013-06-30T14:38:03Z</time>
      </trkpt>
      <trkpt lat="45.629836404696107" lon="7.960367705672979">
        <ele>1405.0999999999999</ele>
        <time>2013-06-30T14:38:34Z</time>
      </trkpt>
      <trkpt lat="45.629849145188928" lon="7.960367705672979">
        <ele>1404.6199999999999</ele>
        <time>2013-06-30T14:38:57Z</time>
      </trkpt>
      <trkpt lat="45.629869597032666" lon="7.960350103676319">
        <ele>1404.6199999999999</ele>
        <time>2013-06-30T14:39:28Z</time>
      </trkpt>
      <trkpt lat="45.629895916208625" lon="7.960329316556454">
        <ele>1404.1400000000001</ele>
        <time>2013-06-30T14:39:53Z</time>
      </trkpt>
      <trkpt lat="45.629897005856037" lon="7.960318252444267">
        <ele>1404.1400000000001</ele>
        <time>2013-06-30T14:40:14Z</time>
      </trkpt>
      <trkpt lat="45.629921900108457" lon="7.960340213030577">
        <ele>1405.0999999999999</ele>
        <time>2013-06-30T14:40:48Z</time>
      </trkpt>
      <trkpt lat="45.629916284233332" lon="7.960349349305034">
        <ele>1404.6199999999999</ele>
        <time>2013-06-30T14:41:09Z</time>
      </trkpt>
      <trkpt lat="45.629907986149192" lon="7.96033694408834">
        <ele>1404.6199999999999</ele>
        <time>2013-06-30T14:41:37Z</time>
      </trkpt>
      <trkpt lat="45.629921900108457" lon="7.960347924381495">
        <ele>1404.6199999999999</ele>
        <time>2013-06-30T14:42:08Z</time>
      </trkpt>
      <trkpt lat="45.629950230941176" lon="7.96036284416914">
        <ele>1405.0999999999999</ele>
        <time>2013-06-30T14:42:39Z</time>
      </trkpt>
      <trkpt lat="45.629987781867385" lon="7.960325293242931">
        <ele>1405.0999999999999</ele>
        <time>2013-06-30T14:43:08Z</time>
      </trkpt>
      <trkpt lat="45.629976885393262" lon="7.960359491407871">
        <ele>1405.0999999999999</ele>
        <time>2013-06-30T14:43:33Z</time>
      </trkpt>
      <trkpt lat="45.629994738847017" lon="7.960347002372146">
        <ele>1405.0999999999999</ele>
        <time>2013-06-30T14:43:53Z</time>
      </trkpt>
      <trkpt lat="45.629986524581909" lon="7.960318420082331">
        <ele>1405.0999999999999</ele>
        <time>2013-06-30T14:44:17Z</time>
      </trkpt>
      <trkpt lat="45.629991805180907" lon="7.960336776450276">
        <ele>1404.6199999999999</ele>
        <time>2013-06-30T14:44:33Z</time>
      </trkpt>
      <trkpt lat="45.630007227882743" lon="7.960326885804534">
        <ele>1405.0999999999999</ele>
        <time>2013-06-30T14:44:56Z</time>
      </trkpt>
      <trkpt lat="45.630000187084079" lon="7.960336692631245">
        <ele>1405.0999999999999</ele>
        <time>2013-06-30T14:45:22Z</time>
      </trkpt>
      <trkpt lat="45.63003446906805" lon="7.960349265486002">
        <ele>1405.0999999999999</ele>
        <time>2013-06-30T14:45:41Z</time>
      </trkpt>
      <trkpt lat="45.630061123520136" lon="7.960339291021228">
        <ele>1405.0999999999999</ele>
        <time>2013-06-30T14:46:08Z</time>
      </trkpt>
      <trkpt lat="45.630079647526145" lon="7.960321437567473">
        <ele>1405.0999999999999</ele>
        <time>2013-06-30T14:46:29Z</time>
      </trkpt>
      <trkpt lat="45.630102446302772" lon="7.96034817583859">
        <ele>1405.5799999999999</ele>
        <time>2013-06-30T14:46:44Z</time>
      </trkpt>
      <trkpt lat="45.629963306710124" lon="7.960375668480992">
        <ele>1406.0699999999999</ele>
        <time>2013-06-30T14:46:55Z</time>
      </trkpt>
      <trkpt lat="45.629950650036335" lon="7.960304170846939">
        <ele>1406.55</ele>
        <time>2013-06-30T14:47:13Z</time>
      </trkpt>
      <trkpt lat="45.629929276183248" lon="7.960272403433919">
        <ele>1406.55</ele>
        <time>2013-06-30T14:47:23Z</time>
      </trkpt>
      <trkpt lat="45.629914440214634" lon="7.960294028744102">
        <ele>1406.55</ele>
        <time>2013-06-30T14:47:36Z</time>
      </trkpt>
      <trkpt lat="45.629898430779576" lon="7.960306098684669">
        <ele>1406.55</ele>
        <time>2013-06-30T14:47:51Z</time>
      </trkpt>
      <trkpt lat="45.629883762449026" lon="7.960359994322062">
        <ele>1406.0699999999999</ele>
        <time>2013-06-30T14:47:55Z</time>
      </trkpt>
      <trkpt lat="45.629886109381914" lon="7.96042688190937">
        <ele>1405.5799999999999</ele>
        <time>2013-06-30T14:48:02Z</time>
      </trkpt>
      <trkpt lat="45.629875883460045" lon="7.960524363443255">
        <ele>1405.0999999999999</ele>
        <time>2013-06-30T14:48:08Z</time>
      </trkpt>
      <trkpt lat="45.629874123260379" lon="7.960544228553772">
        <ele>1405.0999999999999</ele>
        <time>2013-06-30T14:48:09Z</time>
      </trkpt>
      <trkpt lat="45.629876721650362" lon="7.960563339293003">
        <ele>1405.0999999999999</ele>
        <time>2013-06-30T14:48:10Z</time>
      </trkpt>
      <trkpt lat="45.62989566475153" lon="7.960763080045581">
        <ele>1404.1400000000001</ele>
        <time>2013-06-30T14:48:22Z</time>
      </trkpt>
      <trkpt lat="45.629913937300444" lon="7.961045801639557">
        <ele>1403.1800000000001</ele>
        <time>2013-06-30T14:48:39Z</time>
      </trkpt>
      <trkpt lat="45.629921397194266" lon="7.961125764995813">
        <ele>1403.1800000000001</ele>
        <time>2013-06-30T14:48:45Z</time>
      </trkpt>
      <trkpt lat="45.6299386639148" lon="7.961233891546726">
        <ele>1403.1800000000001</ele>
        <time>2013-06-30T14:48:53Z</time>
      </trkpt>
      <trkpt lat="45.629931036382914" lon="7.961267502978444">
        <ele>1402.7</ele>
        <time>2013-06-30T14:48:56Z</time>
      </trkpt>
      <trkpt lat="45.629925839602947" lon="7.961484678089619">
        <ele>1402.22</ele>
        <time>2013-06-30T14:49:09Z</time>
      </trkpt>
      <trkpt lat="45.629949644207954" lon="7.961574448272586">
        <ele>1402.22</ele>
        <time>2013-06-30T14:49:16Z</time>
      </trkpt>
      <trkpt lat="45.629948722198606" lon="7.961592553183436">
        <ele>1402.22</ele>
        <time>2013-06-30T14:49:17Z</time>
      </trkpt>
      <trkpt lat="45.629977220669389" lon="7.961834454908967">
        <ele>1401.74</ele>
        <time>2013-06-30T14:49:32Z</time>
      </trkpt>
      <trkpt lat="45.629931958392262" lon="7.96208524145186">
        <ele>1399.3399999999999</ele>
        <time>2013-06-30T14:49:48Z</time>
      </trkpt>
      <trkpt lat="45.629856437444687" lon="7.962298728525639">
        <ele>1397.4100000000001</ele>
        <time>2013-06-30T14:50:04Z</time>
      </trkpt>
      <trkpt lat="45.629792986437678" lon="7.962465779855847">
        <ele>1396.45</ele>
        <time>2013-06-30T14:50:16Z</time>
      </trkpt>
      <trkpt lat="45.629780078306794" lon="7.962517915293574">
        <ele>1395.97</ele>
        <time>2013-06-30T14:50:30Z</time>
      </trkpt>
      <trkpt lat="45.629789382219315" lon="7.962526883929968">
        <ele>1395.97</ele>
        <time>2013-06-30T14:50:42Z</time>
      </trkpt>
      <trkpt lat="45.629798853769898" lon="7.962547838687897">
        <ele>1395.49</ele>
        <time>2013-06-30T14:50:45Z</time>
      </trkpt>
      <trkpt lat="45.629819808527827" lon="7.962584299966693">
        <ele>1395.97</ele>
        <time>2013-06-30T14:50:47Z</time>
      </trkpt>
      <trkpt lat="45.629963222891092" lon="7.962613636627793">
        <ele>1394.53</ele>
        <time>2013-06-30T14:51:00Z</time>
      </trkpt>
      <trkpt lat="45.630149887874722" lon="7.962528895586729">
        <ele>1393.0899999999999</ele>
        <time>2013-06-30T14:51:16Z</time>
      </trkpt>
      <trkpt lat="45.630296068266034" lon="7.962527554482222">
        <ele>1392.6099999999999</ele>
        <time>2013-06-30T14:51:29Z</time>
      </trkpt>
      <trkpt lat="45.63038676045835" lon="7.96268287114799">
        <ele>1391.6500000000001</ele>
        <time>2013-06-30T14:51:43Z</time>
      </trkpt>
      <trkpt lat="45.630451384931803" lon="7.962831817567349">
        <ele>1391.1700000000001</ele>
        <time>2013-06-30T14:51:54Z</time>
      </trkpt>
      <trkpt lat="45.630463371053338" lon="7.963075395673513">
        <ele>1389.72</ele>
        <time>2013-06-30T14:52:09Z</time>
      </trkpt>
      <trkpt lat="45.63043269328773" lon="7.963320398703218">
        <ele>1388.28</ele>
        <time>2013-06-30T14:52:24Z</time>
      </trkpt>
      <trkpt lat="45.630448199808598" lon="7.963410671800375">
        <ele>1387.3199999999999</ele>
        <time>2013-06-30T14:52:30Z</time>
      </trkpt>
      <trkpt lat="45.630512405186892" lon="7.963611586019397">
        <ele>1386.3599999999999</ele>
        <time>2013-06-30T14:52:44Z</time>
      </trkpt>
      <trkpt lat="45.630515338853002" lon="7.963667577132583">
        <ele>1385.8800000000001</ele>
        <time>2013-06-30T14:52:47Z</time>
      </trkpt>
      <trkpt lat="45.630540903657675" lon="7.963801771402359">
        <ele>1384.9200000000001</ele>
        <time>2013-06-30T14:52:55Z</time>
      </trkpt>
      <trkpt lat="45.630587842315435" lon="7.963939737528563">
        <ele>1383.96</ele>
        <time>2013-06-30T14:53:04Z</time>
      </trkpt>
      <trkpt lat="45.630603265017271" lon="7.963988017290831">
        <ele>1383.47</ele>
        <time>2013-06-30T14:53:07Z</time>
      </trkpt>
      <trkpt lat="45.630684737116098" lon="7.96412137337029">
        <ele>1382.51</ele>
        <time>2013-06-30T14:53:19Z</time>
      </trkpt>
      <trkpt lat="45.630707200616598" lon="7.964150374755263">
        <ele>1381.55</ele>
        <time>2013-06-30T14:53:22Z</time>
      </trkpt>
      <trkpt lat="45.630770735442638" lon="7.964280797168613">
        <ele>1381.0699999999999</ele>
        <time>2013-06-30T14:53:32Z</time>
      </trkpt>
      <trkpt lat="45.630783392116427" lon="7.964500654488802">
        <ele>1379.6300000000001</ele>
        <time>2013-06-30T14:53:47Z</time>
      </trkpt>
      <trkpt lat="45.63082505017519" lon="7.964665358886123">
        <ele>1378.1900000000001</ele>
        <time>2013-06-30T14:53:59Z</time>
      </trkpt>
      <trkpt lat="45.630803424865007" lon="7.96474046073854">
        <ele>1378.1900000000001</ele>
        <time>2013-06-30T14:54:03Z</time>
      </trkpt>
      <trkpt lat="45.630808034911752" lon="7.96491782180965">
        <ele>1377.23</ele>
        <time>2013-06-30T14:54:14Z</time>
      </trkpt>
      <trkpt lat="45.630884561687708" lon="7.965143378823996">
        <ele>1375.3</ele>
        <time>2013-06-30T14:54:29Z</time>
      </trkpt>
      <trkpt lat="45.630943486467004" lon="7.965273633599281">
        <ele>1374.3399999999999</ele>
        <time>2013-06-30T14:54:38Z</time>
      </trkpt>
      <trkpt lat="45.631017498672009" lon="7.965516457334161">
        <ele>1372.9000000000001</ele>
        <time>2013-06-30T14:54:55Z</time>
      </trkpt>
      <trkpt lat="45.631068795919418" lon="7.965586949139834">
        <ele>1372.4200000000001</ele>
        <time>2013-06-30T14:55:00Z</time>
      </trkpt>
      <trkpt lat="45.631166445091367" lon="7.965867659077048">
        <ele>1370.5</ele>
        <time>2013-06-30T14:55:18Z</time>
      </trkpt>
      <trkpt lat="45.631164684891701" lon="7.966066058725119">
        <ele>1369.54</ele>
        <time>2013-06-30T14:55:29Z</time>
      </trkpt>
      <trkpt lat="45.63115831464529" lon="7.96629773452878">
        <ele>1368.0899999999999</ele>
        <time>2013-06-30T14:55:42Z</time>
      </trkpt>
      <trkpt lat="45.631156135350466" lon="7.966347271576524">
        <ele>1367.6099999999999</ele>
        <time>2013-06-30T14:55:45Z</time>
      </trkpt>
      <trkpt lat="45.631152866408229" lon="7.966402424499393">
        <ele>1367.1300000000001</ele>
        <time>2013-06-30T14:55:48Z</time>
      </trkpt>
      <trkpt lat="45.631144735962152" lon="7.966456990689039">
        <ele>1366.6500000000001</ele>
        <time>2013-06-30T14:55:52Z</time>
      </trkpt>
      <trkpt lat="45.631217658519745" lon="7.9666040930897">
        <ele>1364.73</ele>
        <time>2013-06-30T14:56:04Z</time>
      </trkpt>
      <trkpt lat="45.631259987130761" lon="7.96667693182826">
        <ele>1363.77</ele>
        <time>2013-06-30T14:56:10Z</time>
      </trkpt>
      <trkpt lat="45.631318241357803" lon="7.966853203251958">
        <ele>1362.8099999999999</ele>
        <time>2013-06-30T14:56:22Z</time>
      </trkpt>
      <trkpt lat="45.631322599947453" lon="7.966990917921066">
        <ele>1361.3599999999999</ele>
        <time>2013-06-30T14:56:31Z</time>
      </trkpt>
      <trkpt lat="45.631337687373161" lon="7.967229969799519">
        <ele>1358.96</ele>
        <time>2013-06-30T14:56:47Z</time>
      </trkpt>
      <trkpt lat="45.631361659616232" lon="7.967347986996174">
        <ele>1358</ele>
        <time>2013-06-30T14:56:54Z</time>
      </trkpt>
      <trkpt lat="45.631326790899038" lon="7.96742501668632">
        <ele>1357.52</ele>
        <time>2013-06-30T14:56:58Z</time>
      </trkpt>
      <trkpt lat="45.631317486986518" lon="7.967530461028218">
        <ele>1356.0799999999999</ele>
        <time>2013-06-30T14:57:07Z</time>
      </trkpt>
      <trkpt lat="45.631397031247616" lon="7.967773536220193">
        <ele>1353.6700000000001</ele>
        <time>2013-06-30T14:57:22Z</time>
      </trkpt>
      <trkpt lat="45.631512450054288" lon="7.967959865927696">
        <ele>1351.75</ele>
        <time>2013-06-30T14:57:34Z</time>
      </trkpt>
      <trkpt lat="45.631624599918723" lon="7.968164384365082">
        <ele>1349.8299999999999</ele>
        <time>2013-06-30T14:57:46Z</time>
      </trkpt>
      <trkpt lat="45.631631137803197" lon="7.968356916680932">
        <ele>1347.9100000000001</ele>
        <time>2013-06-30T14:58:00Z</time>
      </trkpt>
      <trkpt lat="45.631627701222897" lon="7.968586161732674">
        <ele>1345.98</ele>
        <time>2013-06-30T14:58:17Z</time>
      </trkpt>
      <trkpt lat="45.631636334583163" lon="7.968858741223812">
        <ele>1342.1400000000001</ele>
        <time>2013-06-30T14:58:32Z</time>
      </trkpt>
      <trkpt lat="45.631661815568805" lon="7.969068624079227">
        <ele>1339.73</ele>
        <time>2013-06-30T14:58:48Z</time>
      </trkpt>
      <trkpt lat="45.631692158058286" lon="7.969238860532641">
        <ele>1338.77</ele>
        <time>2013-06-30T14:58:57Z</time>
      </trkpt>
      <trkpt lat="45.631692493334413" lon="7.969255121424794">
        <ele>1338.77</ele>
        <time>2013-06-30T14:58:58Z</time>
      </trkpt>
      <trkpt lat="45.631702551618218" lon="7.969390070065856">
        <ele>1337.3299999999999</ele>
        <time>2013-06-30T14:59:07Z</time>
      </trkpt>
      <trkpt lat="45.631722752004862" lon="7.969668265432119">
        <ele>1333.97</ele>
        <time>2013-06-30T14:59:22Z</time>
      </trkpt>
      <trkpt lat="45.631680758669972" lon="7.969905221834779">
        <ele>1331.5599999999999</ele>
        <time>2013-06-30T14:59:37Z</time>
      </trkpt>
      <trkpt lat="45.631672209128737" lon="7.970132203772664">
        <ele>1328.6800000000001</ele>
        <time>2013-06-30T14:59:52Z</time>
      </trkpt>
      <trkpt lat="45.631589898839593" lon="7.970394808799028">
        <ele>1327.72</ele>
        <time>2013-06-30T15:00:09Z</time>
      </trkpt>
      <trkpt lat="45.631551593542099" lon="7.970521040260792">
        <ele>1326.76</ele>
        <time>2013-06-30T15:00:19Z</time>
      </trkpt>
      <trkpt lat="45.631536841392517" lon="7.970712566748262">
        <ele>1326.28</ele>
        <time>2013-06-30T15:00:34Z</time>
      </trkpt>
      <trkpt lat="45.63153407536447" lon="7.971007190644741">
        <ele>1325.3099999999999</ele>
        <time>2013-06-30T15:00:50Z</time>
      </trkpt>
      <trkpt lat="45.631508091464639" lon="7.971045579761267">
        <ele>1325.3099999999999</ele>
        <time>2013-06-30T15:00:54Z</time>
      </trkpt>
      <trkpt lat="45.63137917779386" lon="7.971145324409008">
        <ele>1324.8299999999999</ele>
        <time>2013-06-30T15:01:00Z</time>
      </trkpt>
      <trkpt lat="45.63136207871139" lon="7.971347663551569">
        <ele>1324.3499999999999</ele>
        <time>2013-06-30T15:01:13Z</time>
      </trkpt>
      <trkpt lat="45.631416812539101" lon="7.971371971070766">
        <ele>1323.8699999999999</ele>
        <time>2013-06-30T15:01:14Z</time>
      </trkpt>
      <trkpt lat="45.631560059264302" lon="7.971448497846723">
        <ele>1323.8699999999999</ele>
        <time>2013-06-30T15:01:18Z</time>
      </trkpt>
      <trkpt lat="45.631702216342092" lon="7.971685957163572">
        <ele>1321.95</ele>
        <time>2013-06-30T15:01:34Z</time>
      </trkpt>
      <trkpt lat="45.631706407293677" lon="7.971699116751552">
        <ele>1321.95</ele>
        <time>2013-06-30T15:01:35Z</time>
      </trkpt>
      <trkpt lat="45.631704647094011" lon="7.971797687932849">
        <ele>1320.99</ele>
        <time>2013-06-30T15:01:42Z</time>
      </trkpt>
      <trkpt lat="45.63170506618917" lon="7.971965912729502">
        <ele>1319.55</ele>
        <time>2013-06-30T15:01:57Z</time>
      </trkpt>
      <trkpt lat="45.631694924086332" lon="7.972079906612635">
        <ele>1318.5899999999999</ele>
        <time>2013-06-30T15:02:07Z</time>
      </trkpt>
      <trkpt lat="45.631827190518379" lon="7.972285011783242">
        <ele>1318.0999999999999</ele>
        <time>2013-06-30T15:02:18Z</time>
      </trkpt>
      <trkpt lat="45.631819646805525" lon="7.972318707033992">
        <ele>1318.0999999999999</ele>
        <time>2013-06-30T15:02:20Z</time>
      </trkpt>
      <trkpt lat="45.631822664290667" lon="7.972385175526142">
        <ele>1318.0999999999999</ele>
        <time>2013-06-30T15:02:24Z</time>
      </trkpt>
      <trkpt lat="45.631841272115707" lon="7.972517106682062">
        <ele>1318.0999999999999</ele>
        <time>2013-06-30T15:02:37Z</time>
      </trkpt>
      <trkpt lat="45.631734570488334" lon="7.97256194986403">
        <ele>1318.5899999999999</ele>
        <time>2013-06-30T15:02:42Z</time>
      </trkpt>
      <trkpt lat="45.631687548011541" lon="7.972571924328804">
        <ele>1318.5899999999999</ele>
        <time>2013-06-30T15:02:43Z</time>
      </trkpt>
      <trkpt lat="45.631473977118731" lon="7.972704861313105">
        <ele>1316.6600000000001</ele>
        <time>2013-06-30T15:02:54Z</time>
      </trkpt>
      <trkpt lat="45.631452184170485" lon="7.972727743908763">
        <ele>1316.1800000000001</ele>
        <time>2013-06-30T15:02:57Z</time>
      </trkpt>
      <trkpt lat="45.631339363753796" lon="7.972886664792895">
        <ele>1313.78</ele>
        <time>2013-06-30T15:03:09Z</time>
      </trkpt>
      <trkpt lat="45.631496272981167" lon="7.973114904016256">
        <ele>1310.9000000000001</ele>
        <time>2013-06-30T15:03:22Z</time>
      </trkpt>
      <trkpt lat="45.631505325436592" lon="7.973235435783863">
        <ele>1309.45</ele>
        <time>2013-06-30T15:03:31Z</time>
      </trkpt>
      <trkpt lat="45.631440784782171" lon="7.97338136471808">
        <ele>1307.53</ele>
        <time>2013-06-30T15:03:41Z</time>
      </trkpt>
      <trkpt lat="45.631429804489017" lon="7.973387567326427">
        <ele>1307.05</ele>
        <time>2013-06-30T15:03:42Z</time>
      </trkpt>
      <trkpt lat="45.631294352933764" lon="7.973509607836604">
        <ele>1305.6099999999999</ele>
        <time>2013-06-30T15:03:52Z</time>
      </trkpt>
      <trkpt lat="45.63133324496448" lon="7.973728626966476">
        <ele>1302.24</ele>
        <time>2013-06-30T15:04:07Z</time>
      </trkpt>
      <trkpt lat="45.63131514005363" lon="7.97397505491972">
        <ele>1299.3599999999999</ele>
        <time>2013-06-30T15:04:23Z</time>
      </trkpt>
      <trkpt lat="45.631308937445283" lon="7.973986705765128">
        <ele>1299.3599999999999</ele>
        <time>2013-06-30T15:04:24Z</time>
      </trkpt>
      <trkpt lat="45.631284797564149" lon="7.9740434512496">
        <ele>1298.4000000000001</ele>
        <time>2013-06-30T15:04:28Z</time>
      </trkpt>
      <trkpt lat="45.631289156153798" lon="7.974306056275964">
        <ele>1295.99</ele>
        <time>2013-06-30T15:04:44Z</time>
      </trkpt>
      <trkpt lat="45.631296448409557" lon="7.974524237215519">
        <ele>1293.5899999999999</ele>
        <time>2013-06-30T15:04:59Z</time>
      </trkpt>
      <trkpt lat="45.631373059004545" lon="7.974784998223186">
        <ele>1291.1900000000001</ele>
        <time>2013-06-30T15:05:14Z</time>
      </trkpt>
      <trkpt lat="45.631380015984178" lon="7.974799666553736">
        <ele>1290.23</ele>
        <time>2013-06-30T15:05:15Z</time>
      </trkpt>
      <trkpt lat="45.631422428414226" lon="7.974902847781777">
        <ele>1289.27</ele>
        <time>2013-06-30T15:05:23Z</time>
      </trkpt>
      <trkpt lat="45.631431899964809" lon="7.974950540810823">
        <ele>1288.78</ele>
        <time>2013-06-30T15:05:26Z</time>
      </trkpt>
      <trkpt lat="45.631462326273322" lon="7.975183390080929">
        <ele>1285.4200000000001</ele>
        <time>2013-06-30T15:05:42Z</time>
      </trkpt>
      <trkpt lat="45.631444221362472" lon="7.975418083369732">
        <ele>1282.54</ele>
        <time>2013-06-30T15:05:59Z</time>
      </trkpt>
      <trkpt lat="45.6314651761204" lon="7.975511038675904">
        <ele>1281.5699999999999</ele>
        <time>2013-06-30T15:06:05Z</time>
      </trkpt>
      <trkpt lat="45.631485879421234" lon="7.975550601258874">
        <ele>1281.0899999999999</ele>
        <time>2013-06-30T15:06:07Z</time>
      </trkpt>
      <trkpt lat="45.631569530814886" lon="7.975816475227475">
        <ele>1278.6900000000001</ele>
        <time>2013-06-30T15:06:24Z</time>
      </trkpt>
      <trkpt lat="45.631545055657625" lon="7.975995512679219">
        <ele>1276.77</ele>
        <time>2013-06-30T15:06:35Z</time>
      </trkpt>
      <trkpt lat="45.631493423134089" lon="7.976215537637472">
        <ele>1273.8800000000001</ele>
        <time>2013-06-30T15:06:51Z</time>
      </trkpt>
      <trkpt lat="45.631342213600874" lon="7.976433383300901">
        <ele>1272.4400000000001</ele>
        <time>2013-06-30T15:07:06Z</time>
      </trkpt>
      <trkpt lat="45.631353361532092" lon="7.976472778245807">
        <ele>1271.96</ele>
        <time>2013-06-30T15:07:16Z</time>
      </trkpt>
      <trkpt lat="45.631351014599204" lon="7.976525584235787">
        <ele>1271.48</ele>
        <time>2013-06-30T15:07:23Z</time>
      </trkpt>
      <trkpt lat="45.631332490593195" lon="7.976661119610071">
        <ele>1270.04</ele>
        <time>2013-06-30T15:07:34Z</time>
      </trkpt>
      <trkpt lat="45.631337268278003" lon="7.97671627253294">
        <ele>1270.04</ele>
        <time>2013-06-30T15:07:38Z</time>
      </trkpt>
      <trkpt lat="45.631318911910057" lon="7.976751560345292">
        <ele>1270.04</ele>
        <time>2013-06-30T15:07:50Z</time>
      </trkpt>
      <trkpt lat="45.631314888596535" lon="7.97677050344646">
        <ele>1269.5599999999999</ele>
        <time>2013-06-30T15:08:07Z</time>
      </trkpt>
      <trkpt lat="45.631379093974829" lon="7.976816352456808">
        <ele>1269.0799999999999</ele>
        <time>2013-06-30T15:08:31Z</time>
      </trkpt>
      <trkpt lat="45.631385883316398" lon="7.976819705218077">
        <ele>1269.5599999999999</ele>
        <time>2013-06-30T15:09:00Z</time>
      </trkpt>
      <trkpt lat="45.631374232470989" lon="7.976881396025419">
        <ele>1268.1199999999999</ele>
        <time>2013-06-30T15:09:14Z</time>
      </trkpt>
      <trkpt lat="45.631350763142109" lon="7.976899584755302">
        <ele>1266.6700000000001</ele>
        <time>2013-06-30T15:09:19Z</time>
      </trkpt>
      <trkpt lat="45.631323773413897" lon="7.976993629708886">
        <ele>1264.75</ele>
        <time>2013-06-30T15:09:28Z</time>
      </trkpt>
      <trkpt lat="45.631325701251626" lon="7.977010644972324">
        <ele>1263.3099999999999</ele>
        <time>2013-06-30T15:09:41Z</time>
      </trkpt>
      <trkpt lat="45.63131857663393" lon="7.977027241140604">
        <ele>1263.3099999999999</ele>
        <time>2013-06-30T15:09:42Z</time>
      </trkpt>
      <trkpt lat="45.631310446187854" lon="7.977165207266808">
        <ele>1262.3499999999999</ele>
        <time>2013-06-30T15:09:55Z</time>
      </trkpt>
      <trkpt lat="45.63128680922091" lon="7.97727333381772">
        <ele>1259.9400000000001</ele>
        <time>2013-06-30T15:10:08Z</time>
      </trkpt>
      <trkpt lat="45.63129460439086" lon="7.977314237505198">
        <ele>1258.5</ele>
        <time>2013-06-30T15:10:12Z</time>
      </trkpt>
      <trkpt lat="45.63130390830338" lon="7.977361511439085">
        <ele>1257.54</ele>
        <time>2013-06-30T15:10:16Z</time>
      </trkpt>
      <trkpt lat="45.631300136446953" lon="7.977398643270135">
        <ele>1257.0599999999999</ele>
        <time>2013-06-30T15:10:19Z</time>
      </trkpt>
      <trkpt lat="45.631293850019574" lon="7.977433763444424">
        <ele>1255.6199999999999</ele>
        <time>2013-06-30T15:10:24Z</time>
      </trkpt>
      <trkpt lat="45.631274487823248" lon="7.977589750662446">
        <ele>1253.7</ele>
        <time>2013-06-30T15:10:33Z</time>
      </trkpt>
      <trkpt lat="45.631243558600545" lon="7.977679101750255">
        <ele>1252.25</ele>
        <time>2013-06-30T15:10:40Z</time>
      </trkpt>
      <trkpt lat="45.631169462576509" lon="7.977752862498164">
        <ele>1248.8900000000001</ele>
        <time>2013-06-30T15:10:52Z</time>
      </trkpt>
      <trkpt lat="45.631157560274005" lon="7.977763675153256">
        <ele>1248.4100000000001</ele>
        <time>2013-06-30T15:10:54Z</time>
      </trkpt>
      <trkpt lat="45.631085392087698" lon="7.977705672383308">
        <ele>1245.53</ele>
        <time>2013-06-30T15:11:06Z</time>
      </trkpt>
      <trkpt lat="45.630994448438287" lon="7.977745402604342">
        <ele>1242.6400000000001</ele>
        <time>2013-06-30T15:11:17Z</time>
      </trkpt>
      <trkpt lat="45.630936026573181" lon="7.977729393169284">
        <ele>1239.28</ele>
        <time>2013-06-30T15:11:29Z</time>
      </trkpt>
      <trkpt lat="45.630930243059993" lon="7.977736014872789">
        <ele>1237.8299999999999</ele>
        <time>2013-06-30T15:11:33Z</time>
      </trkpt>
      <trkpt lat="45.630888920277357" lon="7.977682370692492">
        <ele>1233.99</ele>
        <time>2013-06-30T15:11:44Z</time>
      </trkpt>
      <trkpt lat="45.630866205319762" lon="7.977670468389988">
        <ele>1233.03</ele>
        <time>2013-06-30T15:11:48Z</time>
      </trkpt>
      <trkpt lat="45.63082505017519" lon="7.977642137557268">
        <ele>1231.1099999999999</ele>
        <time>2013-06-30T15:11:54Z</time>
      </trkpt>
      <trkpt lat="45.630802419036627" lon="7.977623278275132">
        <ele>1229.6600000000001</ele>
        <time>2013-06-30T15:11:59Z</time>
      </trkpt>
      <trkpt lat="45.630806190893054" lon="7.977619841694832">
        <ele>1229.6600000000001</ele>
        <time>2013-06-30T15:12:00Z</time>
      </trkpt>
      <trkpt lat="45.630754642188549" lon="7.977609364315867">
        <ele>1225.8199999999999</ele>
        <time>2013-06-30T15:12:12Z</time>
      </trkpt>
      <trkpt lat="45.630738046020269" lon="7.977633085101843">
        <ele>1224.8599999999999</ele>
        <time>2013-06-30T15:12:16Z</time>
      </trkpt>
      <trkpt lat="45.630717258900404" lon="7.977656135335565">
        <ele>1223.9000000000001</ele>
        <time>2013-06-30T15:12:19Z</time>
      </trkpt>
      <trkpt lat="45.630682809278369" lon="7.977677760645747">
        <ele>1222.45</ele>
        <time>2013-06-30T15:12:22Z</time>
      </trkpt>
      <trkpt lat="45.630583483725786" lon="7.97772578895092">
        <ele>1220.05</ele>
        <time>2013-06-30T15:12:30Z</time>
      </trkpt>
      <trkpt lat="45.630559343844652" lon="7.977735511958599">
        <ele>1220.05</ele>
        <time>2013-06-30T15:12:33Z</time>
      </trkpt>
      <trkpt lat="45.63046345487237" lon="7.97767985612154">
        <ele>1219.5699999999999</ele>
        <time>2013-06-30T15:12:46Z</time>
      </trkpt>
      <trkpt lat="45.630326326936483" lon="7.977614896371961">
        <ele>1219.5699999999999</ele>
        <time>2013-06-30T15:12:57Z</time>
      </trkpt>
      <trkpt lat="45.630296068266034" lon="7.977606682106853">
        <ele>1218.6099999999999</ele>
        <time>2013-06-30T15:13:11Z</time>
      </trkpt>
      <trkpt lat="45.630266228690743" lon="7.977625206112862">
        <ele>1219.5699999999999</ele>
        <time>2013-06-30T15:13:15Z</time>
      </trkpt>
      <trkpt lat="45.630061542615294" lon="7.977631660178304">
        <ele>1218.6099999999999</ele>
        <time>2013-06-30T15:13:33Z</time>
      </trkpt>
      <trkpt lat="45.629910165444016" lon="7.977617997676134">
        <ele>1217.1700000000001</ele>
        <time>2013-06-30T15:13:48Z</time>
      </trkpt>
      <trkpt lat="45.629714699462056" lon="7.977661415934563">
        <ele>1216.21</ele>
        <time>2013-06-30T15:14:05Z</time>
      </trkpt>
      <trkpt lat="45.62966700643301" lon="7.977668540552259">
        <ele>1215.72</ele>
        <time>2013-06-30T15:14:12Z</time>
      </trkpt>
      <trkpt lat="45.629643453285098" lon="7.977633001282811">
        <ele>1216.21</ele>
        <time>2013-06-30T15:14:16Z</time>
      </trkpt>
      <trkpt lat="45.629619900137186" lon="7.977585643529892">
        <ele>1216.6900000000001</ele>
        <time>2013-06-30T15:14:20Z</time>
      </trkpt>
      <trkpt lat="45.629536164924502" lon="7.977424627169967">
        <ele>1217.6500000000001</ele>
        <time>2013-06-30T15:14:33Z</time>
      </trkpt>
      <trkpt lat="45.629513198509812" lon="7.977373665198684">
        <ele>1218.1300000000001</ele>
        <time>2013-06-30T15:14:37Z</time>
      </trkpt>
      <trkpt lat="45.629415633156896" lon="7.977179791778326">
        <ele>1219.5699999999999</ele>
        <time>2013-06-30T15:14:50Z</time>
      </trkpt>
      <trkpt lat="45.629350421950221" lon="7.977046351879835">
        <ele>1220.53</ele>
        <time>2013-06-30T15:15:00Z</time>
      </trkpt>
      <trkpt lat="45.629267441108823" lon="7.976940404623747">
        <ele>1221.97</ele>
        <time>2013-06-30T15:15:12Z</time>
      </trkpt>
      <trkpt lat="45.629137186333537" lon="7.976780645549297">
        <ele>1222.9300000000001</ele>
        <time>2013-06-30T15:15:27Z</time>
      </trkpt>
      <trkpt lat="45.629069712013006" lon="7.976551987230778">
        <ele>1224.3800000000001</ele>
        <time>2013-06-30T15:15:40Z</time>
      </trkpt>
      <trkpt lat="45.629066862165928" lon="7.976508904248476">
        <ele>1224.3800000000001</ele>
        <time>2013-06-30T15:15:42Z</time>
      </trkpt>
      <trkpt lat="45.628946665674448" lon="7.976297764107585">
        <ele>1223.9000000000001</ele>
        <time>2013-06-30T15:15:59Z</time>
      </trkpt>
      <trkpt lat="45.628859996795654" lon="7.976207658648491">
        <ele>1224.3800000000001</ele>
        <time>2013-06-30T15:16:08Z</time>
      </trkpt>
      <trkpt lat="45.628848345950246" lon="7.976030213758349">
        <ele>1224.8599999999999</ele>
        <time>2013-06-30T15:16:19Z</time>
      </trkpt>
      <trkpt lat="45.62887248583138" lon="7.975972797721624">
        <ele>1225.8199999999999</ele>
        <time>2013-06-30T15:16:31Z</time>
      </trkpt>
      <trkpt lat="45.628857649862766" lon="7.975964499637485">
        <ele>1225.3399999999999</ele>
        <time>2013-06-30T15:16:43Z</time>
      </trkpt>
      <trkpt lat="45.628849435597658" lon="7.976004481315613">
        <ele>1224.8599999999999</ele>
        <time>2013-06-30T15:16:56Z</time>
      </trkpt>
      <trkpt lat="45.628836024552584" lon="7.975989729166031">
        <ele>1224.8599999999999</ele>
        <time>2013-06-30T15:17:00Z</time>
      </trkpt>
      <trkpt lat="45.628809202462435" lon="7.975956704467535">
        <ele>1225.3399999999999</ele>
        <time>2013-06-30T15:17:03Z</time>
      </trkpt>
      <trkpt lat="45.628779698163271" lon="7.975942622870207">
        <ele>1225.3399999999999</ele>
        <time>2013-06-30T15:17:14Z</time>
      </trkpt>
      <trkpt lat="45.628821356222034" lon="7.976151080802083">
        <ele>1223.9000000000001</ele>
        <time>2013-06-30T15:17:30Z</time>
      </trkpt>
      <trkpt lat="45.628826720640063" lon="7.976189386099577">
        <ele>1223.9000000000001</ele>
        <time>2013-06-30T15:17:33Z</time>
      </trkpt>
      <trkpt lat="45.628863098099828" lon="7.976240599527955">
        <ele>1223.4200000000001</ele>
        <time>2013-06-30T15:17:46Z</time>
      </trkpt>
      <trkpt lat="45.62886611558497" lon="7.976278821006417">
        <ele>1222.9300000000001</ele>
        <time>2013-06-30T15:18:03Z</time>
      </trkpt>
    </trkseg>
  </trk>

</gpx>